<?xml version="1.0" encoding="UTF-8" standalone="no" ?>
<gpx xmlns="http://www.topografix.com/GPX/1/1" xmlns:xsi="http://www.w3.org/2001/XMLSchema-instance" xsi:schemaLocation="http://www.topografix.com/GPX/1/1 http://www.topografix.com/GPX/1/1/gpx.xsd" version="1.1" creator="VisuGPX - https://www.visugpx.com">
  <metadata>
    <name>VTT du mercredi 28 novembre 2018</name>
    <desc><![CDATA[On avait décidé de partir l'après-midi à cause de la pluie du matin.
Une sortie évitant les passages boueux, sous un temps humide et froid, et dont le seul intérêt était d'être adaptée à mon manque d'énergie (merci à mes 3 compagnons qui ont supporté ma lenteur).
Parcous médiocre : 20.66 km de routes goudronnées dont le Courlis, durée 1h41.]]></desc>
  </metadata>
  <wpt lat="47.68625" lon="6.04546">
    <ele>229</ele>
    <name><![CDATA[0000079]]></name>
  </wpt>
  <wpt lat="47.68626" lon="6.0455">
    <ele>229</ele>
    <name><![CDATA[0000080]]></name>
  </wpt>
  <trk>
    <name><![CDATA[2018-11-28 13:39]]></name>
    <trkseg>
      <trkpt lat="47.68625" lon="6.04546">
        <ele>229</ele>
        <time>2018-11-28T12:39:00Z</time>
      </trkpt>
      <trkpt lat="47.68626" lon="6.04538">
        <ele>229</ele>
        <time>2018-11-28T12:41:05Z</time>
      </trkpt>
      <trkpt lat="47.68628" lon="6.0453">
        <ele>229</ele>
        <time>2018-11-28T12:41:09Z</time>
      </trkpt>
      <trkpt lat="47.68625" lon="6.04522">
        <ele>229</ele>
        <time>2018-11-28T12:41:12Z</time>
      </trkpt>
      <trkpt lat="47.6862" lon="6.04516">
        <ele>228</ele>
        <time>2018-11-28T12:41:14Z</time>
      </trkpt>
      <trkpt lat="47.6861" lon="6.04509">
        <ele>228</ele>
        <time>2018-11-28T12:41:16Z</time>
      </trkpt>
      <trkpt lat="47.68602" lon="6.04504">
        <ele>227</ele>
        <time>2018-11-28T12:41:18Z</time>
      </trkpt>
      <trkpt lat="47.68598" lon="6.04501">
        <ele>226</ele>
        <time>2018-11-28T12:41:19Z</time>
      </trkpt>
      <trkpt lat="47.68593" lon="6.04497">
        <ele>224</ele>
        <time>2018-11-28T12:41:20Z</time>
      </trkpt>
      <trkpt lat="47.68589" lon="6.04494">
        <ele>224</ele>
        <time>2018-11-28T12:41:21Z</time>
      </trkpt>
      <trkpt lat="47.68584" lon="6.0449">
        <ele>224</ele>
        <time>2018-11-28T12:41:22Z</time>
      </trkpt>
      <trkpt lat="47.6858" lon="6.04487">
        <ele>222</ele>
        <time>2018-11-28T12:41:23Z</time>
      </trkpt>
      <trkpt lat="47.68574" lon="6.04484">
        <ele>222</ele>
        <time>2018-11-28T12:41:24Z</time>
      </trkpt>
      <trkpt lat="47.68569" lon="6.0448">
        <ele>221</ele>
        <time>2018-11-28T12:41:25Z</time>
      </trkpt>
      <trkpt lat="47.68564" lon="6.04476">
        <ele>221</ele>
        <time>2018-11-28T12:41:26Z</time>
      </trkpt>
      <trkpt lat="47.68558" lon="6.04472">
        <ele>221</ele>
        <time>2018-11-28T12:41:27Z</time>
      </trkpt>
      <trkpt lat="47.68553" lon="6.04468">
        <ele>220</ele>
        <time>2018-11-28T12:41:28Z</time>
      </trkpt>
      <trkpt lat="47.68547" lon="6.04464">
        <ele>220</ele>
        <time>2018-11-28T12:41:29Z</time>
      </trkpt>
      <trkpt lat="47.68542" lon="6.0446">
        <ele>220</ele>
        <time>2018-11-28T12:41:30Z</time>
      </trkpt>
      <trkpt lat="47.68537" lon="6.04457">
        <ele>220</ele>
        <time>2018-11-28T12:41:31Z</time>
      </trkpt>
      <trkpt lat="47.68532" lon="6.04453">
        <ele>220</ele>
        <time>2018-11-28T12:41:32Z</time>
      </trkpt>
      <trkpt lat="47.68526" lon="6.04449">
        <ele>219</ele>
        <time>2018-11-28T12:41:33Z</time>
      </trkpt>
      <trkpt lat="47.6852" lon="6.04445">
        <ele>219</ele>
        <time>2018-11-28T12:41:34Z</time>
      </trkpt>
      <trkpt lat="47.68515" lon="6.04441">
        <ele>219</ele>
        <time>2018-11-28T12:41:35Z</time>
      </trkpt>
      <trkpt lat="47.68509" lon="6.04437">
        <ele>219</ele>
        <time>2018-11-28T12:41:36Z</time>
      </trkpt>
      <trkpt lat="47.68503" lon="6.04434">
        <ele>218</ele>
        <time>2018-11-28T12:41:37Z</time>
      </trkpt>
      <trkpt lat="47.68496" lon="6.04431">
        <ele>217</ele>
        <time>2018-11-28T12:41:38Z</time>
      </trkpt>
      <trkpt lat="47.6849" lon="6.04429">
        <ele>217</ele>
        <time>2018-11-28T12:41:39Z</time>
      </trkpt>
      <trkpt lat="47.68484" lon="6.04427">
        <ele>217</ele>
        <time>2018-11-28T12:41:40Z</time>
      </trkpt>
      <trkpt lat="47.68477" lon="6.04427">
        <ele>216</ele>
        <time>2018-11-28T12:41:41Z</time>
      </trkpt>
      <trkpt lat="47.68471" lon="6.04428">
        <ele>216</ele>
        <time>2018-11-28T12:41:42Z</time>
      </trkpt>
      <trkpt lat="47.68465" lon="6.04428">
        <ele>216</ele>
        <time>2018-11-28T12:41:43Z</time>
      </trkpt>
      <trkpt lat="47.68459" lon="6.04428">
        <ele>216</ele>
        <time>2018-11-28T12:41:44Z</time>
      </trkpt>
      <trkpt lat="47.68452" lon="6.04428">
        <ele>216</ele>
        <time>2018-11-28T12:41:45Z</time>
      </trkpt>
      <trkpt lat="47.68446" lon="6.04428">
        <ele>215</ele>
        <time>2018-11-28T12:41:46Z</time>
      </trkpt>
      <trkpt lat="47.6844" lon="6.04428">
        <ele>215</ele>
        <time>2018-11-28T12:41:47Z</time>
      </trkpt>
      <trkpt lat="47.68434" lon="6.04428">
        <ele>215</ele>
        <time>2018-11-28T12:41:48Z</time>
      </trkpt>
      <trkpt lat="47.68429" lon="6.04428">
        <ele>215</ele>
        <time>2018-11-28T12:41:49Z</time>
      </trkpt>
      <trkpt lat="47.68423" lon="6.04427">
        <ele>214</ele>
        <time>2018-11-28T12:41:50Z</time>
      </trkpt>
      <trkpt lat="47.68417" lon="6.04427">
        <ele>214</ele>
        <time>2018-11-28T12:41:51Z</time>
      </trkpt>
      <trkpt lat="47.68411" lon="6.04428">
        <ele>213</ele>
        <time>2018-11-28T12:41:52Z</time>
      </trkpt>
      <trkpt lat="47.68406" lon="6.04428">
        <ele>213</ele>
        <time>2018-11-28T12:41:53Z</time>
      </trkpt>
      <trkpt lat="47.684" lon="6.04427">
        <ele>213</ele>
        <time>2018-11-28T12:41:54Z</time>
      </trkpt>
      <trkpt lat="47.68394" lon="6.04427">
        <ele>213</ele>
        <time>2018-11-28T12:41:55Z</time>
      </trkpt>
      <trkpt lat="47.68389" lon="6.04426">
        <ele>213</ele>
        <time>2018-11-28T12:41:56Z</time>
      </trkpt>
      <trkpt lat="47.68383" lon="6.04426">
        <ele>213</ele>
        <time>2018-11-28T12:41:57Z</time>
      </trkpt>
      <trkpt lat="47.68377" lon="6.04425">
        <ele>213</ele>
        <time>2018-11-28T12:41:58Z</time>
      </trkpt>
      <trkpt lat="47.68371" lon="6.04425">
        <ele>213</ele>
        <time>2018-11-28T12:41:59Z</time>
      </trkpt>
      <trkpt lat="47.68365" lon="6.04425">
        <ele>212</ele>
        <time>2018-11-28T12:42:00Z</time>
      </trkpt>
      <trkpt lat="47.68359" lon="6.04425">
        <ele>212</ele>
        <time>2018-11-28T12:42:01Z</time>
      </trkpt>
      <trkpt lat="47.68353" lon="6.04424">
        <ele>212</ele>
        <time>2018-11-28T12:42:02Z</time>
      </trkpt>
      <trkpt lat="47.68347" lon="6.04424">
        <ele>212</ele>
        <time>2018-11-28T12:42:03Z</time>
      </trkpt>
      <trkpt lat="47.68341" lon="6.04423">
        <ele>212</ele>
        <time>2018-11-28T12:42:04Z</time>
      </trkpt>
      <trkpt lat="47.68335" lon="6.04422">
        <ele>211</ele>
        <time>2018-11-28T12:42:05Z</time>
      </trkpt>
      <trkpt lat="47.68329" lon="6.04422">
        <ele>211</ele>
        <time>2018-11-28T12:42:06Z</time>
      </trkpt>
      <trkpt lat="47.68324" lon="6.04421">
        <ele>211</ele>
        <time>2018-11-28T12:42:07Z</time>
      </trkpt>
      <trkpt lat="47.68318" lon="6.0442">
        <ele>211</ele>
        <time>2018-11-28T12:42:08Z</time>
      </trkpt>
      <trkpt lat="47.68312" lon="6.0442">
        <ele>211</ele>
        <time>2018-11-28T12:42:09Z</time>
      </trkpt>
      <trkpt lat="47.68306" lon="6.04419">
        <ele>211</ele>
        <time>2018-11-28T12:42:10Z</time>
      </trkpt>
      <trkpt lat="47.683" lon="6.04419">
        <ele>211</ele>
        <time>2018-11-28T12:42:11Z</time>
      </trkpt>
      <trkpt lat="47.68295" lon="6.04418">
        <ele>211</ele>
        <time>2018-11-28T12:42:12Z</time>
      </trkpt>
      <trkpt lat="47.68289" lon="6.04417">
        <ele>210</ele>
        <time>2018-11-28T12:42:13Z</time>
      </trkpt>
      <trkpt lat="47.68283" lon="6.04416">
        <ele>210</ele>
        <time>2018-11-28T12:42:14Z</time>
      </trkpt>
      <trkpt lat="47.68278" lon="6.04415">
        <ele>210</ele>
        <time>2018-11-28T12:42:15Z</time>
      </trkpt>
      <trkpt lat="47.68273" lon="6.04413">
        <ele>210</ele>
        <time>2018-11-28T12:42:16Z</time>
      </trkpt>
      <trkpt lat="47.68268" lon="6.04412">
        <ele>210</ele>
        <time>2018-11-28T12:42:17Z</time>
      </trkpt>
      <trkpt lat="47.68263" lon="6.0441">
        <ele>210</ele>
        <time>2018-11-28T12:42:18Z</time>
      </trkpt>
      <trkpt lat="47.68258" lon="6.04408">
        <ele>210</ele>
        <time>2018-11-28T12:42:19Z</time>
      </trkpt>
      <trkpt lat="47.68254" lon="6.04405">
        <ele>210</ele>
        <time>2018-11-28T12:42:20Z</time>
      </trkpt>
      <trkpt lat="47.6825" lon="6.04402">
        <ele>210</ele>
        <time>2018-11-28T12:42:21Z</time>
      </trkpt>
      <trkpt lat="47.68246" lon="6.04399">
        <ele>210</ele>
        <time>2018-11-28T12:42:22Z</time>
      </trkpt>
      <trkpt lat="47.68238" lon="6.04395">
        <ele>210</ele>
        <time>2018-11-28T12:42:24Z</time>
      </trkpt>
      <trkpt lat="47.68231" lon="6.04391">
        <ele>210</ele>
        <time>2018-11-28T12:42:26Z</time>
      </trkpt>
      <trkpt lat="47.68224" lon="6.04386">
        <ele>210</ele>
        <time>2018-11-28T12:42:28Z</time>
      </trkpt>
      <trkpt lat="47.68217" lon="6.04381">
        <ele>210</ele>
        <time>2018-11-28T12:42:30Z</time>
      </trkpt>
      <trkpt lat="47.6821" lon="6.04375">
        <ele>210</ele>
        <time>2018-11-28T12:42:32Z</time>
      </trkpt>
      <trkpt lat="47.68202" lon="6.04368">
        <ele>210</ele>
        <time>2018-11-28T12:42:34Z</time>
      </trkpt>
      <trkpt lat="47.68198" lon="6.04365">
        <ele>210</ele>
        <time>2018-11-28T12:42:35Z</time>
      </trkpt>
      <trkpt lat="47.6819" lon="6.0436">
        <ele>210</ele>
        <time>2018-11-28T12:42:37Z</time>
      </trkpt>
      <trkpt lat="47.68181" lon="6.04357">
        <ele>210</ele>
        <time>2018-11-28T12:42:39Z</time>
      </trkpt>
      <trkpt lat="47.68173" lon="6.04356">
        <ele>210</ele>
        <time>2018-11-28T12:42:41Z</time>
      </trkpt>
      <trkpt lat="47.68164" lon="6.04358">
        <ele>209</ele>
        <time>2018-11-28T12:42:43Z</time>
      </trkpt>
      <trkpt lat="47.68156" lon="6.04361">
        <ele>209</ele>
        <time>2018-11-28T12:42:45Z</time>
      </trkpt>
      <trkpt lat="47.68148" lon="6.04365">
        <ele>209</ele>
        <time>2018-11-28T12:42:47Z</time>
      </trkpt>
      <trkpt lat="47.6814" lon="6.04369">
        <ele>209</ele>
        <time>2018-11-28T12:42:49Z</time>
      </trkpt>
      <trkpt lat="47.68132" lon="6.04373">
        <ele>209</ele>
        <time>2018-11-28T12:42:51Z</time>
      </trkpt>
      <trkpt lat="47.68124" lon="6.04376">
        <ele>209</ele>
        <time>2018-11-28T12:42:53Z</time>
      </trkpt>
      <trkpt lat="47.68117" lon="6.04379">
        <ele>209</ele>
        <time>2018-11-28T12:42:55Z</time>
      </trkpt>
      <trkpt lat="47.6811" lon="6.04383">
        <ele>209</ele>
        <time>2018-11-28T12:42:57Z</time>
      </trkpt>
      <trkpt lat="47.68103" lon="6.04385">
        <ele>209</ele>
        <time>2018-11-28T12:42:59Z</time>
      </trkpt>
      <trkpt lat="47.68096" lon="6.04388">
        <ele>209</ele>
        <time>2018-11-28T12:43:01Z</time>
      </trkpt>
      <trkpt lat="47.68089" lon="6.04391">
        <ele>209</ele>
        <time>2018-11-28T12:43:03Z</time>
      </trkpt>
      <trkpt lat="47.68081" lon="6.04394">
        <ele>209</ele>
        <time>2018-11-28T12:43:05Z</time>
      </trkpt>
      <trkpt lat="47.68077" lon="6.04396">
        <ele>209</ele>
        <time>2018-11-28T12:43:07Z</time>
      </trkpt>
      <trkpt lat="47.68071" lon="6.04398">
        <ele>209</ele>
        <time>2018-11-28T12:43:08Z</time>
      </trkpt>
      <trkpt lat="47.68063" lon="6.04401">
        <ele>209</ele>
        <time>2018-11-28T12:43:10Z</time>
      </trkpt>
      <trkpt lat="47.68058" lon="6.04404">
        <ele>209</ele>
        <time>2018-11-28T12:43:12Z</time>
      </trkpt>
      <trkpt lat="47.68053" lon="6.04409">
        <ele>209</ele>
        <time>2018-11-28T12:43:14Z</time>
      </trkpt>
      <trkpt lat="47.68048" lon="6.04414">
        <ele>209</ele>
        <time>2018-11-28T12:43:16Z</time>
      </trkpt>
      <trkpt lat="47.68043" lon="6.04422">
        <ele>209</ele>
        <time>2018-11-28T12:43:18Z</time>
      </trkpt>
      <trkpt lat="47.68039" lon="6.04429">
        <ele>209</ele>
        <time>2018-11-28T12:43:19Z</time>
      </trkpt>
      <trkpt lat="47.68034" lon="6.04435">
        <ele>210</ele>
        <time>2018-11-28T12:43:21Z</time>
      </trkpt>
      <trkpt lat="47.68028" lon="6.04436">
        <ele>210</ele>
        <time>2018-11-28T12:43:23Z</time>
      </trkpt>
      <trkpt lat="47.6802" lon="6.04436">
        <ele>210</ele>
        <time>2018-11-28T12:43:25Z</time>
      </trkpt>
      <trkpt lat="47.68013" lon="6.04433">
        <ele>210</ele>
        <time>2018-11-28T12:43:27Z</time>
      </trkpt>
      <trkpt lat="47.68008" lon="6.0443">
        <ele>210</ele>
        <time>2018-11-28T12:43:29Z</time>
      </trkpt>
      <trkpt lat="47.68001" lon="6.04427">
        <ele>210</ele>
        <time>2018-11-28T12:43:31Z</time>
      </trkpt>
      <trkpt lat="47.67995" lon="6.04425">
        <ele>211</ele>
        <time>2018-11-28T12:43:33Z</time>
      </trkpt>
      <trkpt lat="47.67989" lon="6.04425">
        <ele>211</ele>
        <time>2018-11-28T12:43:35Z</time>
      </trkpt>
      <trkpt lat="47.67982" lon="6.04426">
        <ele>211</ele>
        <time>2018-11-28T12:43:37Z</time>
      </trkpt>
      <trkpt lat="47.67975" lon="6.04427">
        <ele>211</ele>
        <time>2018-11-28T12:43:39Z</time>
      </trkpt>
      <trkpt lat="47.67968" lon="6.04427">
        <ele>211</ele>
        <time>2018-11-28T12:43:41Z</time>
      </trkpt>
      <trkpt lat="47.67962" lon="6.04427">
        <ele>211</ele>
        <time>2018-11-28T12:43:43Z</time>
      </trkpt>
      <trkpt lat="47.67955" lon="6.04426">
        <ele>212</ele>
        <time>2018-11-28T12:43:45Z</time>
      </trkpt>
      <trkpt lat="47.67948" lon="6.04426">
        <ele>212</ele>
        <time>2018-11-28T12:43:47Z</time>
      </trkpt>
      <trkpt lat="47.67941" lon="6.04425">
        <ele>211</ele>
        <time>2018-11-28T12:43:49Z</time>
      </trkpt>
      <trkpt lat="47.67934" lon="6.04424">
        <ele>211</ele>
        <time>2018-11-28T12:43:51Z</time>
      </trkpt>
      <trkpt lat="47.67928" lon="6.04424">
        <ele>211</ele>
        <time>2018-11-28T12:43:53Z</time>
      </trkpt>
      <trkpt lat="47.67921" lon="6.04423">
        <ele>211</ele>
        <time>2018-11-28T12:43:55Z</time>
      </trkpt>
      <trkpt lat="47.67916" lon="6.04422">
        <ele>212</ele>
        <time>2018-11-28T12:43:57Z</time>
      </trkpt>
      <trkpt lat="47.67909" lon="6.04421">
        <ele>213</ele>
        <time>2018-11-28T12:43:59Z</time>
      </trkpt>
      <trkpt lat="47.67903" lon="6.0442">
        <ele>214</ele>
        <time>2018-11-28T12:44:01Z</time>
      </trkpt>
      <trkpt lat="47.67897" lon="6.0442">
        <ele>214</ele>
        <time>2018-11-28T12:44:03Z</time>
      </trkpt>
      <trkpt lat="47.67892" lon="6.04419">
        <ele>215</ele>
        <time>2018-11-28T12:44:05Z</time>
      </trkpt>
      <trkpt lat="47.67886" lon="6.04419">
        <ele>215</ele>
        <time>2018-11-28T12:44:07Z</time>
      </trkpt>
      <trkpt lat="47.67881" lon="6.04419">
        <ele>216</ele>
        <time>2018-11-28T12:44:09Z</time>
      </trkpt>
      <trkpt lat="47.67875" lon="6.04419">
        <ele>216</ele>
        <time>2018-11-28T12:44:11Z</time>
      </trkpt>
      <trkpt lat="47.6787" lon="6.04419">
        <ele>217</ele>
        <time>2018-11-28T12:44:13Z</time>
      </trkpt>
      <trkpt lat="47.67864" lon="6.04419">
        <ele>217</ele>
        <time>2018-11-28T12:44:15Z</time>
      </trkpt>
      <trkpt lat="47.67858" lon="6.04418">
        <ele>217</ele>
        <time>2018-11-28T12:44:17Z</time>
      </trkpt>
      <trkpt lat="47.67852" lon="6.04416">
        <ele>215</ele>
        <time>2018-11-28T12:44:19Z</time>
      </trkpt>
      <trkpt lat="47.67846" lon="6.04415">
        <ele>215</ele>
        <time>2018-11-28T12:44:21Z</time>
      </trkpt>
      <trkpt lat="47.6784" lon="6.04413">
        <ele>216</ele>
        <time>2018-11-28T12:44:23Z</time>
      </trkpt>
      <trkpt lat="47.67833" lon="6.04411">
        <ele>218</ele>
        <time>2018-11-28T12:44:25Z</time>
      </trkpt>
      <trkpt lat="47.67828" lon="6.0441">
        <ele>218</ele>
        <time>2018-11-28T12:44:27Z</time>
      </trkpt>
      <trkpt lat="47.67822" lon="6.04408">
        <ele>219</ele>
        <time>2018-11-28T12:44:29Z</time>
      </trkpt>
      <trkpt lat="47.67817" lon="6.04406">
        <ele>219</ele>
        <time>2018-11-28T12:44:31Z</time>
      </trkpt>
      <trkpt lat="47.67812" lon="6.04405">
        <ele>219</ele>
        <time>2018-11-28T12:44:33Z</time>
      </trkpt>
      <trkpt lat="47.67807" lon="6.04403">
        <ele>219</ele>
        <time>2018-11-28T12:44:35Z</time>
      </trkpt>
      <trkpt lat="47.67802" lon="6.04402">
        <ele>219</ele>
        <time>2018-11-28T12:44:37Z</time>
      </trkpt>
      <trkpt lat="47.67797" lon="6.044">
        <ele>220</ele>
        <time>2018-11-28T12:44:39Z</time>
      </trkpt>
      <trkpt lat="47.67792" lon="6.04399">
        <ele>220</ele>
        <time>2018-11-28T12:44:41Z</time>
      </trkpt>
      <trkpt lat="47.67786" lon="6.04396">
        <ele>220</ele>
        <time>2018-11-28T12:44:44Z</time>
      </trkpt>
      <trkpt lat="47.67781" lon="6.04394">
        <ele>221</ele>
        <time>2018-11-28T12:44:46Z</time>
      </trkpt>
      <trkpt lat="47.67777" lon="6.04393">
        <ele>221</ele>
        <time>2018-11-28T12:44:48Z</time>
      </trkpt>
      <trkpt lat="47.67772" lon="6.04391">
        <ele>221</ele>
        <time>2018-11-28T12:44:50Z</time>
      </trkpt>
      <trkpt lat="47.67767" lon="6.04389">
        <ele>221</ele>
        <time>2018-11-28T12:44:52Z</time>
      </trkpt>
      <trkpt lat="47.67762" lon="6.04387">
        <ele>221</ele>
        <time>2018-11-28T12:44:54Z</time>
      </trkpt>
      <trkpt lat="47.67756" lon="6.04383">
        <ele>221</ele>
        <time>2018-11-28T12:44:57Z</time>
      </trkpt>
      <trkpt lat="47.67751" lon="6.0438">
        <ele>221</ele>
        <time>2018-11-28T12:44:59Z</time>
      </trkpt>
      <trkpt lat="47.67745" lon="6.04375">
        <ele>227</ele>
        <time>2018-11-28T12:45:02Z</time>
      </trkpt>
      <trkpt lat="47.67741" lon="6.04373">
        <ele>227</ele>
        <time>2018-11-28T12:45:04Z</time>
      </trkpt>
      <trkpt lat="47.67736" lon="6.0437">
        <ele>227</ele>
        <time>2018-11-28T12:45:06Z</time>
      </trkpt>
      <trkpt lat="47.6773" lon="6.04367">
        <ele>227</ele>
        <time>2018-11-28T12:45:08Z</time>
      </trkpt>
      <trkpt lat="47.67725" lon="6.04364">
        <ele>227</ele>
        <time>2018-11-28T12:45:10Z</time>
      </trkpt>
      <trkpt lat="47.67719" lon="6.04361">
        <ele>228</ele>
        <time>2018-11-28T12:45:12Z</time>
      </trkpt>
      <trkpt lat="47.67714" lon="6.04358">
        <ele>228</ele>
        <time>2018-11-28T12:45:14Z</time>
      </trkpt>
      <trkpt lat="47.67709" lon="6.04356">
        <ele>228</ele>
        <time>2018-11-28T12:45:16Z</time>
      </trkpt>
      <trkpt lat="47.67704" lon="6.04353">
        <ele>229</ele>
        <time>2018-11-28T12:45:18Z</time>
      </trkpt>
      <trkpt lat="47.67698" lon="6.04349">
        <ele>229</ele>
        <time>2018-11-28T12:45:20Z</time>
      </trkpt>
      <trkpt lat="47.67693" lon="6.04345">
        <ele>229</ele>
        <time>2018-11-28T12:45:22Z</time>
      </trkpt>
      <trkpt lat="47.67688" lon="6.04341">
        <ele>230</ele>
        <time>2018-11-28T12:45:24Z</time>
      </trkpt>
      <trkpt lat="47.67684" lon="6.04337">
        <ele>230</ele>
        <time>2018-11-28T12:45:26Z</time>
      </trkpt>
      <trkpt lat="47.67679" lon="6.04333">
        <ele>225</ele>
        <time>2018-11-28T12:45:28Z</time>
      </trkpt>
      <trkpt lat="47.67673" lon="6.04325">
        <ele>226</ele>
        <time>2018-11-28T12:45:30Z</time>
      </trkpt>
      <trkpt lat="47.6767" lon="6.04321">
        <ele>225</ele>
        <time>2018-11-28T12:45:31Z</time>
      </trkpt>
      <trkpt lat="47.67664" lon="6.04313">
        <ele>232</ele>
        <time>2018-11-28T12:45:33Z</time>
      </trkpt>
      <trkpt lat="47.67658" lon="6.04304">
        <ele>231</ele>
        <time>2018-11-28T12:45:35Z</time>
      </trkpt>
      <trkpt lat="47.67653" lon="6.04297">
        <ele>231</ele>
        <time>2018-11-28T12:45:37Z</time>
      </trkpt>
      <trkpt lat="47.67648" lon="6.0429">
        <ele>231</ele>
        <time>2018-11-28T12:45:39Z</time>
      </trkpt>
      <trkpt lat="47.67643" lon="6.04283">
        <ele>230</ele>
        <time>2018-11-28T12:45:41Z</time>
      </trkpt>
      <trkpt lat="47.67639" lon="6.04276">
        <ele>230</ele>
        <time>2018-11-28T12:45:43Z</time>
      </trkpt>
      <trkpt lat="47.67634" lon="6.04269">
        <ele>230</ele>
        <time>2018-11-28T12:45:45Z</time>
      </trkpt>
      <trkpt lat="47.6763" lon="6.04262">
        <ele>230</ele>
        <time>2018-11-28T12:45:47Z</time>
      </trkpt>
      <trkpt lat="47.67626" lon="6.04255">
        <ele>231</ele>
        <time>2018-11-28T12:45:49Z</time>
      </trkpt>
      <trkpt lat="47.67622" lon="6.0425">
        <ele>223</ele>
        <time>2018-11-28T12:45:51Z</time>
      </trkpt>
      <trkpt lat="47.67618" lon="6.04244">
        <ele>224</ele>
        <time>2018-11-28T12:45:53Z</time>
      </trkpt>
      <trkpt lat="47.67614" lon="6.04237">
        <ele>224</ele>
        <time>2018-11-28T12:45:56Z</time>
      </trkpt>
      <trkpt lat="47.6761" lon="6.04232">
        <ele>225</ele>
        <time>2018-11-28T12:45:58Z</time>
      </trkpt>
      <trkpt lat="47.67605" lon="6.04227">
        <ele>225</ele>
        <time>2018-11-28T12:46:00Z</time>
      </trkpt>
      <trkpt lat="47.67601" lon="6.04222">
        <ele>225</ele>
        <time>2018-11-28T12:46:02Z</time>
      </trkpt>
      <trkpt lat="47.67596" lon="6.04215">
        <ele>224</ele>
        <time>2018-11-28T12:46:04Z</time>
      </trkpt>
      <trkpt lat="47.67593" lon="6.0421">
        <ele>224</ele>
        <time>2018-11-28T12:46:06Z</time>
      </trkpt>
      <trkpt lat="47.67589" lon="6.04206">
        <ele>223</ele>
        <time>2018-11-28T12:46:08Z</time>
      </trkpt>
      <trkpt lat="47.67585" lon="6.04201">
        <ele>223</ele>
        <time>2018-11-28T12:46:10Z</time>
      </trkpt>
      <trkpt lat="47.67581" lon="6.04196">
        <ele>233</ele>
        <time>2018-11-28T12:46:12Z</time>
      </trkpt>
      <trkpt lat="47.67578" lon="6.04191">
        <ele>232</ele>
        <time>2018-11-28T12:46:14Z</time>
      </trkpt>
      <trkpt lat="47.67574" lon="6.04187">
        <ele>231</ele>
        <time>2018-11-28T12:46:16Z</time>
      </trkpt>
      <trkpt lat="47.67569" lon="6.04183">
        <ele>231</ele>
        <time>2018-11-28T12:46:18Z</time>
      </trkpt>
      <trkpt lat="47.67565" lon="6.04179">
        <ele>231</ele>
        <time>2018-11-28T12:46:20Z</time>
      </trkpt>
      <trkpt lat="47.6756" lon="6.04175">
        <ele>232</ele>
        <time>2018-11-28T12:46:22Z</time>
      </trkpt>
      <trkpt lat="47.67555" lon="6.0417">
        <ele>233</ele>
        <time>2018-11-28T12:46:24Z</time>
      </trkpt>
      <trkpt lat="47.6755" lon="6.04166">
        <ele>226</ele>
        <time>2018-11-28T12:46:26Z</time>
      </trkpt>
      <trkpt lat="47.67545" lon="6.04161">
        <ele>227</ele>
        <time>2018-11-28T12:46:28Z</time>
      </trkpt>
      <trkpt lat="47.6754" lon="6.04156">
        <ele>228</ele>
        <time>2018-11-28T12:46:30Z</time>
      </trkpt>
      <trkpt lat="47.67535" lon="6.04151">
        <ele>228</ele>
        <time>2018-11-28T12:46:32Z</time>
      </trkpt>
      <trkpt lat="47.67531" lon="6.04146">
        <ele>229</ele>
        <time>2018-11-28T12:46:33Z</time>
      </trkpt>
      <trkpt lat="47.67527" lon="6.04142">
        <ele>229</ele>
        <time>2018-11-28T12:46:34Z</time>
      </trkpt>
      <trkpt lat="47.67517" lon="6.04131">
        <ele>229</ele>
        <time>2018-11-28T12:46:36Z</time>
      </trkpt>
      <trkpt lat="47.67511" lon="6.04123">
        <ele>229</ele>
        <time>2018-11-28T12:46:38Z</time>
      </trkpt>
      <trkpt lat="47.67505" lon="6.04115">
        <ele>228</ele>
        <time>2018-11-28T12:46:40Z</time>
      </trkpt>
      <trkpt lat="47.67499" lon="6.04106">
        <ele>237</ele>
        <time>2018-11-28T12:46:42Z</time>
      </trkpt>
      <trkpt lat="47.67495" lon="6.04099">
        <ele>236</ele>
        <time>2018-11-28T12:46:44Z</time>
      </trkpt>
      <trkpt lat="47.67492" lon="6.04094">
        <ele>235</ele>
        <time>2018-11-28T12:46:46Z</time>
      </trkpt>
      <trkpt lat="47.67488" lon="6.04087">
        <ele>235</ele>
        <time>2018-11-28T12:46:48Z</time>
      </trkpt>
      <trkpt lat="47.67484" lon="6.0408">
        <ele>231</ele>
        <time>2018-11-28T12:46:50Z</time>
      </trkpt>
      <trkpt lat="47.67481" lon="6.04072">
        <ele>231</ele>
        <time>2018-11-28T12:46:52Z</time>
      </trkpt>
      <trkpt lat="47.67476" lon="6.04064">
        <ele>232</ele>
        <time>2018-11-28T12:46:54Z</time>
      </trkpt>
      <trkpt lat="47.6747" lon="6.04053">
        <ele>232</ele>
        <time>2018-11-28T12:46:57Z</time>
      </trkpt>
      <trkpt lat="47.67467" lon="6.04048">
        <ele>232</ele>
        <time>2018-11-28T12:46:59Z</time>
      </trkpt>
      <trkpt lat="47.67462" lon="6.0404">
        <ele>232</ele>
        <time>2018-11-28T12:47:01Z</time>
      </trkpt>
      <trkpt lat="47.67457" lon="6.04032">
        <ele>232</ele>
        <time>2018-11-28T12:47:03Z</time>
      </trkpt>
      <trkpt lat="47.67452" lon="6.04024">
        <ele>232</ele>
        <time>2018-11-28T12:47:05Z</time>
      </trkpt>
      <trkpt lat="47.67447" lon="6.04017">
        <ele>232</ele>
        <time>2018-11-28T12:47:07Z</time>
      </trkpt>
      <trkpt lat="47.67439" lon="6.04005">
        <ele>233</ele>
        <time>2018-11-28T12:47:08Z</time>
      </trkpt>
      <trkpt lat="47.67436" lon="6.03999">
        <ele>227</ele>
        <time>2018-11-28T12:47:09Z</time>
      </trkpt>
      <trkpt lat="47.67432" lon="6.03993">
        <ele>228</ele>
        <time>2018-11-28T12:47:10Z</time>
      </trkpt>
      <trkpt lat="47.67428" lon="6.03986">
        <ele>227</ele>
        <time>2018-11-28T12:47:11Z</time>
      </trkpt>
      <trkpt lat="47.67424" lon="6.0398">
        <ele>226</ele>
        <time>2018-11-28T12:47:12Z</time>
      </trkpt>
      <trkpt lat="47.67421" lon="6.03973">
        <ele>225</ele>
        <time>2018-11-28T12:47:13Z</time>
      </trkpt>
      <trkpt lat="47.67417" lon="6.03968">
        <ele>224</ele>
        <time>2018-11-28T12:47:14Z</time>
      </trkpt>
      <trkpt lat="47.67412" lon="6.03957">
        <ele>233</ele>
        <time>2018-11-28T12:47:16Z</time>
      </trkpt>
      <trkpt lat="47.67408" lon="6.03951">
        <ele>232</ele>
        <time>2018-11-28T12:47:17Z</time>
      </trkpt>
      <trkpt lat="47.67402" lon="6.03941">
        <ele>231</ele>
        <time>2018-11-28T12:47:19Z</time>
      </trkpt>
      <trkpt lat="47.67398" lon="6.03936">
        <ele>230</ele>
        <time>2018-11-28T12:47:21Z</time>
      </trkpt>
      <trkpt lat="47.67393" lon="6.03929">
        <ele>230</ele>
        <time>2018-11-28T12:47:23Z</time>
      </trkpt>
      <trkpt lat="47.67388" lon="6.03923">
        <ele>231</ele>
        <time>2018-11-28T12:47:25Z</time>
      </trkpt>
      <trkpt lat="47.67382" lon="6.03916">
        <ele>225</ele>
        <time>2018-11-28T12:47:27Z</time>
      </trkpt>
      <trkpt lat="47.67376" lon="6.03911">
        <ele>226</ele>
        <time>2018-11-28T12:47:29Z</time>
      </trkpt>
      <trkpt lat="47.67371" lon="6.03907">
        <ele>226</ele>
        <time>2018-11-28T12:47:31Z</time>
      </trkpt>
      <trkpt lat="47.67366" lon="6.03903">
        <ele>227</ele>
        <time>2018-11-28T12:47:33Z</time>
      </trkpt>
      <trkpt lat="47.67361" lon="6.03899">
        <ele>227</ele>
        <time>2018-11-28T12:47:35Z</time>
      </trkpt>
      <trkpt lat="47.67355" lon="6.03894">
        <ele>228</ele>
        <time>2018-11-28T12:47:37Z</time>
      </trkpt>
      <trkpt lat="47.67349" lon="6.03887">
        <ele>228</ele>
        <time>2018-11-28T12:47:39Z</time>
      </trkpt>
      <trkpt lat="47.67343" lon="6.03881">
        <ele>228</ele>
        <time>2018-11-28T12:47:41Z</time>
      </trkpt>
      <trkpt lat="47.6734" lon="6.03875">
        <ele>228</ele>
        <time>2018-11-28T12:47:43Z</time>
      </trkpt>
      <trkpt lat="47.67335" lon="6.03868">
        <ele>228</ele>
        <time>2018-11-28T12:47:46Z</time>
      </trkpt>
      <trkpt lat="47.67332" lon="6.03861">
        <ele>236</ele>
        <time>2018-11-28T12:47:49Z</time>
      </trkpt>
      <trkpt lat="47.67329" lon="6.03855">
        <ele>236</ele>
        <time>2018-11-28T12:47:52Z</time>
      </trkpt>
      <trkpt lat="47.67326" lon="6.03849">
        <ele>235</ele>
        <time>2018-11-28T12:47:55Z</time>
      </trkpt>
      <trkpt lat="47.67323" lon="6.03843">
        <ele>234</ele>
        <time>2018-11-28T12:47:58Z</time>
      </trkpt>
      <trkpt lat="47.67319" lon="6.03836">
        <ele>235</ele>
        <time>2018-11-28T12:48:01Z</time>
      </trkpt>
      <trkpt lat="47.67314" lon="6.0383">
        <ele>232</ele>
        <time>2018-11-28T12:48:04Z</time>
      </trkpt>
      <trkpt lat="47.6731" lon="6.03825">
        <ele>233</ele>
        <time>2018-11-28T12:48:07Z</time>
      </trkpt>
      <trkpt lat="47.67306" lon="6.03819">
        <ele>233</ele>
        <time>2018-11-28T12:48:11Z</time>
      </trkpt>
      <trkpt lat="47.67303" lon="6.03813">
        <ele>234</ele>
        <time>2018-11-28T12:48:14Z</time>
      </trkpt>
      <trkpt lat="47.67299" lon="6.03805">
        <ele>234</ele>
        <time>2018-11-28T12:48:17Z</time>
      </trkpt>
      <trkpt lat="47.67296" lon="6.038">
        <ele>234</ele>
        <time>2018-11-28T12:48:20Z</time>
      </trkpt>
      <trkpt lat="47.67293" lon="6.03794">
        <ele>234</ele>
        <time>2018-11-28T12:48:23Z</time>
      </trkpt>
      <trkpt lat="47.67289" lon="6.03789">
        <ele>234</ele>
        <time>2018-11-28T12:48:26Z</time>
      </trkpt>
      <trkpt lat="47.67285" lon="6.03782">
        <ele>234</ele>
        <time>2018-11-28T12:48:30Z</time>
      </trkpt>
      <trkpt lat="47.67282" lon="6.03776">
        <ele>235</ele>
        <time>2018-11-28T12:48:34Z</time>
      </trkpt>
      <trkpt lat="47.67278" lon="6.03771">
        <ele>235</ele>
        <time>2018-11-28T12:48:38Z</time>
      </trkpt>
      <trkpt lat="47.67275" lon="6.03765">
        <ele>235</ele>
        <time>2018-11-28T12:48:42Z</time>
      </trkpt>
      <trkpt lat="47.67272" lon="6.03758">
        <ele>236</ele>
        <time>2018-11-28T12:48:46Z</time>
      </trkpt>
      <trkpt lat="47.67268" lon="6.03751">
        <ele>237</ele>
        <time>2018-11-28T12:48:50Z</time>
      </trkpt>
      <trkpt lat="47.67264" lon="6.03744">
        <ele>234</ele>
        <time>2018-11-28T12:48:54Z</time>
      </trkpt>
      <trkpt lat="47.67262" lon="6.03737">
        <ele>233</ele>
        <time>2018-11-28T12:48:57Z</time>
      </trkpt>
      <trkpt lat="47.67259" lon="6.03731">
        <ele>232</ele>
        <time>2018-11-28T12:49:00Z</time>
      </trkpt>
      <trkpt lat="47.67255" lon="6.03725">
        <ele>231</ele>
        <time>2018-11-28T12:49:03Z</time>
      </trkpt>
      <trkpt lat="47.67252" lon="6.0372">
        <ele>231</ele>
        <time>2018-11-28T12:49:06Z</time>
      </trkpt>
      <trkpt lat="47.67248" lon="6.03714">
        <ele>242</ele>
        <time>2018-11-28T12:49:10Z</time>
      </trkpt>
      <trkpt lat="47.67245" lon="6.03707">
        <ele>242</ele>
        <time>2018-11-28T12:49:14Z</time>
      </trkpt>
      <trkpt lat="47.67242" lon="6.03701">
        <ele>241</ele>
        <time>2018-11-28T12:49:17Z</time>
      </trkpt>
      <trkpt lat="47.67239" lon="6.03696">
        <ele>241</ele>
        <time>2018-11-28T12:49:20Z</time>
      </trkpt>
      <trkpt lat="47.67236" lon="6.0369">
        <ele>240</ele>
        <time>2018-11-28T12:49:23Z</time>
      </trkpt>
      <trkpt lat="47.67233" lon="6.03684">
        <ele>240</ele>
        <time>2018-11-28T12:49:26Z</time>
      </trkpt>
      <trkpt lat="47.6723" lon="6.03678">
        <ele>240</ele>
        <time>2018-11-28T12:49:30Z</time>
      </trkpt>
      <trkpt lat="47.67226" lon="6.03671">
        <ele>240</ele>
        <time>2018-11-28T12:49:34Z</time>
      </trkpt>
      <trkpt lat="47.67222" lon="6.03665">
        <ele>238</ele>
        <time>2018-11-28T12:49:38Z</time>
      </trkpt>
      <trkpt lat="47.67218" lon="6.03659">
        <ele>239</ele>
        <time>2018-11-28T12:49:41Z</time>
      </trkpt>
      <trkpt lat="47.67215" lon="6.03653">
        <ele>239</ele>
        <time>2018-11-28T12:49:44Z</time>
      </trkpt>
      <trkpt lat="47.67213" lon="6.03646">
        <ele>240</ele>
        <time>2018-11-28T12:49:47Z</time>
      </trkpt>
      <trkpt lat="47.6721" lon="6.03638">
        <ele>240</ele>
        <time>2018-11-28T12:49:51Z</time>
      </trkpt>
      <trkpt lat="47.67208" lon="6.03632">
        <ele>240</ele>
        <time>2018-11-28T12:49:54Z</time>
      </trkpt>
      <trkpt lat="47.67206" lon="6.03626">
        <ele>240</ele>
        <time>2018-11-28T12:49:57Z</time>
      </trkpt>
      <trkpt lat="47.67202" lon="6.0362">
        <ele>241</ele>
        <time>2018-11-28T12:50:01Z</time>
      </trkpt>
      <trkpt lat="47.67199" lon="6.03615">
        <ele>241</ele>
        <time>2018-11-28T12:50:04Z</time>
      </trkpt>
      <trkpt lat="47.67196" lon="6.03609">
        <ele>242</ele>
        <time>2018-11-28T12:50:08Z</time>
      </trkpt>
      <trkpt lat="47.67193" lon="6.03602">
        <ele>242</ele>
        <time>2018-11-28T12:50:12Z</time>
      </trkpt>
      <trkpt lat="47.67189" lon="6.03595">
        <ele>243</ele>
        <time>2018-11-28T12:50:16Z</time>
      </trkpt>
      <trkpt lat="47.67186" lon="6.0359">
        <ele>244</ele>
        <time>2018-11-28T12:50:19Z</time>
      </trkpt>
      <trkpt lat="47.67183" lon="6.03585">
        <ele>245</ele>
        <time>2018-11-28T12:50:22Z</time>
      </trkpt>
      <trkpt lat="47.67179" lon="6.03579">
        <ele>244</ele>
        <time>2018-11-28T12:50:26Z</time>
      </trkpt>
      <trkpt lat="47.67176" lon="6.03572">
        <ele>243</ele>
        <time>2018-11-28T12:50:30Z</time>
      </trkpt>
      <trkpt lat="47.67173" lon="6.03567">
        <ele>243</ele>
        <time>2018-11-28T12:50:33Z</time>
      </trkpt>
      <trkpt lat="47.67169" lon="6.03563">
        <ele>242</ele>
        <time>2018-11-28T12:50:36Z</time>
      </trkpt>
      <trkpt lat="47.67165" lon="6.03558">
        <ele>248</ele>
        <time>2018-11-28T12:50:45Z</time>
      </trkpt>
      <trkpt lat="47.67162" lon="6.03552">
        <ele>248</ele>
        <time>2018-11-28T12:50:54Z</time>
      </trkpt>
      <trkpt lat="47.67159" lon="6.03545">
        <ele>247</ele>
        <time>2018-11-28T12:50:56Z</time>
      </trkpt>
      <trkpt lat="47.67155" lon="6.03539">
        <ele>247</ele>
        <time>2018-11-28T12:50:58Z</time>
      </trkpt>
      <trkpt lat="47.67151" lon="6.03533">
        <ele>247</ele>
        <time>2018-11-28T12:51:00Z</time>
      </trkpt>
      <trkpt lat="47.67146" lon="6.03525">
        <ele>246</ele>
        <time>2018-11-28T12:51:02Z</time>
      </trkpt>
      <trkpt lat="47.67143" lon="6.0352">
        <ele>246</ele>
        <time>2018-11-28T12:51:03Z</time>
      </trkpt>
      <trkpt lat="47.67136" lon="6.03511">
        <ele>246</ele>
        <time>2018-11-28T12:51:05Z</time>
      </trkpt>
      <trkpt lat="47.67132" lon="6.03505">
        <ele>246</ele>
        <time>2018-11-28T12:51:06Z</time>
      </trkpt>
      <trkpt lat="47.67128" lon="6.03499">
        <ele>242</ele>
        <time>2018-11-28T12:51:07Z</time>
      </trkpt>
      <trkpt lat="47.67125" lon="6.03493">
        <ele>242</ele>
        <time>2018-11-28T12:51:08Z</time>
      </trkpt>
      <trkpt lat="47.6712" lon="6.03486">
        <ele>242</ele>
        <time>2018-11-28T12:51:09Z</time>
      </trkpt>
      <trkpt lat="47.67117" lon="6.03479">
        <ele>242</ele>
        <time>2018-11-28T12:51:10Z</time>
      </trkpt>
      <trkpt lat="47.67109" lon="6.03468">
        <ele>242</ele>
        <time>2018-11-28T12:51:11Z</time>
      </trkpt>
      <trkpt lat="47.67106" lon="6.03462">
        <ele>242</ele>
        <time>2018-11-28T12:51:12Z</time>
      </trkpt>
      <trkpt lat="47.67102" lon="6.03456">
        <ele>242</ele>
        <time>2018-11-28T12:51:13Z</time>
      </trkpt>
      <trkpt lat="47.67099" lon="6.03451">
        <ele>242</ele>
        <time>2018-11-28T12:51:14Z</time>
      </trkpt>
      <trkpt lat="47.67095" lon="6.03445">
        <ele>242</ele>
        <time>2018-11-28T12:51:15Z</time>
      </trkpt>
      <trkpt lat="47.67092" lon="6.0344">
        <ele>242</ele>
        <time>2018-11-28T12:51:16Z</time>
      </trkpt>
      <trkpt lat="47.67088" lon="6.03435">
        <ele>242</ele>
        <time>2018-11-28T12:51:17Z</time>
      </trkpt>
      <trkpt lat="47.67084" lon="6.03428">
        <ele>242</ele>
        <time>2018-11-28T12:51:18Z</time>
      </trkpt>
      <trkpt lat="47.67081" lon="6.03422">
        <ele>243</ele>
        <time>2018-11-28T12:51:19Z</time>
      </trkpt>
      <trkpt lat="47.67076" lon="6.03415">
        <ele>242</ele>
        <time>2018-11-28T12:51:20Z</time>
      </trkpt>
      <trkpt lat="47.67072" lon="6.03409">
        <ele>242</ele>
        <time>2018-11-28T12:51:21Z</time>
      </trkpt>
      <trkpt lat="47.67067" lon="6.03402">
        <ele>241</ele>
        <time>2018-11-28T12:51:22Z</time>
      </trkpt>
      <trkpt lat="47.67063" lon="6.03395">
        <ele>241</ele>
        <time>2018-11-28T12:51:23Z</time>
      </trkpt>
      <trkpt lat="47.67059" lon="6.03389">
        <ele>241</ele>
        <time>2018-11-28T12:51:24Z</time>
      </trkpt>
      <trkpt lat="47.67055" lon="6.03381">
        <ele>241</ele>
        <time>2018-11-28T12:51:25Z</time>
      </trkpt>
      <trkpt lat="47.6705" lon="6.03375">
        <ele>241</ele>
        <time>2018-11-28T12:51:26Z</time>
      </trkpt>
      <trkpt lat="47.67046" lon="6.03369">
        <ele>241</ele>
        <time>2018-11-28T12:51:27Z</time>
      </trkpt>
      <trkpt lat="47.67042" lon="6.03363">
        <ele>241</ele>
        <time>2018-11-28T12:51:28Z</time>
      </trkpt>
      <trkpt lat="47.67038" lon="6.03357">
        <ele>241</ele>
        <time>2018-11-28T12:51:29Z</time>
      </trkpt>
      <trkpt lat="47.67034" lon="6.0335">
        <ele>241</ele>
        <time>2018-11-28T12:51:30Z</time>
      </trkpt>
      <trkpt lat="47.6703" lon="6.03344">
        <ele>240</ele>
        <time>2018-11-28T12:51:31Z</time>
      </trkpt>
      <trkpt lat="47.67025" lon="6.03338">
        <ele>240</ele>
        <time>2018-11-28T12:51:32Z</time>
      </trkpt>
      <trkpt lat="47.67021" lon="6.03332">
        <ele>238</ele>
        <time>2018-11-28T12:51:33Z</time>
      </trkpt>
      <trkpt lat="47.67017" lon="6.03326">
        <ele>238</ele>
        <time>2018-11-28T12:51:34Z</time>
      </trkpt>
      <trkpt lat="47.67012" lon="6.03319">
        <ele>238</ele>
        <time>2018-11-28T12:51:35Z</time>
      </trkpt>
      <trkpt lat="47.67008" lon="6.03311">
        <ele>238</ele>
        <time>2018-11-28T12:51:36Z</time>
      </trkpt>
      <trkpt lat="47.67003" lon="6.03305">
        <ele>238</ele>
        <time>2018-11-28T12:51:37Z</time>
      </trkpt>
      <trkpt lat="47.66999" lon="6.03298">
        <ele>236</ele>
        <time>2018-11-28T12:51:38Z</time>
      </trkpt>
      <trkpt lat="47.66994" lon="6.03292">
        <ele>236</ele>
        <time>2018-11-28T12:51:39Z</time>
      </trkpt>
      <trkpt lat="47.66989" lon="6.03286">
        <ele>236</ele>
        <time>2018-11-28T12:51:40Z</time>
      </trkpt>
      <trkpt lat="47.66984" lon="6.03281">
        <ele>236</ele>
        <time>2018-11-28T12:51:41Z</time>
      </trkpt>
      <trkpt lat="47.6698" lon="6.03274">
        <ele>235</ele>
        <time>2018-11-28T12:51:42Z</time>
      </trkpt>
      <trkpt lat="47.66976" lon="6.03267">
        <ele>235</ele>
        <time>2018-11-28T12:51:43Z</time>
      </trkpt>
      <trkpt lat="47.66971" lon="6.0326">
        <ele>235</ele>
        <time>2018-11-28T12:51:44Z</time>
      </trkpt>
      <trkpt lat="47.66966" lon="6.03254">
        <ele>235</ele>
        <time>2018-11-28T12:51:45Z</time>
      </trkpt>
      <trkpt lat="47.66961" lon="6.03247">
        <ele>233</ele>
        <time>2018-11-28T12:51:46Z</time>
      </trkpt>
      <trkpt lat="47.66956" lon="6.03241">
        <ele>232</ele>
        <time>2018-11-28T12:51:47Z</time>
      </trkpt>
      <trkpt lat="47.66952" lon="6.03234">
        <ele>232</ele>
        <time>2018-11-28T12:51:48Z</time>
      </trkpt>
      <trkpt lat="47.66947" lon="6.03228">
        <ele>232</ele>
        <time>2018-11-28T12:51:49Z</time>
      </trkpt>
      <trkpt lat="47.66942" lon="6.03222">
        <ele>232</ele>
        <time>2018-11-28T12:51:50Z</time>
      </trkpt>
      <trkpt lat="47.66937" lon="6.03215">
        <ele>232</ele>
        <time>2018-11-28T12:51:51Z</time>
      </trkpt>
      <trkpt lat="47.66932" lon="6.03209">
        <ele>231</ele>
        <time>2018-11-28T12:51:52Z</time>
      </trkpt>
      <trkpt lat="47.66926" lon="6.03203">
        <ele>231</ele>
        <time>2018-11-28T12:51:53Z</time>
      </trkpt>
      <trkpt lat="47.6692" lon="6.03196">
        <ele>231</ele>
        <time>2018-11-28T12:51:54Z</time>
      </trkpt>
      <trkpt lat="47.66913" lon="6.0319">
        <ele>227</ele>
        <time>2018-11-28T12:51:55Z</time>
      </trkpt>
      <trkpt lat="47.66906" lon="6.03184">
        <ele>227</ele>
        <time>2018-11-28T12:51:56Z</time>
      </trkpt>
      <trkpt lat="47.66899" lon="6.03179">
        <ele>227</ele>
        <time>2018-11-28T12:51:57Z</time>
      </trkpt>
      <trkpt lat="47.66892" lon="6.03173">
        <ele>227</ele>
        <time>2018-11-28T12:51:58Z</time>
      </trkpt>
      <trkpt lat="47.66884" lon="6.03168">
        <ele>226</ele>
        <time>2018-11-28T12:51:59Z</time>
      </trkpt>
      <trkpt lat="47.66877" lon="6.03164">
        <ele>226</ele>
        <time>2018-11-28T12:52:00Z</time>
      </trkpt>
      <trkpt lat="47.66869" lon="6.03161">
        <ele>226</ele>
        <time>2018-11-28T12:52:01Z</time>
      </trkpt>
      <trkpt lat="47.66861" lon="6.03158">
        <ele>225</ele>
        <time>2018-11-28T12:52:02Z</time>
      </trkpt>
      <trkpt lat="47.66853" lon="6.03156">
        <ele>225</ele>
        <time>2018-11-28T12:52:03Z</time>
      </trkpt>
      <trkpt lat="47.66844" lon="6.03155">
        <ele>224</ele>
        <time>2018-11-28T12:52:04Z</time>
      </trkpt>
      <trkpt lat="47.66836" lon="6.03153">
        <ele>224</ele>
        <time>2018-11-28T12:52:05Z</time>
      </trkpt>
      <trkpt lat="47.66828" lon="6.03151">
        <ele>222</ele>
        <time>2018-11-28T12:52:06Z</time>
      </trkpt>
      <trkpt lat="47.66819" lon="6.03149">
        <ele>222</ele>
        <time>2018-11-28T12:52:07Z</time>
      </trkpt>
      <trkpt lat="47.6681" lon="6.03148">
        <ele>222</ele>
        <time>2018-11-28T12:52:08Z</time>
      </trkpt>
      <trkpt lat="47.66802" lon="6.03146">
        <ele>222</ele>
        <time>2018-11-28T12:52:09Z</time>
      </trkpt>
      <trkpt lat="47.66793" lon="6.03144">
        <ele>221</ele>
        <time>2018-11-28T12:52:10Z</time>
      </trkpt>
      <trkpt lat="47.66784" lon="6.03142">
        <ele>221</ele>
        <time>2018-11-28T12:52:11Z</time>
      </trkpt>
      <trkpt lat="47.66775" lon="6.0314">
        <ele>221</ele>
        <time>2018-11-28T12:52:12Z</time>
      </trkpt>
      <trkpt lat="47.66766" lon="6.03138">
        <ele>221</ele>
        <time>2018-11-28T12:52:13Z</time>
      </trkpt>
      <trkpt lat="47.66758" lon="6.03136">
        <ele>221</ele>
        <time>2018-11-28T12:52:14Z</time>
      </trkpt>
      <trkpt lat="47.66749" lon="6.03133">
        <ele>218</ele>
        <time>2018-11-28T12:52:15Z</time>
      </trkpt>
      <trkpt lat="47.66741" lon="6.0313">
        <ele>218</ele>
        <time>2018-11-28T12:52:16Z</time>
      </trkpt>
      <trkpt lat="47.66733" lon="6.03126">
        <ele>218</ele>
        <time>2018-11-28T12:52:17Z</time>
      </trkpt>
      <trkpt lat="47.66725" lon="6.03121">
        <ele>218</ele>
        <time>2018-11-28T12:52:18Z</time>
      </trkpt>
      <trkpt lat="47.66717" lon="6.03115">
        <ele>217</ele>
        <time>2018-11-28T12:52:19Z</time>
      </trkpt>
      <trkpt lat="47.6671" lon="6.03109">
        <ele>217</ele>
        <time>2018-11-28T12:52:20Z</time>
      </trkpt>
      <trkpt lat="47.66704" lon="6.03104">
        <ele>217</ele>
        <time>2018-11-28T12:52:21Z</time>
      </trkpt>
      <trkpt lat="47.66697" lon="6.03099">
        <ele>217</ele>
        <time>2018-11-28T12:52:22Z</time>
      </trkpt>
      <trkpt lat="47.66691" lon="6.03095">
        <ele>217</ele>
        <time>2018-11-28T12:52:23Z</time>
      </trkpt>
      <trkpt lat="47.66685" lon="6.03091">
        <ele>217</ele>
        <time>2018-11-28T12:52:24Z</time>
      </trkpt>
      <trkpt lat="47.66679" lon="6.03088">
        <ele>216</ele>
        <time>2018-11-28T12:52:25Z</time>
      </trkpt>
      <trkpt lat="47.66673" lon="6.03086">
        <ele>216</ele>
        <time>2018-11-28T12:52:26Z</time>
      </trkpt>
      <trkpt lat="47.66667" lon="6.03085">
        <ele>216</ele>
        <time>2018-11-28T12:52:27Z</time>
      </trkpt>
      <trkpt lat="47.66661" lon="6.03084">
        <ele>216</ele>
        <time>2018-11-28T12:52:28Z</time>
      </trkpt>
      <trkpt lat="47.66654" lon="6.03084">
        <ele>215</ele>
        <time>2018-11-28T12:52:29Z</time>
      </trkpt>
      <trkpt lat="47.66648" lon="6.03085">
        <ele>215</ele>
        <time>2018-11-28T12:52:30Z</time>
      </trkpt>
      <trkpt lat="47.66642" lon="6.03085">
        <ele>215</ele>
        <time>2018-11-28T12:52:31Z</time>
      </trkpt>
      <trkpt lat="47.66636" lon="6.03087">
        <ele>215</ele>
        <time>2018-11-28T12:52:32Z</time>
      </trkpt>
      <trkpt lat="47.6663" lon="6.03088">
        <ele>215</ele>
        <time>2018-11-28T12:52:33Z</time>
      </trkpt>
      <trkpt lat="47.66624" lon="6.03089">
        <ele>215</ele>
        <time>2018-11-28T12:52:34Z</time>
      </trkpt>
      <trkpt lat="47.66618" lon="6.0309">
        <ele>215</ele>
        <time>2018-11-28T12:52:35Z</time>
      </trkpt>
      <trkpt lat="47.66612" lon="6.0309">
        <ele>215</ele>
        <time>2018-11-28T12:52:36Z</time>
      </trkpt>
      <trkpt lat="47.66606" lon="6.0309">
        <ele>215</ele>
        <time>2018-11-28T12:52:37Z</time>
      </trkpt>
      <trkpt lat="47.66599" lon="6.03089">
        <ele>216</ele>
        <time>2018-11-28T12:52:38Z</time>
      </trkpt>
      <trkpt lat="47.66593" lon="6.03088">
        <ele>216</ele>
        <time>2018-11-28T12:52:39Z</time>
      </trkpt>
      <trkpt lat="47.66587" lon="6.03088">
        <ele>216</ele>
        <time>2018-11-28T12:52:40Z</time>
      </trkpt>
      <trkpt lat="47.66581" lon="6.03087">
        <ele>217</ele>
        <time>2018-11-28T12:52:41Z</time>
      </trkpt>
      <trkpt lat="47.66575" lon="6.03087">
        <ele>216</ele>
        <time>2018-11-28T12:52:42Z</time>
      </trkpt>
      <trkpt lat="47.66569" lon="6.03086">
        <ele>216</ele>
        <time>2018-11-28T12:52:43Z</time>
      </trkpt>
      <trkpt lat="47.66563" lon="6.03085">
        <ele>216</ele>
        <time>2018-11-28T12:52:44Z</time>
      </trkpt>
      <trkpt lat="47.66557" lon="6.03084">
        <ele>216</ele>
        <time>2018-11-28T12:52:45Z</time>
      </trkpt>
      <trkpt lat="47.66552" lon="6.03082">
        <ele>221</ele>
        <time>2018-11-28T12:52:46Z</time>
      </trkpt>
      <trkpt lat="47.66546" lon="6.0308">
        <ele>222</ele>
        <time>2018-11-28T12:52:47Z</time>
      </trkpt>
      <trkpt lat="47.66541" lon="6.0308">
        <ele>222</ele>
        <time>2018-11-28T12:52:48Z</time>
      </trkpt>
      <trkpt lat="47.66535" lon="6.03079">
        <ele>222</ele>
        <time>2018-11-28T12:52:49Z</time>
      </trkpt>
      <trkpt lat="47.6653" lon="6.03078">
        <ele>222</ele>
        <time>2018-11-28T12:52:50Z</time>
      </trkpt>
      <trkpt lat="47.66524" lon="6.03078">
        <ele>222</ele>
        <time>2018-11-28T12:52:51Z</time>
      </trkpt>
      <trkpt lat="47.66519" lon="6.03077">
        <ele>221</ele>
        <time>2018-11-28T12:52:52Z</time>
      </trkpt>
      <trkpt lat="47.66513" lon="6.03077">
        <ele>221</ele>
        <time>2018-11-28T12:52:53Z</time>
      </trkpt>
      <trkpt lat="47.66508" lon="6.03077">
        <ele>221</ele>
        <time>2018-11-28T12:52:54Z</time>
      </trkpt>
      <trkpt lat="47.66502" lon="6.03077">
        <ele>220</ele>
        <time>2018-11-28T12:52:55Z</time>
      </trkpt>
      <trkpt lat="47.66497" lon="6.03077">
        <ele>220</ele>
        <time>2018-11-28T12:52:56Z</time>
      </trkpt>
      <trkpt lat="47.66491" lon="6.03076">
        <ele>221</ele>
        <time>2018-11-28T12:52:57Z</time>
      </trkpt>
      <trkpt lat="47.66486" lon="6.03076">
        <ele>221</ele>
        <time>2018-11-28T12:52:58Z</time>
      </trkpt>
      <trkpt lat="47.66481" lon="6.03075">
        <ele>222</ele>
        <time>2018-11-28T12:52:59Z</time>
      </trkpt>
      <trkpt lat="47.66476" lon="6.03074">
        <ele>222</ele>
        <time>2018-11-28T12:53:00Z</time>
      </trkpt>
      <trkpt lat="47.6647" lon="6.03074">
        <ele>222</ele>
        <time>2018-11-28T12:53:01Z</time>
      </trkpt>
      <trkpt lat="47.66465" lon="6.03073">
        <ele>222</ele>
        <time>2018-11-28T12:53:02Z</time>
      </trkpt>
      <trkpt lat="47.6646" lon="6.03072">
        <ele>222</ele>
        <time>2018-11-28T12:53:03Z</time>
      </trkpt>
      <trkpt lat="47.66452" lon="6.03067">
        <ele>222</ele>
        <time>2018-11-28T12:53:05Z</time>
      </trkpt>
      <trkpt lat="47.66448" lon="6.03065">
        <ele>222</ele>
        <time>2018-11-28T12:53:06Z</time>
      </trkpt>
      <trkpt lat="47.6644" lon="6.03061">
        <ele>222</ele>
        <time>2018-11-28T12:53:08Z</time>
      </trkpt>
      <trkpt lat="47.66433" lon="6.03057">
        <ele>222</ele>
        <time>2018-11-28T12:53:10Z</time>
      </trkpt>
      <trkpt lat="47.66427" lon="6.03055">
        <ele>222</ele>
        <time>2018-11-28T12:53:12Z</time>
      </trkpt>
      <trkpt lat="47.6642" lon="6.03053">
        <ele>222</ele>
        <time>2018-11-28T12:53:14Z</time>
      </trkpt>
      <trkpt lat="47.66414" lon="6.03051">
        <ele>220</ele>
        <time>2018-11-28T12:53:16Z</time>
      </trkpt>
      <trkpt lat="47.66408" lon="6.03048">
        <ele>221</ele>
        <time>2018-11-28T12:53:18Z</time>
      </trkpt>
      <trkpt lat="47.66402" lon="6.03045">
        <ele>221</ele>
        <time>2018-11-28T12:53:20Z</time>
      </trkpt>
      <trkpt lat="47.66397" lon="6.03042">
        <ele>221</ele>
        <time>2018-11-28T12:53:22Z</time>
      </trkpt>
      <trkpt lat="47.6639" lon="6.03039">
        <ele>221</ele>
        <time>2018-11-28T12:53:24Z</time>
      </trkpt>
      <trkpt lat="47.66384" lon="6.03037">
        <ele>221</ele>
        <time>2018-11-28T12:53:26Z</time>
      </trkpt>
      <trkpt lat="47.66376" lon="6.03031">
        <ele>221</ele>
        <time>2018-11-28T12:53:28Z</time>
      </trkpt>
      <trkpt lat="47.66372" lon="6.03028">
        <ele>221</ele>
        <time>2018-11-28T12:53:29Z</time>
      </trkpt>
      <trkpt lat="47.66366" lon="6.03021">
        <ele>220</ele>
        <time>2018-11-28T12:53:31Z</time>
      </trkpt>
      <trkpt lat="47.6636" lon="6.03014">
        <ele>220</ele>
        <time>2018-11-28T12:53:33Z</time>
      </trkpt>
      <trkpt lat="47.66355" lon="6.03008">
        <ele>220</ele>
        <time>2018-11-28T12:53:35Z</time>
      </trkpt>
      <trkpt lat="47.6635" lon="6.03001">
        <ele>220</ele>
        <time>2018-11-28T12:53:37Z</time>
      </trkpt>
      <trkpt lat="47.66345" lon="6.02994">
        <ele>221</ele>
        <time>2018-11-28T12:53:39Z</time>
      </trkpt>
      <trkpt lat="47.66341" lon="6.02988">
        <ele>221</ele>
        <time>2018-11-28T12:53:41Z</time>
      </trkpt>
      <trkpt lat="47.66335" lon="6.02981">
        <ele>222</ele>
        <time>2018-11-28T12:53:43Z</time>
      </trkpt>
      <trkpt lat="47.66328" lon="6.02973">
        <ele>218</ele>
        <time>2018-11-28T12:53:45Z</time>
      </trkpt>
      <trkpt lat="47.66323" lon="6.02966">
        <ele>218</ele>
        <time>2018-11-28T12:53:47Z</time>
      </trkpt>
      <trkpt lat="47.66317" lon="6.02958">
        <ele>218</ele>
        <time>2018-11-28T12:53:49Z</time>
      </trkpt>
      <trkpt lat="47.66312" lon="6.02951">
        <ele>218</ele>
        <time>2018-11-28T12:53:51Z</time>
      </trkpt>
      <trkpt lat="47.66308" lon="6.02943">
        <ele>218</ele>
        <time>2018-11-28T12:53:53Z</time>
      </trkpt>
      <trkpt lat="47.66302" lon="6.02935">
        <ele>218</ele>
        <time>2018-11-28T12:53:55Z</time>
      </trkpt>
      <trkpt lat="47.66296" lon="6.02926">
        <ele>218</ele>
        <time>2018-11-28T12:53:57Z</time>
      </trkpt>
      <trkpt lat="47.66293" lon="6.02922">
        <ele>217</ele>
        <time>2018-11-28T12:53:58Z</time>
      </trkpt>
      <trkpt lat="47.66287" lon="6.02913">
        <ele>218</ele>
        <time>2018-11-28T12:54:00Z</time>
      </trkpt>
      <trkpt lat="47.66278" lon="6.029">
        <ele>218</ele>
        <time>2018-11-28T12:54:02Z</time>
      </trkpt>
      <trkpt lat="47.66273" lon="6.0289">
        <ele>218</ele>
        <time>2018-11-28T12:54:04Z</time>
      </trkpt>
      <trkpt lat="47.66269" lon="6.02885">
        <ele>218</ele>
        <time>2018-11-28T12:54:05Z</time>
      </trkpt>
      <trkpt lat="47.66265" lon="6.0288">
        <ele>218</ele>
        <time>2018-11-28T12:54:06Z</time>
      </trkpt>
      <trkpt lat="47.66262" lon="6.02875">
        <ele>218</ele>
        <time>2018-11-28T12:54:07Z</time>
      </trkpt>
      <trkpt lat="47.66258" lon="6.0287">
        <ele>218</ele>
        <time>2018-11-28T12:54:08Z</time>
      </trkpt>
      <trkpt lat="47.66255" lon="6.02866">
        <ele>218</ele>
        <time>2018-11-28T12:54:09Z</time>
      </trkpt>
      <trkpt lat="47.66251" lon="6.02861">
        <ele>218</ele>
        <time>2018-11-28T12:54:10Z</time>
      </trkpt>
      <trkpt lat="47.66248" lon="6.02856">
        <ele>216</ele>
        <time>2018-11-28T12:54:11Z</time>
      </trkpt>
      <trkpt lat="47.66244" lon="6.02852">
        <ele>216</ele>
        <time>2018-11-28T12:54:12Z</time>
      </trkpt>
      <trkpt lat="47.66237" lon="6.02845">
        <ele>216</ele>
        <time>2018-11-28T12:54:14Z</time>
      </trkpt>
      <trkpt lat="47.66232" lon="6.02835">
        <ele>216</ele>
        <time>2018-11-28T12:54:16Z</time>
      </trkpt>
      <trkpt lat="47.66229" lon="6.0283">
        <ele>216</ele>
        <time>2018-11-28T12:54:17Z</time>
      </trkpt>
      <trkpt lat="47.66226" lon="6.02825">
        <ele>216</ele>
        <time>2018-11-28T12:54:18Z</time>
      </trkpt>
      <trkpt lat="47.6622" lon="6.02815">
        <ele>216</ele>
        <time>2018-11-28T12:54:20Z</time>
      </trkpt>
      <trkpt lat="47.66217" lon="6.0281">
        <ele>215</ele>
        <time>2018-11-28T12:54:21Z</time>
      </trkpt>
      <trkpt lat="47.66213" lon="6.02799">
        <ele>215</ele>
        <time>2018-11-28T12:54:23Z</time>
      </trkpt>
      <trkpt lat="47.6621" lon="6.02793">
        <ele>215</ele>
        <time>2018-11-28T12:54:24Z</time>
      </trkpt>
      <trkpt lat="47.66208" lon="6.02787">
        <ele>215</ele>
        <time>2018-11-28T12:54:25Z</time>
      </trkpt>
      <trkpt lat="47.66206" lon="6.02781">
        <ele>215</ele>
        <time>2018-11-28T12:54:26Z</time>
      </trkpt>
      <trkpt lat="47.66203" lon="6.02769">
        <ele>215</ele>
        <time>2018-11-28T12:54:28Z</time>
      </trkpt>
      <trkpt lat="47.66201" lon="6.02757">
        <ele>215</ele>
        <time>2018-11-28T12:54:30Z</time>
      </trkpt>
      <trkpt lat="47.66199" lon="6.02745">
        <ele>214</ele>
        <time>2018-11-28T12:54:32Z</time>
      </trkpt>
      <trkpt lat="47.66198" lon="6.02733">
        <ele>214</ele>
        <time>2018-11-28T12:54:34Z</time>
      </trkpt>
      <trkpt lat="47.66197" lon="6.02726">
        <ele>214</ele>
        <time>2018-11-28T12:54:35Z</time>
      </trkpt>
      <trkpt lat="47.66197" lon="6.02718">
        <ele>213</ele>
        <time>2018-11-28T12:54:36Z</time>
      </trkpt>
      <trkpt lat="47.66197" lon="6.0271">
        <ele>213</ele>
        <time>2018-11-28T12:54:37Z</time>
      </trkpt>
      <trkpt lat="47.66196" lon="6.02702">
        <ele>213</ele>
        <time>2018-11-28T12:54:38Z</time>
      </trkpt>
      <trkpt lat="47.66196" lon="6.02694">
        <ele>213</ele>
        <time>2018-11-28T12:54:39Z</time>
      </trkpt>
      <trkpt lat="47.66195" lon="6.02687">
        <ele>213</ele>
        <time>2018-11-28T12:54:40Z</time>
      </trkpt>
      <trkpt lat="47.66194" lon="6.0268">
        <ele>213</ele>
        <time>2018-11-28T12:54:41Z</time>
      </trkpt>
      <trkpt lat="47.66191" lon="6.02675">
        <ele>213</ele>
        <time>2018-11-28T12:54:42Z</time>
      </trkpt>
      <trkpt lat="47.66187" lon="6.02669">
        <ele>213</ele>
        <time>2018-11-28T12:54:43Z</time>
      </trkpt>
      <trkpt lat="47.66183" lon="6.02664">
        <ele>212</ele>
        <time>2018-11-28T12:54:44Z</time>
      </trkpt>
      <trkpt lat="47.66177" lon="6.02659">
        <ele>212</ele>
        <time>2018-11-28T12:54:45Z</time>
      </trkpt>
      <trkpt lat="47.66172" lon="6.02655">
        <ele>212</ele>
        <time>2018-11-28T12:54:46Z</time>
      </trkpt>
      <trkpt lat="47.66166" lon="6.02653">
        <ele>211</ele>
        <time>2018-11-28T12:54:47Z</time>
      </trkpt>
      <trkpt lat="47.6616" lon="6.02651">
        <ele>211</ele>
        <time>2018-11-28T12:54:48Z</time>
      </trkpt>
      <trkpt lat="47.66154" lon="6.02649">
        <ele>211</ele>
        <time>2018-11-28T12:54:49Z</time>
      </trkpt>
      <trkpt lat="47.66149" lon="6.02646">
        <ele>211</ele>
        <time>2018-11-28T12:54:50Z</time>
      </trkpt>
      <trkpt lat="47.66143" lon="6.02643">
        <ele>211</ele>
        <time>2018-11-28T12:54:51Z</time>
      </trkpt>
      <trkpt lat="47.66137" lon="6.02639">
        <ele>211</ele>
        <time>2018-11-28T12:54:52Z</time>
      </trkpt>
      <trkpt lat="47.66131" lon="6.02636">
        <ele>210</ele>
        <time>2018-11-28T12:54:53Z</time>
      </trkpt>
      <trkpt lat="47.66125" lon="6.02633">
        <ele>210</ele>
        <time>2018-11-28T12:54:54Z</time>
      </trkpt>
      <trkpt lat="47.6612" lon="6.0263">
        <ele>210</ele>
        <time>2018-11-28T12:54:55Z</time>
      </trkpt>
      <trkpt lat="47.66114" lon="6.02626">
        <ele>210</ele>
        <time>2018-11-28T12:54:56Z</time>
      </trkpt>
      <trkpt lat="47.66109" lon="6.02624">
        <ele>210</ele>
        <time>2018-11-28T12:54:57Z</time>
      </trkpt>
      <trkpt lat="47.66103" lon="6.02622">
        <ele>210</ele>
        <time>2018-11-28T12:54:58Z</time>
      </trkpt>
      <trkpt lat="47.66098" lon="6.0262">
        <ele>210</ele>
        <time>2018-11-28T12:54:59Z</time>
      </trkpt>
      <trkpt lat="47.66093" lon="6.02619">
        <ele>210</ele>
        <time>2018-11-28T12:55:00Z</time>
      </trkpt>
      <trkpt lat="47.66088" lon="6.02618">
        <ele>210</ele>
        <time>2018-11-28T12:55:01Z</time>
      </trkpt>
      <trkpt lat="47.66083" lon="6.02618">
        <ele>209</ele>
        <time>2018-11-28T12:55:02Z</time>
      </trkpt>
      <trkpt lat="47.66078" lon="6.02618">
        <ele>209</ele>
        <time>2018-11-28T12:55:03Z</time>
      </trkpt>
      <trkpt lat="47.66073" lon="6.02619">
        <ele>209</ele>
        <time>2018-11-28T12:55:04Z</time>
      </trkpt>
      <trkpt lat="47.66069" lon="6.0262">
        <ele>209</ele>
        <time>2018-11-28T12:55:05Z</time>
      </trkpt>
      <trkpt lat="47.66064" lon="6.02621">
        <ele>209</ele>
        <time>2018-11-28T12:55:06Z</time>
      </trkpt>
      <trkpt lat="47.66056" lon="6.02622">
        <ele>209</ele>
        <time>2018-11-28T12:55:08Z</time>
      </trkpt>
      <trkpt lat="47.66048" lon="6.02626">
        <ele>209</ele>
        <time>2018-11-28T12:55:10Z</time>
      </trkpt>
      <trkpt lat="47.6604" lon="6.02632">
        <ele>209</ele>
        <time>2018-11-28T12:55:12Z</time>
      </trkpt>
      <trkpt lat="47.66032" lon="6.02636">
        <ele>209</ele>
        <time>2018-11-28T12:55:14Z</time>
      </trkpt>
      <trkpt lat="47.66024" lon="6.02641">
        <ele>209</ele>
        <time>2018-11-28T12:55:16Z</time>
      </trkpt>
      <trkpt lat="47.66017" lon="6.02647">
        <ele>209</ele>
        <time>2018-11-28T12:55:18Z</time>
      </trkpt>
      <trkpt lat="47.6601" lon="6.02653">
        <ele>209</ele>
        <time>2018-11-28T12:55:20Z</time>
      </trkpt>
      <trkpt lat="47.66004" lon="6.02657">
        <ele>208</ele>
        <time>2018-11-28T12:55:23Z</time>
      </trkpt>
      <trkpt lat="47.66" lon="6.02661">
        <ele>208</ele>
        <time>2018-11-28T12:55:25Z</time>
      </trkpt>
      <trkpt lat="47.65994" lon="6.02665">
        <ele>208</ele>
        <time>2018-11-28T12:55:27Z</time>
      </trkpt>
      <trkpt lat="47.65986" lon="6.02672">
        <ele>207</ele>
        <time>2018-11-28T12:55:29Z</time>
      </trkpt>
      <trkpt lat="47.65978" lon="6.02676">
        <ele>206</ele>
        <time>2018-11-28T12:55:31Z</time>
      </trkpt>
      <trkpt lat="47.6597" lon="6.02681">
        <ele>206</ele>
        <time>2018-11-28T12:55:33Z</time>
      </trkpt>
      <trkpt lat="47.65965" lon="6.02685">
        <ele>205</ele>
        <time>2018-11-28T12:55:34Z</time>
      </trkpt>
      <trkpt lat="47.65961" lon="6.02688">
        <ele>205</ele>
        <time>2018-11-28T12:55:35Z</time>
      </trkpt>
      <trkpt lat="47.65957" lon="6.0269">
        <ele>205</ele>
        <time>2018-11-28T12:55:36Z</time>
      </trkpt>
      <trkpt lat="47.65949" lon="6.02695">
        <ele>205</ele>
        <time>2018-11-28T12:55:38Z</time>
      </trkpt>
      <trkpt lat="47.65942" lon="6.02701">
        <ele>205</ele>
        <time>2018-11-28T12:55:40Z</time>
      </trkpt>
      <trkpt lat="47.65934" lon="6.02706">
        <ele>205</ele>
        <time>2018-11-28T12:55:42Z</time>
      </trkpt>
      <trkpt lat="47.65927" lon="6.02711">
        <ele>204</ele>
        <time>2018-11-28T12:55:44Z</time>
      </trkpt>
      <trkpt lat="47.65919" lon="6.02717">
        <ele>204</ele>
        <time>2018-11-28T12:55:46Z</time>
      </trkpt>
      <trkpt lat="47.65912" lon="6.02722">
        <ele>204</ele>
        <time>2018-11-28T12:55:48Z</time>
      </trkpt>
      <trkpt lat="47.65905" lon="6.02728">
        <ele>204</ele>
        <time>2018-11-28T12:55:50Z</time>
      </trkpt>
      <trkpt lat="47.65897" lon="6.02733">
        <ele>204</ele>
        <time>2018-11-28T12:55:52Z</time>
      </trkpt>
      <trkpt lat="47.65891" lon="6.02738">
        <ele>204</ele>
        <time>2018-11-28T12:55:54Z</time>
      </trkpt>
      <trkpt lat="47.65884" lon="6.02744">
        <ele>204</ele>
        <time>2018-11-28T12:55:56Z</time>
      </trkpt>
      <trkpt lat="47.65876" lon="6.02749">
        <ele>204</ele>
        <time>2018-11-28T12:55:58Z</time>
      </trkpt>
      <trkpt lat="47.65869" lon="6.02754">
        <ele>205</ele>
        <time>2018-11-28T12:56:00Z</time>
      </trkpt>
      <trkpt lat="47.65862" lon="6.02758">
        <ele>205</ele>
        <time>2018-11-28T12:56:02Z</time>
      </trkpt>
      <trkpt lat="47.65856" lon="6.02763">
        <ele>205</ele>
        <time>2018-11-28T12:56:04Z</time>
      </trkpt>
      <trkpt lat="47.65849" lon="6.02767">
        <ele>205</ele>
        <time>2018-11-28T12:56:06Z</time>
      </trkpt>
      <trkpt lat="47.65842" lon="6.02771">
        <ele>205</ele>
        <time>2018-11-28T12:56:08Z</time>
      </trkpt>
      <trkpt lat="47.65836" lon="6.02775">
        <ele>205</ele>
        <time>2018-11-28T12:56:10Z</time>
      </trkpt>
      <trkpt lat="47.65829" lon="6.02778">
        <ele>206</ele>
        <time>2018-11-28T12:56:12Z</time>
      </trkpt>
      <trkpt lat="47.65822" lon="6.02782">
        <ele>206</ele>
        <time>2018-11-28T12:56:14Z</time>
      </trkpt>
      <trkpt lat="47.65815" lon="6.02785">
        <ele>206</ele>
        <time>2018-11-28T12:56:16Z</time>
      </trkpt>
      <trkpt lat="47.65808" lon="6.02788">
        <ele>206</ele>
        <time>2018-11-28T12:56:18Z</time>
      </trkpt>
      <trkpt lat="47.65803" lon="6.02791">
        <ele>206</ele>
        <time>2018-11-28T12:56:20Z</time>
      </trkpt>
      <trkpt lat="47.65798" lon="6.02793">
        <ele>206</ele>
        <time>2018-11-28T12:56:22Z</time>
      </trkpt>
      <trkpt lat="47.65792" lon="6.02796">
        <ele>206</ele>
        <time>2018-11-28T12:56:24Z</time>
      </trkpt>
      <trkpt lat="47.65785" lon="6.028">
        <ele>206</ele>
        <time>2018-11-28T12:56:26Z</time>
      </trkpt>
      <trkpt lat="47.65774" lon="6.02805">
        <ele>206</ele>
        <time>2018-11-28T12:56:28Z</time>
      </trkpt>
      <trkpt lat="47.65768" lon="6.02808">
        <ele>206</ele>
        <time>2018-11-28T12:56:30Z</time>
      </trkpt>
      <trkpt lat="47.65761" lon="6.02811">
        <ele>206</ele>
        <time>2018-11-28T12:56:32Z</time>
      </trkpt>
      <trkpt lat="47.65756" lon="6.02814">
        <ele>205</ele>
        <time>2018-11-28T12:56:34Z</time>
      </trkpt>
      <trkpt lat="47.65751" lon="6.02816">
        <ele>205</ele>
        <time>2018-11-28T12:56:36Z</time>
      </trkpt>
      <trkpt lat="47.65744" lon="6.02819">
        <ele>206</ele>
        <time>2018-11-28T12:56:38Z</time>
      </trkpt>
      <trkpt lat="47.65736" lon="6.02823">
        <ele>206</ele>
        <time>2018-11-28T12:56:39Z</time>
      </trkpt>
      <trkpt lat="47.65728" lon="6.02826">
        <ele>206</ele>
        <time>2018-11-28T12:56:41Z</time>
      </trkpt>
      <trkpt lat="47.65724" lon="6.02828">
        <ele>206</ele>
        <time>2018-11-28T12:56:42Z</time>
      </trkpt>
      <trkpt lat="47.65719" lon="6.0283">
        <ele>206</ele>
        <time>2018-11-28T12:56:43Z</time>
      </trkpt>
      <trkpt lat="47.65711" lon="6.02834">
        <ele>207</ele>
        <time>2018-11-28T12:56:45Z</time>
      </trkpt>
      <trkpt lat="47.65703" lon="6.02837">
        <ele>207</ele>
        <time>2018-11-28T12:56:47Z</time>
      </trkpt>
      <trkpt lat="47.65694" lon="6.02841">
        <ele>207</ele>
        <time>2018-11-28T12:56:49Z</time>
      </trkpt>
      <trkpt lat="47.6569" lon="6.02843">
        <ele>207</ele>
        <time>2018-11-28T12:56:50Z</time>
      </trkpt>
      <trkpt lat="47.65685" lon="6.02845">
        <ele>207</ele>
        <time>2018-11-28T12:56:51Z</time>
      </trkpt>
      <trkpt lat="47.65677" lon="6.02849">
        <ele>207</ele>
        <time>2018-11-28T12:56:53Z</time>
      </trkpt>
      <trkpt lat="47.65672" lon="6.0285">
        <ele>207</ele>
        <time>2018-11-28T12:56:54Z</time>
      </trkpt>
      <trkpt lat="47.65667" lon="6.02852">
        <ele>207</ele>
        <time>2018-11-28T12:56:55Z</time>
      </trkpt>
      <trkpt lat="47.65663" lon="6.02853">
        <ele>208</ele>
        <time>2018-11-28T12:56:56Z</time>
      </trkpt>
      <trkpt lat="47.65658" lon="6.02855">
        <ele>208</ele>
        <time>2018-11-28T12:56:57Z</time>
      </trkpt>
      <trkpt lat="47.65653" lon="6.02856">
        <ele>208</ele>
        <time>2018-11-28T12:56:58Z</time>
      </trkpt>
      <trkpt lat="47.65648" lon="6.02858">
        <ele>208</ele>
        <time>2018-11-28T12:56:59Z</time>
      </trkpt>
      <trkpt lat="47.65644" lon="6.02859">
        <ele>208</ele>
        <time>2018-11-28T12:57:00Z</time>
      </trkpt>
      <trkpt lat="47.65639" lon="6.02861">
        <ele>208</ele>
        <time>2018-11-28T12:57:01Z</time>
      </trkpt>
      <trkpt lat="47.65634" lon="6.02862">
        <ele>208</ele>
        <time>2018-11-28T12:57:02Z</time>
      </trkpt>
      <trkpt lat="47.65629" lon="6.02864">
        <ele>208</ele>
        <time>2018-11-28T12:57:03Z</time>
      </trkpt>
      <trkpt lat="47.65624" lon="6.02865">
        <ele>209</ele>
        <time>2018-11-28T12:57:04Z</time>
      </trkpt>
      <trkpt lat="47.65619" lon="6.02867">
        <ele>209</ele>
        <time>2018-11-28T12:57:05Z</time>
      </trkpt>
      <trkpt lat="47.65614" lon="6.02868">
        <ele>209</ele>
        <time>2018-11-28T12:57:06Z</time>
      </trkpt>
      <trkpt lat="47.65609" lon="6.0287">
        <ele>209</ele>
        <time>2018-11-28T12:57:07Z</time>
      </trkpt>
      <trkpt lat="47.65605" lon="6.02871">
        <ele>209</ele>
        <time>2018-11-28T12:57:08Z</time>
      </trkpt>
      <trkpt lat="47.656" lon="6.02872">
        <ele>209</ele>
        <time>2018-11-28T12:57:09Z</time>
      </trkpt>
      <trkpt lat="47.65595" lon="6.02872">
        <ele>209</ele>
        <time>2018-11-28T12:57:10Z</time>
      </trkpt>
      <trkpt lat="47.65591" lon="6.02874">
        <ele>209</ele>
        <time>2018-11-28T12:57:11Z</time>
      </trkpt>
      <trkpt lat="47.65586" lon="6.02875">
        <ele>209</ele>
        <time>2018-11-28T12:57:12Z</time>
      </trkpt>
      <trkpt lat="47.65578" lon="6.02877">
        <ele>209</ele>
        <time>2018-11-28T12:57:14Z</time>
      </trkpt>
      <trkpt lat="47.65569" lon="6.02879">
        <ele>209</ele>
        <time>2018-11-28T12:57:16Z</time>
      </trkpt>
      <trkpt lat="47.6556" lon="6.02881">
        <ele>209</ele>
        <time>2018-11-28T12:57:18Z</time>
      </trkpt>
      <trkpt lat="47.65552" lon="6.02883">
        <ele>209</ele>
        <time>2018-11-28T12:57:20Z</time>
      </trkpt>
      <trkpt lat="47.65544" lon="6.02885">
        <ele>209</ele>
        <time>2018-11-28T12:57:22Z</time>
      </trkpt>
      <trkpt lat="47.65537" lon="6.02888">
        <ele>209</ele>
        <time>2018-11-28T12:57:24Z</time>
      </trkpt>
      <trkpt lat="47.65529" lon="6.0289">
        <ele>209</ele>
        <time>2018-11-28T12:57:26Z</time>
      </trkpt>
      <trkpt lat="47.65522" lon="6.02892">
        <ele>209</ele>
        <time>2018-11-28T12:57:28Z</time>
      </trkpt>
      <trkpt lat="47.65515" lon="6.02895">
        <ele>209</ele>
        <time>2018-11-28T12:57:30Z</time>
      </trkpt>
      <trkpt lat="47.65507" lon="6.02898">
        <ele>209</ele>
        <time>2018-11-28T12:57:32Z</time>
      </trkpt>
      <trkpt lat="47.655" lon="6.029">
        <ele>209</ele>
        <time>2018-11-28T12:57:34Z</time>
      </trkpt>
      <trkpt lat="47.65493" lon="6.02903">
        <ele>209</ele>
        <time>2018-11-28T12:57:36Z</time>
      </trkpt>
      <trkpt lat="47.65487" lon="6.02905">
        <ele>209</ele>
        <time>2018-11-28T12:57:38Z</time>
      </trkpt>
      <trkpt lat="47.6548" lon="6.02908">
        <ele>209</ele>
        <time>2018-11-28T12:57:40Z</time>
      </trkpt>
      <trkpt lat="47.65473" lon="6.0291">
        <ele>209</ele>
        <time>2018-11-28T12:57:42Z</time>
      </trkpt>
      <trkpt lat="47.65466" lon="6.02914">
        <ele>209</ele>
        <time>2018-11-28T12:57:44Z</time>
      </trkpt>
      <trkpt lat="47.65459" lon="6.02917">
        <ele>209</ele>
        <time>2018-11-28T12:57:46Z</time>
      </trkpt>
      <trkpt lat="47.65452" lon="6.0292">
        <ele>209</ele>
        <time>2018-11-28T12:57:48Z</time>
      </trkpt>
      <trkpt lat="47.65446" lon="6.02924">
        <ele>209</ele>
        <time>2018-11-28T12:57:50Z</time>
      </trkpt>
      <trkpt lat="47.65439" lon="6.02927">
        <ele>209</ele>
        <time>2018-11-28T12:57:52Z</time>
      </trkpt>
      <trkpt lat="47.65431" lon="6.02931">
        <ele>209</ele>
        <time>2018-11-28T12:57:54Z</time>
      </trkpt>
      <trkpt lat="47.65423" lon="6.02935">
        <ele>209</ele>
        <time>2018-11-28T12:57:56Z</time>
      </trkpt>
      <trkpt lat="47.65419" lon="6.02937">
        <ele>209</ele>
        <time>2018-11-28T12:57:57Z</time>
      </trkpt>
      <trkpt lat="47.6541" lon="6.02941">
        <ele>209</ele>
        <time>2018-11-28T12:57:59Z</time>
      </trkpt>
      <trkpt lat="47.65402" lon="6.02944">
        <ele>209</ele>
        <time>2018-11-28T12:58:01Z</time>
      </trkpt>
      <trkpt lat="47.65394" lon="6.02948">
        <ele>209</ele>
        <time>2018-11-28T12:58:03Z</time>
      </trkpt>
      <trkpt lat="47.65386" lon="6.02952">
        <ele>209</ele>
        <time>2018-11-28T12:58:05Z</time>
      </trkpt>
      <trkpt lat="47.65379" lon="6.02956">
        <ele>209</ele>
        <time>2018-11-28T12:58:07Z</time>
      </trkpt>
      <trkpt lat="47.65371" lon="6.02959">
        <ele>210</ele>
        <time>2018-11-28T12:58:09Z</time>
      </trkpt>
      <trkpt lat="47.65363" lon="6.02963">
        <ele>210</ele>
        <time>2018-11-28T12:58:11Z</time>
      </trkpt>
      <trkpt lat="47.65356" lon="6.02966">
        <ele>210</ele>
        <time>2018-11-28T12:58:13Z</time>
      </trkpt>
      <trkpt lat="47.65348" lon="6.0297">
        <ele>210</ele>
        <time>2018-11-28T12:58:15Z</time>
      </trkpt>
      <trkpt lat="47.6534" lon="6.02975">
        <ele>210</ele>
        <time>2018-11-28T12:58:17Z</time>
      </trkpt>
      <trkpt lat="47.65333" lon="6.02978">
        <ele>209</ele>
        <time>2018-11-28T12:58:19Z</time>
      </trkpt>
      <trkpt lat="47.65325" lon="6.02982">
        <ele>209</ele>
        <time>2018-11-28T12:58:21Z</time>
      </trkpt>
      <trkpt lat="47.65317" lon="6.02986">
        <ele>209</ele>
        <time>2018-11-28T12:58:23Z</time>
      </trkpt>
      <trkpt lat="47.65309" lon="6.02989">
        <ele>209</ele>
        <time>2018-11-28T12:58:25Z</time>
      </trkpt>
      <trkpt lat="47.65301" lon="6.02992">
        <ele>209</ele>
        <time>2018-11-28T12:58:27Z</time>
      </trkpt>
      <trkpt lat="47.65297" lon="6.02994">
        <ele>209</ele>
        <time>2018-11-28T12:58:28Z</time>
      </trkpt>
      <trkpt lat="47.65288" lon="6.02997">
        <ele>208</ele>
        <time>2018-11-28T12:58:30Z</time>
      </trkpt>
      <trkpt lat="47.6528" lon="6.02999">
        <ele>208</ele>
        <time>2018-11-28T12:58:32Z</time>
      </trkpt>
      <trkpt lat="47.65271" lon="6.03001">
        <ele>209</ele>
        <time>2018-11-28T12:58:34Z</time>
      </trkpt>
      <trkpt lat="47.65266" lon="6.03002">
        <ele>209</ele>
        <time>2018-11-28T12:58:35Z</time>
      </trkpt>
      <trkpt lat="47.65262" lon="6.03002">
        <ele>209</ele>
        <time>2018-11-28T12:58:36Z</time>
      </trkpt>
      <trkpt lat="47.65257" lon="6.03003">
        <ele>209</ele>
        <time>2018-11-28T12:58:37Z</time>
      </trkpt>
      <trkpt lat="47.65249" lon="6.03004">
        <ele>208</ele>
        <time>2018-11-28T12:58:39Z</time>
      </trkpt>
      <trkpt lat="47.6524" lon="6.03005">
        <ele>208</ele>
        <time>2018-11-28T12:58:41Z</time>
      </trkpt>
      <trkpt lat="47.65235" lon="6.03005">
        <ele>208</ele>
        <time>2018-11-28T12:58:42Z</time>
      </trkpt>
      <trkpt lat="47.65231" lon="6.03006">
        <ele>208</ele>
        <time>2018-11-28T12:58:43Z</time>
      </trkpt>
      <trkpt lat="47.65226" lon="6.03006">
        <ele>208</ele>
        <time>2018-11-28T12:58:44Z</time>
      </trkpt>
      <trkpt lat="47.65221" lon="6.03007">
        <ele>208</ele>
        <time>2018-11-28T12:58:45Z</time>
      </trkpt>
      <trkpt lat="47.65217" lon="6.03008">
        <ele>208</ele>
        <time>2018-11-28T12:58:46Z</time>
      </trkpt>
      <trkpt lat="47.65212" lon="6.03008">
        <ele>208</ele>
        <time>2018-11-28T12:58:47Z</time>
      </trkpt>
      <trkpt lat="47.65204" lon="6.0301">
        <ele>208</ele>
        <time>2018-11-28T12:58:49Z</time>
      </trkpt>
      <trkpt lat="47.65195" lon="6.03012">
        <ele>208</ele>
        <time>2018-11-28T12:58:51Z</time>
      </trkpt>
      <trkpt lat="47.65187" lon="6.03015">
        <ele>208</ele>
        <time>2018-11-28T12:58:53Z</time>
      </trkpt>
      <trkpt lat="47.65179" lon="6.03019">
        <ele>208</ele>
        <time>2018-11-28T12:58:55Z</time>
      </trkpt>
      <trkpt lat="47.65171" lon="6.03024">
        <ele>208</ele>
        <time>2018-11-28T12:58:57Z</time>
      </trkpt>
      <trkpt lat="47.65163" lon="6.03031">
        <ele>207</ele>
        <time>2018-11-28T12:58:59Z</time>
      </trkpt>
      <trkpt lat="47.65156" lon="6.03038">
        <ele>207</ele>
        <time>2018-11-28T12:59:01Z</time>
      </trkpt>
      <trkpt lat="47.65152" lon="6.03041">
        <ele>207</ele>
        <time>2018-11-28T12:59:02Z</time>
      </trkpt>
      <trkpt lat="47.65144" lon="6.03047">
        <ele>207</ele>
        <time>2018-11-28T12:59:04Z</time>
      </trkpt>
      <trkpt lat="47.6514" lon="6.0305">
        <ele>207</ele>
        <time>2018-11-28T12:59:05Z</time>
      </trkpt>
      <trkpt lat="47.65135" lon="6.03053">
        <ele>207</ele>
        <time>2018-11-28T12:59:06Z</time>
      </trkpt>
      <trkpt lat="47.65131" lon="6.03055">
        <ele>207</ele>
        <time>2018-11-28T12:59:07Z</time>
      </trkpt>
      <trkpt lat="47.65126" lon="6.03056">
        <ele>207</ele>
        <time>2018-11-28T12:59:08Z</time>
      </trkpt>
      <trkpt lat="47.65121" lon="6.03058">
        <ele>207</ele>
        <time>2018-11-28T12:59:09Z</time>
      </trkpt>
      <trkpt lat="47.65116" lon="6.03059">
        <ele>207</ele>
        <time>2018-11-28T12:59:10Z</time>
      </trkpt>
      <trkpt lat="47.65111" lon="6.03059">
        <ele>207</ele>
        <time>2018-11-28T12:59:11Z</time>
      </trkpt>
      <trkpt lat="47.65106" lon="6.0306">
        <ele>207</ele>
        <time>2018-11-28T12:59:12Z</time>
      </trkpt>
      <trkpt lat="47.65102" lon="6.03059">
        <ele>207</ele>
        <time>2018-11-28T12:59:13Z</time>
      </trkpt>
      <trkpt lat="47.65097" lon="6.03058">
        <ele>207</ele>
        <time>2018-11-28T12:59:14Z</time>
      </trkpt>
      <trkpt lat="47.65092" lon="6.03057">
        <ele>207</ele>
        <time>2018-11-28T12:59:15Z</time>
      </trkpt>
      <trkpt lat="47.65087" lon="6.03055">
        <ele>206</ele>
        <time>2018-11-28T12:59:16Z</time>
      </trkpt>
      <trkpt lat="47.65082" lon="6.03053">
        <ele>206</ele>
        <time>2018-11-28T12:59:17Z</time>
      </trkpt>
      <trkpt lat="47.65078" lon="6.0305">
        <ele>206</ele>
        <time>2018-11-28T12:59:18Z</time>
      </trkpt>
      <trkpt lat="47.65071" lon="6.03043">
        <ele>206</ele>
        <time>2018-11-28T12:59:20Z</time>
      </trkpt>
      <trkpt lat="47.65068" lon="6.03037">
        <ele>206</ele>
        <time>2018-11-28T12:59:22Z</time>
      </trkpt>
      <trkpt lat="47.65063" lon="6.03027">
        <ele>205</ele>
        <time>2018-11-28T12:59:24Z</time>
      </trkpt>
      <trkpt lat="47.6506" lon="6.03021">
        <ele>205</ele>
        <time>2018-11-28T12:59:25Z</time>
      </trkpt>
      <trkpt lat="47.65057" lon="6.03015">
        <ele>205</ele>
        <time>2018-11-28T12:59:26Z</time>
      </trkpt>
      <trkpt lat="47.65054" lon="6.0301">
        <ele>205</ele>
        <time>2018-11-28T12:59:27Z</time>
      </trkpt>
      <trkpt lat="47.65052" lon="6.03004">
        <ele>205</ele>
        <time>2018-11-28T12:59:28Z</time>
      </trkpt>
      <trkpt lat="47.65049" lon="6.02999">
        <ele>205</ele>
        <time>2018-11-28T12:59:29Z</time>
      </trkpt>
      <trkpt lat="47.65046" lon="6.02994">
        <ele>205</ele>
        <time>2018-11-28T12:59:30Z</time>
      </trkpt>
      <trkpt lat="47.65043" lon="6.02988">
        <ele>205</ele>
        <time>2018-11-28T12:59:31Z</time>
      </trkpt>
      <trkpt lat="47.6504" lon="6.02983">
        <ele>205</ele>
        <time>2018-11-28T12:59:32Z</time>
      </trkpt>
      <trkpt lat="47.65037" lon="6.02978">
        <ele>205</ele>
        <time>2018-11-28T12:59:33Z</time>
      </trkpt>
      <trkpt lat="47.65033" lon="6.02973">
        <ele>205</ele>
        <time>2018-11-28T12:59:34Z</time>
      </trkpt>
      <trkpt lat="47.6503" lon="6.02967">
        <ele>205</ele>
        <time>2018-11-28T12:59:35Z</time>
      </trkpt>
      <trkpt lat="47.65027" lon="6.02961">
        <ele>205</ele>
        <time>2018-11-28T12:59:36Z</time>
      </trkpt>
      <trkpt lat="47.65023" lon="6.02955">
        <ele>205</ele>
        <time>2018-11-28T12:59:37Z</time>
      </trkpt>
      <trkpt lat="47.65021" lon="6.02949">
        <ele>205</ele>
        <time>2018-11-28T12:59:38Z</time>
      </trkpt>
      <trkpt lat="47.65018" lon="6.02942">
        <ele>205</ele>
        <time>2018-11-28T12:59:39Z</time>
      </trkpt>
      <trkpt lat="47.65015" lon="6.02936">
        <ele>205</ele>
        <time>2018-11-28T12:59:40Z</time>
      </trkpt>
      <trkpt lat="47.65013" lon="6.0293">
        <ele>205</ele>
        <time>2018-11-28T12:59:41Z</time>
      </trkpt>
      <trkpt lat="47.65011" lon="6.02923">
        <ele>206</ele>
        <time>2018-11-28T12:59:42Z</time>
      </trkpt>
      <trkpt lat="47.65009" lon="6.02916">
        <ele>206</ele>
        <time>2018-11-28T12:59:43Z</time>
      </trkpt>
      <trkpt lat="47.65007" lon="6.0291">
        <ele>206</ele>
        <time>2018-11-28T12:59:44Z</time>
      </trkpt>
      <trkpt lat="47.65005" lon="6.02904">
        <ele>205</ele>
        <time>2018-11-28T12:59:45Z</time>
      </trkpt>
      <trkpt lat="47.65004" lon="6.02898">
        <ele>205</ele>
        <time>2018-11-28T12:59:46Z</time>
      </trkpt>
      <trkpt lat="47.65002" lon="6.02891">
        <ele>205</ele>
        <time>2018-11-28T12:59:47Z</time>
      </trkpt>
      <trkpt lat="47.65001" lon="6.02885">
        <ele>205</ele>
        <time>2018-11-28T12:59:48Z</time>
      </trkpt>
      <trkpt lat="47.64999" lon="6.02872">
        <ele>206</ele>
        <time>2018-11-28T12:59:50Z</time>
      </trkpt>
      <trkpt lat="47.64996" lon="6.02861">
        <ele>206</ele>
        <time>2018-11-28T12:59:52Z</time>
      </trkpt>
      <trkpt lat="47.64994" lon="6.0285">
        <ele>205</ele>
        <time>2018-11-28T12:59:54Z</time>
      </trkpt>
      <trkpt lat="47.64993" lon="6.02838">
        <ele>205</ele>
        <time>2018-11-28T12:59:56Z</time>
      </trkpt>
      <trkpt lat="47.64991" lon="6.02826">
        <ele>205</ele>
        <time>2018-11-28T12:59:58Z</time>
      </trkpt>
      <trkpt lat="47.64989" lon="6.02814">
        <ele>205</ele>
        <time>2018-11-28T13:00:00Z</time>
      </trkpt>
      <trkpt lat="47.64988" lon="6.02802">
        <ele>205</ele>
        <time>2018-11-28T13:00:02Z</time>
      </trkpt>
      <trkpt lat="47.64987" lon="6.02795">
        <ele>205</ele>
        <time>2018-11-28T13:00:03Z</time>
      </trkpt>
      <trkpt lat="47.64986" lon="6.02782">
        <ele>205</ele>
        <time>2018-11-28T13:00:05Z</time>
      </trkpt>
      <trkpt lat="47.64984" lon="6.02769">
        <ele>204</ele>
        <time>2018-11-28T13:00:07Z</time>
      </trkpt>
      <trkpt lat="47.64984" lon="6.02762">
        <ele>204</ele>
        <time>2018-11-28T13:00:08Z</time>
      </trkpt>
      <trkpt lat="47.64983" lon="6.02755">
        <ele>204</ele>
        <time>2018-11-28T13:00:09Z</time>
      </trkpt>
      <trkpt lat="47.64982" lon="6.02748">
        <ele>204</ele>
        <time>2018-11-28T13:00:10Z</time>
      </trkpt>
      <trkpt lat="47.6498" lon="6.02735">
        <ele>204</ele>
        <time>2018-11-28T13:00:12Z</time>
      </trkpt>
      <trkpt lat="47.64979" lon="6.02723">
        <ele>204</ele>
        <time>2018-11-28T13:00:14Z</time>
      </trkpt>
      <trkpt lat="47.64977" lon="6.02711">
        <ele>204</ele>
        <time>2018-11-28T13:00:16Z</time>
      </trkpt>
      <trkpt lat="47.64976" lon="6.02704">
        <ele>204</ele>
        <time>2018-11-28T13:00:17Z</time>
      </trkpt>
      <trkpt lat="47.64976" lon="6.02697">
        <ele>204</ele>
        <time>2018-11-28T13:00:18Z</time>
      </trkpt>
      <trkpt lat="47.64975" lon="6.0269">
        <ele>204</ele>
        <time>2018-11-28T13:00:19Z</time>
      </trkpt>
      <trkpt lat="47.64974" lon="6.02683">
        <ele>204</ele>
        <time>2018-11-28T13:00:20Z</time>
      </trkpt>
      <trkpt lat="47.64973" lon="6.0267">
        <ele>204</ele>
        <time>2018-11-28T13:00:22Z</time>
      </trkpt>
      <trkpt lat="47.64971" lon="6.02657">
        <ele>204</ele>
        <time>2018-11-28T13:00:24Z</time>
      </trkpt>
      <trkpt lat="47.64969" lon="6.02644">
        <ele>204</ele>
        <time>2018-11-28T13:00:26Z</time>
      </trkpt>
      <trkpt lat="47.64967" lon="6.02631">
        <ele>204</ele>
        <time>2018-11-28T13:00:28Z</time>
      </trkpt>
      <trkpt lat="47.64966" lon="6.02619">
        <ele>204</ele>
        <time>2018-11-28T13:00:30Z</time>
      </trkpt>
      <trkpt lat="47.64965" lon="6.02606">
        <ele>204</ele>
        <time>2018-11-28T13:00:32Z</time>
      </trkpt>
      <trkpt lat="47.64964" lon="6.02595">
        <ele>204</ele>
        <time>2018-11-28T13:00:34Z</time>
      </trkpt>
      <trkpt lat="47.64962" lon="6.02584">
        <ele>204</ele>
        <time>2018-11-28T13:00:36Z</time>
      </trkpt>
      <trkpt lat="47.6496" lon="6.02572">
        <ele>205</ele>
        <time>2018-11-28T13:00:38Z</time>
      </trkpt>
      <trkpt lat="47.64958" lon="6.02561">
        <ele>205</ele>
        <time>2018-11-28T13:00:40Z</time>
      </trkpt>
      <trkpt lat="47.64957" lon="6.02549">
        <ele>205</ele>
        <time>2018-11-28T13:00:42Z</time>
      </trkpt>
      <trkpt lat="47.64956" lon="6.02538">
        <ele>206</ele>
        <time>2018-11-28T13:00:44Z</time>
      </trkpt>
      <trkpt lat="47.64954" lon="6.02526">
        <ele>206</ele>
        <time>2018-11-28T13:00:46Z</time>
      </trkpt>
      <trkpt lat="47.64953" lon="6.02516">
        <ele>206</ele>
        <time>2018-11-28T13:00:48Z</time>
      </trkpt>
      <trkpt lat="47.64952" lon="6.02507">
        <ele>206</ele>
        <time>2018-11-28T13:00:50Z</time>
      </trkpt>
      <trkpt lat="47.64951" lon="6.02499">
        <ele>207</ele>
        <time>2018-11-28T13:00:52Z</time>
      </trkpt>
      <trkpt lat="47.64948" lon="6.02491">
        <ele>207</ele>
        <time>2018-11-28T13:00:55Z</time>
      </trkpt>
      <trkpt lat="47.64945" lon="6.02483">
        <ele>207</ele>
        <time>2018-11-28T13:00:57Z</time>
      </trkpt>
      <trkpt lat="47.64944" lon="6.02475">
        <ele>207</ele>
        <time>2018-11-28T13:00:59Z</time>
      </trkpt>
      <trkpt lat="47.64943" lon="6.02467">
        <ele>207</ele>
        <time>2018-11-28T13:01:01Z</time>
      </trkpt>
      <trkpt lat="47.64943" lon="6.02459">
        <ele>208</ele>
        <time>2018-11-28T13:01:03Z</time>
      </trkpt>
      <trkpt lat="47.64943" lon="6.02452">
        <ele>208</ele>
        <time>2018-11-28T13:01:05Z</time>
      </trkpt>
      <trkpt lat="47.64942" lon="6.02445">
        <ele>208</ele>
        <time>2018-11-28T13:01:07Z</time>
      </trkpt>
      <trkpt lat="47.64941" lon="6.02438">
        <ele>208</ele>
        <time>2018-11-28T13:01:09Z</time>
      </trkpt>
      <trkpt lat="47.64941" lon="6.02429">
        <ele>208</ele>
        <time>2018-11-28T13:01:11Z</time>
      </trkpt>
      <trkpt lat="47.64941" lon="6.02422">
        <ele>208</ele>
        <time>2018-11-28T13:01:13Z</time>
      </trkpt>
      <trkpt lat="47.64941" lon="6.02414">
        <ele>209</ele>
        <time>2018-11-28T13:01:15Z</time>
      </trkpt>
      <trkpt lat="47.64939" lon="6.02407">
        <ele>209</ele>
        <time>2018-11-28T13:01:17Z</time>
      </trkpt>
      <trkpt lat="47.64934" lon="6.02403">
        <ele>209</ele>
        <time>2018-11-28T13:01:19Z</time>
      </trkpt>
      <trkpt lat="47.64928" lon="6.02402">
        <ele>209</ele>
        <time>2018-11-28T13:01:21Z</time>
      </trkpt>
      <trkpt lat="47.64922" lon="6.02402">
        <ele>209</ele>
        <time>2018-11-28T13:01:23Z</time>
      </trkpt>
      <trkpt lat="47.64917" lon="6.02402">
        <ele>209</ele>
        <time>2018-11-28T13:01:25Z</time>
      </trkpt>
      <trkpt lat="47.64913" lon="6.02404">
        <ele>211</ele>
        <time>2018-11-28T13:01:27Z</time>
      </trkpt>
      <trkpt lat="47.64908" lon="6.02406">
        <ele>211</ele>
        <time>2018-11-28T13:01:29Z</time>
      </trkpt>
      <trkpt lat="47.64903" lon="6.02407">
        <ele>212</ele>
        <time>2018-11-28T13:01:31Z</time>
      </trkpt>
      <trkpt lat="47.64898" lon="6.02408">
        <ele>212</ele>
        <time>2018-11-28T13:01:33Z</time>
      </trkpt>
      <trkpt lat="47.64894" lon="6.02409">
        <ele>212</ele>
        <time>2018-11-28T13:01:35Z</time>
      </trkpt>
      <trkpt lat="47.64887" lon="6.02409">
        <ele>213</ele>
        <time>2018-11-28T13:01:38Z</time>
      </trkpt>
      <trkpt lat="47.64881" lon="6.0241">
        <ele>213</ele>
        <time>2018-11-28T13:01:41Z</time>
      </trkpt>
      <trkpt lat="47.64876" lon="6.0241">
        <ele>214</ele>
        <time>2018-11-28T13:01:43Z</time>
      </trkpt>
      <trkpt lat="47.6487" lon="6.02411">
        <ele>214</ele>
        <time>2018-11-28T13:01:46Z</time>
      </trkpt>
      <trkpt lat="47.64863" lon="6.02412">
        <ele>215</ele>
        <time>2018-11-28T13:01:49Z</time>
      </trkpt>
      <trkpt lat="47.64859" lon="6.02413">
        <ele>215</ele>
        <time>2018-11-28T13:01:52Z</time>
      </trkpt>
      <trkpt lat="47.64854" lon="6.02415">
        <ele>215</ele>
        <time>2018-11-28T13:01:55Z</time>
      </trkpt>
      <trkpt lat="47.6485" lon="6.02417">
        <ele>214</ele>
        <time>2018-11-28T13:01:58Z</time>
      </trkpt>
      <trkpt lat="47.64845" lon="6.02419">
        <ele>215</ele>
        <time>2018-11-28T13:02:01Z</time>
      </trkpt>
      <trkpt lat="47.64841" lon="6.02421">
        <ele>215</ele>
        <time>2018-11-28T13:02:04Z</time>
      </trkpt>
      <trkpt lat="47.64836" lon="6.02421">
        <ele>216</ele>
        <time>2018-11-28T13:02:07Z</time>
      </trkpt>
      <trkpt lat="47.6483" lon="6.02421">
        <ele>217</ele>
        <time>2018-11-28T13:02:11Z</time>
      </trkpt>
      <trkpt lat="47.64825" lon="6.02422">
        <ele>217</ele>
        <time>2018-11-28T13:02:15Z</time>
      </trkpt>
      <trkpt lat="47.64819" lon="6.02422">
        <ele>217</ele>
        <time>2018-11-28T13:02:19Z</time>
      </trkpt>
      <trkpt lat="47.64814" lon="6.02422">
        <ele>217</ele>
        <time>2018-11-28T13:02:23Z</time>
      </trkpt>
      <trkpt lat="47.64809" lon="6.02421">
        <ele>217</ele>
        <time>2018-11-28T13:02:27Z</time>
      </trkpt>
      <trkpt lat="47.64805" lon="6.0242">
        <ele>217</ele>
        <time>2018-11-28T13:02:31Z</time>
      </trkpt>
      <trkpt lat="47.648" lon="6.02419">
        <ele>217</ele>
        <time>2018-11-28T13:02:35Z</time>
      </trkpt>
      <trkpt lat="47.64795" lon="6.02418">
        <ele>217</ele>
        <time>2018-11-28T13:02:39Z</time>
      </trkpt>
      <trkpt lat="47.6479" lon="6.02418">
        <ele>217</ele>
        <time>2018-11-28T13:02:43Z</time>
      </trkpt>
      <trkpt lat="47.64785" lon="6.02417">
        <ele>217</ele>
        <time>2018-11-28T13:02:47Z</time>
      </trkpt>
      <trkpt lat="47.6478" lon="6.02416">
        <ele>219</ele>
        <time>2018-11-28T13:02:51Z</time>
      </trkpt>
      <trkpt lat="47.64776" lon="6.02416">
        <ele>220</ele>
        <time>2018-11-28T13:02:55Z</time>
      </trkpt>
      <trkpt lat="47.6477" lon="6.02415">
        <ele>220</ele>
        <time>2018-11-28T13:02:59Z</time>
      </trkpt>
      <trkpt lat="47.64766" lon="6.02414">
        <ele>220</ele>
        <time>2018-11-28T13:03:03Z</time>
      </trkpt>
      <trkpt lat="47.64761" lon="6.02412">
        <ele>220</ele>
        <time>2018-11-28T13:03:07Z</time>
      </trkpt>
      <trkpt lat="47.64756" lon="6.02413">
        <ele>220</ele>
        <time>2018-11-28T13:03:10Z</time>
      </trkpt>
      <trkpt lat="47.64751" lon="6.02414">
        <ele>220</ele>
        <time>2018-11-28T13:03:13Z</time>
      </trkpt>
      <trkpt lat="47.64746" lon="6.02414">
        <ele>221</ele>
        <time>2018-11-28T13:03:16Z</time>
      </trkpt>
      <trkpt lat="47.64741" lon="6.02414">
        <ele>222</ele>
        <time>2018-11-28T13:03:19Z</time>
      </trkpt>
      <trkpt lat="47.64736" lon="6.02414">
        <ele>222</ele>
        <time>2018-11-28T13:03:22Z</time>
      </trkpt>
      <trkpt lat="47.64731" lon="6.02414">
        <ele>223</ele>
        <time>2018-11-28T13:03:25Z</time>
      </trkpt>
      <trkpt lat="47.64726" lon="6.02414">
        <ele>223</ele>
        <time>2018-11-28T13:03:28Z</time>
      </trkpt>
      <trkpt lat="47.64719" lon="6.02414">
        <ele>224</ele>
        <time>2018-11-28T13:03:31Z</time>
      </trkpt>
      <trkpt lat="47.64713" lon="6.02415">
        <ele>224</ele>
        <time>2018-11-28T13:03:34Z</time>
      </trkpt>
      <trkpt lat="47.64707" lon="6.02416">
        <ele>225</ele>
        <time>2018-11-28T13:03:37Z</time>
      </trkpt>
      <trkpt lat="47.64701" lon="6.02417">
        <ele>223</ele>
        <time>2018-11-28T13:03:40Z</time>
      </trkpt>
      <trkpt lat="47.64696" lon="6.02419">
        <ele>223</ele>
        <time>2018-11-28T13:03:43Z</time>
      </trkpt>
      <trkpt lat="47.6469" lon="6.0242">
        <ele>224</ele>
        <time>2018-11-28T13:03:46Z</time>
      </trkpt>
      <trkpt lat="47.64684" lon="6.0242">
        <ele>225</ele>
        <time>2018-11-28T13:03:49Z</time>
      </trkpt>
      <trkpt lat="47.64678" lon="6.02418">
        <ele>226</ele>
        <time>2018-11-28T13:03:52Z</time>
      </trkpt>
      <trkpt lat="47.64671" lon="6.02416">
        <ele>227</ele>
        <time>2018-11-28T13:03:55Z</time>
      </trkpt>
      <trkpt lat="47.64666" lon="6.02414">
        <ele>228</ele>
        <time>2018-11-28T13:03:58Z</time>
      </trkpt>
      <trkpt lat="47.64659" lon="6.02412">
        <ele>229</ele>
        <time>2018-11-28T13:04:01Z</time>
      </trkpt>
      <trkpt lat="47.64654" lon="6.02409">
        <ele>229</ele>
        <time>2018-11-28T13:04:04Z</time>
      </trkpt>
      <trkpt lat="47.64649" lon="6.02407">
        <ele>229</ele>
        <time>2018-11-28T13:04:06Z</time>
      </trkpt>
      <trkpt lat="47.64643" lon="6.02403">
        <ele>229</ele>
        <time>2018-11-28T13:04:09Z</time>
      </trkpt>
      <trkpt lat="47.64638" lon="6.02399">
        <ele>229</ele>
        <time>2018-11-28T13:04:12Z</time>
      </trkpt>
      <trkpt lat="47.64632" lon="6.02395">
        <ele>230</ele>
        <time>2018-11-28T13:04:15Z</time>
      </trkpt>
      <trkpt lat="47.64626" lon="6.02392">
        <ele>230</ele>
        <time>2018-11-28T13:04:18Z</time>
      </trkpt>
      <trkpt lat="47.6462" lon="6.02388">
        <ele>230</ele>
        <time>2018-11-28T13:04:21Z</time>
      </trkpt>
      <trkpt lat="47.64616" lon="6.02385">
        <ele>230</ele>
        <time>2018-11-28T13:04:23Z</time>
      </trkpt>
      <trkpt lat="47.64611" lon="6.02382">
        <ele>230</ele>
        <time>2018-11-28T13:04:25Z</time>
      </trkpt>
      <trkpt lat="47.64606" lon="6.02377">
        <ele>230</ele>
        <time>2018-11-28T13:04:28Z</time>
      </trkpt>
      <trkpt lat="47.64601" lon="6.02373">
        <ele>230</ele>
        <time>2018-11-28T13:04:31Z</time>
      </trkpt>
      <trkpt lat="47.64596" lon="6.02369">
        <ele>231</ele>
        <time>2018-11-28T13:04:34Z</time>
      </trkpt>
      <trkpt lat="47.64591" lon="6.02365">
        <ele>231</ele>
        <time>2018-11-28T13:04:37Z</time>
      </trkpt>
      <trkpt lat="47.64587" lon="6.02361">
        <ele>231</ele>
        <time>2018-11-28T13:04:39Z</time>
      </trkpt>
      <trkpt lat="47.64583" lon="6.02357">
        <ele>232</ele>
        <time>2018-11-28T13:04:41Z</time>
      </trkpt>
      <trkpt lat="47.64579" lon="6.02352">
        <ele>232</ele>
        <time>2018-11-28T13:04:43Z</time>
      </trkpt>
      <trkpt lat="47.64576" lon="6.02347">
        <ele>232</ele>
        <time>2018-11-28T13:04:45Z</time>
      </trkpt>
      <trkpt lat="47.64572" lon="6.02342">
        <ele>232</ele>
        <time>2018-11-28T13:04:48Z</time>
      </trkpt>
      <trkpt lat="47.64568" lon="6.02339">
        <ele>232</ele>
        <time>2018-11-28T13:04:50Z</time>
      </trkpt>
      <trkpt lat="47.64563" lon="6.02335">
        <ele>232</ele>
        <time>2018-11-28T13:04:52Z</time>
      </trkpt>
      <trkpt lat="47.64558" lon="6.0233">
        <ele>233</ele>
        <time>2018-11-28T13:04:54Z</time>
      </trkpt>
      <trkpt lat="47.64554" lon="6.02327">
        <ele>233</ele>
        <time>2018-11-28T13:04:56Z</time>
      </trkpt>
      <trkpt lat="47.64549" lon="6.02324">
        <ele>233</ele>
        <time>2018-11-28T13:04:58Z</time>
      </trkpt>
      <trkpt lat="47.64543" lon="6.02319">
        <ele>233</ele>
        <time>2018-11-28T13:05:00Z</time>
      </trkpt>
      <trkpt lat="47.64538" lon="6.02315">
        <ele>233</ele>
        <time>2018-11-28T13:05:02Z</time>
      </trkpt>
      <trkpt lat="47.64533" lon="6.02313">
        <ele>233</ele>
        <time>2018-11-28T13:05:04Z</time>
      </trkpt>
      <trkpt lat="47.64527" lon="6.0231">
        <ele>233</ele>
        <time>2018-11-28T13:05:07Z</time>
      </trkpt>
      <trkpt lat="47.64521" lon="6.02307">
        <ele>233</ele>
        <time>2018-11-28T13:05:10Z</time>
      </trkpt>
      <trkpt lat="47.64515" lon="6.02303">
        <ele>233</ele>
        <time>2018-11-28T13:05:13Z</time>
      </trkpt>
      <trkpt lat="47.64509" lon="6.023">
        <ele>233</ele>
        <time>2018-11-28T13:05:16Z</time>
      </trkpt>
      <trkpt lat="47.64505" lon="6.02297">
        <ele>233</ele>
        <time>2018-11-28T13:05:18Z</time>
      </trkpt>
      <trkpt lat="47.64501" lon="6.02293">
        <ele>234</ele>
        <time>2018-11-28T13:05:20Z</time>
      </trkpt>
      <trkpt lat="47.64497" lon="6.02289">
        <ele>233</ele>
        <time>2018-11-28T13:05:22Z</time>
      </trkpt>
      <trkpt lat="47.64493" lon="6.02284">
        <ele>233</ele>
        <time>2018-11-28T13:05:24Z</time>
      </trkpt>
      <trkpt lat="47.6449" lon="6.02278">
        <ele>234</ele>
        <time>2018-11-28T13:05:26Z</time>
      </trkpt>
      <trkpt lat="47.64486" lon="6.02271">
        <ele>234</ele>
        <time>2018-11-28T13:05:28Z</time>
      </trkpt>
      <trkpt lat="47.64482" lon="6.02263">
        <ele>234</ele>
        <time>2018-11-28T13:05:31Z</time>
      </trkpt>
      <trkpt lat="47.64479" lon="6.02257">
        <ele>234</ele>
        <time>2018-11-28T13:05:34Z</time>
      </trkpt>
      <trkpt lat="47.64474" lon="6.0225">
        <ele>234</ele>
        <time>2018-11-28T13:05:37Z</time>
      </trkpt>
      <trkpt lat="47.6447" lon="6.02245">
        <ele>235</ele>
        <time>2018-11-28T13:05:39Z</time>
      </trkpt>
      <trkpt lat="47.64466" lon="6.02239">
        <ele>234</ele>
        <time>2018-11-28T13:05:42Z</time>
      </trkpt>
      <trkpt lat="47.64462" lon="6.02233">
        <ele>234</ele>
        <time>2018-11-28T13:05:46Z</time>
      </trkpt>
      <trkpt lat="47.64457" lon="6.02228">
        <ele>234</ele>
        <time>2018-11-28T13:05:49Z</time>
      </trkpt>
      <trkpt lat="47.64453" lon="6.02223">
        <ele>234</ele>
        <time>2018-11-28T13:05:52Z</time>
      </trkpt>
      <trkpt lat="47.6445" lon="6.02218">
        <ele>234</ele>
        <time>2018-11-28T13:05:56Z</time>
      </trkpt>
      <trkpt lat="47.64446" lon="6.02213">
        <ele>234</ele>
        <time>2018-11-28T13:06:34Z</time>
      </trkpt>
      <trkpt lat="47.64441" lon="6.02208">
        <ele>235</ele>
        <time>2018-11-28T13:06:37Z</time>
      </trkpt>
      <trkpt lat="47.64438" lon="6.02203">
        <ele>235</ele>
        <time>2018-11-28T13:06:39Z</time>
      </trkpt>
      <trkpt lat="47.64434" lon="6.02198">
        <ele>235</ele>
        <time>2018-11-28T13:06:41Z</time>
      </trkpt>
      <trkpt lat="47.64431" lon="6.02192">
        <ele>235</ele>
        <time>2018-11-28T13:06:43Z</time>
      </trkpt>
      <trkpt lat="47.64428" lon="6.02186">
        <ele>236</ele>
        <time>2018-11-28T13:06:45Z</time>
      </trkpt>
      <trkpt lat="47.64426" lon="6.02181">
        <ele>236</ele>
        <time>2018-11-28T13:06:47Z</time>
      </trkpt>
      <trkpt lat="47.64423" lon="6.02174">
        <ele>237</ele>
        <time>2018-11-28T13:06:49Z</time>
      </trkpt>
      <trkpt lat="47.64422" lon="6.02168">
        <ele>237</ele>
        <time>2018-11-28T13:06:51Z</time>
      </trkpt>
      <trkpt lat="47.64418" lon="6.0216">
        <ele>238</ele>
        <time>2018-11-28T13:06:54Z</time>
      </trkpt>
      <trkpt lat="47.64415" lon="6.02155">
        <ele>239</ele>
        <time>2018-11-28T13:06:56Z</time>
      </trkpt>
      <trkpt lat="47.64411" lon="6.0215">
        <ele>239</ele>
        <time>2018-11-28T13:06:58Z</time>
      </trkpt>
      <trkpt lat="47.64407" lon="6.02144">
        <ele>240</ele>
        <time>2018-11-28T13:07:00Z</time>
      </trkpt>
      <trkpt lat="47.64403" lon="6.02136">
        <ele>240</ele>
        <time>2018-11-28T13:07:02Z</time>
      </trkpt>
      <trkpt lat="47.64398" lon="6.0213">
        <ele>241</ele>
        <time>2018-11-28T13:07:04Z</time>
      </trkpt>
      <trkpt lat="47.64394" lon="6.02126">
        <ele>241</ele>
        <time>2018-11-28T13:07:06Z</time>
      </trkpt>
      <trkpt lat="47.64388" lon="6.02122">
        <ele>241</ele>
        <time>2018-11-28T13:07:08Z</time>
      </trkpt>
      <trkpt lat="47.64383" lon="6.02117">
        <ele>241</ele>
        <time>2018-11-28T13:07:10Z</time>
      </trkpt>
      <trkpt lat="47.64378" lon="6.02112">
        <ele>241</ele>
        <time>2018-11-28T13:07:12Z</time>
      </trkpt>
      <trkpt lat="47.64372" lon="6.02107">
        <ele>242</ele>
        <time>2018-11-28T13:07:14Z</time>
      </trkpt>
      <trkpt lat="47.64366" lon="6.02102">
        <ele>242</ele>
        <time>2018-11-28T13:07:16Z</time>
      </trkpt>
      <trkpt lat="47.64361" lon="6.02098">
        <ele>242</ele>
        <time>2018-11-28T13:07:18Z</time>
      </trkpt>
      <trkpt lat="47.64356" lon="6.02093">
        <ele>243</ele>
        <time>2018-11-28T13:07:20Z</time>
      </trkpt>
      <trkpt lat="47.64351" lon="6.02089">
        <ele>243</ele>
        <time>2018-11-28T13:07:22Z</time>
      </trkpt>
      <trkpt lat="47.64345" lon="6.02085">
        <ele>244</ele>
        <time>2018-11-28T13:07:24Z</time>
      </trkpt>
      <trkpt lat="47.6434" lon="6.02083">
        <ele>246</ele>
        <time>2018-11-28T13:07:26Z</time>
      </trkpt>
      <trkpt lat="47.64334" lon="6.02083">
        <ele>246</ele>
        <time>2018-11-28T13:07:28Z</time>
      </trkpt>
      <trkpt lat="47.64329" lon="6.02082">
        <ele>247</ele>
        <time>2018-11-28T13:07:30Z</time>
      </trkpt>
      <trkpt lat="47.64324" lon="6.0208">
        <ele>247</ele>
        <time>2018-11-28T13:07:32Z</time>
      </trkpt>
      <trkpt lat="47.64318" lon="6.02076">
        <ele>248</ele>
        <time>2018-11-28T13:07:35Z</time>
      </trkpt>
      <trkpt lat="47.64313" lon="6.02072">
        <ele>248</ele>
        <time>2018-11-28T13:07:38Z</time>
      </trkpt>
      <trkpt lat="47.64307" lon="6.0207">
        <ele>249</ele>
        <time>2018-11-28T13:07:41Z</time>
      </trkpt>
      <trkpt lat="47.64302" lon="6.02066">
        <ele>249</ele>
        <time>2018-11-28T13:07:44Z</time>
      </trkpt>
      <trkpt lat="47.64298" lon="6.02064">
        <ele>249</ele>
        <time>2018-11-28T13:07:47Z</time>
      </trkpt>
      <trkpt lat="47.64293" lon="6.02062">
        <ele>249</ele>
        <time>2018-11-28T13:07:50Z</time>
      </trkpt>
      <trkpt lat="47.64287" lon="6.02059">
        <ele>249</ele>
        <time>2018-11-28T13:07:53Z</time>
      </trkpt>
      <trkpt lat="47.64282" lon="6.02055">
        <ele>250</ele>
        <time>2018-11-28T13:07:56Z</time>
      </trkpt>
      <trkpt lat="47.64277" lon="6.02052">
        <ele>250</ele>
        <time>2018-11-28T13:07:59Z</time>
      </trkpt>
      <trkpt lat="47.64272" lon="6.0205">
        <ele>250</ele>
        <time>2018-11-28T13:08:02Z</time>
      </trkpt>
      <trkpt lat="47.64267" lon="6.02046">
        <ele>250</ele>
        <time>2018-11-28T13:08:05Z</time>
      </trkpt>
      <trkpt lat="47.64262" lon="6.02042">
        <ele>250</ele>
        <time>2018-11-28T13:08:08Z</time>
      </trkpt>
      <trkpt lat="47.64257" lon="6.02038">
        <ele>250</ele>
        <time>2018-11-28T13:08:10Z</time>
      </trkpt>
      <trkpt lat="47.64252" lon="6.02032">
        <ele>251</ele>
        <time>2018-11-28T13:08:12Z</time>
      </trkpt>
      <trkpt lat="47.64248" lon="6.02028">
        <ele>252</ele>
        <time>2018-11-28T13:08:14Z</time>
      </trkpt>
      <trkpt lat="47.64243" lon="6.02026">
        <ele>252</ele>
        <time>2018-11-28T13:08:16Z</time>
      </trkpt>
      <trkpt lat="47.64237" lon="6.02024">
        <ele>252</ele>
        <time>2018-11-28T13:08:19Z</time>
      </trkpt>
      <trkpt lat="47.64232" lon="6.02021">
        <ele>252</ele>
        <time>2018-11-28T13:08:22Z</time>
      </trkpt>
      <trkpt lat="47.64227" lon="6.02018">
        <ele>252</ele>
        <time>2018-11-28T13:08:26Z</time>
      </trkpt>
      <trkpt lat="47.64222" lon="6.02016">
        <ele>252</ele>
        <time>2018-11-28T13:08:29Z</time>
      </trkpt>
      <trkpt lat="47.64217" lon="6.02014">
        <ele>252</ele>
        <time>2018-11-28T13:08:32Z</time>
      </trkpt>
      <trkpt lat="47.64211" lon="6.02011">
        <ele>252</ele>
        <time>2018-11-28T13:08:35Z</time>
      </trkpt>
      <trkpt lat="47.64206" lon="6.02009">
        <ele>252</ele>
        <time>2018-11-28T13:08:38Z</time>
      </trkpt>
      <trkpt lat="47.642" lon="6.02006">
        <ele>252</ele>
        <time>2018-11-28T13:08:41Z</time>
      </trkpt>
      <trkpt lat="47.64195" lon="6.02003">
        <ele>252</ele>
        <time>2018-11-28T13:08:44Z</time>
      </trkpt>
      <trkpt lat="47.64189" lon="6.02">
        <ele>252</ele>
        <time>2018-11-28T13:08:47Z</time>
      </trkpt>
      <trkpt lat="47.64184" lon="6.01998">
        <ele>254</ele>
        <time>2018-11-28T13:08:49Z</time>
      </trkpt>
      <trkpt lat="47.64179" lon="6.01996">
        <ele>254</ele>
        <time>2018-11-28T13:08:51Z</time>
      </trkpt>
      <trkpt lat="47.64175" lon="6.01993">
        <ele>254</ele>
        <time>2018-11-28T13:08:53Z</time>
      </trkpt>
      <trkpt lat="47.6417" lon="6.01991">
        <ele>254</ele>
        <time>2018-11-28T13:08:55Z</time>
      </trkpt>
      <trkpt lat="47.64166" lon="6.01989">
        <ele>255</ele>
        <time>2018-11-28T13:08:57Z</time>
      </trkpt>
      <trkpt lat="47.64161" lon="6.01984">
        <ele>255</ele>
        <time>2018-11-28T13:09:00Z</time>
      </trkpt>
      <trkpt lat="47.64157" lon="6.01979">
        <ele>256</ele>
        <time>2018-11-28T13:09:02Z</time>
      </trkpt>
      <trkpt lat="47.64152" lon="6.01975">
        <ele>256</ele>
        <time>2018-11-28T13:09:04Z</time>
      </trkpt>
      <trkpt lat="47.64147" lon="6.01969">
        <ele>256</ele>
        <time>2018-11-28T13:09:06Z</time>
      </trkpt>
      <trkpt lat="47.64142" lon="6.01965">
        <ele>256</ele>
        <time>2018-11-28T13:09:08Z</time>
      </trkpt>
      <trkpt lat="47.64136" lon="6.0196">
        <ele>256</ele>
        <time>2018-11-28T13:09:10Z</time>
      </trkpt>
      <trkpt lat="47.64131" lon="6.01956">
        <ele>257</ele>
        <time>2018-11-28T13:09:12Z</time>
      </trkpt>
      <trkpt lat="47.64126" lon="6.01952">
        <ele>257</ele>
        <time>2018-11-28T13:09:15Z</time>
      </trkpt>
      <trkpt lat="47.64121" lon="6.01948">
        <ele>257</ele>
        <time>2018-11-28T13:09:17Z</time>
      </trkpt>
      <trkpt lat="47.64115" lon="6.01944">
        <ele>257</ele>
        <time>2018-11-28T13:09:20Z</time>
      </trkpt>
      <trkpt lat="47.64111" lon="6.01941">
        <ele>257</ele>
        <time>2018-11-28T13:09:22Z</time>
      </trkpt>
      <trkpt lat="47.64105" lon="6.01937">
        <ele>257</ele>
        <time>2018-11-28T13:09:24Z</time>
      </trkpt>
      <trkpt lat="47.64101" lon="6.01933">
        <ele>257</ele>
        <time>2018-11-28T13:09:26Z</time>
      </trkpt>
      <trkpt lat="47.64095" lon="6.01928">
        <ele>257</ele>
        <time>2018-11-28T13:09:29Z</time>
      </trkpt>
      <trkpt lat="47.6409" lon="6.01923">
        <ele>258</ele>
        <time>2018-11-28T13:09:32Z</time>
      </trkpt>
      <trkpt lat="47.64085" lon="6.01919">
        <ele>258</ele>
        <time>2018-11-28T13:09:35Z</time>
      </trkpt>
      <trkpt lat="47.6408" lon="6.01916">
        <ele>258</ele>
        <time>2018-11-28T13:09:38Z</time>
      </trkpt>
      <trkpt lat="47.64074" lon="6.01912">
        <ele>259</ele>
        <time>2018-11-28T13:09:41Z</time>
      </trkpt>
      <trkpt lat="47.64069" lon="6.01908">
        <ele>260</ele>
        <time>2018-11-28T13:09:44Z</time>
      </trkpt>
      <trkpt lat="47.64063" lon="6.01904">
        <ele>260</ele>
        <time>2018-11-28T13:09:47Z</time>
      </trkpt>
      <trkpt lat="47.64058" lon="6.019">
        <ele>260</ele>
        <time>2018-11-28T13:09:50Z</time>
      </trkpt>
      <trkpt lat="47.64052" lon="6.01896">
        <ele>261</ele>
        <time>2018-11-28T13:09:53Z</time>
      </trkpt>
      <trkpt lat="47.64048" lon="6.01894">
        <ele>261</ele>
        <time>2018-11-28T13:09:55Z</time>
      </trkpt>
      <trkpt lat="47.64042" lon="6.01892">
        <ele>261</ele>
        <time>2018-11-28T13:09:58Z</time>
      </trkpt>
      <trkpt lat="47.64037" lon="6.01891">
        <ele>261</ele>
        <time>2018-11-28T13:10:00Z</time>
      </trkpt>
      <trkpt lat="47.64033" lon="6.0189">
        <ele>261</ele>
        <time>2018-11-28T13:10:02Z</time>
      </trkpt>
      <trkpt lat="47.64028" lon="6.0189">
        <ele>261</ele>
        <time>2018-11-28T13:10:04Z</time>
      </trkpt>
      <trkpt lat="47.64021" lon="6.01889">
        <ele>261</ele>
        <time>2018-11-28T13:10:07Z</time>
      </trkpt>
      <trkpt lat="47.64014" lon="6.0189">
        <ele>262</ele>
        <time>2018-11-28T13:10:10Z</time>
      </trkpt>
      <trkpt lat="47.64008" lon="6.01891">
        <ele>262</ele>
        <time>2018-11-28T13:10:13Z</time>
      </trkpt>
      <trkpt lat="47.64004" lon="6.01893">
        <ele>261</ele>
        <time>2018-11-28T13:10:15Z</time>
      </trkpt>
      <trkpt lat="47.63999" lon="6.01896">
        <ele>263</ele>
        <time>2018-11-28T13:10:17Z</time>
      </trkpt>
      <trkpt lat="47.63993" lon="6.01898">
        <ele>263</ele>
        <time>2018-11-28T13:10:20Z</time>
      </trkpt>
      <trkpt lat="47.63987" lon="6.01901">
        <ele>263</ele>
        <time>2018-11-28T13:10:23Z</time>
      </trkpt>
      <trkpt lat="47.63982" lon="6.01902">
        <ele>263</ele>
        <time>2018-11-28T13:10:26Z</time>
      </trkpt>
      <trkpt lat="47.63976" lon="6.01904">
        <ele>263</ele>
        <time>2018-11-28T13:10:29Z</time>
      </trkpt>
      <trkpt lat="47.63969" lon="6.01905">
        <ele>263</ele>
        <time>2018-11-28T13:10:32Z</time>
      </trkpt>
      <trkpt lat="47.63964" lon="6.01906">
        <ele>264</ele>
        <time>2018-11-28T13:10:35Z</time>
      </trkpt>
      <trkpt lat="47.63958" lon="6.01906">
        <ele>264</ele>
        <time>2018-11-28T13:10:38Z</time>
      </trkpt>
      <trkpt lat="47.63952" lon="6.01907">
        <ele>264</ele>
        <time>2018-11-28T13:10:41Z</time>
      </trkpt>
      <trkpt lat="47.63945" lon="6.01907">
        <ele>264</ele>
        <time>2018-11-28T13:10:44Z</time>
      </trkpt>
      <trkpt lat="47.63941" lon="6.01905">
        <ele>264</ele>
        <time>2018-11-28T13:10:46Z</time>
      </trkpt>
      <trkpt lat="47.63934" lon="6.01903">
        <ele>264</ele>
        <time>2018-11-28T13:10:49Z</time>
      </trkpt>
      <trkpt lat="47.63929" lon="6.019">
        <ele>265</ele>
        <time>2018-11-28T13:10:52Z</time>
      </trkpt>
      <trkpt lat="47.63924" lon="6.01898">
        <ele>265</ele>
        <time>2018-11-28T13:10:55Z</time>
      </trkpt>
      <trkpt lat="47.63919" lon="6.01895">
        <ele>265</ele>
        <time>2018-11-28T13:10:58Z</time>
      </trkpt>
      <trkpt lat="47.63913" lon="6.01892">
        <ele>265</ele>
        <time>2018-11-28T13:11:01Z</time>
      </trkpt>
      <trkpt lat="47.63908" lon="6.01888">
        <ele>265</ele>
        <time>2018-11-28T13:11:04Z</time>
      </trkpt>
      <trkpt lat="47.63903" lon="6.01885">
        <ele>265</ele>
        <time>2018-11-28T13:11:07Z</time>
      </trkpt>
      <trkpt lat="47.63898" lon="6.01881">
        <ele>265</ele>
        <time>2018-11-28T13:11:10Z</time>
      </trkpt>
      <trkpt lat="47.63893" lon="6.01877">
        <ele>265</ele>
        <time>2018-11-28T13:11:12Z</time>
      </trkpt>
      <trkpt lat="47.63888" lon="6.01873">
        <ele>265</ele>
        <time>2018-11-28T13:11:15Z</time>
      </trkpt>
      <trkpt lat="47.63884" lon="6.01869">
        <ele>265</ele>
        <time>2018-11-28T13:11:17Z</time>
      </trkpt>
      <trkpt lat="47.63878" lon="6.01864">
        <ele>265</ele>
        <time>2018-11-28T13:11:20Z</time>
      </trkpt>
      <trkpt lat="47.63874" lon="6.0186">
        <ele>265</ele>
        <time>2018-11-28T13:11:22Z</time>
      </trkpt>
      <trkpt lat="47.63869" lon="6.01855">
        <ele>265</ele>
        <time>2018-11-28T13:11:24Z</time>
      </trkpt>
      <trkpt lat="47.63865" lon="6.01851">
        <ele>265</ele>
        <time>2018-11-28T13:11:26Z</time>
      </trkpt>
      <trkpt lat="47.63861" lon="6.01846">
        <ele>266</ele>
        <time>2018-11-28T13:11:28Z</time>
      </trkpt>
      <trkpt lat="47.63857" lon="6.01842">
        <ele>266</ele>
        <time>2018-11-28T13:11:30Z</time>
      </trkpt>
      <trkpt lat="47.63852" lon="6.01836">
        <ele>266</ele>
        <time>2018-11-28T13:11:33Z</time>
      </trkpt>
      <trkpt lat="47.63847" lon="6.01831">
        <ele>267</ele>
        <time>2018-11-28T13:11:36Z</time>
      </trkpt>
      <trkpt lat="47.63843" lon="6.01827">
        <ele>267</ele>
        <time>2018-11-28T13:11:39Z</time>
      </trkpt>
      <trkpt lat="47.63839" lon="6.01821">
        <ele>268</ele>
        <time>2018-11-28T13:11:42Z</time>
      </trkpt>
      <trkpt lat="47.63835" lon="6.01817">
        <ele>268</ele>
        <time>2018-11-28T13:11:44Z</time>
      </trkpt>
      <trkpt lat="47.63831" lon="6.01814">
        <ele>267</ele>
        <time>2018-11-28T13:11:46Z</time>
      </trkpt>
      <trkpt lat="47.63826" lon="6.0181">
        <ele>267</ele>
        <time>2018-11-28T13:11:49Z</time>
      </trkpt>
      <trkpt lat="47.6382" lon="6.01808">
        <ele>267</ele>
        <time>2018-11-28T13:11:52Z</time>
      </trkpt>
      <trkpt lat="47.63816" lon="6.01804">
        <ele>267</ele>
        <time>2018-11-28T13:11:55Z</time>
      </trkpt>
      <trkpt lat="47.6381" lon="6.01798">
        <ele>267</ele>
        <time>2018-11-28T13:11:58Z</time>
      </trkpt>
      <trkpt lat="47.63806" lon="6.01792">
        <ele>267</ele>
        <time>2018-11-28T13:12:00Z</time>
      </trkpt>
      <trkpt lat="47.638" lon="6.01785">
        <ele>267</ele>
        <time>2018-11-28T13:12:02Z</time>
      </trkpt>
      <trkpt lat="47.63795" lon="6.01777">
        <ele>267</ele>
        <time>2018-11-28T13:12:04Z</time>
      </trkpt>
      <trkpt lat="47.63789" lon="6.01768">
        <ele>267</ele>
        <time>2018-11-28T13:12:06Z</time>
      </trkpt>
      <trkpt lat="47.63786" lon="6.01762">
        <ele>267</ele>
        <time>2018-11-28T13:12:08Z</time>
      </trkpt>
      <trkpt lat="47.63783" lon="6.01756">
        <ele>267</ele>
        <time>2018-11-28T13:12:10Z</time>
      </trkpt>
      <trkpt lat="47.63779" lon="6.01751">
        <ele>267</ele>
        <time>2018-11-28T13:12:12Z</time>
      </trkpt>
      <trkpt lat="47.63775" lon="6.01745">
        <ele>268</ele>
        <time>2018-11-28T13:12:14Z</time>
      </trkpt>
      <trkpt lat="47.63771" lon="6.0174">
        <ele>268</ele>
        <time>2018-11-28T13:12:16Z</time>
      </trkpt>
      <trkpt lat="47.63766" lon="6.01735">
        <ele>268</ele>
        <time>2018-11-28T13:12:18Z</time>
      </trkpt>
      <trkpt lat="47.63761" lon="6.0173">
        <ele>268</ele>
        <time>2018-11-28T13:12:20Z</time>
      </trkpt>
      <trkpt lat="47.63755" lon="6.01724">
        <ele>268</ele>
        <time>2018-11-28T13:12:22Z</time>
      </trkpt>
      <trkpt lat="47.63748" lon="6.01718">
        <ele>266</ele>
        <time>2018-11-28T13:12:24Z</time>
      </trkpt>
      <trkpt lat="47.63745" lon="6.01714">
        <ele>266</ele>
        <time>2018-11-28T13:12:25Z</time>
      </trkpt>
      <trkpt lat="47.63741" lon="6.0171">
        <ele>266</ele>
        <time>2018-11-28T13:12:26Z</time>
      </trkpt>
      <trkpt lat="47.63736" lon="6.01704">
        <ele>266</ele>
        <time>2018-11-28T13:12:27Z</time>
      </trkpt>
      <trkpt lat="47.63732" lon="6.01699">
        <ele>266</ele>
        <time>2018-11-28T13:12:28Z</time>
      </trkpt>
      <trkpt lat="47.63724" lon="6.0169">
        <ele>266</ele>
        <time>2018-11-28T13:12:30Z</time>
      </trkpt>
      <trkpt lat="47.6372" lon="6.01686">
        <ele>266</ele>
        <time>2018-11-28T13:12:31Z</time>
      </trkpt>
      <trkpt lat="47.63714" lon="6.0168">
        <ele>266</ele>
        <time>2018-11-28T13:12:33Z</time>
      </trkpt>
      <trkpt lat="47.63708" lon="6.01674">
        <ele>266</ele>
        <time>2018-11-28T13:12:35Z</time>
      </trkpt>
      <trkpt lat="47.637" lon="6.01665">
        <ele>267</ele>
        <time>2018-11-28T13:12:37Z</time>
      </trkpt>
      <trkpt lat="47.63697" lon="6.01661">
        <ele>267</ele>
        <time>2018-11-28T13:12:38Z</time>
      </trkpt>
      <trkpt lat="47.63691" lon="6.01654">
        <ele>267</ele>
        <time>2018-11-28T13:12:40Z</time>
      </trkpt>
      <trkpt lat="47.63684" lon="6.01646">
        <ele>267</ele>
        <time>2018-11-28T13:12:42Z</time>
      </trkpt>
      <trkpt lat="47.63678" lon="6.01639">
        <ele>267</ele>
        <time>2018-11-28T13:12:44Z</time>
      </trkpt>
      <trkpt lat="47.63674" lon="6.01634">
        <ele>267</ele>
        <time>2018-11-28T13:12:45Z</time>
      </trkpt>
      <trkpt lat="47.63671" lon="6.01629">
        <ele>267</ele>
        <time>2018-11-28T13:12:46Z</time>
      </trkpt>
      <trkpt lat="47.63666" lon="6.0162">
        <ele>264</ele>
        <time>2018-11-28T13:12:48Z</time>
      </trkpt>
      <trkpt lat="47.63663" lon="6.01615">
        <ele>264</ele>
        <time>2018-11-28T13:12:49Z</time>
      </trkpt>
      <trkpt lat="47.6366" lon="6.01609">
        <ele>265</ele>
        <time>2018-11-28T13:12:50Z</time>
      </trkpt>
      <trkpt lat="47.63656" lon="6.01603">
        <ele>265</ele>
        <time>2018-11-28T13:12:51Z</time>
      </trkpt>
      <trkpt lat="47.63652" lon="6.01597">
        <ele>265</ele>
        <time>2018-11-28T13:12:52Z</time>
      </trkpt>
      <trkpt lat="47.63647" lon="6.01587">
        <ele>265</ele>
        <time>2018-11-28T13:12:54Z</time>
      </trkpt>
      <trkpt lat="47.63641" lon="6.01577">
        <ele>263</ele>
        <time>2018-11-28T13:12:56Z</time>
      </trkpt>
      <trkpt lat="47.63636" lon="6.01568">
        <ele>263</ele>
        <time>2018-11-28T13:12:58Z</time>
      </trkpt>
      <trkpt lat="47.63633" lon="6.01563">
        <ele>263</ele>
        <time>2018-11-28T13:12:59Z</time>
      </trkpt>
      <trkpt lat="47.6363" lon="6.01557">
        <ele>263</ele>
        <time>2018-11-28T13:13:00Z</time>
      </trkpt>
      <trkpt lat="47.63627" lon="6.01551">
        <ele>262</ele>
        <time>2018-11-28T13:13:01Z</time>
      </trkpt>
      <trkpt lat="47.63624" lon="6.01546">
        <ele>262</ele>
        <time>2018-11-28T13:13:02Z</time>
      </trkpt>
      <trkpt lat="47.63617" lon="6.01534">
        <ele>262</ele>
        <time>2018-11-28T13:13:03Z</time>
      </trkpt>
      <trkpt lat="47.63613" lon="6.01528">
        <ele>261</ele>
        <time>2018-11-28T13:13:04Z</time>
      </trkpt>
      <trkpt lat="47.63606" lon="6.01518">
        <ele>261</ele>
        <time>2018-11-28T13:13:06Z</time>
      </trkpt>
      <trkpt lat="47.63602" lon="6.01512">
        <ele>260</ele>
        <time>2018-11-28T13:13:07Z</time>
      </trkpt>
      <trkpt lat="47.63598" lon="6.01505">
        <ele>259</ele>
        <time>2018-11-28T13:13:08Z</time>
      </trkpt>
      <trkpt lat="47.63594" lon="6.01499">
        <ele>257</ele>
        <time>2018-11-28T13:13:09Z</time>
      </trkpt>
      <trkpt lat="47.63589" lon="6.01492">
        <ele>257</ele>
        <time>2018-11-28T13:13:10Z</time>
      </trkpt>
      <trkpt lat="47.63584" lon="6.01483">
        <ele>257</ele>
        <time>2018-11-28T13:13:11Z</time>
      </trkpt>
      <trkpt lat="47.6358" lon="6.01477">
        <ele>256</ele>
        <time>2018-11-28T13:13:12Z</time>
      </trkpt>
      <trkpt lat="47.63575" lon="6.0147">
        <ele>255</ele>
        <time>2018-11-28T13:13:13Z</time>
      </trkpt>
      <trkpt lat="47.63569" lon="6.0146">
        <ele>255</ele>
        <time>2018-11-28T13:13:14Z</time>
      </trkpt>
      <trkpt lat="47.63562" lon="6.0145">
        <ele>255</ele>
        <time>2018-11-28T13:13:15Z</time>
      </trkpt>
      <trkpt lat="47.63559" lon="6.01444">
        <ele>254</ele>
        <time>2018-11-28T13:13:16Z</time>
      </trkpt>
      <trkpt lat="47.63555" lon="6.01439">
        <ele>254</ele>
        <time>2018-11-28T13:13:17Z</time>
      </trkpt>
      <trkpt lat="47.63549" lon="6.01433">
        <ele>254</ele>
        <time>2018-11-28T13:13:18Z</time>
      </trkpt>
      <trkpt lat="47.63545" lon="6.01426">
        <ele>254</ele>
        <time>2018-11-28T13:13:19Z</time>
      </trkpt>
      <trkpt lat="47.6354" lon="6.0142">
        <ele>254</ele>
        <time>2018-11-28T13:13:20Z</time>
      </trkpt>
      <trkpt lat="47.63534" lon="6.0141">
        <ele>253</ele>
        <time>2018-11-28T13:13:21Z</time>
      </trkpt>
      <trkpt lat="47.63528" lon="6.01399">
        <ele>253</ele>
        <time>2018-11-28T13:13:22Z</time>
      </trkpt>
      <trkpt lat="47.63522" lon="6.01389">
        <ele>252</ele>
        <time>2018-11-28T13:13:23Z</time>
      </trkpt>
      <trkpt lat="47.63516" lon="6.01379">
        <ele>252</ele>
        <time>2018-11-28T13:13:24Z</time>
      </trkpt>
      <trkpt lat="47.63511" lon="6.01369">
        <ele>252</ele>
        <time>2018-11-28T13:13:25Z</time>
      </trkpt>
      <trkpt lat="47.63506" lon="6.01357">
        <ele>252</ele>
        <time>2018-11-28T13:13:26Z</time>
      </trkpt>
      <trkpt lat="47.635" lon="6.01347">
        <ele>251</ele>
        <time>2018-11-28T13:13:27Z</time>
      </trkpt>
      <trkpt lat="47.63496" lon="6.01336">
        <ele>251</ele>
        <time>2018-11-28T13:13:28Z</time>
      </trkpt>
      <trkpt lat="47.6349" lon="6.01326">
        <ele>250</ele>
        <time>2018-11-28T13:13:29Z</time>
      </trkpt>
      <trkpt lat="47.63486" lon="6.01316">
        <ele>249</ele>
        <time>2018-11-28T13:13:30Z</time>
      </trkpt>
      <trkpt lat="47.63481" lon="6.01305">
        <ele>249</ele>
        <time>2018-11-28T13:13:31Z</time>
      </trkpt>
      <trkpt lat="47.63476" lon="6.01294">
        <ele>249</ele>
        <time>2018-11-28T13:13:32Z</time>
      </trkpt>
      <trkpt lat="47.63471" lon="6.01284">
        <ele>249</ele>
        <time>2018-11-28T13:13:33Z</time>
      </trkpt>
      <trkpt lat="47.63466" lon="6.01276">
        <ele>248</ele>
        <time>2018-11-28T13:13:34Z</time>
      </trkpt>
      <trkpt lat="47.63462" lon="6.01267">
        <ele>248</ele>
        <time>2018-11-28T13:13:35Z</time>
      </trkpt>
      <trkpt lat="47.63457" lon="6.01257">
        <ele>248</ele>
        <time>2018-11-28T13:13:36Z</time>
      </trkpt>
      <trkpt lat="47.63453" lon="6.01247">
        <ele>247</ele>
        <time>2018-11-28T13:13:37Z</time>
      </trkpt>
      <trkpt lat="47.63448" lon="6.01238">
        <ele>247</ele>
        <time>2018-11-28T13:13:38Z</time>
      </trkpt>
      <trkpt lat="47.63443" lon="6.01229">
        <ele>247</ele>
        <time>2018-11-28T13:13:39Z</time>
      </trkpt>
      <trkpt lat="47.63438" lon="6.0122">
        <ele>247</ele>
        <time>2018-11-28T13:13:40Z</time>
      </trkpt>
      <trkpt lat="47.63433" lon="6.01211">
        <ele>247</ele>
        <time>2018-11-28T13:13:41Z</time>
      </trkpt>
      <trkpt lat="47.63429" lon="6.01203">
        <ele>247</ele>
        <time>2018-11-28T13:13:42Z</time>
      </trkpt>
      <trkpt lat="47.63424" lon="6.01196">
        <ele>246</ele>
        <time>2018-11-28T13:13:43Z</time>
      </trkpt>
      <trkpt lat="47.63421" lon="6.0119">
        <ele>246</ele>
        <time>2018-11-28T13:13:44Z</time>
      </trkpt>
      <trkpt lat="47.63417" lon="6.01184">
        <ele>246</ele>
        <time>2018-11-28T13:13:45Z</time>
      </trkpt>
      <trkpt lat="47.63412" lon="6.01177">
        <ele>244</ele>
        <time>2018-11-28T13:13:46Z</time>
      </trkpt>
      <trkpt lat="47.63408" lon="6.0117">
        <ele>244</ele>
        <time>2018-11-28T13:13:47Z</time>
      </trkpt>
      <trkpt lat="47.63404" lon="6.01165">
        <ele>244</ele>
        <time>2018-11-28T13:13:48Z</time>
      </trkpt>
      <trkpt lat="47.634" lon="6.01159">
        <ele>244</ele>
        <time>2018-11-28T13:13:49Z</time>
      </trkpt>
      <trkpt lat="47.63397" lon="6.01152">
        <ele>244</ele>
        <time>2018-11-28T13:13:50Z</time>
      </trkpt>
      <trkpt lat="47.63394" lon="6.01145">
        <ele>244</ele>
        <time>2018-11-28T13:13:51Z</time>
      </trkpt>
      <trkpt lat="47.63393" lon="6.01139">
        <ele>244</ele>
        <time>2018-11-28T13:13:52Z</time>
      </trkpt>
      <trkpt lat="47.63392" lon="6.0113">
        <ele>244</ele>
        <time>2018-11-28T13:13:53Z</time>
      </trkpt>
      <trkpt lat="47.63391" lon="6.01121">
        <ele>244</ele>
        <time>2018-11-28T13:13:54Z</time>
      </trkpt>
      <trkpt lat="47.6339" lon="6.01111">
        <ele>244</ele>
        <time>2018-11-28T13:13:55Z</time>
      </trkpt>
      <trkpt lat="47.63389" lon="6.01099">
        <ele>244</ele>
        <time>2018-11-28T13:13:56Z</time>
      </trkpt>
      <trkpt lat="47.63389" lon="6.01089">
        <ele>245</ele>
        <time>2018-11-28T13:13:57Z</time>
      </trkpt>
      <trkpt lat="47.63389" lon="6.01081">
        <ele>245</ele>
        <time>2018-11-28T13:13:58Z</time>
      </trkpt>
      <trkpt lat="47.63389" lon="6.01071">
        <ele>245</ele>
        <time>2018-11-28T13:13:59Z</time>
      </trkpt>
      <trkpt lat="47.63389" lon="6.01063">
        <ele>245</ele>
        <time>2018-11-28T13:14:00Z</time>
      </trkpt>
      <trkpt lat="47.63389" lon="6.01055">
        <ele>244</ele>
        <time>2018-11-28T13:14:01Z</time>
      </trkpt>
      <trkpt lat="47.63388" lon="6.01046">
        <ele>244</ele>
        <time>2018-11-28T13:14:02Z</time>
      </trkpt>
      <trkpt lat="47.63388" lon="6.01036">
        <ele>244</ele>
        <time>2018-11-28T13:14:03Z</time>
      </trkpt>
      <trkpt lat="47.63389" lon="6.01028">
        <ele>244</ele>
        <time>2018-11-28T13:14:04Z</time>
      </trkpt>
      <trkpt lat="47.63389" lon="6.01018">
        <ele>244</ele>
        <time>2018-11-28T13:14:05Z</time>
      </trkpt>
      <trkpt lat="47.6339" lon="6.01008">
        <ele>244</ele>
        <time>2018-11-28T13:14:06Z</time>
      </trkpt>
      <trkpt lat="47.6339" lon="6.00999">
        <ele>243</ele>
        <time>2018-11-28T13:14:07Z</time>
      </trkpt>
      <trkpt lat="47.6339" lon="6.00989">
        <ele>243</ele>
        <time>2018-11-28T13:14:08Z</time>
      </trkpt>
      <trkpt lat="47.6339" lon="6.0098">
        <ele>243</ele>
        <time>2018-11-28T13:14:09Z</time>
      </trkpt>
      <trkpt lat="47.63391" lon="6.00971">
        <ele>242</ele>
        <time>2018-11-28T13:14:10Z</time>
      </trkpt>
      <trkpt lat="47.63391" lon="6.00961">
        <ele>242</ele>
        <time>2018-11-28T13:14:11Z</time>
      </trkpt>
      <trkpt lat="47.6339" lon="6.00951">
        <ele>242</ele>
        <time>2018-11-28T13:14:12Z</time>
      </trkpt>
      <trkpt lat="47.63389" lon="6.00941">
        <ele>242</ele>
        <time>2018-11-28T13:14:13Z</time>
      </trkpt>
      <trkpt lat="47.63386" lon="6.0093">
        <ele>242</ele>
        <time>2018-11-28T13:14:14Z</time>
      </trkpt>
      <trkpt lat="47.63384" lon="6.00921">
        <ele>242</ele>
        <time>2018-11-28T13:14:15Z</time>
      </trkpt>
      <trkpt lat="47.6338" lon="6.00914">
        <ele>240</ele>
        <time>2018-11-28T13:14:16Z</time>
      </trkpt>
      <trkpt lat="47.63376" lon="6.00906">
        <ele>240</ele>
        <time>2018-11-28T13:14:17Z</time>
      </trkpt>
      <trkpt lat="47.63373" lon="6.00898">
        <ele>240</ele>
        <time>2018-11-28T13:14:18Z</time>
      </trkpt>
      <trkpt lat="47.6337" lon="6.00889">
        <ele>240</ele>
        <time>2018-11-28T13:14:19Z</time>
      </trkpt>
      <trkpt lat="47.63367" lon="6.00881">
        <ele>240</ele>
        <time>2018-11-28T13:14:20Z</time>
      </trkpt>
      <trkpt lat="47.63364" lon="6.00873">
        <ele>240</ele>
        <time>2018-11-28T13:14:21Z</time>
      </trkpt>
      <trkpt lat="47.63361" lon="6.00863">
        <ele>240</ele>
        <time>2018-11-28T13:14:22Z</time>
      </trkpt>
      <trkpt lat="47.63358" lon="6.00853">
        <ele>240</ele>
        <time>2018-11-28T13:14:23Z</time>
      </trkpt>
      <trkpt lat="47.63357" lon="6.00845">
        <ele>240</ele>
        <time>2018-11-28T13:14:24Z</time>
      </trkpt>
      <trkpt lat="47.63355" lon="6.00837">
        <ele>240</ele>
        <time>2018-11-28T13:14:25Z</time>
      </trkpt>
      <trkpt lat="47.63354" lon="6.00826">
        <ele>240</ele>
        <time>2018-11-28T13:14:27Z</time>
      </trkpt>
      <trkpt lat="47.63353" lon="6.00815">
        <ele>240</ele>
        <time>2018-11-28T13:14:29Z</time>
      </trkpt>
      <trkpt lat="47.63352" lon="6.00806">
        <ele>240</ele>
        <time>2018-11-28T13:14:31Z</time>
      </trkpt>
      <trkpt lat="47.63353" lon="6.00792">
        <ele>241</ele>
        <time>2018-11-28T13:14:33Z</time>
      </trkpt>
      <trkpt lat="47.63353" lon="6.0078">
        <ele>241</ele>
        <time>2018-11-28T13:14:35Z</time>
      </trkpt>
      <trkpt lat="47.63353" lon="6.00769">
        <ele>241</ele>
        <time>2018-11-28T13:14:37Z</time>
      </trkpt>
      <trkpt lat="47.63353" lon="6.00757">
        <ele>241</ele>
        <time>2018-11-28T13:14:40Z</time>
      </trkpt>
      <trkpt lat="47.63353" lon="6.0075">
        <ele>243</ele>
        <time>2018-11-28T13:14:42Z</time>
      </trkpt>
      <trkpt lat="47.63353" lon="6.00742">
        <ele>243</ele>
        <time>2018-11-28T13:14:44Z</time>
      </trkpt>
      <trkpt lat="47.63354" lon="6.00735">
        <ele>243</ele>
        <time>2018-11-28T13:14:48Z</time>
      </trkpt>
      <trkpt lat="47.63353" lon="6.00728">
        <ele>243</ele>
        <time>2018-11-28T13:14:56Z</time>
      </trkpt>
      <trkpt lat="47.63351" lon="6.00722">
        <ele>244</ele>
        <time>2018-11-28T13:15:43Z</time>
      </trkpt>
      <trkpt lat="47.63348" lon="6.00728">
        <ele>243</ele>
        <time>2018-11-28T13:16:00Z</time>
      </trkpt>
      <trkpt lat="47.63344" lon="6.00735">
        <ele>243</ele>
        <time>2018-11-28T13:16:02Z</time>
      </trkpt>
      <trkpt lat="47.63341" lon="6.00744">
        <ele>243</ele>
        <time>2018-11-28T13:16:04Z</time>
      </trkpt>
      <trkpt lat="47.63337" lon="6.00754">
        <ele>242</ele>
        <time>2018-11-28T13:16:06Z</time>
      </trkpt>
      <trkpt lat="47.63333" lon="6.00764">
        <ele>243</ele>
        <time>2018-11-28T13:16:08Z</time>
      </trkpt>
      <trkpt lat="47.63329" lon="6.00773">
        <ele>243</ele>
        <time>2018-11-28T13:16:10Z</time>
      </trkpt>
      <trkpt lat="47.63326" lon="6.0078">
        <ele>243</ele>
        <time>2018-11-28T13:16:11Z</time>
      </trkpt>
      <trkpt lat="47.63323" lon="6.00787">
        <ele>243</ele>
        <time>2018-11-28T13:16:13Z</time>
      </trkpt>
      <trkpt lat="47.63318" lon="6.00795">
        <ele>243</ele>
        <time>2018-11-28T13:16:15Z</time>
      </trkpt>
      <trkpt lat="47.63314" lon="6.008">
        <ele>243</ele>
        <time>2018-11-28T13:16:17Z</time>
      </trkpt>
      <trkpt lat="47.6331" lon="6.00808">
        <ele>243</ele>
        <time>2018-11-28T13:16:19Z</time>
      </trkpt>
      <trkpt lat="47.63305" lon="6.00816">
        <ele>243</ele>
        <time>2018-11-28T13:16:21Z</time>
      </trkpt>
      <trkpt lat="47.63301" lon="6.00822">
        <ele>243</ele>
        <time>2018-11-28T13:16:22Z</time>
      </trkpt>
      <trkpt lat="47.63296" lon="6.00831">
        <ele>243</ele>
        <time>2018-11-28T13:16:24Z</time>
      </trkpt>
      <trkpt lat="47.63292" lon="6.00837">
        <ele>242</ele>
        <time>2018-11-28T13:16:26Z</time>
      </trkpt>
      <trkpt lat="47.63287" lon="6.00844">
        <ele>243</ele>
        <time>2018-11-28T13:16:28Z</time>
      </trkpt>
      <trkpt lat="47.6328" lon="6.00853">
        <ele>243</ele>
        <time>2018-11-28T13:16:30Z</time>
      </trkpt>
      <trkpt lat="47.63275" lon="6.00859">
        <ele>243</ele>
        <time>2018-11-28T13:16:32Z</time>
      </trkpt>
      <trkpt lat="47.63269" lon="6.00866">
        <ele>243</ele>
        <time>2018-11-28T13:16:34Z</time>
      </trkpt>
      <trkpt lat="47.63265" lon="6.00871">
        <ele>243</ele>
        <time>2018-11-28T13:16:36Z</time>
      </trkpt>
      <trkpt lat="47.63261" lon="6.00876">
        <ele>243</ele>
        <time>2018-11-28T13:16:38Z</time>
      </trkpt>
      <trkpt lat="47.63257" lon="6.00882">
        <ele>243</ele>
        <time>2018-11-28T13:16:40Z</time>
      </trkpt>
      <trkpt lat="47.6325" lon="6.00891">
        <ele>243</ele>
        <time>2018-11-28T13:16:42Z</time>
      </trkpt>
      <trkpt lat="47.63244" lon="6.00897">
        <ele>244</ele>
        <time>2018-11-28T13:16:44Z</time>
      </trkpt>
      <trkpt lat="47.63238" lon="6.00903">
        <ele>244</ele>
        <time>2018-11-28T13:16:46Z</time>
      </trkpt>
      <trkpt lat="47.63233" lon="6.00908">
        <ele>244</ele>
        <time>2018-11-28T13:16:48Z</time>
      </trkpt>
      <trkpt lat="47.63226" lon="6.00913">
        <ele>244</ele>
        <time>2018-11-28T13:16:50Z</time>
      </trkpt>
      <trkpt lat="47.63219" lon="6.0092">
        <ele>243</ele>
        <time>2018-11-28T13:16:52Z</time>
      </trkpt>
      <trkpt lat="47.63212" lon="6.00928">
        <ele>243</ele>
        <time>2018-11-28T13:16:54Z</time>
      </trkpt>
      <trkpt lat="47.63201" lon="6.00937">
        <ele>243</ele>
        <time>2018-11-28T13:16:56Z</time>
      </trkpt>
      <trkpt lat="47.63196" lon="6.00941">
        <ele>243</ele>
        <time>2018-11-28T13:16:58Z</time>
      </trkpt>
      <trkpt lat="47.6319" lon="6.00946">
        <ele>243</ele>
        <time>2018-11-28T13:17:00Z</time>
      </trkpt>
      <trkpt lat="47.63184" lon="6.00951">
        <ele>243</ele>
        <time>2018-11-28T13:17:02Z</time>
      </trkpt>
      <trkpt lat="47.63177" lon="6.00957">
        <ele>243</ele>
        <time>2018-11-28T13:17:04Z</time>
      </trkpt>
      <trkpt lat="47.63167" lon="6.00966">
        <ele>243</ele>
        <time>2018-11-28T13:17:06Z</time>
      </trkpt>
      <trkpt lat="47.63162" lon="6.0097">
        <ele>243</ele>
        <time>2018-11-28T13:17:08Z</time>
      </trkpt>
      <trkpt lat="47.63156" lon="6.00975">
        <ele>243</ele>
        <time>2018-11-28T13:17:10Z</time>
      </trkpt>
      <trkpt lat="47.63151" lon="6.0098">
        <ele>243</ele>
        <time>2018-11-28T13:17:12Z</time>
      </trkpt>
      <trkpt lat="47.63144" lon="6.00985">
        <ele>243</ele>
        <time>2018-11-28T13:17:14Z</time>
      </trkpt>
      <trkpt lat="47.63137" lon="6.00991">
        <ele>243</ele>
        <time>2018-11-28T13:17:16Z</time>
      </trkpt>
      <trkpt lat="47.6313" lon="6.00996">
        <ele>244</ele>
        <time>2018-11-28T13:17:18Z</time>
      </trkpt>
      <trkpt lat="47.63125" lon="6.01001">
        <ele>243</ele>
        <time>2018-11-28T13:17:20Z</time>
      </trkpt>
      <trkpt lat="47.63112" lon="6.01012">
        <ele>244</ele>
        <time>2018-11-28T13:17:22Z</time>
      </trkpt>
      <trkpt lat="47.63108" lon="6.01016">
        <ele>244</ele>
        <time>2018-11-28T13:17:23Z</time>
      </trkpt>
      <trkpt lat="47.63103" lon="6.01021">
        <ele>244</ele>
        <time>2018-11-28T13:17:25Z</time>
      </trkpt>
      <trkpt lat="47.63096" lon="6.01027">
        <ele>244</ele>
        <time>2018-11-28T13:17:27Z</time>
      </trkpt>
      <trkpt lat="47.63089" lon="6.01033">
        <ele>243</ele>
        <time>2018-11-28T13:17:29Z</time>
      </trkpt>
      <trkpt lat="47.63082" lon="6.01039">
        <ele>244</ele>
        <time>2018-11-28T13:17:30Z</time>
      </trkpt>
      <trkpt lat="47.63078" lon="6.01043">
        <ele>244</ele>
        <time>2018-11-28T13:17:31Z</time>
      </trkpt>
      <trkpt lat="47.63071" lon="6.0105">
        <ele>244</ele>
        <time>2018-11-28T13:17:33Z</time>
      </trkpt>
      <trkpt lat="47.63063" lon="6.01055">
        <ele>244</ele>
        <time>2018-11-28T13:17:35Z</time>
      </trkpt>
      <trkpt lat="47.63056" lon="6.01062">
        <ele>244</ele>
        <time>2018-11-28T13:17:37Z</time>
      </trkpt>
      <trkpt lat="47.63049" lon="6.01067">
        <ele>244</ele>
        <time>2018-11-28T13:17:39Z</time>
      </trkpt>
      <trkpt lat="47.63042" lon="6.01073">
        <ele>245</ele>
        <time>2018-11-28T13:17:41Z</time>
      </trkpt>
      <trkpt lat="47.63035" lon="6.01077">
        <ele>245</ele>
        <time>2018-11-28T13:17:43Z</time>
      </trkpt>
      <trkpt lat="47.6303" lon="6.01081">
        <ele>245</ele>
        <time>2018-11-28T13:17:45Z</time>
      </trkpt>
      <trkpt lat="47.63025" lon="6.01083">
        <ele>245</ele>
        <time>2018-11-28T13:17:47Z</time>
      </trkpt>
      <trkpt lat="47.63019" lon="6.01087">
        <ele>246</ele>
        <time>2018-11-28T13:17:49Z</time>
      </trkpt>
      <trkpt lat="47.63014" lon="6.0109">
        <ele>246</ele>
        <time>2018-11-28T13:17:51Z</time>
      </trkpt>
      <trkpt lat="47.63008" lon="6.01093">
        <ele>246</ele>
        <time>2018-11-28T13:17:53Z</time>
      </trkpt>
      <trkpt lat="47.63003" lon="6.01096">
        <ele>246</ele>
        <time>2018-11-28T13:17:55Z</time>
      </trkpt>
      <trkpt lat="47.62997" lon="6.01099">
        <ele>248</ele>
        <time>2018-11-28T13:17:57Z</time>
      </trkpt>
      <trkpt lat="47.62991" lon="6.01104">
        <ele>248</ele>
        <time>2018-11-28T13:18:00Z</time>
      </trkpt>
      <trkpt lat="47.62987" lon="6.01108">
        <ele>248</ele>
        <time>2018-11-28T13:18:02Z</time>
      </trkpt>
      <trkpt lat="47.62983" lon="6.01112">
        <ele>248</ele>
        <time>2018-11-28T13:18:04Z</time>
      </trkpt>
      <trkpt lat="47.62979" lon="6.01116">
        <ele>248</ele>
        <time>2018-11-28T13:18:07Z</time>
      </trkpt>
      <trkpt lat="47.62974" lon="6.0112">
        <ele>248</ele>
        <time>2018-11-28T13:18:11Z</time>
      </trkpt>
      <trkpt lat="47.6297" lon="6.01125">
        <ele>249</ele>
        <time>2018-11-28T13:18:13Z</time>
      </trkpt>
      <trkpt lat="47.62967" lon="6.0113">
        <ele>249</ele>
        <time>2018-11-28T13:18:14Z</time>
      </trkpt>
      <trkpt lat="47.62963" lon="6.01139">
        <ele>249</ele>
        <time>2018-11-28T13:18:16Z</time>
      </trkpt>
      <trkpt lat="47.62959" lon="6.01149">
        <ele>249</ele>
        <time>2018-11-28T13:18:18Z</time>
      </trkpt>
      <trkpt lat="47.62956" lon="6.01155">
        <ele>249</ele>
        <time>2018-11-28T13:18:19Z</time>
      </trkpt>
      <trkpt lat="47.62952" lon="6.01165">
        <ele>249</ele>
        <time>2018-11-28T13:18:20Z</time>
      </trkpt>
      <trkpt lat="47.62949" lon="6.01171">
        <ele>251</ele>
        <time>2018-11-28T13:18:21Z</time>
      </trkpt>
      <trkpt lat="47.62946" lon="6.01178">
        <ele>251</ele>
        <time>2018-11-28T13:18:23Z</time>
      </trkpt>
      <trkpt lat="47.62943" lon="6.01186">
        <ele>251</ele>
        <time>2018-11-28T13:18:24Z</time>
      </trkpt>
      <trkpt lat="47.6294" lon="6.01193">
        <ele>252</ele>
        <time>2018-11-28T13:18:25Z</time>
      </trkpt>
      <trkpt lat="47.62936" lon="6.01204">
        <ele>252</ele>
        <time>2018-11-28T13:18:27Z</time>
      </trkpt>
      <trkpt lat="47.62933" lon="6.0121">
        <ele>252</ele>
        <time>2018-11-28T13:18:28Z</time>
      </trkpt>
      <trkpt lat="47.6293" lon="6.01217">
        <ele>252</ele>
        <time>2018-11-28T13:18:31Z</time>
      </trkpt>
      <trkpt lat="47.62927" lon="6.01223">
        <ele>253</ele>
        <time>2018-11-28T13:18:34Z</time>
      </trkpt>
      <trkpt lat="47.62924" lon="6.01231">
        <ele>253</ele>
        <time>2018-11-28T13:18:37Z</time>
      </trkpt>
      <trkpt lat="47.62921" lon="6.0124">
        <ele>254</ele>
        <time>2018-11-28T13:18:40Z</time>
      </trkpt>
      <trkpt lat="47.62919" lon="6.01248">
        <ele>255</ele>
        <time>2018-11-28T13:18:42Z</time>
      </trkpt>
      <trkpt lat="47.62916" lon="6.01258">
        <ele>255</ele>
        <time>2018-11-28T13:18:44Z</time>
      </trkpt>
      <trkpt lat="47.62914" lon="6.01265">
        <ele>256</ele>
        <time>2018-11-28T13:18:46Z</time>
      </trkpt>
      <trkpt lat="47.62912" lon="6.01273">
        <ele>256</ele>
        <time>2018-11-28T13:18:48Z</time>
      </trkpt>
      <trkpt lat="47.62911" lon="6.0128">
        <ele>256</ele>
        <time>2018-11-28T13:18:50Z</time>
      </trkpt>
      <trkpt lat="47.6291" lon="6.01288">
        <ele>256</ele>
        <time>2018-11-28T13:18:52Z</time>
      </trkpt>
      <trkpt lat="47.62908" lon="6.01297">
        <ele>256</ele>
        <time>2018-11-28T13:18:54Z</time>
      </trkpt>
      <trkpt lat="47.62907" lon="6.01305">
        <ele>256</ele>
        <time>2018-11-28T13:18:56Z</time>
      </trkpt>
      <trkpt lat="47.62906" lon="6.01313">
        <ele>255</ele>
        <time>2018-11-28T13:18:58Z</time>
      </trkpt>
      <trkpt lat="47.62905" lon="6.01322">
        <ele>255</ele>
        <time>2018-11-28T13:19:00Z</time>
      </trkpt>
      <trkpt lat="47.62905" lon="6.0133">
        <ele>255</ele>
        <time>2018-11-28T13:19:02Z</time>
      </trkpt>
      <trkpt lat="47.62904" lon="6.01337">
        <ele>254</ele>
        <time>2018-11-28T13:19:04Z</time>
      </trkpt>
      <trkpt lat="47.62904" lon="6.01345">
        <ele>254</ele>
        <time>2018-11-28T13:19:06Z</time>
      </trkpt>
      <trkpt lat="47.62904" lon="6.01354">
        <ele>254</ele>
        <time>2018-11-28T13:19:08Z</time>
      </trkpt>
      <trkpt lat="47.62904" lon="6.01364">
        <ele>254</ele>
        <time>2018-11-28T13:19:10Z</time>
      </trkpt>
      <trkpt lat="47.62904" lon="6.01373">
        <ele>254</ele>
        <time>2018-11-28T13:19:12Z</time>
      </trkpt>
      <trkpt lat="47.62905" lon="6.01382">
        <ele>254</ele>
        <time>2018-11-28T13:19:14Z</time>
      </trkpt>
      <trkpt lat="47.62905" lon="6.01393">
        <ele>253</ele>
        <time>2018-11-28T13:19:16Z</time>
      </trkpt>
      <trkpt lat="47.62906" lon="6.01404">
        <ele>253</ele>
        <time>2018-11-28T13:19:18Z</time>
      </trkpt>
      <trkpt lat="47.62908" lon="6.01414">
        <ele>253</ele>
        <time>2018-11-28T13:19:20Z</time>
      </trkpt>
      <trkpt lat="47.62909" lon="6.01426">
        <ele>252</ele>
        <time>2018-11-28T13:19:22Z</time>
      </trkpt>
      <trkpt lat="47.62911" lon="6.01439">
        <ele>253</ele>
        <time>2018-11-28T13:19:24Z</time>
      </trkpt>
      <trkpt lat="47.62913" lon="6.01446">
        <ele>253</ele>
        <time>2018-11-28T13:19:25Z</time>
      </trkpt>
      <trkpt lat="47.62915" lon="6.01458">
        <ele>253</ele>
        <time>2018-11-28T13:19:27Z</time>
      </trkpt>
      <trkpt lat="47.6292" lon="6.01476">
        <ele>252</ele>
        <time>2018-11-28T13:19:29Z</time>
      </trkpt>
      <trkpt lat="47.62923" lon="6.01483">
        <ele>252</ele>
        <time>2018-11-28T13:19:30Z</time>
      </trkpt>
      <trkpt lat="47.62926" lon="6.01491">
        <ele>252</ele>
        <time>2018-11-28T13:19:31Z</time>
      </trkpt>
      <trkpt lat="47.62929" lon="6.01499">
        <ele>252</ele>
        <time>2018-11-28T13:19:32Z</time>
      </trkpt>
      <trkpt lat="47.62931" lon="6.01505">
        <ele>252</ele>
        <time>2018-11-28T13:19:33Z</time>
      </trkpt>
      <trkpt lat="47.62933" lon="6.01513">
        <ele>252</ele>
        <time>2018-11-28T13:19:34Z</time>
      </trkpt>
      <trkpt lat="47.62936" lon="6.01521">
        <ele>252</ele>
        <time>2018-11-28T13:19:35Z</time>
      </trkpt>
      <trkpt lat="47.62938" lon="6.0153">
        <ele>251</ele>
        <time>2018-11-28T13:19:36Z</time>
      </trkpt>
      <trkpt lat="47.62941" lon="6.01538">
        <ele>251</ele>
        <time>2018-11-28T13:19:37Z</time>
      </trkpt>
      <trkpt lat="47.62945" lon="6.01547">
        <ele>251</ele>
        <time>2018-11-28T13:19:38Z</time>
      </trkpt>
      <trkpt lat="47.62948" lon="6.01555">
        <ele>251</ele>
        <time>2018-11-28T13:19:39Z</time>
      </trkpt>
      <trkpt lat="47.62952" lon="6.01564">
        <ele>251</ele>
        <time>2018-11-28T13:19:40Z</time>
      </trkpt>
      <trkpt lat="47.62955" lon="6.01574">
        <ele>251</ele>
        <time>2018-11-28T13:19:41Z</time>
      </trkpt>
      <trkpt lat="47.62958" lon="6.01582">
        <ele>251</ele>
        <time>2018-11-28T13:19:42Z</time>
      </trkpt>
      <trkpt lat="47.62962" lon="6.01591">
        <ele>249</ele>
        <time>2018-11-28T13:19:43Z</time>
      </trkpt>
      <trkpt lat="47.62965" lon="6.016">
        <ele>249</ele>
        <time>2018-11-28T13:19:44Z</time>
      </trkpt>
      <trkpt lat="47.62969" lon="6.01609">
        <ele>249</ele>
        <time>2018-11-28T13:19:45Z</time>
      </trkpt>
      <trkpt lat="47.62972" lon="6.01617">
        <ele>249</ele>
        <time>2018-11-28T13:19:46Z</time>
      </trkpt>
      <trkpt lat="47.62976" lon="6.01625">
        <ele>249</ele>
        <time>2018-11-28T13:19:47Z</time>
      </trkpt>
      <trkpt lat="47.62979" lon="6.01633">
        <ele>248</ele>
        <time>2018-11-28T13:19:48Z</time>
      </trkpt>
      <trkpt lat="47.62983" lon="6.01641">
        <ele>248</ele>
        <time>2018-11-28T13:19:49Z</time>
      </trkpt>
      <trkpt lat="47.62986" lon="6.0165">
        <ele>248</ele>
        <time>2018-11-28T13:19:50Z</time>
      </trkpt>
      <trkpt lat="47.6299" lon="6.01658">
        <ele>247</ele>
        <time>2018-11-28T13:19:51Z</time>
      </trkpt>
      <trkpt lat="47.62994" lon="6.01666">
        <ele>247</ele>
        <time>2018-11-28T13:19:52Z</time>
      </trkpt>
      <trkpt lat="47.62997" lon="6.01675">
        <ele>246</ele>
        <time>2018-11-28T13:19:53Z</time>
      </trkpt>
      <trkpt lat="47.63001" lon="6.01683">
        <ele>246</ele>
        <time>2018-11-28T13:19:54Z</time>
      </trkpt>
      <trkpt lat="47.63005" lon="6.01692">
        <ele>246</ele>
        <time>2018-11-28T13:19:55Z</time>
      </trkpt>
      <trkpt lat="47.63008" lon="6.017">
        <ele>246</ele>
        <time>2018-11-28T13:19:56Z</time>
      </trkpt>
      <trkpt lat="47.63012" lon="6.01709">
        <ele>246</ele>
        <time>2018-11-28T13:19:57Z</time>
      </trkpt>
      <trkpt lat="47.63015" lon="6.01718">
        <ele>246</ele>
        <time>2018-11-28T13:19:58Z</time>
      </trkpt>
      <trkpt lat="47.63019" lon="6.01727">
        <ele>246</ele>
        <time>2018-11-28T13:19:59Z</time>
      </trkpt>
      <trkpt lat="47.63022" lon="6.01736">
        <ele>246</ele>
        <time>2018-11-28T13:20:00Z</time>
      </trkpt>
      <trkpt lat="47.63026" lon="6.01746">
        <ele>246</ele>
        <time>2018-11-28T13:20:01Z</time>
      </trkpt>
      <trkpt lat="47.63029" lon="6.01755">
        <ele>244</ele>
        <time>2018-11-28T13:20:02Z</time>
      </trkpt>
      <trkpt lat="47.63032" lon="6.01764">
        <ele>244</ele>
        <time>2018-11-28T13:20:03Z</time>
      </trkpt>
      <trkpt lat="47.63035" lon="6.01773">
        <ele>244</ele>
        <time>2018-11-28T13:20:04Z</time>
      </trkpt>
      <trkpt lat="47.63038" lon="6.01782">
        <ele>244</ele>
        <time>2018-11-28T13:20:05Z</time>
      </trkpt>
      <trkpt lat="47.63041" lon="6.01792">
        <ele>243</ele>
        <time>2018-11-28T13:20:06Z</time>
      </trkpt>
      <trkpt lat="47.63045" lon="6.018">
        <ele>243</ele>
        <time>2018-11-28T13:20:07Z</time>
      </trkpt>
      <trkpt lat="47.63048" lon="6.01809">
        <ele>243</ele>
        <time>2018-11-28T13:20:08Z</time>
      </trkpt>
      <trkpt lat="47.63052" lon="6.01817">
        <ele>243</ele>
        <time>2018-11-28T13:20:09Z</time>
      </trkpt>
      <trkpt lat="47.63055" lon="6.01824">
        <ele>243</ele>
        <time>2018-11-28T13:20:10Z</time>
      </trkpt>
      <trkpt lat="47.63058" lon="6.01832">
        <ele>243</ele>
        <time>2018-11-28T13:20:11Z</time>
      </trkpt>
      <trkpt lat="47.63061" lon="6.01839">
        <ele>241</ele>
        <time>2018-11-28T13:20:12Z</time>
      </trkpt>
      <trkpt lat="47.63065" lon="6.01846">
        <ele>241</ele>
        <time>2018-11-28T13:20:13Z</time>
      </trkpt>
      <trkpt lat="47.6307" lon="6.01854">
        <ele>241</ele>
        <time>2018-11-28T13:20:14Z</time>
      </trkpt>
      <trkpt lat="47.63074" lon="6.01863">
        <ele>241</ele>
        <time>2018-11-28T13:20:15Z</time>
      </trkpt>
      <trkpt lat="47.63078" lon="6.01873">
        <ele>240</ele>
        <time>2018-11-28T13:20:16Z</time>
      </trkpt>
      <trkpt lat="47.63082" lon="6.01883">
        <ele>240</ele>
        <time>2018-11-28T13:20:17Z</time>
      </trkpt>
      <trkpt lat="47.63086" lon="6.01894">
        <ele>241</ele>
        <time>2018-11-28T13:20:18Z</time>
      </trkpt>
      <trkpt lat="47.6309" lon="6.01905">
        <ele>240</ele>
        <time>2018-11-28T13:20:19Z</time>
      </trkpt>
      <trkpt lat="47.63094" lon="6.01916">
        <ele>240</ele>
        <time>2018-11-28T13:20:20Z</time>
      </trkpt>
      <trkpt lat="47.63096" lon="6.01927">
        <ele>238</ele>
        <time>2018-11-28T13:20:21Z</time>
      </trkpt>
      <trkpt lat="47.63097" lon="6.01938">
        <ele>238</ele>
        <time>2018-11-28T13:20:22Z</time>
      </trkpt>
      <trkpt lat="47.631" lon="6.01949">
        <ele>238</ele>
        <time>2018-11-28T13:20:23Z</time>
      </trkpt>
      <trkpt lat="47.63101" lon="6.01959">
        <ele>237</ele>
        <time>2018-11-28T13:20:24Z</time>
      </trkpt>
      <trkpt lat="47.63101" lon="6.01969">
        <ele>237</ele>
        <time>2018-11-28T13:20:25Z</time>
      </trkpt>
      <trkpt lat="47.63103" lon="6.0198">
        <ele>237</ele>
        <time>2018-11-28T13:20:26Z</time>
      </trkpt>
      <trkpt lat="47.63105" lon="6.01991">
        <ele>236</ele>
        <time>2018-11-28T13:20:27Z</time>
      </trkpt>
      <trkpt lat="47.63104" lon="6.02002">
        <ele>235</ele>
        <time>2018-11-28T13:20:28Z</time>
      </trkpt>
      <trkpt lat="47.63104" lon="6.02012">
        <ele>235</ele>
        <time>2018-11-28T13:20:29Z</time>
      </trkpt>
      <trkpt lat="47.63105" lon="6.02023">
        <ele>236</ele>
        <time>2018-11-28T13:20:30Z</time>
      </trkpt>
      <trkpt lat="47.63105" lon="6.02034">
        <ele>236</ele>
        <time>2018-11-28T13:20:31Z</time>
      </trkpt>
      <trkpt lat="47.63104" lon="6.02043">
        <ele>236</ele>
        <time>2018-11-28T13:20:32Z</time>
      </trkpt>
      <trkpt lat="47.63101" lon="6.02052">
        <ele>235</ele>
        <time>2018-11-28T13:20:33Z</time>
      </trkpt>
      <trkpt lat="47.63099" lon="6.02063">
        <ele>235</ele>
        <time>2018-11-28T13:20:34Z</time>
      </trkpt>
      <trkpt lat="47.63097" lon="6.02071">
        <ele>235</ele>
        <time>2018-11-28T13:20:35Z</time>
      </trkpt>
      <trkpt lat="47.63096" lon="6.02079">
        <ele>234</ele>
        <time>2018-11-28T13:20:36Z</time>
      </trkpt>
      <trkpt lat="47.63095" lon="6.02089">
        <ele>233</ele>
        <time>2018-11-28T13:20:37Z</time>
      </trkpt>
      <trkpt lat="47.63094" lon="6.02098">
        <ele>233</ele>
        <time>2018-11-28T13:20:38Z</time>
      </trkpt>
      <trkpt lat="47.63094" lon="6.02106">
        <ele>233</ele>
        <time>2018-11-28T13:20:39Z</time>
      </trkpt>
      <trkpt lat="47.63093" lon="6.02114">
        <ele>233</ele>
        <time>2018-11-28T13:20:40Z</time>
      </trkpt>
      <trkpt lat="47.63092" lon="6.02123">
        <ele>233</ele>
        <time>2018-11-28T13:20:41Z</time>
      </trkpt>
      <trkpt lat="47.63091" lon="6.02131">
        <ele>232</ele>
        <time>2018-11-28T13:20:42Z</time>
      </trkpt>
      <trkpt lat="47.63091" lon="6.0214">
        <ele>232</ele>
        <time>2018-11-28T13:20:43Z</time>
      </trkpt>
      <trkpt lat="47.6309" lon="6.0215">
        <ele>231</ele>
        <time>2018-11-28T13:20:44Z</time>
      </trkpt>
      <trkpt lat="47.63089" lon="6.02159">
        <ele>229</ele>
        <time>2018-11-28T13:20:45Z</time>
      </trkpt>
      <trkpt lat="47.63087" lon="6.02168">
        <ele>228</ele>
        <time>2018-11-28T13:20:46Z</time>
      </trkpt>
      <trkpt lat="47.63086" lon="6.02177">
        <ele>228</ele>
        <time>2018-11-28T13:20:47Z</time>
      </trkpt>
      <trkpt lat="47.63084" lon="6.02186">
        <ele>228</ele>
        <time>2018-11-28T13:20:48Z</time>
      </trkpt>
      <trkpt lat="47.63083" lon="6.02195">
        <ele>229</ele>
        <time>2018-11-28T13:20:49Z</time>
      </trkpt>
      <trkpt lat="47.63082" lon="6.02203">
        <ele>228</ele>
        <time>2018-11-28T13:20:50Z</time>
      </trkpt>
      <trkpt lat="47.63081" lon="6.02212">
        <ele>228</ele>
        <time>2018-11-28T13:20:51Z</time>
      </trkpt>
      <trkpt lat="47.6308" lon="6.02221">
        <ele>228</ele>
        <time>2018-11-28T13:20:52Z</time>
      </trkpt>
      <trkpt lat="47.63079" lon="6.02229">
        <ele>227</ele>
        <time>2018-11-28T13:20:53Z</time>
      </trkpt>
      <trkpt lat="47.63077" lon="6.02237">
        <ele>227</ele>
        <time>2018-11-28T13:20:54Z</time>
      </trkpt>
      <trkpt lat="47.63076" lon="6.02245">
        <ele>226</ele>
        <time>2018-11-28T13:20:55Z</time>
      </trkpt>
      <trkpt lat="47.63074" lon="6.02253">
        <ele>225</ele>
        <time>2018-11-28T13:20:56Z</time>
      </trkpt>
      <trkpt lat="47.63072" lon="6.02261">
        <ele>225</ele>
        <time>2018-11-28T13:20:57Z</time>
      </trkpt>
      <trkpt lat="47.6307" lon="6.02269">
        <ele>225</ele>
        <time>2018-11-28T13:20:58Z</time>
      </trkpt>
      <trkpt lat="47.63068" lon="6.02277">
        <ele>225</ele>
        <time>2018-11-28T13:20:59Z</time>
      </trkpt>
      <trkpt lat="47.63065" lon="6.02285">
        <ele>226</ele>
        <time>2018-11-28T13:21:00Z</time>
      </trkpt>
      <trkpt lat="47.63063" lon="6.02292">
        <ele>226</ele>
        <time>2018-11-28T13:21:01Z</time>
      </trkpt>
      <trkpt lat="47.6306" lon="6.023">
        <ele>226</ele>
        <time>2018-11-28T13:21:02Z</time>
      </trkpt>
      <trkpt lat="47.63058" lon="6.02307">
        <ele>226</ele>
        <time>2018-11-28T13:21:03Z</time>
      </trkpt>
      <trkpt lat="47.63055" lon="6.02313">
        <ele>226</ele>
        <time>2018-11-28T13:21:04Z</time>
      </trkpt>
      <trkpt lat="47.63053" lon="6.02321">
        <ele>226</ele>
        <time>2018-11-28T13:21:05Z</time>
      </trkpt>
      <trkpt lat="47.6305" lon="6.02327">
        <ele>226</ele>
        <time>2018-11-28T13:21:06Z</time>
      </trkpt>
      <trkpt lat="47.63048" lon="6.02334">
        <ele>224</ele>
        <time>2018-11-28T13:21:07Z</time>
      </trkpt>
      <trkpt lat="47.63045" lon="6.02342">
        <ele>224</ele>
        <time>2018-11-28T13:21:08Z</time>
      </trkpt>
      <trkpt lat="47.63043" lon="6.02349">
        <ele>224</ele>
        <time>2018-11-28T13:21:09Z</time>
      </trkpt>
      <trkpt lat="47.6304" lon="6.02357">
        <ele>224</ele>
        <time>2018-11-28T13:21:10Z</time>
      </trkpt>
      <trkpt lat="47.63038" lon="6.02366">
        <ele>224</ele>
        <time>2018-11-28T13:21:11Z</time>
      </trkpt>
      <trkpt lat="47.63036" lon="6.02375">
        <ele>224</ele>
        <time>2018-11-28T13:21:12Z</time>
      </trkpt>
      <trkpt lat="47.63035" lon="6.02384">
        <ele>223</ele>
        <time>2018-11-28T13:21:13Z</time>
      </trkpt>
      <trkpt lat="47.63033" lon="6.02392">
        <ele>223</ele>
        <time>2018-11-28T13:21:14Z</time>
      </trkpt>
      <trkpt lat="47.63031" lon="6.02401">
        <ele>223</ele>
        <time>2018-11-28T13:21:15Z</time>
      </trkpt>
      <trkpt lat="47.6303" lon="6.0241">
        <ele>223</ele>
        <time>2018-11-28T13:21:16Z</time>
      </trkpt>
      <trkpt lat="47.63029" lon="6.02418">
        <ele>222</ele>
        <time>2018-11-28T13:21:17Z</time>
      </trkpt>
      <trkpt lat="47.63027" lon="6.02427">
        <ele>222</ele>
        <time>2018-11-28T13:21:18Z</time>
      </trkpt>
      <trkpt lat="47.63026" lon="6.02435">
        <ele>222</ele>
        <time>2018-11-28T13:21:19Z</time>
      </trkpt>
      <trkpt lat="47.63026" lon="6.02443">
        <ele>222</ele>
        <time>2018-11-28T13:21:20Z</time>
      </trkpt>
      <trkpt lat="47.63025" lon="6.02451">
        <ele>222</ele>
        <time>2018-11-28T13:21:21Z</time>
      </trkpt>
      <trkpt lat="47.63024" lon="6.02459">
        <ele>222</ele>
        <time>2018-11-28T13:21:22Z</time>
      </trkpt>
      <trkpt lat="47.63023" lon="6.02467">
        <ele>222</ele>
        <time>2018-11-28T13:21:23Z</time>
      </trkpt>
      <trkpt lat="47.63022" lon="6.02474">
        <ele>222</ele>
        <time>2018-11-28T13:21:24Z</time>
      </trkpt>
      <trkpt lat="47.6302" lon="6.02482">
        <ele>222</ele>
        <time>2018-11-28T13:21:25Z</time>
      </trkpt>
      <trkpt lat="47.63019" lon="6.0249">
        <ele>221</ele>
        <time>2018-11-28T13:21:26Z</time>
      </trkpt>
      <trkpt lat="47.63018" lon="6.02499">
        <ele>221</ele>
        <time>2018-11-28T13:21:27Z</time>
      </trkpt>
      <trkpt lat="47.63017" lon="6.02507">
        <ele>221</ele>
        <time>2018-11-28T13:21:28Z</time>
      </trkpt>
      <trkpt lat="47.63016" lon="6.02515">
        <ele>221</ele>
        <time>2018-11-28T13:21:29Z</time>
      </trkpt>
      <trkpt lat="47.63015" lon="6.02524">
        <ele>221</ele>
        <time>2018-11-28T13:21:30Z</time>
      </trkpt>
      <trkpt lat="47.63014" lon="6.02532">
        <ele>221</ele>
        <time>2018-11-28T13:21:31Z</time>
      </trkpt>
      <trkpt lat="47.63012" lon="6.0254">
        <ele>221</ele>
        <time>2018-11-28T13:21:32Z</time>
      </trkpt>
      <trkpt lat="47.63011" lon="6.02548">
        <ele>221</ele>
        <time>2018-11-28T13:21:33Z</time>
      </trkpt>
      <trkpt lat="47.6301" lon="6.02556">
        <ele>220</ele>
        <time>2018-11-28T13:21:34Z</time>
      </trkpt>
      <trkpt lat="47.63009" lon="6.02564">
        <ele>220</ele>
        <time>2018-11-28T13:21:35Z</time>
      </trkpt>
      <trkpt lat="47.63008" lon="6.02572">
        <ele>220</ele>
        <time>2018-11-28T13:21:36Z</time>
      </trkpt>
      <trkpt lat="47.63007" lon="6.0258">
        <ele>219</ele>
        <time>2018-11-28T13:21:37Z</time>
      </trkpt>
      <trkpt lat="47.63005" lon="6.02588">
        <ele>218</ele>
        <time>2018-11-28T13:21:38Z</time>
      </trkpt>
      <trkpt lat="47.63004" lon="6.02596">
        <ele>218</ele>
        <time>2018-11-28T13:21:39Z</time>
      </trkpt>
      <trkpt lat="47.63002" lon="6.02604">
        <ele>219</ele>
        <time>2018-11-28T13:21:40Z</time>
      </trkpt>
      <trkpt lat="47.63001" lon="6.02613">
        <ele>219</ele>
        <time>2018-11-28T13:21:41Z</time>
      </trkpt>
      <trkpt lat="47.63001" lon="6.02621">
        <ele>219</ele>
        <time>2018-11-28T13:21:42Z</time>
      </trkpt>
      <trkpt lat="47.63" lon="6.02628">
        <ele>220</ele>
        <time>2018-11-28T13:21:43Z</time>
      </trkpt>
      <trkpt lat="47.62998" lon="6.02636">
        <ele>220</ele>
        <time>2018-11-28T13:21:44Z</time>
      </trkpt>
      <trkpt lat="47.62997" lon="6.02643">
        <ele>220</ele>
        <time>2018-11-28T13:21:45Z</time>
      </trkpt>
      <trkpt lat="47.62996" lon="6.02649">
        <ele>219</ele>
        <time>2018-11-28T13:21:46Z</time>
      </trkpt>
      <trkpt lat="47.62995" lon="6.02656">
        <ele>219</ele>
        <time>2018-11-28T13:21:47Z</time>
      </trkpt>
      <trkpt lat="47.62995" lon="6.02663">
        <ele>219</ele>
        <time>2018-11-28T13:21:48Z</time>
      </trkpt>
      <trkpt lat="47.62993" lon="6.0267">
        <ele>219</ele>
        <time>2018-11-28T13:21:49Z</time>
      </trkpt>
      <trkpt lat="47.62992" lon="6.02677">
        <ele>220</ele>
        <time>2018-11-28T13:21:50Z</time>
      </trkpt>
      <trkpt lat="47.62991" lon="6.02683">
        <ele>220</ele>
        <time>2018-11-28T13:21:51Z</time>
      </trkpt>
      <trkpt lat="47.6299" lon="6.0269">
        <ele>220</ele>
        <time>2018-11-28T13:21:52Z</time>
      </trkpt>
      <trkpt lat="47.62989" lon="6.02697">
        <ele>221</ele>
        <time>2018-11-28T13:21:53Z</time>
      </trkpt>
      <trkpt lat="47.62988" lon="6.02704">
        <ele>221</ele>
        <time>2018-11-28T13:21:54Z</time>
      </trkpt>
      <trkpt lat="47.62987" lon="6.02711">
        <ele>221</ele>
        <time>2018-11-28T13:21:55Z</time>
      </trkpt>
      <trkpt lat="47.62986" lon="6.02718">
        <ele>221</ele>
        <time>2018-11-28T13:21:56Z</time>
      </trkpt>
      <trkpt lat="47.62985" lon="6.02725">
        <ele>221</ele>
        <time>2018-11-28T13:21:57Z</time>
      </trkpt>
      <trkpt lat="47.62984" lon="6.02732">
        <ele>220</ele>
        <time>2018-11-28T13:21:58Z</time>
      </trkpt>
      <trkpt lat="47.62982" lon="6.02739">
        <ele>220</ele>
        <time>2018-11-28T13:21:59Z</time>
      </trkpt>
      <trkpt lat="47.62981" lon="6.02745">
        <ele>220</ele>
        <time>2018-11-28T13:22:00Z</time>
      </trkpt>
      <trkpt lat="47.6298" lon="6.02752">
        <ele>220</ele>
        <time>2018-11-28T13:22:01Z</time>
      </trkpt>
      <trkpt lat="47.6298" lon="6.02759">
        <ele>220</ele>
        <time>2018-11-28T13:22:02Z</time>
      </trkpt>
      <trkpt lat="47.62979" lon="6.02766">
        <ele>220</ele>
        <time>2018-11-28T13:22:03Z</time>
      </trkpt>
      <trkpt lat="47.62979" lon="6.02778">
        <ele>220</ele>
        <time>2018-11-28T13:22:05Z</time>
      </trkpt>
      <trkpt lat="47.6298" lon="6.02791">
        <ele>220</ele>
        <time>2018-11-28T13:22:07Z</time>
      </trkpt>
      <trkpt lat="47.62985" lon="6.02801">
        <ele>219</ele>
        <time>2018-11-28T13:22:09Z</time>
      </trkpt>
      <trkpt lat="47.62993" lon="6.02809">
        <ele>219</ele>
        <time>2018-11-28T13:22:11Z</time>
      </trkpt>
      <trkpt lat="47.62997" lon="6.02812">
        <ele>219</ele>
        <time>2018-11-28T13:22:12Z</time>
      </trkpt>
      <trkpt lat="47.63001" lon="6.02815">
        <ele>216</ele>
        <time>2018-11-28T13:22:13Z</time>
      </trkpt>
      <trkpt lat="47.63008" lon="6.02822">
        <ele>216</ele>
        <time>2018-11-28T13:22:15Z</time>
      </trkpt>
      <trkpt lat="47.63013" lon="6.0283">
        <ele>216</ele>
        <time>2018-11-28T13:22:17Z</time>
      </trkpt>
      <trkpt lat="47.63017" lon="6.02838">
        <ele>215</ele>
        <time>2018-11-28T13:22:19Z</time>
      </trkpt>
      <trkpt lat="47.63021" lon="6.02845">
        <ele>215</ele>
        <time>2018-11-28T13:22:21Z</time>
      </trkpt>
      <trkpt lat="47.63025" lon="6.02852">
        <ele>215</ele>
        <time>2018-11-28T13:22:23Z</time>
      </trkpt>
      <trkpt lat="47.63028" lon="6.0286">
        <ele>215</ele>
        <time>2018-11-28T13:22:26Z</time>
      </trkpt>
      <trkpt lat="47.63033" lon="6.02861">
        <ele>214</ele>
        <time>2018-11-28T13:22:29Z</time>
      </trkpt>
      <trkpt lat="47.63039" lon="6.02862">
        <ele>214</ele>
        <time>2018-11-28T13:22:32Z</time>
      </trkpt>
      <trkpt lat="47.63043" lon="6.02865">
        <ele>214</ele>
        <time>2018-11-28T13:22:34Z</time>
      </trkpt>
      <trkpt lat="47.63047" lon="6.02869">
        <ele>214</ele>
        <time>2018-11-28T13:22:36Z</time>
      </trkpt>
      <trkpt lat="47.63051" lon="6.02874">
        <ele>214</ele>
        <time>2018-11-28T13:22:38Z</time>
      </trkpt>
      <trkpt lat="47.63055" lon="6.02879">
        <ele>214</ele>
        <time>2018-11-28T13:22:40Z</time>
      </trkpt>
      <trkpt lat="47.63061" lon="6.02883">
        <ele>214</ele>
        <time>2018-11-28T13:22:42Z</time>
      </trkpt>
      <trkpt lat="47.63066" lon="6.02887">
        <ele>214</ele>
        <time>2018-11-28T13:22:44Z</time>
      </trkpt>
      <trkpt lat="47.63071" lon="6.02892">
        <ele>214</ele>
        <time>2018-11-28T13:22:46Z</time>
      </trkpt>
      <trkpt lat="47.63077" lon="6.02897">
        <ele>214</ele>
        <time>2018-11-28T13:22:48Z</time>
      </trkpt>
      <trkpt lat="47.63082" lon="6.02902">
        <ele>214</ele>
        <time>2018-11-28T13:22:50Z</time>
      </trkpt>
      <trkpt lat="47.63087" lon="6.02906">
        <ele>213</ele>
        <time>2018-11-28T13:22:52Z</time>
      </trkpt>
      <trkpt lat="47.63092" lon="6.0291">
        <ele>213</ele>
        <time>2018-11-28T13:22:54Z</time>
      </trkpt>
      <trkpt lat="47.63098" lon="6.02913">
        <ele>213</ele>
        <time>2018-11-28T13:22:56Z</time>
      </trkpt>
      <trkpt lat="47.63105" lon="6.02917">
        <ele>214</ele>
        <time>2018-11-28T13:22:58Z</time>
      </trkpt>
      <trkpt lat="47.63112" lon="6.02921">
        <ele>214</ele>
        <time>2018-11-28T13:23:00Z</time>
      </trkpt>
      <trkpt lat="47.63119" lon="6.02924">
        <ele>214</ele>
        <time>2018-11-28T13:23:02Z</time>
      </trkpt>
      <trkpt lat="47.63126" lon="6.02928">
        <ele>214</ele>
        <time>2018-11-28T13:23:04Z</time>
      </trkpt>
      <trkpt lat="47.63133" lon="6.02931">
        <ele>214</ele>
        <time>2018-11-28T13:23:06Z</time>
      </trkpt>
      <trkpt lat="47.63139" lon="6.02935">
        <ele>214</ele>
        <time>2018-11-28T13:23:08Z</time>
      </trkpt>
      <trkpt lat="47.63147" lon="6.0294">
        <ele>214</ele>
        <time>2018-11-28T13:23:10Z</time>
      </trkpt>
      <trkpt lat="47.63154" lon="6.02944">
        <ele>214</ele>
        <time>2018-11-28T13:23:12Z</time>
      </trkpt>
      <trkpt lat="47.6316" lon="6.02948">
        <ele>214</ele>
        <time>2018-11-28T13:23:14Z</time>
      </trkpt>
      <trkpt lat="47.63166" lon="6.02952">
        <ele>214</ele>
        <time>2018-11-28T13:23:16Z</time>
      </trkpt>
      <trkpt lat="47.63172" lon="6.02955">
        <ele>215</ele>
        <time>2018-11-28T13:23:18Z</time>
      </trkpt>
      <trkpt lat="47.63177" lon="6.02958">
        <ele>215</ele>
        <time>2018-11-28T13:23:20Z</time>
      </trkpt>
      <trkpt lat="47.63183" lon="6.02962">
        <ele>215</ele>
        <time>2018-11-28T13:23:22Z</time>
      </trkpt>
      <trkpt lat="47.63188" lon="6.02964">
        <ele>215</ele>
        <time>2018-11-28T13:23:24Z</time>
      </trkpt>
      <trkpt lat="47.63194" lon="6.02967">
        <ele>215</ele>
        <time>2018-11-28T13:23:26Z</time>
      </trkpt>
      <trkpt lat="47.63199" lon="6.02971">
        <ele>215</ele>
        <time>2018-11-28T13:23:28Z</time>
      </trkpt>
      <trkpt lat="47.63205" lon="6.02974">
        <ele>215</ele>
        <time>2018-11-28T13:23:30Z</time>
      </trkpt>
      <trkpt lat="47.6321" lon="6.02978">
        <ele>215</ele>
        <time>2018-11-28T13:23:32Z</time>
      </trkpt>
      <trkpt lat="47.63216" lon="6.02982">
        <ele>215</ele>
        <time>2018-11-28T13:23:34Z</time>
      </trkpt>
      <trkpt lat="47.63222" lon="6.02985">
        <ele>215</ele>
        <time>2018-11-28T13:23:36Z</time>
      </trkpt>
      <trkpt lat="47.63227" lon="6.02988">
        <ele>215</ele>
        <time>2018-11-28T13:23:38Z</time>
      </trkpt>
      <trkpt lat="47.63233" lon="6.02992">
        <ele>216</ele>
        <time>2018-11-28T13:23:40Z</time>
      </trkpt>
      <trkpt lat="47.63239" lon="6.02996">
        <ele>216</ele>
        <time>2018-11-28T13:23:42Z</time>
      </trkpt>
      <trkpt lat="47.63246" lon="6.02999">
        <ele>216</ele>
        <time>2018-11-28T13:23:44Z</time>
      </trkpt>
      <trkpt lat="47.63251" lon="6.03001">
        <ele>216</ele>
        <time>2018-11-28T13:23:46Z</time>
      </trkpt>
      <trkpt lat="47.63257" lon="6.03004">
        <ele>216</ele>
        <time>2018-11-28T13:23:48Z</time>
      </trkpt>
      <trkpt lat="47.63262" lon="6.03008">
        <ele>216</ele>
        <time>2018-11-28T13:23:50Z</time>
      </trkpt>
      <trkpt lat="47.63268" lon="6.03011">
        <ele>215</ele>
        <time>2018-11-28T13:23:52Z</time>
      </trkpt>
      <trkpt lat="47.63272" lon="6.03014">
        <ele>215</ele>
        <time>2018-11-28T13:23:54Z</time>
      </trkpt>
      <trkpt lat="47.63277" lon="6.03019">
        <ele>215</ele>
        <time>2018-11-28T13:23:57Z</time>
      </trkpt>
      <trkpt lat="47.63282" lon="6.03022">
        <ele>215</ele>
        <time>2018-11-28T13:23:59Z</time>
      </trkpt>
      <trkpt lat="47.63288" lon="6.03025">
        <ele>215</ele>
        <time>2018-11-28T13:24:01Z</time>
      </trkpt>
      <trkpt lat="47.63294" lon="6.0303">
        <ele>215</ele>
        <time>2018-11-28T13:24:03Z</time>
      </trkpt>
      <trkpt lat="47.633" lon="6.03035">
        <ele>215</ele>
        <time>2018-11-28T13:24:05Z</time>
      </trkpt>
      <trkpt lat="47.63307" lon="6.0304">
        <ele>215</ele>
        <time>2018-11-28T13:24:07Z</time>
      </trkpt>
      <trkpt lat="47.63314" lon="6.03044">
        <ele>215</ele>
        <time>2018-11-28T13:24:09Z</time>
      </trkpt>
      <trkpt lat="47.6332" lon="6.03048">
        <ele>215</ele>
        <time>2018-11-28T13:24:11Z</time>
      </trkpt>
      <trkpt lat="47.63326" lon="6.03052">
        <ele>215</ele>
        <time>2018-11-28T13:24:13Z</time>
      </trkpt>
      <trkpt lat="47.63333" lon="6.03056">
        <ele>215</ele>
        <time>2018-11-28T13:24:15Z</time>
      </trkpt>
      <trkpt lat="47.6334" lon="6.0306">
        <ele>215</ele>
        <time>2018-11-28T13:24:17Z</time>
      </trkpt>
      <trkpt lat="47.63347" lon="6.03065">
        <ele>215</ele>
        <time>2018-11-28T13:24:19Z</time>
      </trkpt>
      <trkpt lat="47.63354" lon="6.0307">
        <ele>215</ele>
        <time>2018-11-28T13:24:21Z</time>
      </trkpt>
      <trkpt lat="47.63361" lon="6.03075">
        <ele>215</ele>
        <time>2018-11-28T13:24:23Z</time>
      </trkpt>
      <trkpt lat="47.63372" lon="6.03082">
        <ele>214</ele>
        <time>2018-11-28T13:24:25Z</time>
      </trkpt>
      <trkpt lat="47.63379" lon="6.03086">
        <ele>214</ele>
        <time>2018-11-28T13:24:27Z</time>
      </trkpt>
      <trkpt lat="47.63386" lon="6.0309">
        <ele>214</ele>
        <time>2018-11-28T13:24:29Z</time>
      </trkpt>
      <trkpt lat="47.63394" lon="6.03095">
        <ele>213</ele>
        <time>2018-11-28T13:24:31Z</time>
      </trkpt>
      <trkpt lat="47.63401" lon="6.031">
        <ele>213</ele>
        <time>2018-11-28T13:24:33Z</time>
      </trkpt>
      <trkpt lat="47.63409" lon="6.03104">
        <ele>213</ele>
        <time>2018-11-28T13:24:35Z</time>
      </trkpt>
      <trkpt lat="47.63417" lon="6.0311">
        <ele>211</ele>
        <time>2018-11-28T13:24:37Z</time>
      </trkpt>
      <trkpt lat="47.63425" lon="6.03114">
        <ele>211</ele>
        <time>2018-11-28T13:24:39Z</time>
      </trkpt>
      <trkpt lat="47.63433" lon="6.03117">
        <ele>211</ele>
        <time>2018-11-28T13:24:41Z</time>
      </trkpt>
      <trkpt lat="47.63437" lon="6.03119">
        <ele>211</ele>
        <time>2018-11-28T13:24:42Z</time>
      </trkpt>
      <trkpt lat="47.63442" lon="6.03121">
        <ele>211</ele>
        <time>2018-11-28T13:24:43Z</time>
      </trkpt>
      <trkpt lat="47.63446" lon="6.03124">
        <ele>211</ele>
        <time>2018-11-28T13:24:44Z</time>
      </trkpt>
      <trkpt lat="47.63451" lon="6.03127">
        <ele>211</ele>
        <time>2018-11-28T13:24:45Z</time>
      </trkpt>
      <trkpt lat="47.63455" lon="6.03131">
        <ele>210</ele>
        <time>2018-11-28T13:24:46Z</time>
      </trkpt>
      <trkpt lat="47.6346" lon="6.03134">
        <ele>210</ele>
        <time>2018-11-28T13:24:47Z</time>
      </trkpt>
      <trkpt lat="47.63465" lon="6.03137">
        <ele>210</ele>
        <time>2018-11-28T13:24:48Z</time>
      </trkpt>
      <trkpt lat="47.6347" lon="6.03141">
        <ele>210</ele>
        <time>2018-11-28T13:24:49Z</time>
      </trkpt>
      <trkpt lat="47.63475" lon="6.03144">
        <ele>210</ele>
        <time>2018-11-28T13:24:50Z</time>
      </trkpt>
      <trkpt lat="47.6348" lon="6.03147">
        <ele>209</ele>
        <time>2018-11-28T13:24:51Z</time>
      </trkpt>
      <trkpt lat="47.63485" lon="6.03151">
        <ele>209</ele>
        <time>2018-11-28T13:24:52Z</time>
      </trkpt>
      <trkpt lat="47.63491" lon="6.03155">
        <ele>209</ele>
        <time>2018-11-28T13:24:53Z</time>
      </trkpt>
      <trkpt lat="47.63496" lon="6.0316">
        <ele>208</ele>
        <time>2018-11-28T13:24:54Z</time>
      </trkpt>
      <trkpt lat="47.63502" lon="6.03164">
        <ele>207</ele>
        <time>2018-11-28T13:24:55Z</time>
      </trkpt>
      <trkpt lat="47.63506" lon="6.03171">
        <ele>207</ele>
        <time>2018-11-28T13:24:56Z</time>
      </trkpt>
      <trkpt lat="47.6351" lon="6.03178">
        <ele>207</ele>
        <time>2018-11-28T13:24:57Z</time>
      </trkpt>
      <trkpt lat="47.63514" lon="6.03186">
        <ele>206</ele>
        <time>2018-11-28T13:24:58Z</time>
      </trkpt>
      <trkpt lat="47.63517" lon="6.03194">
        <ele>206</ele>
        <time>2018-11-28T13:24:59Z</time>
      </trkpt>
      <trkpt lat="47.6352" lon="6.03201">
        <ele>206</ele>
        <time>2018-11-28T13:25:00Z</time>
      </trkpt>
      <trkpt lat="47.63524" lon="6.03209">
        <ele>206</ele>
        <time>2018-11-28T13:25:01Z</time>
      </trkpt>
      <trkpt lat="47.63527" lon="6.03216">
        <ele>206</ele>
        <time>2018-11-28T13:25:02Z</time>
      </trkpt>
      <trkpt lat="47.63531" lon="6.03224">
        <ele>206</ele>
        <time>2018-11-28T13:25:03Z</time>
      </trkpt>
      <trkpt lat="47.63534" lon="6.03232">
        <ele>206</ele>
        <time>2018-11-28T13:25:04Z</time>
      </trkpt>
      <trkpt lat="47.63537" lon="6.03239">
        <ele>206</ele>
        <time>2018-11-28T13:25:05Z</time>
      </trkpt>
      <trkpt lat="47.63541" lon="6.03246">
        <ele>206</ele>
        <time>2018-11-28T13:25:06Z</time>
      </trkpt>
      <trkpt lat="47.63544" lon="6.03254">
        <ele>205</ele>
        <time>2018-11-28T13:25:07Z</time>
      </trkpt>
      <trkpt lat="47.63548" lon="6.0326">
        <ele>205</ele>
        <time>2018-11-28T13:25:08Z</time>
      </trkpt>
      <trkpt lat="47.63552" lon="6.03268">
        <ele>205</ele>
        <time>2018-11-28T13:25:09Z</time>
      </trkpt>
      <trkpt lat="47.63555" lon="6.03275">
        <ele>205</ele>
        <time>2018-11-28T13:25:10Z</time>
      </trkpt>
      <trkpt lat="47.63559" lon="6.03282">
        <ele>205</ele>
        <time>2018-11-28T13:25:11Z</time>
      </trkpt>
      <trkpt lat="47.63562" lon="6.03289">
        <ele>205</ele>
        <time>2018-11-28T13:25:12Z</time>
      </trkpt>
      <trkpt lat="47.63565" lon="6.03295">
        <ele>205</ele>
        <time>2018-11-28T13:25:13Z</time>
      </trkpt>
      <trkpt lat="47.63568" lon="6.03301">
        <ele>205</ele>
        <time>2018-11-28T13:25:14Z</time>
      </trkpt>
      <trkpt lat="47.63573" lon="6.03312">
        <ele>205</ele>
        <time>2018-11-28T13:25:16Z</time>
      </trkpt>
      <trkpt lat="47.63575" lon="6.03318">
        <ele>205</ele>
        <time>2018-11-28T13:25:17Z</time>
      </trkpt>
      <trkpt lat="47.63578" lon="6.03323">
        <ele>205</ele>
        <time>2018-11-28T13:25:18Z</time>
      </trkpt>
      <trkpt lat="47.63582" lon="6.03329">
        <ele>205</ele>
        <time>2018-11-28T13:25:19Z</time>
      </trkpt>
      <trkpt lat="47.63585" lon="6.03336">
        <ele>205</ele>
        <time>2018-11-28T13:25:20Z</time>
      </trkpt>
      <trkpt lat="47.6359" lon="6.03342">
        <ele>205</ele>
        <time>2018-11-28T13:25:21Z</time>
      </trkpt>
      <trkpt lat="47.63594" lon="6.03349">
        <ele>205</ele>
        <time>2018-11-28T13:25:22Z</time>
      </trkpt>
      <trkpt lat="47.63599" lon="6.03356">
        <ele>205</ele>
        <time>2018-11-28T13:25:23Z</time>
      </trkpt>
      <trkpt lat="47.63603" lon="6.03362">
        <ele>205</ele>
        <time>2018-11-28T13:25:24Z</time>
      </trkpt>
      <trkpt lat="47.63607" lon="6.03369">
        <ele>205</ele>
        <time>2018-11-28T13:25:25Z</time>
      </trkpt>
      <trkpt lat="47.63611" lon="6.03376">
        <ele>204</ele>
        <time>2018-11-28T13:25:26Z</time>
      </trkpt>
      <trkpt lat="47.63615" lon="6.03383">
        <ele>204</ele>
        <time>2018-11-28T13:25:27Z</time>
      </trkpt>
      <trkpt lat="47.63618" lon="6.03389">
        <ele>204</ele>
        <time>2018-11-28T13:25:28Z</time>
      </trkpt>
      <trkpt lat="47.63622" lon="6.03395">
        <ele>204</ele>
        <time>2018-11-28T13:25:29Z</time>
      </trkpt>
      <trkpt lat="47.63625" lon="6.03401">
        <ele>204</ele>
        <time>2018-11-28T13:25:30Z</time>
      </trkpt>
      <trkpt lat="47.63629" lon="6.03407">
        <ele>204</ele>
        <time>2018-11-28T13:25:31Z</time>
      </trkpt>
      <trkpt lat="47.63632" lon="6.03412">
        <ele>204</ele>
        <time>2018-11-28T13:25:32Z</time>
      </trkpt>
      <trkpt lat="47.63636" lon="6.03417">
        <ele>205</ele>
        <time>2018-11-28T13:25:33Z</time>
      </trkpt>
      <trkpt lat="47.63639" lon="6.03423">
        <ele>205</ele>
        <time>2018-11-28T13:25:34Z</time>
      </trkpt>
      <trkpt lat="47.63642" lon="6.03428">
        <ele>205</ele>
        <time>2018-11-28T13:25:35Z</time>
      </trkpt>
      <trkpt lat="47.63645" lon="6.03433">
        <ele>205</ele>
        <time>2018-11-28T13:25:36Z</time>
      </trkpt>
      <trkpt lat="47.63648" lon="6.03438">
        <ele>205</ele>
        <time>2018-11-28T13:25:37Z</time>
      </trkpt>
      <trkpt lat="47.63654" lon="6.03446">
        <ele>205</ele>
        <time>2018-11-28T13:25:39Z</time>
      </trkpt>
      <trkpt lat="47.63659" lon="6.03454">
        <ele>205</ele>
        <time>2018-11-28T13:25:41Z</time>
      </trkpt>
      <trkpt lat="47.63663" lon="6.03458">
        <ele>205</ele>
        <time>2018-11-28T13:25:43Z</time>
      </trkpt>
      <trkpt lat="47.63666" lon="6.03464">
        <ele>205</ele>
        <time>2018-11-28T13:25:45Z</time>
      </trkpt>
      <trkpt lat="47.6367" lon="6.03471">
        <ele>206</ele>
        <time>2018-11-28T13:25:47Z</time>
      </trkpt>
      <trkpt lat="47.63674" lon="6.03477">
        <ele>206</ele>
        <time>2018-11-28T13:25:49Z</time>
      </trkpt>
      <trkpt lat="47.63678" lon="6.03484">
        <ele>206</ele>
        <time>2018-11-28T13:25:51Z</time>
      </trkpt>
      <trkpt lat="47.63681" lon="6.03491">
        <ele>206</ele>
        <time>2018-11-28T13:25:53Z</time>
      </trkpt>
      <trkpt lat="47.63684" lon="6.03498">
        <ele>206</ele>
        <time>2018-11-28T13:25:55Z</time>
      </trkpt>
      <trkpt lat="47.63687" lon="6.03506">
        <ele>209</ele>
        <time>2018-11-28T13:25:57Z</time>
      </trkpt>
      <trkpt lat="47.63688" lon="6.03514">
        <ele>209</ele>
        <time>2018-11-28T13:25:59Z</time>
      </trkpt>
      <trkpt lat="47.6369" lon="6.03521">
        <ele>209</ele>
        <time>2018-11-28T13:26:01Z</time>
      </trkpt>
      <trkpt lat="47.63692" lon="6.03526">
        <ele>210</ele>
        <time>2018-11-28T13:26:03Z</time>
      </trkpt>
      <trkpt lat="47.63698" lon="6.0353">
        <ele>210</ele>
        <time>2018-11-28T13:26:06Z</time>
      </trkpt>
      <trkpt lat="47.63703" lon="6.03529">
        <ele>210</ele>
        <time>2018-11-28T13:26:09Z</time>
      </trkpt>
      <trkpt lat="47.63708" lon="6.03526">
        <ele>210</ele>
        <time>2018-11-28T13:26:12Z</time>
      </trkpt>
      <trkpt lat="47.63715" lon="6.03523">
        <ele>210</ele>
        <time>2018-11-28T13:26:15Z</time>
      </trkpt>
      <trkpt lat="47.63719" lon="6.03521">
        <ele>210</ele>
        <time>2018-11-28T13:26:17Z</time>
      </trkpt>
      <trkpt lat="47.63724" lon="6.03519">
        <ele>211</ele>
        <time>2018-11-28T13:26:19Z</time>
      </trkpt>
      <trkpt lat="47.6373" lon="6.03516">
        <ele>211</ele>
        <time>2018-11-28T13:26:22Z</time>
      </trkpt>
      <trkpt lat="47.63735" lon="6.03513">
        <ele>211</ele>
        <time>2018-11-28T13:26:25Z</time>
      </trkpt>
      <trkpt lat="47.63741" lon="6.03511">
        <ele>210</ele>
        <time>2018-11-28T13:26:28Z</time>
      </trkpt>
      <trkpt lat="47.63747" lon="6.0351">
        <ele>210</ele>
        <time>2018-11-28T13:26:31Z</time>
      </trkpt>
      <trkpt lat="47.63753" lon="6.03509">
        <ele>212</ele>
        <time>2018-11-28T13:26:33Z</time>
      </trkpt>
      <trkpt lat="47.63758" lon="6.03509">
        <ele>212</ele>
        <time>2018-11-28T13:26:36Z</time>
      </trkpt>
      <trkpt lat="47.63764" lon="6.0351">
        <ele>213</ele>
        <time>2018-11-28T13:26:39Z</time>
      </trkpt>
      <trkpt lat="47.63769" lon="6.0351">
        <ele>214</ele>
        <time>2018-11-28T13:26:41Z</time>
      </trkpt>
      <trkpt lat="47.63775" lon="6.03513">
        <ele>214</ele>
        <time>2018-11-28T13:26:44Z</time>
      </trkpt>
      <trkpt lat="47.63781" lon="6.03514">
        <ele>214</ele>
        <time>2018-11-28T13:26:46Z</time>
      </trkpt>
      <trkpt lat="47.63787" lon="6.03516">
        <ele>215</ele>
        <time>2018-11-28T13:26:48Z</time>
      </trkpt>
      <trkpt lat="47.63793" lon="6.03518">
        <ele>215</ele>
        <time>2018-11-28T13:26:50Z</time>
      </trkpt>
      <trkpt lat="47.63799" lon="6.03519">
        <ele>215</ele>
        <time>2018-11-28T13:26:53Z</time>
      </trkpt>
      <trkpt lat="47.63805" lon="6.03521">
        <ele>215</ele>
        <time>2018-11-28T13:26:55Z</time>
      </trkpt>
      <trkpt lat="47.6381" lon="6.03522">
        <ele>215</ele>
        <time>2018-11-28T13:26:57Z</time>
      </trkpt>
      <trkpt lat="47.63815" lon="6.03523">
        <ele>215</ele>
        <time>2018-11-28T13:26:59Z</time>
      </trkpt>
      <trkpt lat="47.63819" lon="6.03524">
        <ele>215</ele>
        <time>2018-11-28T13:27:01Z</time>
      </trkpt>
      <trkpt lat="47.63826" lon="6.03525">
        <ele>216</ele>
        <time>2018-11-28T13:27:04Z</time>
      </trkpt>
      <trkpt lat="47.63833" lon="6.03527">
        <ele>216</ele>
        <time>2018-11-28T13:27:07Z</time>
      </trkpt>
      <trkpt lat="47.63838" lon="6.03529">
        <ele>217</ele>
        <time>2018-11-28T13:27:09Z</time>
      </trkpt>
      <trkpt lat="47.63844" lon="6.03531">
        <ele>217</ele>
        <time>2018-11-28T13:27:11Z</time>
      </trkpt>
      <trkpt lat="47.6385" lon="6.03534">
        <ele>217</ele>
        <time>2018-11-28T13:27:13Z</time>
      </trkpt>
      <trkpt lat="47.63855" lon="6.03538">
        <ele>217</ele>
        <time>2018-11-28T13:27:15Z</time>
      </trkpt>
      <trkpt lat="47.63861" lon="6.03541">
        <ele>218</ele>
        <time>2018-11-28T13:27:17Z</time>
      </trkpt>
      <trkpt lat="47.63866" lon="6.03544">
        <ele>218</ele>
        <time>2018-11-28T13:27:19Z</time>
      </trkpt>
      <trkpt lat="47.63871" lon="6.03546">
        <ele>218</ele>
        <time>2018-11-28T13:27:21Z</time>
      </trkpt>
      <trkpt lat="47.63877" lon="6.03549">
        <ele>218</ele>
        <time>2018-11-28T13:27:23Z</time>
      </trkpt>
      <trkpt lat="47.63883" lon="6.03551">
        <ele>218</ele>
        <time>2018-11-28T13:27:25Z</time>
      </trkpt>
      <trkpt lat="47.63889" lon="6.03554">
        <ele>218</ele>
        <time>2018-11-28T13:27:27Z</time>
      </trkpt>
      <trkpt lat="47.63895" lon="6.03556">
        <ele>218</ele>
        <time>2018-11-28T13:27:29Z</time>
      </trkpt>
      <trkpt lat="47.63899" lon="6.03557">
        <ele>218</ele>
        <time>2018-11-28T13:27:31Z</time>
      </trkpt>
      <trkpt lat="47.63904" lon="6.03559">
        <ele>219</ele>
        <time>2018-11-28T13:27:33Z</time>
      </trkpt>
      <trkpt lat="47.63911" lon="6.03561">
        <ele>219</ele>
        <time>2018-11-28T13:27:36Z</time>
      </trkpt>
      <trkpt lat="47.63917" lon="6.03564">
        <ele>218</ele>
        <time>2018-11-28T13:27:39Z</time>
      </trkpt>
      <trkpt lat="47.63923" lon="6.03566">
        <ele>218</ele>
        <time>2018-11-28T13:27:42Z</time>
      </trkpt>
      <trkpt lat="47.63928" lon="6.03568">
        <ele>218</ele>
        <time>2018-11-28T13:27:44Z</time>
      </trkpt>
      <trkpt lat="47.63932" lon="6.0357">
        <ele>218</ele>
        <time>2018-11-28T13:27:46Z</time>
      </trkpt>
      <trkpt lat="47.63938" lon="6.03571">
        <ele>218</ele>
        <time>2018-11-28T13:27:48Z</time>
      </trkpt>
      <trkpt lat="47.63943" lon="6.03573">
        <ele>218</ele>
        <time>2018-11-28T13:27:50Z</time>
      </trkpt>
      <trkpt lat="47.63949" lon="6.03575">
        <ele>217</ele>
        <time>2018-11-28T13:27:53Z</time>
      </trkpt>
      <trkpt lat="47.63953" lon="6.03577">
        <ele>217</ele>
        <time>2018-11-28T13:27:55Z</time>
      </trkpt>
      <trkpt lat="47.63958" lon="6.03579">
        <ele>217</ele>
        <time>2018-11-28T13:27:57Z</time>
      </trkpt>
      <trkpt lat="47.63964" lon="6.03582">
        <ele>217</ele>
        <time>2018-11-28T13:27:59Z</time>
      </trkpt>
      <trkpt lat="47.63969" lon="6.03585">
        <ele>220</ele>
        <time>2018-11-28T13:28:01Z</time>
      </trkpt>
      <trkpt lat="47.63974" lon="6.03588">
        <ele>220</ele>
        <time>2018-11-28T13:28:03Z</time>
      </trkpt>
      <trkpt lat="47.63979" lon="6.03591">
        <ele>220</ele>
        <time>2018-11-28T13:28:05Z</time>
      </trkpt>
      <trkpt lat="47.63983" lon="6.03594">
        <ele>220</ele>
        <time>2018-11-28T13:28:07Z</time>
      </trkpt>
      <trkpt lat="47.63988" lon="6.03598">
        <ele>220</ele>
        <time>2018-11-28T13:28:09Z</time>
      </trkpt>
      <trkpt lat="47.63992" lon="6.036">
        <ele>220</ele>
        <time>2018-11-28T13:28:11Z</time>
      </trkpt>
      <trkpt lat="47.63997" lon="6.03603">
        <ele>220</ele>
        <time>2018-11-28T13:28:13Z</time>
      </trkpt>
      <trkpt lat="47.64003" lon="6.03607">
        <ele>218</ele>
        <time>2018-11-28T13:28:16Z</time>
      </trkpt>
      <trkpt lat="47.64007" lon="6.0361">
        <ele>218</ele>
        <time>2018-11-28T13:28:18Z</time>
      </trkpt>
      <trkpt lat="47.64012" lon="6.03615">
        <ele>219</ele>
        <time>2018-11-28T13:28:21Z</time>
      </trkpt>
      <trkpt lat="47.64017" lon="6.03619">
        <ele>219</ele>
        <time>2018-11-28T13:28:24Z</time>
      </trkpt>
      <trkpt lat="47.64024" lon="6.03622">
        <ele>219</ele>
        <time>2018-11-28T13:28:27Z</time>
      </trkpt>
      <trkpt lat="47.6403" lon="6.03627">
        <ele>219</ele>
        <time>2018-11-28T13:28:30Z</time>
      </trkpt>
      <trkpt lat="47.64035" lon="6.03631">
        <ele>219</ele>
        <time>2018-11-28T13:28:33Z</time>
      </trkpt>
      <trkpt lat="47.64041" lon="6.03636">
        <ele>219</ele>
        <time>2018-11-28T13:28:36Z</time>
      </trkpt>
      <trkpt lat="47.64045" lon="6.03639">
        <ele>219</ele>
        <time>2018-11-28T13:28:38Z</time>
      </trkpt>
      <trkpt lat="47.6405" lon="6.03642">
        <ele>219</ele>
        <time>2018-11-28T13:28:40Z</time>
      </trkpt>
      <trkpt lat="47.64056" lon="6.03646">
        <ele>219</ele>
        <time>2018-11-28T13:28:42Z</time>
      </trkpt>
      <trkpt lat="47.64061" lon="6.03649">
        <ele>220</ele>
        <time>2018-11-28T13:28:44Z</time>
      </trkpt>
      <trkpt lat="47.64066" lon="6.03652">
        <ele>220</ele>
        <time>2018-11-28T13:28:46Z</time>
      </trkpt>
      <trkpt lat="47.64071" lon="6.03654">
        <ele>220</ele>
        <time>2018-11-28T13:28:48Z</time>
      </trkpt>
      <trkpt lat="47.64077" lon="6.03657">
        <ele>220</ele>
        <time>2018-11-28T13:28:50Z</time>
      </trkpt>
      <trkpt lat="47.64086" lon="6.0366">
        <ele>219</ele>
        <time>2018-11-28T13:28:52Z</time>
      </trkpt>
      <trkpt lat="47.64095" lon="6.03663">
        <ele>219</ele>
        <time>2018-11-28T13:28:53Z</time>
      </trkpt>
      <trkpt lat="47.641" lon="6.03665">
        <ele>218</ele>
        <time>2018-11-28T13:28:54Z</time>
      </trkpt>
      <trkpt lat="47.64104" lon="6.03667">
        <ele>221</ele>
        <time>2018-11-28T13:28:55Z</time>
      </trkpt>
      <trkpt lat="47.64109" lon="6.03669">
        <ele>221</ele>
        <time>2018-11-28T13:28:56Z</time>
      </trkpt>
      <trkpt lat="47.64113" lon="6.03671">
        <ele>221</ele>
        <time>2018-11-28T13:28:57Z</time>
      </trkpt>
      <trkpt lat="47.64118" lon="6.03673">
        <ele>221</ele>
        <time>2018-11-28T13:28:58Z</time>
      </trkpt>
      <trkpt lat="47.64126" lon="6.03677">
        <ele>220</ele>
        <time>2018-11-28T13:29:00Z</time>
      </trkpt>
      <trkpt lat="47.64134" lon="6.03679">
        <ele>220</ele>
        <time>2018-11-28T13:29:02Z</time>
      </trkpt>
      <trkpt lat="47.64142" lon="6.0368">
        <ele>220</ele>
        <time>2018-11-28T13:29:04Z</time>
      </trkpt>
      <trkpt lat="47.64149" lon="6.03681">
        <ele>219</ele>
        <time>2018-11-28T13:29:06Z</time>
      </trkpt>
      <trkpt lat="47.64156" lon="6.03681">
        <ele>219</ele>
        <time>2018-11-28T13:29:08Z</time>
      </trkpt>
      <trkpt lat="47.64162" lon="6.03681">
        <ele>219</ele>
        <time>2018-11-28T13:29:10Z</time>
      </trkpt>
      <trkpt lat="47.64172" lon="6.03682">
        <ele>218</ele>
        <time>2018-11-28T13:29:12Z</time>
      </trkpt>
      <trkpt lat="47.64176" lon="6.03682">
        <ele>218</ele>
        <time>2018-11-28T13:29:13Z</time>
      </trkpt>
      <trkpt lat="47.64183" lon="6.03682">
        <ele>218</ele>
        <time>2018-11-28T13:29:16Z</time>
      </trkpt>
      <trkpt lat="47.6419" lon="6.03682">
        <ele>218</ele>
        <time>2018-11-28T13:29:18Z</time>
      </trkpt>
      <trkpt lat="47.64196" lon="6.03683">
        <ele>218</ele>
        <time>2018-11-28T13:29:20Z</time>
      </trkpt>
      <trkpt lat="47.64203" lon="6.03685">
        <ele>218</ele>
        <time>2018-11-28T13:29:22Z</time>
      </trkpt>
      <trkpt lat="47.6421" lon="6.03687">
        <ele>218</ele>
        <time>2018-11-28T13:29:24Z</time>
      </trkpt>
      <trkpt lat="47.64218" lon="6.03689">
        <ele>218</ele>
        <time>2018-11-28T13:29:25Z</time>
      </trkpt>
      <trkpt lat="47.64226" lon="6.03691">
        <ele>218</ele>
        <time>2018-11-28T13:29:27Z</time>
      </trkpt>
      <trkpt lat="47.64234" lon="6.03693">
        <ele>218</ele>
        <time>2018-11-28T13:29:29Z</time>
      </trkpt>
      <trkpt lat="47.64243" lon="6.03695">
        <ele>218</ele>
        <time>2018-11-28T13:29:31Z</time>
      </trkpt>
      <trkpt lat="47.64251" lon="6.03698">
        <ele>218</ele>
        <time>2018-11-28T13:29:33Z</time>
      </trkpt>
      <trkpt lat="47.64259" lon="6.037">
        <ele>218</ele>
        <time>2018-11-28T13:29:35Z</time>
      </trkpt>
      <trkpt lat="47.64267" lon="6.03703">
        <ele>218</ele>
        <time>2018-11-28T13:29:37Z</time>
      </trkpt>
      <trkpt lat="47.64273" lon="6.03705">
        <ele>218</ele>
        <time>2018-11-28T13:29:40Z</time>
      </trkpt>
      <trkpt lat="47.64279" lon="6.03706">
        <ele>218</ele>
        <time>2018-11-28T13:29:42Z</time>
      </trkpt>
      <trkpt lat="47.64285" lon="6.03707">
        <ele>218</ele>
        <time>2018-11-28T13:29:44Z</time>
      </trkpt>
      <trkpt lat="47.6429" lon="6.03708">
        <ele>218</ele>
        <time>2018-11-28T13:29:46Z</time>
      </trkpt>
      <trkpt lat="47.64296" lon="6.03708">
        <ele>218</ele>
        <time>2018-11-28T13:29:48Z</time>
      </trkpt>
      <trkpt lat="47.64302" lon="6.03707">
        <ele>218</ele>
        <time>2018-11-28T13:29:50Z</time>
      </trkpt>
      <trkpt lat="47.64309" lon="6.03707">
        <ele>218</ele>
        <time>2018-11-28T13:29:52Z</time>
      </trkpt>
      <trkpt lat="47.64316" lon="6.03706">
        <ele>218</ele>
        <time>2018-11-28T13:29:54Z</time>
      </trkpt>
      <trkpt lat="47.64323" lon="6.03705">
        <ele>218</ele>
        <time>2018-11-28T13:29:56Z</time>
      </trkpt>
      <trkpt lat="47.6433" lon="6.03704">
        <ele>217</ele>
        <time>2018-11-28T13:29:58Z</time>
      </trkpt>
      <trkpt lat="47.64337" lon="6.03704">
        <ele>216</ele>
        <time>2018-11-28T13:29:59Z</time>
      </trkpt>
      <trkpt lat="47.64345" lon="6.03703">
        <ele>215</ele>
        <time>2018-11-28T13:30:01Z</time>
      </trkpt>
      <trkpt lat="47.64353" lon="6.03701">
        <ele>215</ele>
        <time>2018-11-28T13:30:03Z</time>
      </trkpt>
      <trkpt lat="47.64361" lon="6.03699">
        <ele>215</ele>
        <time>2018-11-28T13:30:05Z</time>
      </trkpt>
      <trkpt lat="47.6437" lon="6.03695">
        <ele>215</ele>
        <time>2018-11-28T13:30:07Z</time>
      </trkpt>
      <trkpt lat="47.64375" lon="6.03692">
        <ele>215</ele>
        <time>2018-11-28T13:30:08Z</time>
      </trkpt>
      <trkpt lat="47.6438" lon="6.03689">
        <ele>215</ele>
        <time>2018-11-28T13:30:09Z</time>
      </trkpt>
      <trkpt lat="47.64386" lon="6.03686">
        <ele>214</ele>
        <time>2018-11-28T13:30:10Z</time>
      </trkpt>
      <trkpt lat="47.64392" lon="6.0368">
        <ele>214</ele>
        <time>2018-11-28T13:30:11Z</time>
      </trkpt>
      <trkpt lat="47.64397" lon="6.03672">
        <ele>214</ele>
        <time>2018-11-28T13:30:12Z</time>
      </trkpt>
      <trkpt lat="47.64402" lon="6.03664">
        <ele>212</ele>
        <time>2018-11-28T13:30:13Z</time>
      </trkpt>
      <trkpt lat="47.64404" lon="6.03656">
        <ele>212</ele>
        <time>2018-11-28T13:30:14Z</time>
      </trkpt>
      <trkpt lat="47.64408" lon="6.03647">
        <ele>212</ele>
        <time>2018-11-28T13:30:15Z</time>
      </trkpt>
      <trkpt lat="47.64411" lon="6.03639">
        <ele>212</ele>
        <time>2018-11-28T13:30:16Z</time>
      </trkpt>
      <trkpt lat="47.64415" lon="6.03632">
        <ele>212</ele>
        <time>2018-11-28T13:30:17Z</time>
      </trkpt>
      <trkpt lat="47.64419" lon="6.03626">
        <ele>211</ele>
        <time>2018-11-28T13:30:18Z</time>
      </trkpt>
      <trkpt lat="47.64425" lon="6.03622">
        <ele>211</ele>
        <time>2018-11-28T13:30:19Z</time>
      </trkpt>
      <trkpt lat="47.6443" lon="6.0362">
        <ele>211</ele>
        <time>2018-11-28T13:30:20Z</time>
      </trkpt>
      <trkpt lat="47.64436" lon="6.0362">
        <ele>211</ele>
        <time>2018-11-28T13:30:21Z</time>
      </trkpt>
      <trkpt lat="47.64442" lon="6.03621">
        <ele>211</ele>
        <time>2018-11-28T13:30:22Z</time>
      </trkpt>
      <trkpt lat="47.64448" lon="6.03622">
        <ele>211</ele>
        <time>2018-11-28T13:30:23Z</time>
      </trkpt>
      <trkpt lat="47.64454" lon="6.03622">
        <ele>211</ele>
        <time>2018-11-28T13:30:24Z</time>
      </trkpt>
      <trkpt lat="47.64459" lon="6.03623">
        <ele>211</ele>
        <time>2018-11-28T13:30:25Z</time>
      </trkpt>
      <trkpt lat="47.64464" lon="6.03623">
        <ele>211</ele>
        <time>2018-11-28T13:30:26Z</time>
      </trkpt>
      <trkpt lat="47.64469" lon="6.03623">
        <ele>211</ele>
        <time>2018-11-28T13:30:27Z</time>
      </trkpt>
      <trkpt lat="47.64474" lon="6.03623">
        <ele>211</ele>
        <time>2018-11-28T13:30:28Z</time>
      </trkpt>
      <trkpt lat="47.64483" lon="6.03623">
        <ele>211</ele>
        <time>2018-11-28T13:30:30Z</time>
      </trkpt>
      <trkpt lat="47.64491" lon="6.03623">
        <ele>211</ele>
        <time>2018-11-28T13:30:32Z</time>
      </trkpt>
      <trkpt lat="47.64498" lon="6.03622">
        <ele>211</ele>
        <time>2018-11-28T13:30:34Z</time>
      </trkpt>
      <trkpt lat="47.64507" lon="6.0362">
        <ele>211</ele>
        <time>2018-11-28T13:30:36Z</time>
      </trkpt>
      <trkpt lat="47.64515" lon="6.03618">
        <ele>211</ele>
        <time>2018-11-28T13:30:38Z</time>
      </trkpt>
      <trkpt lat="47.64522" lon="6.03617">
        <ele>211</ele>
        <time>2018-11-28T13:30:40Z</time>
      </trkpt>
      <trkpt lat="47.64528" lon="6.03615">
        <ele>211</ele>
        <time>2018-11-28T13:30:42Z</time>
      </trkpt>
      <trkpt lat="47.64534" lon="6.03613">
        <ele>211</ele>
        <time>2018-11-28T13:30:44Z</time>
      </trkpt>
      <trkpt lat="47.6454" lon="6.03611">
        <ele>211</ele>
        <time>2018-11-28T13:30:46Z</time>
      </trkpt>
      <trkpt lat="47.64549" lon="6.03606">
        <ele>211</ele>
        <time>2018-11-28T13:30:48Z</time>
      </trkpt>
      <trkpt lat="47.64556" lon="6.03601">
        <ele>212</ele>
        <time>2018-11-28T13:30:50Z</time>
      </trkpt>
      <trkpt lat="47.64563" lon="6.03595">
        <ele>212</ele>
        <time>2018-11-28T13:30:52Z</time>
      </trkpt>
      <trkpt lat="47.64569" lon="6.03589">
        <ele>212</ele>
        <time>2018-11-28T13:30:54Z</time>
      </trkpt>
      <trkpt lat="47.64575" lon="6.03581">
        <ele>211</ele>
        <time>2018-11-28T13:30:56Z</time>
      </trkpt>
      <trkpt lat="47.64581" lon="6.03573">
        <ele>211</ele>
        <time>2018-11-28T13:30:58Z</time>
      </trkpt>
      <trkpt lat="47.64587" lon="6.03565">
        <ele>212</ele>
        <time>2018-11-28T13:31:00Z</time>
      </trkpt>
      <trkpt lat="47.64593" lon="6.03557">
        <ele>212</ele>
        <time>2018-11-28T13:31:02Z</time>
      </trkpt>
      <trkpt lat="47.64597" lon="6.03553">
        <ele>212</ele>
        <time>2018-11-28T13:31:03Z</time>
      </trkpt>
      <trkpt lat="47.64604" lon="6.03545">
        <ele>212</ele>
        <time>2018-11-28T13:31:05Z</time>
      </trkpt>
      <trkpt lat="47.64611" lon="6.03537">
        <ele>211</ele>
        <time>2018-11-28T13:31:07Z</time>
      </trkpt>
      <trkpt lat="47.64617" lon="6.03531">
        <ele>211</ele>
        <time>2018-11-28T13:31:09Z</time>
      </trkpt>
      <trkpt lat="47.64623" lon="6.03522">
        <ele>211</ele>
        <time>2018-11-28T13:31:11Z</time>
      </trkpt>
      <trkpt lat="47.6463" lon="6.03514">
        <ele>211</ele>
        <time>2018-11-28T13:31:13Z</time>
      </trkpt>
      <trkpt lat="47.64637" lon="6.03506">
        <ele>211</ele>
        <time>2018-11-28T13:31:15Z</time>
      </trkpt>
      <trkpt lat="47.64643" lon="6.03498">
        <ele>210</ele>
        <time>2018-11-28T13:31:17Z</time>
      </trkpt>
      <trkpt lat="47.64649" lon="6.03489">
        <ele>210</ele>
        <time>2018-11-28T13:31:19Z</time>
      </trkpt>
      <trkpt lat="47.64655" lon="6.03481">
        <ele>210</ele>
        <time>2018-11-28T13:31:21Z</time>
      </trkpt>
      <trkpt lat="47.64661" lon="6.03472">
        <ele>210</ele>
        <time>2018-11-28T13:31:23Z</time>
      </trkpt>
      <trkpt lat="47.64668" lon="6.03464">
        <ele>212</ele>
        <time>2018-11-28T13:31:25Z</time>
      </trkpt>
      <trkpt lat="47.64675" lon="6.03458">
        <ele>212</ele>
        <time>2018-11-28T13:31:27Z</time>
      </trkpt>
      <trkpt lat="47.64683" lon="6.03451">
        <ele>212</ele>
        <time>2018-11-28T13:31:29Z</time>
      </trkpt>
      <trkpt lat="47.6469" lon="6.03445">
        <ele>212</ele>
        <time>2018-11-28T13:31:31Z</time>
      </trkpt>
      <trkpt lat="47.64694" lon="6.03442">
        <ele>212</ele>
        <time>2018-11-28T13:31:32Z</time>
      </trkpt>
      <trkpt lat="47.64698" lon="6.03439">
        <ele>212</ele>
        <time>2018-11-28T13:31:33Z</time>
      </trkpt>
      <trkpt lat="47.64705" lon="6.03433">
        <ele>212</ele>
        <time>2018-11-28T13:31:35Z</time>
      </trkpt>
      <trkpt lat="47.64709" lon="6.0343">
        <ele>212</ele>
        <time>2018-11-28T13:31:36Z</time>
      </trkpt>
      <trkpt lat="47.64713" lon="6.03427">
        <ele>212</ele>
        <time>2018-11-28T13:31:37Z</time>
      </trkpt>
      <trkpt lat="47.64717" lon="6.03424">
        <ele>212</ele>
        <time>2018-11-28T13:31:38Z</time>
      </trkpt>
      <trkpt lat="47.64724" lon="6.03418">
        <ele>212</ele>
        <time>2018-11-28T13:31:40Z</time>
      </trkpt>
      <trkpt lat="47.64729" lon="6.03415">
        <ele>211</ele>
        <time>2018-11-28T13:31:41Z</time>
      </trkpt>
      <trkpt lat="47.64736" lon="6.0341">
        <ele>211</ele>
        <time>2018-11-28T13:31:43Z</time>
      </trkpt>
      <trkpt lat="47.64743" lon="6.03404">
        <ele>211</ele>
        <time>2018-11-28T13:31:45Z</time>
      </trkpt>
      <trkpt lat="47.6475" lon="6.03399">
        <ele>212</ele>
        <time>2018-11-28T13:31:47Z</time>
      </trkpt>
      <trkpt lat="47.64758" lon="6.03394">
        <ele>212</ele>
        <time>2018-11-28T13:31:49Z</time>
      </trkpt>
      <trkpt lat="47.64766" lon="6.03388">
        <ele>212</ele>
        <time>2018-11-28T13:31:51Z</time>
      </trkpt>
      <trkpt lat="47.64773" lon="6.03384">
        <ele>212</ele>
        <time>2018-11-28T13:31:53Z</time>
      </trkpt>
      <trkpt lat="47.64781" lon="6.03378">
        <ele>212</ele>
        <time>2018-11-28T13:31:55Z</time>
      </trkpt>
      <trkpt lat="47.64788" lon="6.03375">
        <ele>212</ele>
        <time>2018-11-28T13:31:57Z</time>
      </trkpt>
      <trkpt lat="47.64795" lon="6.03371">
        <ele>212</ele>
        <time>2018-11-28T13:31:59Z</time>
      </trkpt>
      <trkpt lat="47.64802" lon="6.03367">
        <ele>212</ele>
        <time>2018-11-28T13:32:01Z</time>
      </trkpt>
      <trkpt lat="47.6481" lon="6.03362">
        <ele>212</ele>
        <time>2018-11-28T13:32:03Z</time>
      </trkpt>
      <trkpt lat="47.64814" lon="6.0336">
        <ele>212</ele>
        <time>2018-11-28T13:32:04Z</time>
      </trkpt>
      <trkpt lat="47.64819" lon="6.03357">
        <ele>212</ele>
        <time>2018-11-28T13:32:05Z</time>
      </trkpt>
      <trkpt lat="47.64824" lon="6.03354">
        <ele>212</ele>
        <time>2018-11-28T13:32:06Z</time>
      </trkpt>
      <trkpt lat="47.6483" lon="6.0335">
        <ele>212</ele>
        <time>2018-11-28T13:32:07Z</time>
      </trkpt>
      <trkpt lat="47.64836" lon="6.03347">
        <ele>214</ele>
        <time>2018-11-28T13:32:08Z</time>
      </trkpt>
      <trkpt lat="47.64843" lon="6.03344">
        <ele>214</ele>
        <time>2018-11-28T13:32:09Z</time>
      </trkpt>
      <trkpt lat="47.64849" lon="6.03341">
        <ele>214</ele>
        <time>2018-11-28T13:32:10Z</time>
      </trkpt>
      <trkpt lat="47.64854" lon="6.03338">
        <ele>214</ele>
        <time>2018-11-28T13:32:11Z</time>
      </trkpt>
      <trkpt lat="47.6486" lon="6.03335">
        <ele>214</ele>
        <time>2018-11-28T13:32:12Z</time>
      </trkpt>
      <trkpt lat="47.64866" lon="6.03332">
        <ele>212</ele>
        <time>2018-11-28T13:32:13Z</time>
      </trkpt>
      <trkpt lat="47.64871" lon="6.03328">
        <ele>212</ele>
        <time>2018-11-28T13:32:14Z</time>
      </trkpt>
      <trkpt lat="47.64876" lon="6.03326">
        <ele>212</ele>
        <time>2018-11-28T13:32:15Z</time>
      </trkpt>
      <trkpt lat="47.64881" lon="6.03323">
        <ele>212</ele>
        <time>2018-11-28T13:32:16Z</time>
      </trkpt>
      <trkpt lat="47.64886" lon="6.0332">
        <ele>212</ele>
        <time>2018-11-28T13:32:17Z</time>
      </trkpt>
      <trkpt lat="47.64891" lon="6.03317">
        <ele>212</ele>
        <time>2018-11-28T13:32:18Z</time>
      </trkpt>
      <trkpt lat="47.64895" lon="6.03314">
        <ele>212</ele>
        <time>2018-11-28T13:32:19Z</time>
      </trkpt>
      <trkpt lat="47.649" lon="6.03311">
        <ele>212</ele>
        <time>2018-11-28T13:32:20Z</time>
      </trkpt>
      <trkpt lat="47.64905" lon="6.03308">
        <ele>212</ele>
        <time>2018-11-28T13:32:21Z</time>
      </trkpt>
      <trkpt lat="47.64909" lon="6.03305">
        <ele>212</ele>
        <time>2018-11-28T13:32:22Z</time>
      </trkpt>
      <trkpt lat="47.64918" lon="6.033">
        <ele>214</ele>
        <time>2018-11-28T13:32:24Z</time>
      </trkpt>
      <trkpt lat="47.64926" lon="6.03295">
        <ele>214</ele>
        <time>2018-11-28T13:32:26Z</time>
      </trkpt>
      <trkpt lat="47.64931" lon="6.03292">
        <ele>214</ele>
        <time>2018-11-28T13:32:27Z</time>
      </trkpt>
      <trkpt lat="47.64939" lon="6.03287">
        <ele>214</ele>
        <time>2018-11-28T13:32:29Z</time>
      </trkpt>
      <trkpt lat="47.64947" lon="6.03282">
        <ele>214</ele>
        <time>2018-11-28T13:32:31Z</time>
      </trkpt>
      <trkpt lat="47.64951" lon="6.03279">
        <ele>214</ele>
        <time>2018-11-28T13:32:32Z</time>
      </trkpt>
      <trkpt lat="47.64959" lon="6.03274">
        <ele>214</ele>
        <time>2018-11-28T13:32:34Z</time>
      </trkpt>
      <trkpt lat="47.64966" lon="6.03271">
        <ele>214</ele>
        <time>2018-11-28T13:32:36Z</time>
      </trkpt>
      <trkpt lat="47.64973" lon="6.03266">
        <ele>214</ele>
        <time>2018-11-28T13:32:38Z</time>
      </trkpt>
      <trkpt lat="47.64978" lon="6.03264">
        <ele>214</ele>
        <time>2018-11-28T13:32:40Z</time>
      </trkpt>
      <trkpt lat="47.64983" lon="6.0326">
        <ele>214</ele>
        <time>2018-11-28T13:32:42Z</time>
      </trkpt>
      <trkpt lat="47.6499" lon="6.03256">
        <ele>214</ele>
        <time>2018-11-28T13:32:44Z</time>
      </trkpt>
      <trkpt lat="47.64997" lon="6.03251">
        <ele>213</ele>
        <time>2018-11-28T13:32:46Z</time>
      </trkpt>
      <trkpt lat="47.65003" lon="6.03247">
        <ele>213</ele>
        <time>2018-11-28T13:32:48Z</time>
      </trkpt>
      <trkpt lat="47.65008" lon="6.03244">
        <ele>212</ele>
        <time>2018-11-28T13:32:50Z</time>
      </trkpt>
      <trkpt lat="47.65014" lon="6.0324">
        <ele>212</ele>
        <time>2018-11-28T13:32:52Z</time>
      </trkpt>
      <trkpt lat="47.65021" lon="6.03234">
        <ele>212</ele>
        <time>2018-11-28T13:32:54Z</time>
      </trkpt>
      <trkpt lat="47.65026" lon="6.03228">
        <ele>212</ele>
        <time>2018-11-28T13:32:56Z</time>
      </trkpt>
      <trkpt lat="47.65032" lon="6.0322">
        <ele>211</ele>
        <time>2018-11-28T13:32:58Z</time>
      </trkpt>
      <trkpt lat="47.65039" lon="6.0321">
        <ele>211</ele>
        <time>2018-11-28T13:33:00Z</time>
      </trkpt>
      <trkpt lat="47.65045" lon="6.03201">
        <ele>211</ele>
        <time>2018-11-28T13:33:02Z</time>
      </trkpt>
      <trkpt lat="47.65049" lon="6.03192">
        <ele>211</ele>
        <time>2018-11-28T13:33:04Z</time>
      </trkpt>
      <trkpt lat="47.65052" lon="6.03187">
        <ele>210</ele>
        <time>2018-11-28T13:33:05Z</time>
      </trkpt>
      <trkpt lat="47.65058" lon="6.03177">
        <ele>210</ele>
        <time>2018-11-28T13:33:07Z</time>
      </trkpt>
      <trkpt lat="47.65063" lon="6.03166">
        <ele>208</ele>
        <time>2018-11-28T13:33:09Z</time>
      </trkpt>
      <trkpt lat="47.65066" lon="6.0316">
        <ele>208</ele>
        <time>2018-11-28T13:33:10Z</time>
      </trkpt>
      <trkpt lat="47.65071" lon="6.0315">
        <ele>208</ele>
        <time>2018-11-28T13:33:12Z</time>
      </trkpt>
      <trkpt lat="47.65074" lon="6.03144">
        <ele>208</ele>
        <time>2018-11-28T13:33:13Z</time>
      </trkpt>
      <trkpt lat="47.65079" lon="6.03132">
        <ele>208</ele>
        <time>2018-11-28T13:33:15Z</time>
      </trkpt>
      <trkpt lat="47.65082" lon="6.03126">
        <ele>208</ele>
        <time>2018-11-28T13:33:16Z</time>
      </trkpt>
      <trkpt lat="47.65086" lon="6.03117">
        <ele>209</ele>
        <time>2018-11-28T13:33:18Z</time>
      </trkpt>
      <trkpt lat="47.65085" lon="6.03108">
        <ele>208</ele>
        <time>2018-11-28T13:33:21Z</time>
      </trkpt>
      <trkpt lat="47.65083" lon="6.03097">
        <ele>207</ele>
        <time>2018-11-28T13:33:23Z</time>
      </trkpt>
      <trkpt lat="47.6508" lon="6.03085">
        <ele>207</ele>
        <time>2018-11-28T13:33:25Z</time>
      </trkpt>
      <trkpt lat="47.65077" lon="6.03074">
        <ele>206</ele>
        <time>2018-11-28T13:33:27Z</time>
      </trkpt>
      <trkpt lat="47.65073" lon="6.03063">
        <ele>206</ele>
        <time>2018-11-28T13:33:28Z</time>
      </trkpt>
      <trkpt lat="47.65069" lon="6.03052">
        <ele>206</ele>
        <time>2018-11-28T13:33:30Z</time>
      </trkpt>
      <trkpt lat="47.65069" lon="6.03042">
        <ele>206</ele>
        <time>2018-11-28T13:33:32Z</time>
      </trkpt>
      <trkpt lat="47.65069" lon="6.0303">
        <ele>205</ele>
        <time>2018-11-28T13:33:34Z</time>
      </trkpt>
      <trkpt lat="47.65067" lon="6.03024">
        <ele>205</ele>
        <time>2018-11-28T13:33:35Z</time>
      </trkpt>
      <trkpt lat="47.65061" lon="6.03015">
        <ele>205</ele>
        <time>2018-11-28T13:33:37Z</time>
      </trkpt>
      <trkpt lat="47.65057" lon="6.03009">
        <ele>205</ele>
        <time>2018-11-28T13:33:38Z</time>
      </trkpt>
      <trkpt lat="47.65051" lon="6.03">
        <ele>205</ele>
        <time>2018-11-28T13:33:40Z</time>
      </trkpt>
      <trkpt lat="47.65045" lon="6.0299">
        <ele>205</ele>
        <time>2018-11-28T13:33:42Z</time>
      </trkpt>
      <trkpt lat="47.6504" lon="6.02981">
        <ele>205</ele>
        <time>2018-11-28T13:33:44Z</time>
      </trkpt>
      <trkpt lat="47.65037" lon="6.02976">
        <ele>205</ele>
        <time>2018-11-28T13:33:45Z</time>
      </trkpt>
      <trkpt lat="47.65031" lon="6.02966">
        <ele>205</ele>
        <time>2018-11-28T13:33:47Z</time>
      </trkpt>
      <trkpt lat="47.65026" lon="6.02956">
        <ele>205</ele>
        <time>2018-11-28T13:33:49Z</time>
      </trkpt>
      <trkpt lat="47.6502" lon="6.02946">
        <ele>205</ele>
        <time>2018-11-28T13:33:51Z</time>
      </trkpt>
      <trkpt lat="47.65017" lon="6.0294">
        <ele>205</ele>
        <time>2018-11-28T13:33:52Z</time>
      </trkpt>
      <trkpt lat="47.65015" lon="6.02934">
        <ele>205</ele>
        <time>2018-11-28T13:33:53Z</time>
      </trkpt>
      <trkpt lat="47.65011" lon="6.02921">
        <ele>206</ele>
        <time>2018-11-28T13:33:55Z</time>
      </trkpt>
      <trkpt lat="47.65009" lon="6.02915">
        <ele>206</ele>
        <time>2018-11-28T13:33:56Z</time>
      </trkpt>
      <trkpt lat="47.65007" lon="6.02908">
        <ele>205</ele>
        <time>2018-11-28T13:33:57Z</time>
      </trkpt>
      <trkpt lat="47.65005" lon="6.02902">
        <ele>205</ele>
        <time>2018-11-28T13:33:58Z</time>
      </trkpt>
      <trkpt lat="47.65003" lon="6.0289">
        <ele>205</ele>
        <time>2018-11-28T13:34:00Z</time>
      </trkpt>
      <trkpt lat="47.65001" lon="6.02884">
        <ele>205</ele>
        <time>2018-11-28T13:34:01Z</time>
      </trkpt>
      <trkpt lat="47.64999" lon="6.02871">
        <ele>206</ele>
        <time>2018-11-28T13:34:03Z</time>
      </trkpt>
      <trkpt lat="47.64996" lon="6.0286">
        <ele>206</ele>
        <time>2018-11-28T13:34:05Z</time>
      </trkpt>
      <trkpt lat="47.64995" lon="6.02848">
        <ele>205</ele>
        <time>2018-11-28T13:34:07Z</time>
      </trkpt>
      <trkpt lat="47.64993" lon="6.02836">
        <ele>205</ele>
        <time>2018-11-28T13:34:09Z</time>
      </trkpt>
      <trkpt lat="47.64992" lon="6.02824">
        <ele>205</ele>
        <time>2018-11-28T13:34:11Z</time>
      </trkpt>
      <trkpt lat="47.6499" lon="6.02813">
        <ele>205</ele>
        <time>2018-11-28T13:34:13Z</time>
      </trkpt>
      <trkpt lat="47.64989" lon="6.02801">
        <ele>205</ele>
        <time>2018-11-28T13:34:15Z</time>
      </trkpt>
      <trkpt lat="47.64987" lon="6.02789">
        <ele>205</ele>
        <time>2018-11-28T13:34:17Z</time>
      </trkpt>
      <trkpt lat="47.64986" lon="6.02777">
        <ele>204</ele>
        <time>2018-11-28T13:34:19Z</time>
      </trkpt>
      <trkpt lat="47.64985" lon="6.02764">
        <ele>204</ele>
        <time>2018-11-28T13:34:21Z</time>
      </trkpt>
      <trkpt lat="47.64983" lon="6.02752">
        <ele>204</ele>
        <time>2018-11-28T13:34:23Z</time>
      </trkpt>
      <trkpt lat="47.64982" lon="6.0274">
        <ele>204</ele>
        <time>2018-11-28T13:34:25Z</time>
      </trkpt>
      <trkpt lat="47.64981" lon="6.02728">
        <ele>204</ele>
        <time>2018-11-28T13:34:27Z</time>
      </trkpt>
      <trkpt lat="47.6498" lon="6.02716">
        <ele>204</ele>
        <time>2018-11-28T13:34:29Z</time>
      </trkpt>
      <trkpt lat="47.64978" lon="6.02704">
        <ele>204</ele>
        <time>2018-11-28T13:34:31Z</time>
      </trkpt>
      <trkpt lat="47.64977" lon="6.02692">
        <ele>204</ele>
        <time>2018-11-28T13:34:33Z</time>
      </trkpt>
      <trkpt lat="47.64975" lon="6.02681">
        <ele>204</ele>
        <time>2018-11-28T13:34:35Z</time>
      </trkpt>
      <trkpt lat="47.64974" lon="6.0267">
        <ele>204</ele>
        <time>2018-11-28T13:34:37Z</time>
      </trkpt>
      <trkpt lat="47.64972" lon="6.02658">
        <ele>204</ele>
        <time>2018-11-28T13:34:39Z</time>
      </trkpt>
      <trkpt lat="47.64971" lon="6.02647">
        <ele>204</ele>
        <time>2018-11-28T13:34:41Z</time>
      </trkpt>
      <trkpt lat="47.6497" lon="6.02635">
        <ele>204</ele>
        <time>2018-11-28T13:34:43Z</time>
      </trkpt>
      <trkpt lat="47.64969" lon="6.02623">
        <ele>204</ele>
        <time>2018-11-28T13:34:45Z</time>
      </trkpt>
      <trkpt lat="47.64968" lon="6.02613">
        <ele>204</ele>
        <time>2018-11-28T13:34:47Z</time>
      </trkpt>
      <trkpt lat="47.64966" lon="6.02604">
        <ele>204</ele>
        <time>2018-11-28T13:34:49Z</time>
      </trkpt>
      <trkpt lat="47.64965" lon="6.02593">
        <ele>204</ele>
        <time>2018-11-28T13:34:51Z</time>
      </trkpt>
      <trkpt lat="47.64965" lon="6.02583">
        <ele>205</ele>
        <time>2018-11-28T13:34:53Z</time>
      </trkpt>
      <trkpt lat="47.64963" lon="6.02576">
        <ele>205</ele>
        <time>2018-11-28T13:34:55Z</time>
      </trkpt>
      <trkpt lat="47.64963" lon="6.02568">
        <ele>205</ele>
        <time>2018-11-28T13:34:57Z</time>
      </trkpt>
      <trkpt lat="47.64962" lon="6.02559">
        <ele>205</ele>
        <time>2018-11-28T13:34:59Z</time>
      </trkpt>
      <trkpt lat="47.64961" lon="6.02549">
        <ele>205</ele>
        <time>2018-11-28T13:35:01Z</time>
      </trkpt>
      <trkpt lat="47.64959" lon="6.02538">
        <ele>206</ele>
        <time>2018-11-28T13:35:03Z</time>
      </trkpt>
      <trkpt lat="47.64958" lon="6.02527">
        <ele>206</ele>
        <time>2018-11-28T13:35:05Z</time>
      </trkpt>
      <trkpt lat="47.64957" lon="6.02518">
        <ele>206</ele>
        <time>2018-11-28T13:35:07Z</time>
      </trkpt>
      <trkpt lat="47.64956" lon="6.02511">
        <ele>206</ele>
        <time>2018-11-28T13:35:09Z</time>
      </trkpt>
      <trkpt lat="47.64955" lon="6.02503">
        <ele>206</ele>
        <time>2018-11-28T13:35:11Z</time>
      </trkpt>
      <trkpt lat="47.64951" lon="6.02496">
        <ele>207</ele>
        <time>2018-11-28T13:35:14Z</time>
      </trkpt>
      <trkpt lat="47.64948" lon="6.02488">
        <ele>207</ele>
        <time>2018-11-28T13:35:17Z</time>
      </trkpt>
      <trkpt lat="47.64946" lon="6.02479">
        <ele>207</ele>
        <time>2018-11-28T13:35:20Z</time>
      </trkpt>
      <trkpt lat="47.64945" lon="6.02473">
        <ele>207</ele>
        <time>2018-11-28T13:35:22Z</time>
      </trkpt>
      <trkpt lat="47.64944" lon="6.02465">
        <ele>207</ele>
        <time>2018-11-28T13:35:24Z</time>
      </trkpt>
      <trkpt lat="47.64943" lon="6.02457">
        <ele>208</ele>
        <time>2018-11-28T13:35:26Z</time>
      </trkpt>
      <trkpt lat="47.64942" lon="6.0245">
        <ele>208</ele>
        <time>2018-11-28T13:35:28Z</time>
      </trkpt>
      <trkpt lat="47.64941" lon="6.02442">
        <ele>208</ele>
        <time>2018-11-28T13:35:30Z</time>
      </trkpt>
      <trkpt lat="47.6494" lon="6.02433">
        <ele>208</ele>
        <time>2018-11-28T13:35:32Z</time>
      </trkpt>
      <trkpt lat="47.6494" lon="6.02424">
        <ele>208</ele>
        <time>2018-11-28T13:35:34Z</time>
      </trkpt>
      <trkpt lat="47.64942" lon="6.02414">
        <ele>209</ele>
        <time>2018-11-28T13:35:36Z</time>
      </trkpt>
      <trkpt lat="47.64948" lon="6.02407">
        <ele>209</ele>
        <time>2018-11-28T13:35:38Z</time>
      </trkpt>
      <trkpt lat="47.64955" lon="6.024">
        <ele>209</ele>
        <time>2018-11-28T13:35:40Z</time>
      </trkpt>
      <trkpt lat="47.64961" lon="6.02395">
        <ele>209</ele>
        <time>2018-11-28T13:35:42Z</time>
      </trkpt>
      <trkpt lat="47.64966" lon="6.02394">
        <ele>209</ele>
        <time>2018-11-28T13:35:44Z</time>
      </trkpt>
      <trkpt lat="47.64971" lon="6.02396">
        <ele>209</ele>
        <time>2018-11-28T13:35:47Z</time>
      </trkpt>
      <trkpt lat="47.64967" lon="6.02391">
        <ele>209</ele>
        <time>2018-11-28T13:37:06Z</time>
      </trkpt>
      <trkpt lat="47.6497" lon="6.02397">
        <ele>209</ele>
        <time>2018-11-28T13:42:07Z</time>
      </trkpt>
      <trkpt lat="47.64968" lon="6.02391">
        <ele>209</ele>
        <time>2018-11-28T13:44:09Z</time>
      </trkpt>
      <trkpt lat="47.64968" lon="6.02384">
        <ele>209</ele>
        <time>2018-11-28T13:44:12Z</time>
      </trkpt>
      <trkpt lat="47.64968" lon="6.02377">
        <ele>209</ele>
        <time>2018-11-28T13:44:14Z</time>
      </trkpt>
      <trkpt lat="47.64968" lon="6.02367">
        <ele>209</ele>
        <time>2018-11-28T13:44:16Z</time>
      </trkpt>
      <trkpt lat="47.64967" lon="6.02358">
        <ele>209</ele>
        <time>2018-11-28T13:44:18Z</time>
      </trkpt>
      <trkpt lat="47.64968" lon="6.02349">
        <ele>209</ele>
        <time>2018-11-28T13:44:20Z</time>
      </trkpt>
      <trkpt lat="47.64968" lon="6.02339">
        <ele>209</ele>
        <time>2018-11-28T13:44:22Z</time>
      </trkpt>
      <trkpt lat="47.6497" lon="6.02329">
        <ele>211</ele>
        <time>2018-11-28T13:44:24Z</time>
      </trkpt>
      <trkpt lat="47.64971" lon="6.0232">
        <ele>211</ele>
        <time>2018-11-28T13:44:26Z</time>
      </trkpt>
      <trkpt lat="47.64972" lon="6.02308">
        <ele>211</ele>
        <time>2018-11-28T13:44:28Z</time>
      </trkpt>
      <trkpt lat="47.64972" lon="6.02301">
        <ele>212</ele>
        <time>2018-11-28T13:44:29Z</time>
      </trkpt>
      <trkpt lat="47.6497" lon="6.0229">
        <ele>212</ele>
        <time>2018-11-28T13:44:31Z</time>
      </trkpt>
      <trkpt lat="47.64968" lon="6.0228">
        <ele>212</ele>
        <time>2018-11-28T13:44:33Z</time>
      </trkpt>
      <trkpt lat="47.64966" lon="6.02273">
        <ele>212</ele>
        <time>2018-11-28T13:44:35Z</time>
      </trkpt>
      <trkpt lat="47.64964" lon="6.02265">
        <ele>213</ele>
        <time>2018-11-28T13:44:37Z</time>
      </trkpt>
      <trkpt lat="47.64961" lon="6.02254">
        <ele>213</ele>
        <time>2018-11-28T13:44:39Z</time>
      </trkpt>
      <trkpt lat="47.64959" lon="6.02245">
        <ele>214</ele>
        <time>2018-11-28T13:44:41Z</time>
      </trkpt>
      <trkpt lat="47.64957" lon="6.02238">
        <ele>215</ele>
        <time>2018-11-28T13:44:43Z</time>
      </trkpt>
      <trkpt lat="47.64955" lon="6.02232">
        <ele>215</ele>
        <time>2018-11-28T13:44:45Z</time>
      </trkpt>
      <trkpt lat="47.64951" lon="6.02223">
        <ele>215</ele>
        <time>2018-11-28T13:44:48Z</time>
      </trkpt>
      <trkpt lat="47.64948" lon="6.02216">
        <ele>215</ele>
        <time>2018-11-28T13:44:50Z</time>
      </trkpt>
      <trkpt lat="47.64946" lon="6.02209">
        <ele>215</ele>
        <time>2018-11-28T13:44:52Z</time>
      </trkpt>
      <trkpt lat="47.64944" lon="6.02202">
        <ele>216</ele>
        <time>2018-11-28T13:44:54Z</time>
      </trkpt>
      <trkpt lat="47.64941" lon="6.02195">
        <ele>216</ele>
        <time>2018-11-28T13:44:56Z</time>
      </trkpt>
      <trkpt lat="47.64938" lon="6.02189">
        <ele>216</ele>
        <time>2018-11-28T13:44:58Z</time>
      </trkpt>
      <trkpt lat="47.64935" lon="6.02183">
        <ele>217</ele>
        <time>2018-11-28T13:45:01Z</time>
      </trkpt>
      <trkpt lat="47.6493" lon="6.02176">
        <ele>218</ele>
        <time>2018-11-28T13:45:05Z</time>
      </trkpt>
      <trkpt lat="47.64928" lon="6.0217">
        <ele>219</ele>
        <time>2018-11-28T13:45:07Z</time>
      </trkpt>
      <trkpt lat="47.64926" lon="6.02164">
        <ele>219</ele>
        <time>2018-11-28T13:45:09Z</time>
      </trkpt>
      <trkpt lat="47.64924" lon="6.02158">
        <ele>218</ele>
        <time>2018-11-28T13:45:11Z</time>
      </trkpt>
      <trkpt lat="47.64921" lon="6.0215">
        <ele>217</ele>
        <time>2018-11-28T13:45:13Z</time>
      </trkpt>
      <trkpt lat="47.64918" lon="6.02141">
        <ele>215</ele>
        <time>2018-11-28T13:45:16Z</time>
      </trkpt>
      <trkpt lat="47.64917" lon="6.02135">
        <ele>220</ele>
        <time>2018-11-28T13:45:18Z</time>
      </trkpt>
      <trkpt lat="47.64914" lon="6.02127">
        <ele>220</ele>
        <time>2018-11-28T13:45:20Z</time>
      </trkpt>
      <trkpt lat="47.6491" lon="6.02117">
        <ele>219</ele>
        <time>2018-11-28T13:45:22Z</time>
      </trkpt>
      <trkpt lat="47.64907" lon="6.0211">
        <ele>219</ele>
        <time>2018-11-28T13:45:24Z</time>
      </trkpt>
      <trkpt lat="47.64902" lon="6.02101">
        <ele>218</ele>
        <time>2018-11-28T13:45:26Z</time>
      </trkpt>
      <trkpt lat="47.64897" lon="6.0209">
        <ele>218</ele>
        <time>2018-11-28T13:45:28Z</time>
      </trkpt>
      <trkpt lat="47.64891" lon="6.02074">
        <ele>216</ele>
        <time>2018-11-28T13:45:30Z</time>
      </trkpt>
      <trkpt lat="47.64888" lon="6.02067">
        <ele>217</ele>
        <time>2018-11-28T13:45:31Z</time>
      </trkpt>
      <trkpt lat="47.64883" lon="6.02062">
        <ele>217</ele>
        <time>2018-11-28T13:45:33Z</time>
      </trkpt>
      <trkpt lat="47.6488" lon="6.02067">
        <ele>217</ele>
        <time>2018-11-28T13:45:37Z</time>
      </trkpt>
      <trkpt lat="47.64878" lon="6.02074">
        <ele>218</ele>
        <time>2018-11-28T13:45:41Z</time>
      </trkpt>
      <trkpt lat="47.64881" lon="6.02081">
        <ele>217</ele>
        <time>2018-11-28T13:45:44Z</time>
      </trkpt>
      <trkpt lat="47.64886" lon="6.02085">
        <ele>219</ele>
        <time>2018-11-28T13:45:46Z</time>
      </trkpt>
      <trkpt lat="47.6489" lon="6.02089">
        <ele>219</ele>
        <time>2018-11-28T13:45:48Z</time>
      </trkpt>
      <trkpt lat="47.64896" lon="6.02093">
        <ele>218</ele>
        <time>2018-11-28T13:45:51Z</time>
      </trkpt>
      <trkpt lat="47.64902" lon="6.02091">
        <ele>217</ele>
        <time>2018-11-28T13:45:54Z</time>
      </trkpt>
      <trkpt lat="47.64906" lon="6.02088">
        <ele>216</ele>
        <time>2018-11-28T13:45:56Z</time>
      </trkpt>
      <trkpt lat="47.6491" lon="6.02083">
        <ele>215</ele>
        <time>2018-11-28T13:45:58Z</time>
      </trkpt>
      <trkpt lat="47.64915" lon="6.02078">
        <ele>214</ele>
        <time>2018-11-28T13:46:00Z</time>
      </trkpt>
      <trkpt lat="47.6492" lon="6.02073">
        <ele>211</ele>
        <time>2018-11-28T13:46:02Z</time>
      </trkpt>
      <trkpt lat="47.64925" lon="6.02069">
        <ele>210</ele>
        <time>2018-11-28T13:46:04Z</time>
      </trkpt>
      <trkpt lat="47.6493" lon="6.02065">
        <ele>209</ele>
        <time>2018-11-28T13:46:06Z</time>
      </trkpt>
      <trkpt lat="47.64936" lon="6.02061">
        <ele>209</ele>
        <time>2018-11-28T13:46:08Z</time>
      </trkpt>
      <trkpt lat="47.64941" lon="6.02057">
        <ele>208</ele>
        <time>2018-11-28T13:46:10Z</time>
      </trkpt>
      <trkpt lat="47.64947" lon="6.02052">
        <ele>208</ele>
        <time>2018-11-28T13:46:12Z</time>
      </trkpt>
      <trkpt lat="47.64953" lon="6.02048">
        <ele>208</ele>
        <time>2018-11-28T13:46:14Z</time>
      </trkpt>
      <trkpt lat="47.6496" lon="6.02042">
        <ele>207</ele>
        <time>2018-11-28T13:46:16Z</time>
      </trkpt>
      <trkpt lat="47.64969" lon="6.02035">
        <ele>207</ele>
        <time>2018-11-28T13:46:18Z</time>
      </trkpt>
      <trkpt lat="47.64973" lon="6.02031">
        <ele>207</ele>
        <time>2018-11-28T13:46:19Z</time>
      </trkpt>
      <trkpt lat="47.64978" lon="6.02027">
        <ele>207</ele>
        <time>2018-11-28T13:46:20Z</time>
      </trkpt>
      <trkpt lat="47.64985" lon="6.02023">
        <ele>206</ele>
        <time>2018-11-28T13:46:21Z</time>
      </trkpt>
      <trkpt lat="47.6499" lon="6.02022">
        <ele>206</ele>
        <time>2018-11-28T13:46:22Z</time>
      </trkpt>
      <trkpt lat="47.64996" lon="6.02022">
        <ele>206</ele>
        <time>2018-11-28T13:46:23Z</time>
      </trkpt>
      <trkpt lat="47.65001" lon="6.02023">
        <ele>205</ele>
        <time>2018-11-28T13:46:24Z</time>
      </trkpt>
      <trkpt lat="47.65007" lon="6.02025">
        <ele>204</ele>
        <time>2018-11-28T13:46:25Z</time>
      </trkpt>
      <trkpt lat="47.65012" lon="6.02028">
        <ele>204</ele>
        <time>2018-11-28T13:46:26Z</time>
      </trkpt>
      <trkpt lat="47.65016" lon="6.02031">
        <ele>204</ele>
        <time>2018-11-28T13:46:27Z</time>
      </trkpt>
      <trkpt lat="47.65021" lon="6.02035">
        <ele>204</ele>
        <time>2018-11-28T13:46:28Z</time>
      </trkpt>
      <trkpt lat="47.65025" lon="6.02038">
        <ele>204</ele>
        <time>2018-11-28T13:46:29Z</time>
      </trkpt>
      <trkpt lat="47.65032" lon="6.02043">
        <ele>204</ele>
        <time>2018-11-28T13:46:31Z</time>
      </trkpt>
      <trkpt lat="47.65039" lon="6.02048">
        <ele>204</ele>
        <time>2018-11-28T13:46:33Z</time>
      </trkpt>
      <trkpt lat="47.65045" lon="6.02052">
        <ele>204</ele>
        <time>2018-11-28T13:46:35Z</time>
      </trkpt>
      <trkpt lat="47.65053" lon="6.02055">
        <ele>204</ele>
        <time>2018-11-28T13:46:37Z</time>
      </trkpt>
      <trkpt lat="47.65059" lon="6.02057">
        <ele>204</ele>
        <time>2018-11-28T13:46:39Z</time>
      </trkpt>
      <trkpt lat="47.65066" lon="6.0206">
        <ele>204</ele>
        <time>2018-11-28T13:46:41Z</time>
      </trkpt>
      <trkpt lat="47.65072" lon="6.02063">
        <ele>204</ele>
        <time>2018-11-28T13:46:43Z</time>
      </trkpt>
      <trkpt lat="47.65078" lon="6.02066">
        <ele>204</ele>
        <time>2018-11-28T13:46:45Z</time>
      </trkpt>
      <trkpt lat="47.65085" lon="6.02069">
        <ele>204</ele>
        <time>2018-11-28T13:46:47Z</time>
      </trkpt>
      <trkpt lat="47.65091" lon="6.02072">
        <ele>204</ele>
        <time>2018-11-28T13:46:50Z</time>
      </trkpt>
      <trkpt lat="47.65098" lon="6.02075">
        <ele>204</ele>
        <time>2018-11-28T13:46:52Z</time>
      </trkpt>
      <trkpt lat="47.65109" lon="6.02078">
        <ele>204</ele>
        <time>2018-11-28T13:46:54Z</time>
      </trkpt>
      <trkpt lat="47.65117" lon="6.02081">
        <ele>204</ele>
        <time>2018-11-28T13:46:56Z</time>
      </trkpt>
      <trkpt lat="47.65125" lon="6.02085">
        <ele>204</ele>
        <time>2018-11-28T13:46:58Z</time>
      </trkpt>
      <trkpt lat="47.65134" lon="6.02089">
        <ele>204</ele>
        <time>2018-11-28T13:47:00Z</time>
      </trkpt>
      <trkpt lat="47.65142" lon="6.02092">
        <ele>204</ele>
        <time>2018-11-28T13:47:02Z</time>
      </trkpt>
      <trkpt lat="47.65147" lon="6.02093">
        <ele>204</ele>
        <time>2018-11-28T13:47:03Z</time>
      </trkpt>
      <trkpt lat="47.65152" lon="6.02094">
        <ele>204</ele>
        <time>2018-11-28T13:47:04Z</time>
      </trkpt>
      <trkpt lat="47.65156" lon="6.02095">
        <ele>204</ele>
        <time>2018-11-28T13:47:05Z</time>
      </trkpt>
      <trkpt lat="47.65161" lon="6.02097">
        <ele>204</ele>
        <time>2018-11-28T13:47:06Z</time>
      </trkpt>
      <trkpt lat="47.65166" lon="6.02098">
        <ele>204</ele>
        <time>2018-11-28T13:47:07Z</time>
      </trkpt>
      <trkpt lat="47.6517" lon="6.021">
        <ele>204</ele>
        <time>2018-11-28T13:47:08Z</time>
      </trkpt>
      <trkpt lat="47.65175" lon="6.02101">
        <ele>204</ele>
        <time>2018-11-28T13:47:09Z</time>
      </trkpt>
      <trkpt lat="47.65184" lon="6.02103">
        <ele>204</ele>
        <time>2018-11-28T13:47:11Z</time>
      </trkpt>
      <trkpt lat="47.65192" lon="6.02105">
        <ele>204</ele>
        <time>2018-11-28T13:47:13Z</time>
      </trkpt>
      <trkpt lat="47.65201" lon="6.02105">
        <ele>204</ele>
        <time>2018-11-28T13:47:15Z</time>
      </trkpt>
      <trkpt lat="47.6521" lon="6.02106">
        <ele>204</ele>
        <time>2018-11-28T13:47:17Z</time>
      </trkpt>
      <trkpt lat="47.65218" lon="6.02107">
        <ele>204</ele>
        <time>2018-11-28T13:47:19Z</time>
      </trkpt>
      <trkpt lat="47.65227" lon="6.02107">
        <ele>204</ele>
        <time>2018-11-28T13:47:21Z</time>
      </trkpt>
      <trkpt lat="47.65235" lon="6.02107">
        <ele>204</ele>
        <time>2018-11-28T13:47:23Z</time>
      </trkpt>
      <trkpt lat="47.65244" lon="6.02106">
        <ele>204</ele>
        <time>2018-11-28T13:47:25Z</time>
      </trkpt>
      <trkpt lat="47.65252" lon="6.02104">
        <ele>204</ele>
        <time>2018-11-28T13:47:27Z</time>
      </trkpt>
      <trkpt lat="47.6526" lon="6.02103">
        <ele>204</ele>
        <time>2018-11-28T13:47:29Z</time>
      </trkpt>
      <trkpt lat="47.65267" lon="6.02102">
        <ele>204</ele>
        <time>2018-11-28T13:47:31Z</time>
      </trkpt>
      <trkpt lat="47.65274" lon="6.02101">
        <ele>204</ele>
        <time>2018-11-28T13:47:33Z</time>
      </trkpt>
      <trkpt lat="47.65282" lon="6.02098">
        <ele>204</ele>
        <time>2018-11-28T13:47:35Z</time>
      </trkpt>
      <trkpt lat="47.6529" lon="6.02096">
        <ele>204</ele>
        <time>2018-11-28T13:47:37Z</time>
      </trkpt>
      <trkpt lat="47.65294" lon="6.02095">
        <ele>203</ele>
        <time>2018-11-28T13:47:38Z</time>
      </trkpt>
      <trkpt lat="47.65299" lon="6.02094">
        <ele>203</ele>
        <time>2018-11-28T13:47:39Z</time>
      </trkpt>
      <trkpt lat="47.65304" lon="6.02093">
        <ele>203</ele>
        <time>2018-11-28T13:47:40Z</time>
      </trkpt>
      <trkpt lat="47.65313" lon="6.02091">
        <ele>203</ele>
        <time>2018-11-28T13:47:42Z</time>
      </trkpt>
      <trkpt lat="47.65318" lon="6.02089">
        <ele>203</ele>
        <time>2018-11-28T13:47:43Z</time>
      </trkpt>
      <trkpt lat="47.65326" lon="6.02085">
        <ele>203</ele>
        <time>2018-11-28T13:47:45Z</time>
      </trkpt>
      <trkpt lat="47.6533" lon="6.02082">
        <ele>203</ele>
        <time>2018-11-28T13:47:46Z</time>
      </trkpt>
      <trkpt lat="47.65335" lon="6.02079">
        <ele>203</ele>
        <time>2018-11-28T13:47:47Z</time>
      </trkpt>
      <trkpt lat="47.65339" lon="6.02077">
        <ele>203</ele>
        <time>2018-11-28T13:47:48Z</time>
      </trkpt>
      <trkpt lat="47.65344" lon="6.02075">
        <ele>203</ele>
        <time>2018-11-28T13:47:49Z</time>
      </trkpt>
      <trkpt lat="47.65349" lon="6.02072">
        <ele>204</ele>
        <time>2018-11-28T13:47:50Z</time>
      </trkpt>
      <trkpt lat="47.65357" lon="6.02069">
        <ele>204</ele>
        <time>2018-11-28T13:47:52Z</time>
      </trkpt>
      <trkpt lat="47.65362" lon="6.02066">
        <ele>204</ele>
        <time>2018-11-28T13:47:53Z</time>
      </trkpt>
      <trkpt lat="47.65369" lon="6.02061">
        <ele>204</ele>
        <time>2018-11-28T13:47:55Z</time>
      </trkpt>
      <trkpt lat="47.65377" lon="6.02056">
        <ele>204</ele>
        <time>2018-11-28T13:47:57Z</time>
      </trkpt>
      <trkpt lat="47.65384" lon="6.02051">
        <ele>204</ele>
        <time>2018-11-28T13:47:59Z</time>
      </trkpt>
      <trkpt lat="47.65389" lon="6.02047">
        <ele>204</ele>
        <time>2018-11-28T13:48:00Z</time>
      </trkpt>
      <trkpt lat="47.65392" lon="6.02044">
        <ele>204</ele>
        <time>2018-11-28T13:48:01Z</time>
      </trkpt>
      <trkpt lat="47.65401" lon="6.02037">
        <ele>204</ele>
        <time>2018-11-28T13:48:03Z</time>
      </trkpt>
      <trkpt lat="47.65406" lon="6.02033">
        <ele>204</ele>
        <time>2018-11-28T13:48:04Z</time>
      </trkpt>
      <trkpt lat="47.6541" lon="6.02029">
        <ele>204</ele>
        <time>2018-11-28T13:48:05Z</time>
      </trkpt>
      <trkpt lat="47.65414" lon="6.02026">
        <ele>204</ele>
        <time>2018-11-28T13:48:06Z</time>
      </trkpt>
      <trkpt lat="47.65419" lon="6.02022">
        <ele>205</ele>
        <time>2018-11-28T13:48:07Z</time>
      </trkpt>
      <trkpt lat="47.65423" lon="6.02019">
        <ele>205</ele>
        <time>2018-11-28T13:48:08Z</time>
      </trkpt>
      <trkpt lat="47.65428" lon="6.02015">
        <ele>205</ele>
        <time>2018-11-28T13:48:09Z</time>
      </trkpt>
      <trkpt lat="47.65436" lon="6.02009">
        <ele>205</ele>
        <time>2018-11-28T13:48:11Z</time>
      </trkpt>
      <trkpt lat="47.65443" lon="6.02003">
        <ele>205</ele>
        <time>2018-11-28T13:48:13Z</time>
      </trkpt>
      <trkpt lat="47.6545" lon="6.01997">
        <ele>205</ele>
        <time>2018-11-28T13:48:15Z</time>
      </trkpt>
      <trkpt lat="47.65458" lon="6.01991">
        <ele>205</ele>
        <time>2018-11-28T13:48:17Z</time>
      </trkpt>
      <trkpt lat="47.65465" lon="6.01985">
        <ele>205</ele>
        <time>2018-11-28T13:48:19Z</time>
      </trkpt>
      <trkpt lat="47.65472" lon="6.01979">
        <ele>205</ele>
        <time>2018-11-28T13:48:21Z</time>
      </trkpt>
      <trkpt lat="47.65477" lon="6.01974">
        <ele>205</ele>
        <time>2018-11-28T13:48:23Z</time>
      </trkpt>
      <trkpt lat="47.65485" lon="6.01968">
        <ele>205</ele>
        <time>2018-11-28T13:48:25Z</time>
      </trkpt>
      <trkpt lat="47.65492" lon="6.01964">
        <ele>205</ele>
        <time>2018-11-28T13:48:27Z</time>
      </trkpt>
      <trkpt lat="47.65499" lon="6.01959">
        <ele>205</ele>
        <time>2018-11-28T13:48:29Z</time>
      </trkpt>
      <trkpt lat="47.65506" lon="6.01954">
        <ele>205</ele>
        <time>2018-11-28T13:48:31Z</time>
      </trkpt>
      <trkpt lat="47.65511" lon="6.0195">
        <ele>204</ele>
        <time>2018-11-28T13:48:33Z</time>
      </trkpt>
      <trkpt lat="47.65517" lon="6.01947">
        <ele>204</ele>
        <time>2018-11-28T13:48:35Z</time>
      </trkpt>
      <trkpt lat="47.65521" lon="6.01943">
        <ele>204</ele>
        <time>2018-11-28T13:48:37Z</time>
      </trkpt>
      <trkpt lat="47.65526" lon="6.01938">
        <ele>204</ele>
        <time>2018-11-28T13:48:40Z</time>
      </trkpt>
      <trkpt lat="47.65531" lon="6.01931">
        <ele>204</ele>
        <time>2018-11-28T13:48:42Z</time>
      </trkpt>
      <trkpt lat="47.65533" lon="6.01924">
        <ele>204</ele>
        <time>2018-11-28T13:48:44Z</time>
      </trkpt>
      <trkpt lat="47.65534" lon="6.01917">
        <ele>204</ele>
        <time>2018-11-28T13:48:46Z</time>
      </trkpt>
      <trkpt lat="47.65533" lon="6.01911">
        <ele>204</ele>
        <time>2018-11-28T13:48:48Z</time>
      </trkpt>
      <trkpt lat="47.6553" lon="6.01902">
        <ele>204</ele>
        <time>2018-11-28T13:48:51Z</time>
      </trkpt>
      <trkpt lat="47.65527" lon="6.01894">
        <ele>204</ele>
        <time>2018-11-28T13:48:53Z</time>
      </trkpt>
      <trkpt lat="47.65524" lon="6.01888">
        <ele>204</ele>
        <time>2018-11-28T13:48:55Z</time>
      </trkpt>
      <trkpt lat="47.65521" lon="6.0188">
        <ele>204</ele>
        <time>2018-11-28T13:48:57Z</time>
      </trkpt>
      <trkpt lat="47.65518" lon="6.01873">
        <ele>204</ele>
        <time>2018-11-28T13:48:59Z</time>
      </trkpt>
      <trkpt lat="47.65517" lon="6.01866">
        <ele>204</ele>
        <time>2018-11-28T13:49:01Z</time>
      </trkpt>
      <trkpt lat="47.65516" lon="6.0186">
        <ele>205</ele>
        <time>2018-11-28T13:49:03Z</time>
      </trkpt>
      <trkpt lat="47.65516" lon="6.01852">
        <ele>205</ele>
        <time>2018-11-28T13:49:05Z</time>
      </trkpt>
      <trkpt lat="47.65519" lon="6.01843">
        <ele>205</ele>
        <time>2018-11-28T13:49:07Z</time>
      </trkpt>
      <trkpt lat="47.65525" lon="6.01834">
        <ele>205</ele>
        <time>2018-11-28T13:49:09Z</time>
      </trkpt>
      <trkpt lat="47.65531" lon="6.01826">
        <ele>205</ele>
        <time>2018-11-28T13:49:11Z</time>
      </trkpt>
      <trkpt lat="47.65535" lon="6.01823">
        <ele>205</ele>
        <time>2018-11-28T13:49:12Z</time>
      </trkpt>
      <trkpt lat="47.65539" lon="6.01819">
        <ele>205</ele>
        <time>2018-11-28T13:49:13Z</time>
      </trkpt>
      <trkpt lat="47.65549" lon="6.01811">
        <ele>204</ele>
        <time>2018-11-28T13:49:14Z</time>
      </trkpt>
      <trkpt lat="47.65554" lon="6.01807">
        <ele>204</ele>
        <time>2018-11-28T13:49:15Z</time>
      </trkpt>
      <trkpt lat="47.65558" lon="6.01804">
        <ele>204</ele>
        <time>2018-11-28T13:49:16Z</time>
      </trkpt>
      <trkpt lat="47.65563" lon="6.018">
        <ele>204</ele>
        <time>2018-11-28T13:49:17Z</time>
      </trkpt>
      <trkpt lat="47.65568" lon="6.01794">
        <ele>204</ele>
        <time>2018-11-28T13:49:18Z</time>
      </trkpt>
      <trkpt lat="47.65572" lon="6.0179">
        <ele>205</ele>
        <time>2018-11-28T13:49:19Z</time>
      </trkpt>
      <trkpt lat="47.65575" lon="6.01784">
        <ele>205</ele>
        <time>2018-11-28T13:49:20Z</time>
      </trkpt>
      <trkpt lat="47.65579" lon="6.01778">
        <ele>205</ele>
        <time>2018-11-28T13:49:21Z</time>
      </trkpt>
      <trkpt lat="47.65583" lon="6.01772">
        <ele>205</ele>
        <time>2018-11-28T13:49:22Z</time>
      </trkpt>
      <trkpt lat="47.65588" lon="6.01762">
        <ele>205</ele>
        <time>2018-11-28T13:49:24Z</time>
      </trkpt>
      <trkpt lat="47.65591" lon="6.01757">
        <ele>205</ele>
        <time>2018-11-28T13:49:25Z</time>
      </trkpt>
      <trkpt lat="47.65598" lon="6.01747">
        <ele>205</ele>
        <time>2018-11-28T13:49:27Z</time>
      </trkpt>
      <trkpt lat="47.65603" lon="6.01738">
        <ele>205</ele>
        <time>2018-11-28T13:49:29Z</time>
      </trkpt>
      <trkpt lat="47.65609" lon="6.01729">
        <ele>205</ele>
        <time>2018-11-28T13:49:31Z</time>
      </trkpt>
      <trkpt lat="47.65614" lon="6.0172">
        <ele>205</ele>
        <time>2018-11-28T13:49:33Z</time>
      </trkpt>
      <trkpt lat="47.6562" lon="6.01713">
        <ele>205</ele>
        <time>2018-11-28T13:49:35Z</time>
      </trkpt>
      <trkpt lat="47.65625" lon="6.01706">
        <ele>205</ele>
        <time>2018-11-28T13:49:37Z</time>
      </trkpt>
      <trkpt lat="47.65631" lon="6.017">
        <ele>205</ele>
        <time>2018-11-28T13:49:39Z</time>
      </trkpt>
      <trkpt lat="47.65637" lon="6.01695">
        <ele>205</ele>
        <time>2018-11-28T13:49:41Z</time>
      </trkpt>
      <trkpt lat="47.65643" lon="6.0169">
        <ele>205</ele>
        <time>2018-11-28T13:49:43Z</time>
      </trkpt>
      <trkpt lat="47.65649" lon="6.01686">
        <ele>205</ele>
        <time>2018-11-28T13:49:45Z</time>
      </trkpt>
      <trkpt lat="47.65655" lon="6.01679">
        <ele>206</ele>
        <time>2018-11-28T13:49:47Z</time>
      </trkpt>
      <trkpt lat="47.65662" lon="6.01676">
        <ele>206</ele>
        <time>2018-11-28T13:49:49Z</time>
      </trkpt>
      <trkpt lat="47.65667" lon="6.0168">
        <ele>206</ele>
        <time>2018-11-28T13:49:51Z</time>
      </trkpt>
      <trkpt lat="47.65671" lon="6.01687">
        <ele>207</ele>
        <time>2018-11-28T13:49:53Z</time>
      </trkpt>
      <trkpt lat="47.65676" lon="6.01694">
        <ele>207</ele>
        <time>2018-11-28T13:49:55Z</time>
      </trkpt>
      <trkpt lat="47.65682" lon="6.01699">
        <ele>207</ele>
        <time>2018-11-28T13:49:57Z</time>
      </trkpt>
      <trkpt lat="47.65688" lon="6.01699">
        <ele>207</ele>
        <time>2018-11-28T13:49:59Z</time>
      </trkpt>
      <trkpt lat="47.65694" lon="6.01696">
        <ele>207</ele>
        <time>2018-11-28T13:50:01Z</time>
      </trkpt>
      <trkpt lat="47.65699" lon="6.01693">
        <ele>207</ele>
        <time>2018-11-28T13:50:03Z</time>
      </trkpt>
      <trkpt lat="47.65705" lon="6.01689">
        <ele>207</ele>
        <time>2018-11-28T13:50:05Z</time>
      </trkpt>
      <trkpt lat="47.65711" lon="6.01686">
        <ele>207</ele>
        <time>2018-11-28T13:50:07Z</time>
      </trkpt>
      <trkpt lat="47.65717" lon="6.01682">
        <ele>208</ele>
        <time>2018-11-28T13:50:09Z</time>
      </trkpt>
      <trkpt lat="47.65723" lon="6.01678">
        <ele>208</ele>
        <time>2018-11-28T13:50:11Z</time>
      </trkpt>
      <trkpt lat="47.65728" lon="6.01676">
        <ele>208</ele>
        <time>2018-11-28T13:50:13Z</time>
      </trkpt>
      <trkpt lat="47.65733" lon="6.01673">
        <ele>208</ele>
        <time>2018-11-28T13:50:15Z</time>
      </trkpt>
      <trkpt lat="47.65738" lon="6.01671">
        <ele>209</ele>
        <time>2018-11-28T13:50:17Z</time>
      </trkpt>
      <trkpt lat="47.65745" lon="6.01667">
        <ele>209</ele>
        <time>2018-11-28T13:50:19Z</time>
      </trkpt>
      <trkpt lat="47.65751" lon="6.01663">
        <ele>210</ele>
        <time>2018-11-28T13:50:21Z</time>
      </trkpt>
      <trkpt lat="47.65756" lon="6.01659">
        <ele>210</ele>
        <time>2018-11-28T13:50:23Z</time>
      </trkpt>
      <trkpt lat="47.65762" lon="6.01653">
        <ele>210</ele>
        <time>2018-11-28T13:50:25Z</time>
      </trkpt>
      <trkpt lat="47.65767" lon="6.01648">
        <ele>211</ele>
        <time>2018-11-28T13:50:27Z</time>
      </trkpt>
      <trkpt lat="47.65773" lon="6.01643">
        <ele>211</ele>
        <time>2018-11-28T13:50:29Z</time>
      </trkpt>
      <trkpt lat="47.65778" lon="6.01638">
        <ele>211</ele>
        <time>2018-11-28T13:50:31Z</time>
      </trkpt>
      <trkpt lat="47.65784" lon="6.01633">
        <ele>211</ele>
        <time>2018-11-28T13:50:33Z</time>
      </trkpt>
      <trkpt lat="47.6579" lon="6.01629">
        <ele>211</ele>
        <time>2018-11-28T13:50:35Z</time>
      </trkpt>
      <trkpt lat="47.65794" lon="6.01625">
        <ele>211</ele>
        <time>2018-11-28T13:50:37Z</time>
      </trkpt>
      <trkpt lat="47.65799" lon="6.01622">
        <ele>211</ele>
        <time>2018-11-28T13:50:39Z</time>
      </trkpt>
      <trkpt lat="47.65803" lon="6.01618">
        <ele>211</ele>
        <time>2018-11-28T13:50:41Z</time>
      </trkpt>
      <trkpt lat="47.65807" lon="6.01614">
        <ele>211</ele>
        <time>2018-11-28T13:50:43Z</time>
      </trkpt>
      <trkpt lat="47.65812" lon="6.01611">
        <ele>212</ele>
        <time>2018-11-28T13:50:45Z</time>
      </trkpt>
      <trkpt lat="47.65816" lon="6.01607">
        <ele>212</ele>
        <time>2018-11-28T13:50:47Z</time>
      </trkpt>
      <trkpt lat="47.65823" lon="6.01602">
        <ele>213</ele>
        <time>2018-11-28T13:50:49Z</time>
      </trkpt>
      <trkpt lat="47.65831" lon="6.01595">
        <ele>213</ele>
        <time>2018-11-28T13:50:51Z</time>
      </trkpt>
      <trkpt lat="47.65835" lon="6.01592">
        <ele>213</ele>
        <time>2018-11-28T13:50:52Z</time>
      </trkpt>
      <trkpt lat="47.65839" lon="6.01589">
        <ele>214</ele>
        <time>2018-11-28T13:50:53Z</time>
      </trkpt>
      <trkpt lat="47.65847" lon="6.01582">
        <ele>215</ele>
        <time>2018-11-28T13:50:55Z</time>
      </trkpt>
      <trkpt lat="47.65857" lon="6.01575">
        <ele>214</ele>
        <time>2018-11-28T13:50:56Z</time>
      </trkpt>
      <trkpt lat="47.65862" lon="6.01569">
        <ele>214</ele>
        <time>2018-11-28T13:50:58Z</time>
      </trkpt>
      <trkpt lat="47.65869" lon="6.01563">
        <ele>214</ele>
        <time>2018-11-28T13:51:00Z</time>
      </trkpt>
      <trkpt lat="47.65875" lon="6.01559">
        <ele>214</ele>
        <time>2018-11-28T13:51:02Z</time>
      </trkpt>
      <trkpt lat="47.65879" lon="6.01552">
        <ele>214</ele>
        <time>2018-11-28T13:51:04Z</time>
      </trkpt>
      <trkpt lat="47.65884" lon="6.0155">
        <ele>214</ele>
        <time>2018-11-28T13:51:06Z</time>
      </trkpt>
      <trkpt lat="47.65893" lon="6.01548">
        <ele>214</ele>
        <time>2018-11-28T13:51:08Z</time>
      </trkpt>
      <trkpt lat="47.65898" lon="6.01545">
        <ele>214</ele>
        <time>2018-11-28T13:51:09Z</time>
      </trkpt>
      <trkpt lat="47.65903" lon="6.01543">
        <ele>214</ele>
        <time>2018-11-28T13:51:10Z</time>
      </trkpt>
      <trkpt lat="47.65907" lon="6.0154">
        <ele>214</ele>
        <time>2018-11-28T13:51:11Z</time>
      </trkpt>
      <trkpt lat="47.65912" lon="6.01538">
        <ele>214</ele>
        <time>2018-11-28T13:51:12Z</time>
      </trkpt>
      <trkpt lat="47.65916" lon="6.01536">
        <ele>214</ele>
        <time>2018-11-28T13:51:13Z</time>
      </trkpt>
      <trkpt lat="47.65921" lon="6.01533">
        <ele>211</ele>
        <time>2018-11-28T13:51:14Z</time>
      </trkpt>
      <trkpt lat="47.65928" lon="6.0153">
        <ele>211</ele>
        <time>2018-11-28T13:51:16Z</time>
      </trkpt>
      <trkpt lat="47.65935" lon="6.01527">
        <ele>211</ele>
        <time>2018-11-28T13:51:18Z</time>
      </trkpt>
      <trkpt lat="47.65942" lon="6.01524">
        <ele>211</ele>
        <time>2018-11-28T13:51:20Z</time>
      </trkpt>
      <trkpt lat="47.6595" lon="6.01521">
        <ele>210</ele>
        <time>2018-11-28T13:51:22Z</time>
      </trkpt>
      <trkpt lat="47.65957" lon="6.01519">
        <ele>210</ele>
        <time>2018-11-28T13:51:24Z</time>
      </trkpt>
      <trkpt lat="47.65965" lon="6.01516">
        <ele>210</ele>
        <time>2018-11-28T13:51:26Z</time>
      </trkpt>
      <trkpt lat="47.65972" lon="6.01513">
        <ele>209</ele>
        <time>2018-11-28T13:51:28Z</time>
      </trkpt>
      <trkpt lat="47.6598" lon="6.0151">
        <ele>209</ele>
        <time>2018-11-28T13:51:30Z</time>
      </trkpt>
      <trkpt lat="47.65987" lon="6.01507">
        <ele>209</ele>
        <time>2018-11-28T13:51:32Z</time>
      </trkpt>
      <trkpt lat="47.65995" lon="6.01505">
        <ele>208</ele>
        <time>2018-11-28T13:51:34Z</time>
      </trkpt>
      <trkpt lat="47.66002" lon="6.01501">
        <ele>208</ele>
        <time>2018-11-28T13:51:36Z</time>
      </trkpt>
      <trkpt lat="47.66014" lon="6.01496">
        <ele>209</ele>
        <time>2018-11-28T13:51:38Z</time>
      </trkpt>
      <trkpt lat="47.66022" lon="6.01494">
        <ele>209</ele>
        <time>2018-11-28T13:51:40Z</time>
      </trkpt>
      <trkpt lat="47.6603" lon="6.01492">
        <ele>209</ele>
        <time>2018-11-28T13:51:42Z</time>
      </trkpt>
      <trkpt lat="47.66039" lon="6.0149">
        <ele>209</ele>
        <time>2018-11-28T13:51:44Z</time>
      </trkpt>
      <trkpt lat="47.66045" lon="6.01488">
        <ele>209</ele>
        <time>2018-11-28T13:51:46Z</time>
      </trkpt>
      <trkpt lat="47.66051" lon="6.01486">
        <ele>209</ele>
        <time>2018-11-28T13:51:48Z</time>
      </trkpt>
      <trkpt lat="47.66058" lon="6.01485">
        <ele>209</ele>
        <time>2018-11-28T13:51:50Z</time>
      </trkpt>
      <trkpt lat="47.66065" lon="6.01484">
        <ele>209</ele>
        <time>2018-11-28T13:51:52Z</time>
      </trkpt>
      <trkpt lat="47.66072" lon="6.01482">
        <ele>208</ele>
        <time>2018-11-28T13:51:54Z</time>
      </trkpt>
      <trkpt lat="47.6608" lon="6.01481">
        <ele>208</ele>
        <time>2018-11-28T13:51:56Z</time>
      </trkpt>
      <trkpt lat="47.66088" lon="6.01481">
        <ele>207</ele>
        <time>2018-11-28T13:51:58Z</time>
      </trkpt>
      <trkpt lat="47.66095" lon="6.0148">
        <ele>207</ele>
        <time>2018-11-28T13:52:00Z</time>
      </trkpt>
      <trkpt lat="47.66103" lon="6.01478">
        <ele>207</ele>
        <time>2018-11-28T13:52:02Z</time>
      </trkpt>
      <trkpt lat="47.66109" lon="6.01477">
        <ele>207</ele>
        <time>2018-11-28T13:52:04Z</time>
      </trkpt>
      <trkpt lat="47.66117" lon="6.01476">
        <ele>207</ele>
        <time>2018-11-28T13:52:06Z</time>
      </trkpt>
      <trkpt lat="47.66124" lon="6.01476">
        <ele>207</ele>
        <time>2018-11-28T13:52:08Z</time>
      </trkpt>
      <trkpt lat="47.66131" lon="6.01476">
        <ele>207</ele>
        <time>2018-11-28T13:52:10Z</time>
      </trkpt>
      <trkpt lat="47.6614" lon="6.01475">
        <ele>207</ele>
        <time>2018-11-28T13:52:12Z</time>
      </trkpt>
      <trkpt lat="47.66149" lon="6.01475">
        <ele>207</ele>
        <time>2018-11-28T13:52:14Z</time>
      </trkpt>
      <trkpt lat="47.66158" lon="6.01475">
        <ele>207</ele>
        <time>2018-11-28T13:52:16Z</time>
      </trkpt>
      <trkpt lat="47.66163" lon="6.01475">
        <ele>207</ele>
        <time>2018-11-28T13:52:17Z</time>
      </trkpt>
      <trkpt lat="47.6617" lon="6.01475">
        <ele>206</ele>
        <time>2018-11-28T13:52:19Z</time>
      </trkpt>
      <trkpt lat="47.66177" lon="6.01474">
        <ele>206</ele>
        <time>2018-11-28T13:52:21Z</time>
      </trkpt>
      <trkpt lat="47.66185" lon="6.01473">
        <ele>206</ele>
        <time>2018-11-28T13:52:23Z</time>
      </trkpt>
      <trkpt lat="47.66193" lon="6.01473">
        <ele>206</ele>
        <time>2018-11-28T13:52:25Z</time>
      </trkpt>
      <trkpt lat="47.66201" lon="6.01474">
        <ele>206</ele>
        <time>2018-11-28T13:52:27Z</time>
      </trkpt>
      <trkpt lat="47.66208" lon="6.01475">
        <ele>206</ele>
        <time>2018-11-28T13:52:29Z</time>
      </trkpt>
      <trkpt lat="47.66216" lon="6.01476">
        <ele>205</ele>
        <time>2018-11-28T13:52:31Z</time>
      </trkpt>
      <trkpt lat="47.66223" lon="6.01477">
        <ele>205</ele>
        <time>2018-11-28T13:52:33Z</time>
      </trkpt>
      <trkpt lat="47.66231" lon="6.01479">
        <ele>205</ele>
        <time>2018-11-28T13:52:35Z</time>
      </trkpt>
      <trkpt lat="47.66238" lon="6.01481">
        <ele>205</ele>
        <time>2018-11-28T13:52:37Z</time>
      </trkpt>
      <trkpt lat="47.66245" lon="6.01482">
        <ele>205</ele>
        <time>2018-11-28T13:52:39Z</time>
      </trkpt>
      <trkpt lat="47.66253" lon="6.01483">
        <ele>205</ele>
        <time>2018-11-28T13:52:41Z</time>
      </trkpt>
      <trkpt lat="47.6626" lon="6.01485">
        <ele>205</ele>
        <time>2018-11-28T13:52:43Z</time>
      </trkpt>
      <trkpt lat="47.66267" lon="6.01487">
        <ele>205</ele>
        <time>2018-11-28T13:52:45Z</time>
      </trkpt>
      <trkpt lat="47.66273" lon="6.01489">
        <ele>205</ele>
        <time>2018-11-28T13:52:47Z</time>
      </trkpt>
      <trkpt lat="47.66279" lon="6.01491">
        <ele>205</ele>
        <time>2018-11-28T13:52:49Z</time>
      </trkpt>
      <trkpt lat="47.66286" lon="6.01493">
        <ele>205</ele>
        <time>2018-11-28T13:52:51Z</time>
      </trkpt>
      <trkpt lat="47.66292" lon="6.01495">
        <ele>205</ele>
        <time>2018-11-28T13:52:53Z</time>
      </trkpt>
      <trkpt lat="47.66299" lon="6.01498">
        <ele>205</ele>
        <time>2018-11-28T13:52:55Z</time>
      </trkpt>
      <trkpt lat="47.66306" lon="6.01501">
        <ele>205</ele>
        <time>2018-11-28T13:52:57Z</time>
      </trkpt>
      <trkpt lat="47.66312" lon="6.01503">
        <ele>205</ele>
        <time>2018-11-28T13:52:59Z</time>
      </trkpt>
      <trkpt lat="47.66319" lon="6.01507">
        <ele>205</ele>
        <time>2018-11-28T13:53:01Z</time>
      </trkpt>
      <trkpt lat="47.66325" lon="6.0151">
        <ele>205</ele>
        <time>2018-11-28T13:53:03Z</time>
      </trkpt>
      <trkpt lat="47.66331" lon="6.01514">
        <ele>205</ele>
        <time>2018-11-28T13:53:05Z</time>
      </trkpt>
      <trkpt lat="47.66338" lon="6.01518">
        <ele>205</ele>
        <time>2018-11-28T13:53:07Z</time>
      </trkpt>
      <trkpt lat="47.66344" lon="6.01521">
        <ele>205</ele>
        <time>2018-11-28T13:53:09Z</time>
      </trkpt>
      <trkpt lat="47.66351" lon="6.01525">
        <ele>205</ele>
        <time>2018-11-28T13:53:11Z</time>
      </trkpt>
      <trkpt lat="47.66358" lon="6.0153">
        <ele>205</ele>
        <time>2018-11-28T13:53:13Z</time>
      </trkpt>
      <trkpt lat="47.66364" lon="6.01533">
        <ele>205</ele>
        <time>2018-11-28T13:53:15Z</time>
      </trkpt>
      <trkpt lat="47.6637" lon="6.01536">
        <ele>205</ele>
        <time>2018-11-28T13:53:17Z</time>
      </trkpt>
      <trkpt lat="47.66376" lon="6.01539">
        <ele>204</ele>
        <time>2018-11-28T13:53:19Z</time>
      </trkpt>
      <trkpt lat="47.66383" lon="6.01542">
        <ele>204</ele>
        <time>2018-11-28T13:53:21Z</time>
      </trkpt>
      <trkpt lat="47.66389" lon="6.01547">
        <ele>204</ele>
        <time>2018-11-28T13:53:23Z</time>
      </trkpt>
      <trkpt lat="47.66395" lon="6.0155">
        <ele>204</ele>
        <time>2018-11-28T13:53:25Z</time>
      </trkpt>
      <trkpt lat="47.66401" lon="6.01553">
        <ele>204</ele>
        <time>2018-11-28T13:53:27Z</time>
      </trkpt>
      <trkpt lat="47.66407" lon="6.01557">
        <ele>204</ele>
        <time>2018-11-28T13:53:29Z</time>
      </trkpt>
      <trkpt lat="47.66413" lon="6.01561">
        <ele>204</ele>
        <time>2018-11-28T13:53:31Z</time>
      </trkpt>
      <trkpt lat="47.66419" lon="6.01565">
        <ele>204</ele>
        <time>2018-11-28T13:53:33Z</time>
      </trkpt>
      <trkpt lat="47.66425" lon="6.01569">
        <ele>204</ele>
        <time>2018-11-28T13:53:35Z</time>
      </trkpt>
      <trkpt lat="47.66432" lon="6.01574">
        <ele>204</ele>
        <time>2018-11-28T13:53:37Z</time>
      </trkpt>
      <trkpt lat="47.66438" lon="6.01579">
        <ele>204</ele>
        <time>2018-11-28T13:53:39Z</time>
      </trkpt>
      <trkpt lat="47.66445" lon="6.01584">
        <ele>205</ele>
        <time>2018-11-28T13:53:41Z</time>
      </trkpt>
      <trkpt lat="47.66451" lon="6.01588">
        <ele>205</ele>
        <time>2018-11-28T13:53:43Z</time>
      </trkpt>
      <trkpt lat="47.66458" lon="6.01594">
        <ele>205</ele>
        <time>2018-11-28T13:53:45Z</time>
      </trkpt>
      <trkpt lat="47.66465" lon="6.01599">
        <ele>205</ele>
        <time>2018-11-28T13:53:47Z</time>
      </trkpt>
      <trkpt lat="47.66471" lon="6.01604">
        <ele>205</ele>
        <time>2018-11-28T13:53:49Z</time>
      </trkpt>
      <trkpt lat="47.66478" lon="6.0161">
        <ele>205</ele>
        <time>2018-11-28T13:53:51Z</time>
      </trkpt>
      <trkpt lat="47.66484" lon="6.01615">
        <ele>205</ele>
        <time>2018-11-28T13:53:53Z</time>
      </trkpt>
      <trkpt lat="47.66493" lon="6.01622">
        <ele>206</ele>
        <time>2018-11-28T13:53:55Z</time>
      </trkpt>
      <trkpt lat="47.66499" lon="6.01627">
        <ele>206</ele>
        <time>2018-11-28T13:53:57Z</time>
      </trkpt>
      <trkpt lat="47.66504" lon="6.01632">
        <ele>207</ele>
        <time>2018-11-28T13:53:59Z</time>
      </trkpt>
      <trkpt lat="47.6651" lon="6.01638">
        <ele>207</ele>
        <time>2018-11-28T13:54:01Z</time>
      </trkpt>
      <trkpt lat="47.66516" lon="6.01644">
        <ele>207</ele>
        <time>2018-11-28T13:54:03Z</time>
      </trkpt>
      <trkpt lat="47.66521" lon="6.01648">
        <ele>207</ele>
        <time>2018-11-28T13:54:04Z</time>
      </trkpt>
      <trkpt lat="47.66527" lon="6.01655">
        <ele>207</ele>
        <time>2018-11-28T13:54:06Z</time>
      </trkpt>
      <trkpt lat="47.66533" lon="6.01661">
        <ele>207</ele>
        <time>2018-11-28T13:54:08Z</time>
      </trkpt>
      <trkpt lat="47.66539" lon="6.01667">
        <ele>207</ele>
        <time>2018-11-28T13:54:10Z</time>
      </trkpt>
      <trkpt lat="47.66543" lon="6.01671">
        <ele>207</ele>
        <time>2018-11-28T13:54:12Z</time>
      </trkpt>
      <trkpt lat="47.66547" lon="6.01674">
        <ele>207</ele>
        <time>2018-11-28T13:54:14Z</time>
      </trkpt>
      <trkpt lat="47.66552" lon="6.01679">
        <ele>207</ele>
        <time>2018-11-28T13:54:16Z</time>
      </trkpt>
      <trkpt lat="47.66558" lon="6.01686">
        <ele>207</ele>
        <time>2018-11-28T13:54:18Z</time>
      </trkpt>
      <trkpt lat="47.66563" lon="6.01692">
        <ele>207</ele>
        <time>2018-11-28T13:54:20Z</time>
      </trkpt>
      <trkpt lat="47.66567" lon="6.01696">
        <ele>207</ele>
        <time>2018-11-28T13:54:21Z</time>
      </trkpt>
      <trkpt lat="47.66573" lon="6.01702">
        <ele>207</ele>
        <time>2018-11-28T13:54:23Z</time>
      </trkpt>
      <trkpt lat="47.6658" lon="6.01709">
        <ele>207</ele>
        <time>2018-11-28T13:54:25Z</time>
      </trkpt>
      <trkpt lat="47.66587" lon="6.01716">
        <ele>207</ele>
        <time>2018-11-28T13:54:27Z</time>
      </trkpt>
      <trkpt lat="47.66593" lon="6.01722">
        <ele>207</ele>
        <time>2018-11-28T13:54:29Z</time>
      </trkpt>
      <trkpt lat="47.66599" lon="6.01728">
        <ele>207</ele>
        <time>2018-11-28T13:54:31Z</time>
      </trkpt>
      <trkpt lat="47.66604" lon="6.01734">
        <ele>206</ele>
        <time>2018-11-28T13:54:33Z</time>
      </trkpt>
      <trkpt lat="47.66609" lon="6.0174">
        <ele>206</ele>
        <time>2018-11-28T13:54:35Z</time>
      </trkpt>
      <trkpt lat="47.66614" lon="6.01746">
        <ele>206</ele>
        <time>2018-11-28T13:54:37Z</time>
      </trkpt>
      <trkpt lat="47.66619" lon="6.01753">
        <ele>206</ele>
        <time>2018-11-28T13:54:39Z</time>
      </trkpt>
      <trkpt lat="47.66623" lon="6.0176">
        <ele>207</ele>
        <time>2018-11-28T13:54:41Z</time>
      </trkpt>
      <trkpt lat="47.66628" lon="6.01766">
        <ele>207</ele>
        <time>2018-11-28T13:54:43Z</time>
      </trkpt>
      <trkpt lat="47.66633" lon="6.01773">
        <ele>207</ele>
        <time>2018-11-28T13:54:45Z</time>
      </trkpt>
      <trkpt lat="47.66639" lon="6.01782">
        <ele>207</ele>
        <time>2018-11-28T13:54:47Z</time>
      </trkpt>
      <trkpt lat="47.66643" lon="6.01789">
        <ele>207</ele>
        <time>2018-11-28T13:54:49Z</time>
      </trkpt>
      <trkpt lat="47.66647" lon="6.01796">
        <ele>207</ele>
        <time>2018-11-28T13:54:51Z</time>
      </trkpt>
      <trkpt lat="47.6665" lon="6.01804">
        <ele>207</ele>
        <time>2018-11-28T13:54:53Z</time>
      </trkpt>
      <trkpt lat="47.66653" lon="6.01814">
        <ele>207</ele>
        <time>2018-11-28T13:54:55Z</time>
      </trkpt>
      <trkpt lat="47.66657" lon="6.01821">
        <ele>207</ele>
        <time>2018-11-28T13:54:57Z</time>
      </trkpt>
      <trkpt lat="47.66661" lon="6.01829">
        <ele>207</ele>
        <time>2018-11-28T13:54:59Z</time>
      </trkpt>
      <trkpt lat="47.66665" lon="6.01837">
        <ele>207</ele>
        <time>2018-11-28T13:55:01Z</time>
      </trkpt>
      <trkpt lat="47.66669" lon="6.01846">
        <ele>207</ele>
        <time>2018-11-28T13:55:03Z</time>
      </trkpt>
      <trkpt lat="47.66674" lon="6.01854">
        <ele>207</ele>
        <time>2018-11-28T13:55:05Z</time>
      </trkpt>
      <trkpt lat="47.66678" lon="6.01862">
        <ele>207</ele>
        <time>2018-11-28T13:55:07Z</time>
      </trkpt>
      <trkpt lat="47.66683" lon="6.01869">
        <ele>207</ele>
        <time>2018-11-28T13:55:09Z</time>
      </trkpt>
      <trkpt lat="47.66687" lon="6.01878">
        <ele>207</ele>
        <time>2018-11-28T13:55:11Z</time>
      </trkpt>
      <trkpt lat="47.66691" lon="6.01887">
        <ele>207</ele>
        <time>2018-11-28T13:55:13Z</time>
      </trkpt>
      <trkpt lat="47.66696" lon="6.01897">
        <ele>207</ele>
        <time>2018-11-28T13:55:15Z</time>
      </trkpt>
      <trkpt lat="47.667" lon="6.01905">
        <ele>207</ele>
        <time>2018-11-28T13:55:17Z</time>
      </trkpt>
      <trkpt lat="47.66705" lon="6.01914">
        <ele>207</ele>
        <time>2018-11-28T13:55:19Z</time>
      </trkpt>
      <trkpt lat="47.66708" lon="6.01923">
        <ele>207</ele>
        <time>2018-11-28T13:55:21Z</time>
      </trkpt>
      <trkpt lat="47.66713" lon="6.01933">
        <ele>207</ele>
        <time>2018-11-28T13:55:23Z</time>
      </trkpt>
      <trkpt lat="47.66717" lon="6.01943">
        <ele>206</ele>
        <time>2018-11-28T13:55:25Z</time>
      </trkpt>
      <trkpt lat="47.66721" lon="6.01952">
        <ele>206</ele>
        <time>2018-11-28T13:55:27Z</time>
      </trkpt>
      <trkpt lat="47.66724" lon="6.01962">
        <ele>206</ele>
        <time>2018-11-28T13:55:29Z</time>
      </trkpt>
      <trkpt lat="47.66727" lon="6.01971">
        <ele>206</ele>
        <time>2018-11-28T13:55:31Z</time>
      </trkpt>
      <trkpt lat="47.66731" lon="6.0198">
        <ele>206</ele>
        <time>2018-11-28T13:55:33Z</time>
      </trkpt>
      <trkpt lat="47.66734" lon="6.01989">
        <ele>206</ele>
        <time>2018-11-28T13:55:35Z</time>
      </trkpt>
      <trkpt lat="47.66737" lon="6.01998">
        <ele>206</ele>
        <time>2018-11-28T13:55:37Z</time>
      </trkpt>
      <trkpt lat="47.66739" lon="6.02007">
        <ele>206</ele>
        <time>2018-11-28T13:55:39Z</time>
      </trkpt>
      <trkpt lat="47.66742" lon="6.02016">
        <ele>206</ele>
        <time>2018-11-28T13:55:41Z</time>
      </trkpt>
      <trkpt lat="47.66744" lon="6.02025">
        <ele>207</ele>
        <time>2018-11-28T13:55:43Z</time>
      </trkpt>
      <trkpt lat="47.66746" lon="6.02035">
        <ele>207</ele>
        <time>2018-11-28T13:55:45Z</time>
      </trkpt>
      <trkpt lat="47.66748" lon="6.02045">
        <ele>207</ele>
        <time>2018-11-28T13:55:47Z</time>
      </trkpt>
      <trkpt lat="47.6675" lon="6.02054">
        <ele>207</ele>
        <time>2018-11-28T13:55:49Z</time>
      </trkpt>
      <trkpt lat="47.66753" lon="6.02064">
        <ele>207</ele>
        <time>2018-11-28T13:55:51Z</time>
      </trkpt>
      <trkpt lat="47.66755" lon="6.02073">
        <ele>207</ele>
        <time>2018-11-28T13:55:53Z</time>
      </trkpt>
      <trkpt lat="47.66756" lon="6.02082">
        <ele>208</ele>
        <time>2018-11-28T13:55:55Z</time>
      </trkpt>
      <trkpt lat="47.66758" lon="6.02091">
        <ele>208</ele>
        <time>2018-11-28T13:55:57Z</time>
      </trkpt>
      <trkpt lat="47.6676" lon="6.021">
        <ele>208</ele>
        <time>2018-11-28T13:55:59Z</time>
      </trkpt>
      <trkpt lat="47.66762" lon="6.02108">
        <ele>208</ele>
        <time>2018-11-28T13:56:01Z</time>
      </trkpt>
      <trkpt lat="47.66764" lon="6.02117">
        <ele>208</ele>
        <time>2018-11-28T13:56:03Z</time>
      </trkpt>
      <trkpt lat="47.66768" lon="6.02126">
        <ele>208</ele>
        <time>2018-11-28T13:56:05Z</time>
      </trkpt>
      <trkpt lat="47.66771" lon="6.02135">
        <ele>208</ele>
        <time>2018-11-28T13:56:07Z</time>
      </trkpt>
      <trkpt lat="47.66775" lon="6.02144">
        <ele>208</ele>
        <time>2018-11-28T13:56:09Z</time>
      </trkpt>
      <trkpt lat="47.66778" lon="6.02154">
        <ele>208</ele>
        <time>2018-11-28T13:56:11Z</time>
      </trkpt>
      <trkpt lat="47.6678" lon="6.02162">
        <ele>208</ele>
        <time>2018-11-28T13:56:13Z</time>
      </trkpt>
      <trkpt lat="47.66783" lon="6.02171">
        <ele>208</ele>
        <time>2018-11-28T13:56:15Z</time>
      </trkpt>
      <trkpt lat="47.66786" lon="6.0218">
        <ele>207</ele>
        <time>2018-11-28T13:56:17Z</time>
      </trkpt>
      <trkpt lat="47.66789" lon="6.02189">
        <ele>207</ele>
        <time>2018-11-28T13:56:19Z</time>
      </trkpt>
      <trkpt lat="47.66792" lon="6.02197">
        <ele>207</ele>
        <time>2018-11-28T13:56:21Z</time>
      </trkpt>
      <trkpt lat="47.66794" lon="6.02207">
        <ele>207</ele>
        <time>2018-11-28T13:56:23Z</time>
      </trkpt>
      <trkpt lat="47.66797" lon="6.02215">
        <ele>207</ele>
        <time>2018-11-28T13:56:25Z</time>
      </trkpt>
      <trkpt lat="47.668" lon="6.02224">
        <ele>207</ele>
        <time>2018-11-28T13:56:27Z</time>
      </trkpt>
      <trkpt lat="47.66802" lon="6.02233">
        <ele>207</ele>
        <time>2018-11-28T13:56:29Z</time>
      </trkpt>
      <trkpt lat="47.66805" lon="6.02242">
        <ele>207</ele>
        <time>2018-11-28T13:56:31Z</time>
      </trkpt>
      <trkpt lat="47.66807" lon="6.0225">
        <ele>207</ele>
        <time>2018-11-28T13:56:33Z</time>
      </trkpt>
      <trkpt lat="47.66808" lon="6.02259">
        <ele>207</ele>
        <time>2018-11-28T13:56:35Z</time>
      </trkpt>
      <trkpt lat="47.66807" lon="6.02271">
        <ele>207</ele>
        <time>2018-11-28T13:56:37Z</time>
      </trkpt>
      <trkpt lat="47.66807" lon="6.02283">
        <ele>207</ele>
        <time>2018-11-28T13:56:39Z</time>
      </trkpt>
      <trkpt lat="47.66808" lon="6.02292">
        <ele>207</ele>
        <time>2018-11-28T13:56:41Z</time>
      </trkpt>
      <trkpt lat="47.66809" lon="6.023">
        <ele>207</ele>
        <time>2018-11-28T13:56:43Z</time>
      </trkpt>
      <trkpt lat="47.66811" lon="6.02307">
        <ele>208</ele>
        <time>2018-11-28T13:56:45Z</time>
      </trkpt>
      <trkpt lat="47.66813" lon="6.02314">
        <ele>208</ele>
        <time>2018-11-28T13:56:47Z</time>
      </trkpt>
      <trkpt lat="47.66816" lon="6.02321">
        <ele>208</ele>
        <time>2018-11-28T13:56:49Z</time>
      </trkpt>
      <trkpt lat="47.66819" lon="6.02328">
        <ele>208</ele>
        <time>2018-11-28T13:56:51Z</time>
      </trkpt>
      <trkpt lat="47.66821" lon="6.02334">
        <ele>209</ele>
        <time>2018-11-28T13:56:53Z</time>
      </trkpt>
      <trkpt lat="47.66824" lon="6.02341">
        <ele>209</ele>
        <time>2018-11-28T13:56:55Z</time>
      </trkpt>
      <trkpt lat="47.66828" lon="6.02349">
        <ele>209</ele>
        <time>2018-11-28T13:56:57Z</time>
      </trkpt>
      <trkpt lat="47.66832" lon="6.02359">
        <ele>210</ele>
        <time>2018-11-28T13:56:59Z</time>
      </trkpt>
      <trkpt lat="47.66836" lon="6.02366">
        <ele>208</ele>
        <time>2018-11-28T13:57:01Z</time>
      </trkpt>
      <trkpt lat="47.66839" lon="6.02373">
        <ele>208</ele>
        <time>2018-11-28T13:57:03Z</time>
      </trkpt>
      <trkpt lat="47.66843" lon="6.02379">
        <ele>208</ele>
        <time>2018-11-28T13:57:05Z</time>
      </trkpt>
      <trkpt lat="47.66846" lon="6.02385">
        <ele>208</ele>
        <time>2018-11-28T13:57:07Z</time>
      </trkpt>
      <trkpt lat="47.6685" lon="6.02394">
        <ele>209</ele>
        <time>2018-11-28T13:57:09Z</time>
      </trkpt>
      <trkpt lat="47.66854" lon="6.02403">
        <ele>209</ele>
        <time>2018-11-28T13:57:11Z</time>
      </trkpt>
      <trkpt lat="47.66858" lon="6.02414">
        <ele>209</ele>
        <time>2018-11-28T13:57:13Z</time>
      </trkpt>
      <trkpt lat="47.66862" lon="6.02422">
        <ele>210</ele>
        <time>2018-11-28T13:57:15Z</time>
      </trkpt>
      <trkpt lat="47.66867" lon="6.0243">
        <ele>210</ele>
        <time>2018-11-28T13:57:17Z</time>
      </trkpt>
      <trkpt lat="47.66871" lon="6.02437">
        <ele>210</ele>
        <time>2018-11-28T13:57:19Z</time>
      </trkpt>
      <trkpt lat="47.66875" lon="6.02444">
        <ele>210</ele>
        <time>2018-11-28T13:57:21Z</time>
      </trkpt>
      <trkpt lat="47.6688" lon="6.02453">
        <ele>209</ele>
        <time>2018-11-28T13:57:23Z</time>
      </trkpt>
      <trkpt lat="47.66886" lon="6.02461">
        <ele>209</ele>
        <time>2018-11-28T13:57:25Z</time>
      </trkpt>
      <trkpt lat="47.66891" lon="6.0247">
        <ele>209</ele>
        <time>2018-11-28T13:57:27Z</time>
      </trkpt>
      <trkpt lat="47.66896" lon="6.02477">
        <ele>209</ele>
        <time>2018-11-28T13:57:29Z</time>
      </trkpt>
      <trkpt lat="47.66901" lon="6.02485">
        <ele>209</ele>
        <time>2018-11-28T13:57:31Z</time>
      </trkpt>
      <trkpt lat="47.66906" lon="6.02493">
        <ele>208</ele>
        <time>2018-11-28T13:57:33Z</time>
      </trkpt>
      <trkpt lat="47.6691" lon="6.025">
        <ele>209</ele>
        <time>2018-11-28T13:57:35Z</time>
      </trkpt>
      <trkpt lat="47.66916" lon="6.02509">
        <ele>209</ele>
        <time>2018-11-28T13:57:37Z</time>
      </trkpt>
      <trkpt lat="47.66922" lon="6.02517">
        <ele>207</ele>
        <time>2018-11-28T13:57:39Z</time>
      </trkpt>
      <trkpt lat="47.66926" lon="6.02524">
        <ele>208</ele>
        <time>2018-11-28T13:57:41Z</time>
      </trkpt>
      <trkpt lat="47.6693" lon="6.0253">
        <ele>208</ele>
        <time>2018-11-28T13:57:43Z</time>
      </trkpt>
      <trkpt lat="47.66936" lon="6.02538">
        <ele>208</ele>
        <time>2018-11-28T13:57:45Z</time>
      </trkpt>
      <trkpt lat="47.6694" lon="6.02543">
        <ele>208</ele>
        <time>2018-11-28T13:57:46Z</time>
      </trkpt>
      <trkpt lat="47.66946" lon="6.0255">
        <ele>208</ele>
        <time>2018-11-28T13:57:48Z</time>
      </trkpt>
      <trkpt lat="47.66952" lon="6.02558">
        <ele>208</ele>
        <time>2018-11-28T13:57:50Z</time>
      </trkpt>
      <trkpt lat="47.66957" lon="6.02566">
        <ele>208</ele>
        <time>2018-11-28T13:57:52Z</time>
      </trkpt>
      <trkpt lat="47.66962" lon="6.02574">
        <ele>208</ele>
        <time>2018-11-28T13:57:54Z</time>
      </trkpt>
      <trkpt lat="47.66966" lon="6.02581">
        <ele>208</ele>
        <time>2018-11-28T13:57:56Z</time>
      </trkpt>
      <trkpt lat="47.6697" lon="6.02588">
        <ele>211</ele>
        <time>2018-11-28T13:57:58Z</time>
      </trkpt>
      <trkpt lat="47.66973" lon="6.02594">
        <ele>211</ele>
        <time>2018-11-28T13:58:00Z</time>
      </trkpt>
      <trkpt lat="47.66976" lon="6.026">
        <ele>211</ele>
        <time>2018-11-28T13:58:02Z</time>
      </trkpt>
      <trkpt lat="47.66979" lon="6.02607">
        <ele>211</ele>
        <time>2018-11-28T13:58:04Z</time>
      </trkpt>
      <trkpt lat="47.66983" lon="6.02613">
        <ele>211</ele>
        <time>2018-11-28T13:58:06Z</time>
      </trkpt>
      <trkpt lat="47.66986" lon="6.0262">
        <ele>211</ele>
        <time>2018-11-28T13:58:08Z</time>
      </trkpt>
      <trkpt lat="47.6699" lon="6.02626">
        <ele>211</ele>
        <time>2018-11-28T13:58:10Z</time>
      </trkpt>
      <trkpt lat="47.66993" lon="6.02633">
        <ele>212</ele>
        <time>2018-11-28T13:58:12Z</time>
      </trkpt>
      <trkpt lat="47.66997" lon="6.0264">
        <ele>212</ele>
        <time>2018-11-28T13:58:14Z</time>
      </trkpt>
      <trkpt lat="47.67001" lon="6.02647">
        <ele>209</ele>
        <time>2018-11-28T13:58:16Z</time>
      </trkpt>
      <trkpt lat="47.67005" lon="6.02654">
        <ele>209</ele>
        <time>2018-11-28T13:58:18Z</time>
      </trkpt>
      <trkpt lat="47.67009" lon="6.02661">
        <ele>210</ele>
        <time>2018-11-28T13:58:20Z</time>
      </trkpt>
      <trkpt lat="47.67013" lon="6.02668">
        <ele>211</ele>
        <time>2018-11-28T13:58:22Z</time>
      </trkpt>
      <trkpt lat="47.67017" lon="6.02675">
        <ele>211</ele>
        <time>2018-11-28T13:58:24Z</time>
      </trkpt>
      <trkpt lat="47.67021" lon="6.02681">
        <ele>211</ele>
        <time>2018-11-28T13:58:26Z</time>
      </trkpt>
      <trkpt lat="47.67026" lon="6.02687">
        <ele>211</ele>
        <time>2018-11-28T13:58:28Z</time>
      </trkpt>
      <trkpt lat="47.6703" lon="6.02693">
        <ele>211</ele>
        <time>2018-11-28T13:58:30Z</time>
      </trkpt>
      <trkpt lat="47.67034" lon="6.02699">
        <ele>211</ele>
        <time>2018-11-28T13:58:32Z</time>
      </trkpt>
      <trkpt lat="47.67038" lon="6.02704">
        <ele>211</ele>
        <time>2018-11-28T13:58:34Z</time>
      </trkpt>
      <trkpt lat="47.67042" lon="6.02709">
        <ele>211</ele>
        <time>2018-11-28T13:58:36Z</time>
      </trkpt>
      <trkpt lat="47.67047" lon="6.02715">
        <ele>211</ele>
        <time>2018-11-28T13:58:38Z</time>
      </trkpt>
      <trkpt lat="47.67051" lon="6.02721">
        <ele>211</ele>
        <time>2018-11-28T13:58:40Z</time>
      </trkpt>
      <trkpt lat="47.67055" lon="6.02725">
        <ele>211</ele>
        <time>2018-11-28T13:58:42Z</time>
      </trkpt>
      <trkpt lat="47.6706" lon="6.0273">
        <ele>211</ele>
        <time>2018-11-28T13:58:44Z</time>
      </trkpt>
      <trkpt lat="47.67064" lon="6.02735">
        <ele>211</ele>
        <time>2018-11-28T13:58:46Z</time>
      </trkpt>
      <trkpt lat="47.67069" lon="6.02741">
        <ele>211</ele>
        <time>2018-11-28T13:58:48Z</time>
      </trkpt>
      <trkpt lat="47.67074" lon="6.02747">
        <ele>211</ele>
        <time>2018-11-28T13:58:50Z</time>
      </trkpt>
      <trkpt lat="47.67079" lon="6.02754">
        <ele>211</ele>
        <time>2018-11-28T13:58:52Z</time>
      </trkpt>
      <trkpt lat="47.67083" lon="6.02758">
        <ele>212</ele>
        <time>2018-11-28T13:58:54Z</time>
      </trkpt>
      <trkpt lat="47.67088" lon="6.02764">
        <ele>210</ele>
        <time>2018-11-28T13:58:56Z</time>
      </trkpt>
      <trkpt lat="47.67093" lon="6.0277">
        <ele>210</ele>
        <time>2018-11-28T13:58:58Z</time>
      </trkpt>
      <trkpt lat="47.67098" lon="6.02776">
        <ele>210</ele>
        <time>2018-11-28T13:59:00Z</time>
      </trkpt>
      <trkpt lat="47.67104" lon="6.02783">
        <ele>210</ele>
        <time>2018-11-28T13:59:02Z</time>
      </trkpt>
      <trkpt lat="47.67108" lon="6.02788">
        <ele>210</ele>
        <time>2018-11-28T13:59:04Z</time>
      </trkpt>
      <trkpt lat="47.67114" lon="6.02796">
        <ele>210</ele>
        <time>2018-11-28T13:59:06Z</time>
      </trkpt>
      <trkpt lat="47.67118" lon="6.02801">
        <ele>210</ele>
        <time>2018-11-28T13:59:07Z</time>
      </trkpt>
      <trkpt lat="47.67123" lon="6.02808">
        <ele>210</ele>
        <time>2018-11-28T13:59:09Z</time>
      </trkpt>
      <trkpt lat="47.67128" lon="6.02815">
        <ele>210</ele>
        <time>2018-11-28T13:59:11Z</time>
      </trkpt>
      <trkpt lat="47.67132" lon="6.02822">
        <ele>210</ele>
        <time>2018-11-28T13:59:13Z</time>
      </trkpt>
      <trkpt lat="47.67137" lon="6.02829">
        <ele>210</ele>
        <time>2018-11-28T13:59:15Z</time>
      </trkpt>
      <trkpt lat="47.67142" lon="6.02837">
        <ele>212</ele>
        <time>2018-11-28T13:59:17Z</time>
      </trkpt>
      <trkpt lat="47.67146" lon="6.02845">
        <ele>212</ele>
        <time>2018-11-28T13:59:19Z</time>
      </trkpt>
      <trkpt lat="47.6715" lon="6.02853">
        <ele>212</ele>
        <time>2018-11-28T13:59:21Z</time>
      </trkpt>
      <trkpt lat="47.67154" lon="6.0286">
        <ele>212</ele>
        <time>2018-11-28T13:59:23Z</time>
      </trkpt>
      <trkpt lat="47.67157" lon="6.02868">
        <ele>212</ele>
        <time>2018-11-28T13:59:25Z</time>
      </trkpt>
      <trkpt lat="47.67161" lon="6.02877">
        <ele>212</ele>
        <time>2018-11-28T13:59:27Z</time>
      </trkpt>
      <trkpt lat="47.67167" lon="6.02886">
        <ele>210</ele>
        <time>2018-11-28T13:59:29Z</time>
      </trkpt>
      <trkpt lat="47.67172" lon="6.02894">
        <ele>210</ele>
        <time>2018-11-28T13:59:31Z</time>
      </trkpt>
      <trkpt lat="47.67176" lon="6.02902">
        <ele>211</ele>
        <time>2018-11-28T13:59:33Z</time>
      </trkpt>
      <trkpt lat="47.67179" lon="6.0291">
        <ele>211</ele>
        <time>2018-11-28T13:59:35Z</time>
      </trkpt>
      <trkpt lat="47.67182" lon="6.02917">
        <ele>211</ele>
        <time>2018-11-28T13:59:37Z</time>
      </trkpt>
      <trkpt lat="47.67185" lon="6.02925">
        <ele>210</ele>
        <time>2018-11-28T13:59:39Z</time>
      </trkpt>
      <trkpt lat="47.67188" lon="6.02931">
        <ele>210</ele>
        <time>2018-11-28T13:59:41Z</time>
      </trkpt>
      <trkpt lat="47.6719" lon="6.02939">
        <ele>210</ele>
        <time>2018-11-28T13:59:43Z</time>
      </trkpt>
      <trkpt lat="47.67192" lon="6.02947">
        <ele>210</ele>
        <time>2018-11-28T13:59:45Z</time>
      </trkpt>
      <trkpt lat="47.67194" lon="6.02955">
        <ele>210</ele>
        <time>2018-11-28T13:59:47Z</time>
      </trkpt>
      <trkpt lat="47.67195" lon="6.02963">
        <ele>210</ele>
        <time>2018-11-28T13:59:49Z</time>
      </trkpt>
      <trkpt lat="47.67197" lon="6.02972">
        <ele>210</ele>
        <time>2018-11-28T13:59:51Z</time>
      </trkpt>
      <trkpt lat="47.67199" lon="6.02981">
        <ele>210</ele>
        <time>2018-11-28T13:59:53Z</time>
      </trkpt>
      <trkpt lat="47.67202" lon="6.02991">
        <ele>210</ele>
        <time>2018-11-28T13:59:55Z</time>
      </trkpt>
      <trkpt lat="47.67204" lon="6.03002">
        <ele>209</ele>
        <time>2018-11-28T13:59:57Z</time>
      </trkpt>
      <trkpt lat="47.67206" lon="6.0301">
        <ele>209</ele>
        <time>2018-11-28T13:59:59Z</time>
      </trkpt>
      <trkpt lat="47.67208" lon="6.0302">
        <ele>209</ele>
        <time>2018-11-28T14:00:01Z</time>
      </trkpt>
      <trkpt lat="47.6721" lon="6.03029">
        <ele>209</ele>
        <time>2018-11-28T14:00:03Z</time>
      </trkpt>
      <trkpt lat="47.67211" lon="6.03039">
        <ele>209</ele>
        <time>2018-11-28T14:00:05Z</time>
      </trkpt>
      <trkpt lat="47.67212" lon="6.03049">
        <ele>209</ele>
        <time>2018-11-28T14:00:07Z</time>
      </trkpt>
      <trkpt lat="47.67213" lon="6.03057">
        <ele>208</ele>
        <time>2018-11-28T14:00:09Z</time>
      </trkpt>
      <trkpt lat="47.67215" lon="6.03066">
        <ele>208</ele>
        <time>2018-11-28T14:00:11Z</time>
      </trkpt>
      <trkpt lat="47.67217" lon="6.03075">
        <ele>208</ele>
        <time>2018-11-28T14:00:13Z</time>
      </trkpt>
      <trkpt lat="47.67217" lon="6.03083">
        <ele>208</ele>
        <time>2018-11-28T14:00:15Z</time>
      </trkpt>
      <trkpt lat="47.67218" lon="6.03092">
        <ele>208</ele>
        <time>2018-11-28T14:00:17Z</time>
      </trkpt>
      <trkpt lat="47.67219" lon="6.031">
        <ele>208</ele>
        <time>2018-11-28T14:00:19Z</time>
      </trkpt>
      <trkpt lat="47.6722" lon="6.0311">
        <ele>208</ele>
        <time>2018-11-28T14:00:21Z</time>
      </trkpt>
      <trkpt lat="47.6722" lon="6.03118">
        <ele>208</ele>
        <time>2018-11-28T14:00:23Z</time>
      </trkpt>
      <trkpt lat="47.67221" lon="6.03128">
        <ele>208</ele>
        <time>2018-11-28T14:00:25Z</time>
      </trkpt>
      <trkpt lat="47.67222" lon="6.03136">
        <ele>208</ele>
        <time>2018-11-28T14:00:27Z</time>
      </trkpt>
      <trkpt lat="47.67222" lon="6.03145">
        <ele>208</ele>
        <time>2018-11-28T14:00:29Z</time>
      </trkpt>
      <trkpt lat="47.67223" lon="6.03154">
        <ele>208</ele>
        <time>2018-11-28T14:00:31Z</time>
      </trkpt>
      <trkpt lat="47.67224" lon="6.03162">
        <ele>208</ele>
        <time>2018-11-28T14:00:33Z</time>
      </trkpt>
      <trkpt lat="47.67224" lon="6.03172">
        <ele>208</ele>
        <time>2018-11-28T14:00:35Z</time>
      </trkpt>
      <trkpt lat="47.67225" lon="6.03181">
        <ele>209</ele>
        <time>2018-11-28T14:00:37Z</time>
      </trkpt>
      <trkpt lat="47.67225" lon="6.03191">
        <ele>209</ele>
        <time>2018-11-28T14:00:39Z</time>
      </trkpt>
      <trkpt lat="47.67226" lon="6.03201">
        <ele>209</ele>
        <time>2018-11-28T14:00:41Z</time>
      </trkpt>
      <trkpt lat="47.67227" lon="6.0321">
        <ele>209</ele>
        <time>2018-11-28T14:00:43Z</time>
      </trkpt>
      <trkpt lat="47.67228" lon="6.0322">
        <ele>209</ele>
        <time>2018-11-28T14:00:45Z</time>
      </trkpt>
      <trkpt lat="47.67229" lon="6.03229">
        <ele>209</ele>
        <time>2018-11-28T14:00:47Z</time>
      </trkpt>
      <trkpt lat="47.67231" lon="6.03237">
        <ele>208</ele>
        <time>2018-11-28T14:00:49Z</time>
      </trkpt>
      <trkpt lat="47.67232" lon="6.03245">
        <ele>208</ele>
        <time>2018-11-28T14:00:51Z</time>
      </trkpt>
      <trkpt lat="47.67234" lon="6.03253">
        <ele>210</ele>
        <time>2018-11-28T14:00:53Z</time>
      </trkpt>
      <trkpt lat="47.67235" lon="6.03261">
        <ele>210</ele>
        <time>2018-11-28T14:00:55Z</time>
      </trkpt>
      <trkpt lat="47.67237" lon="6.0327">
        <ele>211</ele>
        <time>2018-11-28T14:00:57Z</time>
      </trkpt>
      <trkpt lat="47.67239" lon="6.03279">
        <ele>212</ele>
        <time>2018-11-28T14:00:59Z</time>
      </trkpt>
      <trkpt lat="47.67242" lon="6.03287">
        <ele>213</ele>
        <time>2018-11-28T14:01:01Z</time>
      </trkpt>
      <trkpt lat="47.67244" lon="6.03296">
        <ele>213</ele>
        <time>2018-11-28T14:01:03Z</time>
      </trkpt>
      <trkpt lat="47.67247" lon="6.03304">
        <ele>214</ele>
        <time>2018-11-28T14:01:05Z</time>
      </trkpt>
      <trkpt lat="47.6725" lon="6.03312">
        <ele>213</ele>
        <time>2018-11-28T14:01:07Z</time>
      </trkpt>
      <trkpt lat="47.67252" lon="6.03319">
        <ele>210</ele>
        <time>2018-11-28T14:01:09Z</time>
      </trkpt>
      <trkpt lat="47.67255" lon="6.03327">
        <ele>211</ele>
        <time>2018-11-28T14:01:11Z</time>
      </trkpt>
      <trkpt lat="47.67258" lon="6.03335">
        <ele>211</ele>
        <time>2018-11-28T14:01:13Z</time>
      </trkpt>
      <trkpt lat="47.6726" lon="6.03342">
        <ele>211</ele>
        <time>2018-11-28T14:01:15Z</time>
      </trkpt>
      <trkpt lat="47.67263" lon="6.0335">
        <ele>211</ele>
        <time>2018-11-28T14:01:17Z</time>
      </trkpt>
      <trkpt lat="47.67265" lon="6.03359">
        <ele>211</ele>
        <time>2018-11-28T14:01:19Z</time>
      </trkpt>
      <trkpt lat="47.67268" lon="6.03368">
        <ele>211</ele>
        <time>2018-11-28T14:01:21Z</time>
      </trkpt>
      <trkpt lat="47.67271" lon="6.03377">
        <ele>211</ele>
        <time>2018-11-28T14:01:23Z</time>
      </trkpt>
      <trkpt lat="47.67273" lon="6.03386">
        <ele>211</ele>
        <time>2018-11-28T14:01:25Z</time>
      </trkpt>
      <trkpt lat="47.67276" lon="6.03395">
        <ele>211</ele>
        <time>2018-11-28T14:01:27Z</time>
      </trkpt>
      <trkpt lat="47.67278" lon="6.03403">
        <ele>211</ele>
        <time>2018-11-28T14:01:29Z</time>
      </trkpt>
      <trkpt lat="47.67281" lon="6.03412">
        <ele>211</ele>
        <time>2018-11-28T14:01:31Z</time>
      </trkpt>
      <trkpt lat="47.67283" lon="6.03421">
        <ele>212</ele>
        <time>2018-11-28T14:01:33Z</time>
      </trkpt>
      <trkpt lat="47.67285" lon="6.03429">
        <ele>212</ele>
        <time>2018-11-28T14:01:35Z</time>
      </trkpt>
      <trkpt lat="47.67288" lon="6.03439">
        <ele>211</ele>
        <time>2018-11-28T14:01:37Z</time>
      </trkpt>
      <trkpt lat="47.67289" lon="6.03447">
        <ele>211</ele>
        <time>2018-11-28T14:01:39Z</time>
      </trkpt>
      <trkpt lat="47.67291" lon="6.03456">
        <ele>211</ele>
        <time>2018-11-28T14:01:41Z</time>
      </trkpt>
      <trkpt lat="47.67293" lon="6.03465">
        <ele>212</ele>
        <time>2018-11-28T14:01:43Z</time>
      </trkpt>
      <trkpt lat="47.67294" lon="6.03474">
        <ele>211</ele>
        <time>2018-11-28T14:01:45Z</time>
      </trkpt>
      <trkpt lat="47.67296" lon="6.03483">
        <ele>211</ele>
        <time>2018-11-28T14:01:47Z</time>
      </trkpt>
      <trkpt lat="47.67298" lon="6.03492">
        <ele>211</ele>
        <time>2018-11-28T14:01:49Z</time>
      </trkpt>
      <trkpt lat="47.673" lon="6.035">
        <ele>213</ele>
        <time>2018-11-28T14:01:51Z</time>
      </trkpt>
      <trkpt lat="47.67303" lon="6.0351">
        <ele>212</ele>
        <time>2018-11-28T14:01:53Z</time>
      </trkpt>
      <trkpt lat="47.67305" lon="6.0352">
        <ele>212</ele>
        <time>2018-11-28T14:01:55Z</time>
      </trkpt>
      <trkpt lat="47.67307" lon="6.03529">
        <ele>213</ele>
        <time>2018-11-28T14:01:57Z</time>
      </trkpt>
      <trkpt lat="47.67309" lon="6.03537">
        <ele>213</ele>
        <time>2018-11-28T14:01:59Z</time>
      </trkpt>
      <trkpt lat="47.67311" lon="6.03546">
        <ele>213</ele>
        <time>2018-11-28T14:02:01Z</time>
      </trkpt>
      <trkpt lat="47.67312" lon="6.03553">
        <ele>212</ele>
        <time>2018-11-28T14:02:03Z</time>
      </trkpt>
      <trkpt lat="47.67314" lon="6.03561">
        <ele>212</ele>
        <time>2018-11-28T14:02:05Z</time>
      </trkpt>
      <trkpt lat="47.67317" lon="6.0357">
        <ele>211</ele>
        <time>2018-11-28T14:02:07Z</time>
      </trkpt>
      <trkpt lat="47.6732" lon="6.03581">
        <ele>210</ele>
        <time>2018-11-28T14:02:09Z</time>
      </trkpt>
      <trkpt lat="47.67322" lon="6.03593">
        <ele>211</ele>
        <time>2018-11-28T14:02:11Z</time>
      </trkpt>
      <trkpt lat="47.67324" lon="6.03604">
        <ele>213</ele>
        <time>2018-11-28T14:02:13Z</time>
      </trkpt>
      <trkpt lat="47.67326" lon="6.03614">
        <ele>214</ele>
        <time>2018-11-28T14:02:15Z</time>
      </trkpt>
      <trkpt lat="47.67329" lon="6.03625">
        <ele>215</ele>
        <time>2018-11-28T14:02:17Z</time>
      </trkpt>
      <trkpt lat="47.67331" lon="6.03637">
        <ele>214</ele>
        <time>2018-11-28T14:02:19Z</time>
      </trkpt>
      <trkpt lat="47.67334" lon="6.03646">
        <ele>208</ele>
        <time>2018-11-28T14:02:21Z</time>
      </trkpt>
      <trkpt lat="47.67336" lon="6.03655">
        <ele>209</ele>
        <time>2018-11-28T14:02:23Z</time>
      </trkpt>
      <trkpt lat="47.67339" lon="6.03665">
        <ele>209</ele>
        <time>2018-11-28T14:02:25Z</time>
      </trkpt>
      <trkpt lat="47.67342" lon="6.03674">
        <ele>210</ele>
        <time>2018-11-28T14:02:27Z</time>
      </trkpt>
      <trkpt lat="47.67345" lon="6.03684">
        <ele>210</ele>
        <time>2018-11-28T14:02:29Z</time>
      </trkpt>
      <trkpt lat="47.67349" lon="6.03694">
        <ele>211</ele>
        <time>2018-11-28T14:02:31Z</time>
      </trkpt>
      <trkpt lat="47.67352" lon="6.03704">
        <ele>211</ele>
        <time>2018-11-28T14:02:33Z</time>
      </trkpt>
      <trkpt lat="47.67356" lon="6.03713">
        <ele>211</ele>
        <time>2018-11-28T14:02:35Z</time>
      </trkpt>
      <trkpt lat="47.67359" lon="6.03721">
        <ele>212</ele>
        <time>2018-11-28T14:02:37Z</time>
      </trkpt>
      <trkpt lat="47.67363" lon="6.0373">
        <ele>212</ele>
        <time>2018-11-28T14:02:39Z</time>
      </trkpt>
      <trkpt lat="47.67367" lon="6.03739">
        <ele>212</ele>
        <time>2018-11-28T14:02:41Z</time>
      </trkpt>
      <trkpt lat="47.67372" lon="6.03747">
        <ele>212</ele>
        <time>2018-11-28T14:02:43Z</time>
      </trkpt>
      <trkpt lat="47.67376" lon="6.03754">
        <ele>215</ele>
        <time>2018-11-28T14:02:45Z</time>
      </trkpt>
      <trkpt lat="47.67381" lon="6.03761">
        <ele>215</ele>
        <time>2018-11-28T14:02:47Z</time>
      </trkpt>
      <trkpt lat="47.67385" lon="6.03768">
        <ele>215</ele>
        <time>2018-11-28T14:02:49Z</time>
      </trkpt>
      <trkpt lat="47.67389" lon="6.03775">
        <ele>215</ele>
        <time>2018-11-28T14:02:51Z</time>
      </trkpt>
      <trkpt lat="47.67393" lon="6.03782">
        <ele>215</ele>
        <time>2018-11-28T14:02:53Z</time>
      </trkpt>
      <trkpt lat="47.67397" lon="6.03788">
        <ele>215</ele>
        <time>2018-11-28T14:02:55Z</time>
      </trkpt>
      <trkpt lat="47.67401" lon="6.03795">
        <ele>215</ele>
        <time>2018-11-28T14:02:57Z</time>
      </trkpt>
      <trkpt lat="47.67405" lon="6.03804">
        <ele>215</ele>
        <time>2018-11-28T14:02:59Z</time>
      </trkpt>
      <trkpt lat="47.67409" lon="6.03812">
        <ele>215</ele>
        <time>2018-11-28T14:03:01Z</time>
      </trkpt>
      <trkpt lat="47.67412" lon="6.03819">
        <ele>214</ele>
        <time>2018-11-28T14:03:03Z</time>
      </trkpt>
      <trkpt lat="47.67416" lon="6.03827">
        <ele>213</ele>
        <time>2018-11-28T14:03:05Z</time>
      </trkpt>
      <trkpt lat="47.6742" lon="6.03836">
        <ele>212</ele>
        <time>2018-11-28T14:03:07Z</time>
      </trkpt>
      <trkpt lat="47.67423" lon="6.03843">
        <ele>211</ele>
        <time>2018-11-28T14:03:09Z</time>
      </trkpt>
      <trkpt lat="47.67426" lon="6.03851">
        <ele>211</ele>
        <time>2018-11-28T14:03:11Z</time>
      </trkpt>
      <trkpt lat="47.6743" lon="6.03858">
        <ele>211</ele>
        <time>2018-11-28T14:03:13Z</time>
      </trkpt>
      <trkpt lat="47.67433" lon="6.03866">
        <ele>211</ele>
        <time>2018-11-28T14:03:15Z</time>
      </trkpt>
      <trkpt lat="47.67436" lon="6.03873">
        <ele>211</ele>
        <time>2018-11-28T14:03:17Z</time>
      </trkpt>
      <trkpt lat="47.67441" lon="6.0388">
        <ele>212</ele>
        <time>2018-11-28T14:03:19Z</time>
      </trkpt>
      <trkpt lat="47.67446" lon="6.03887">
        <ele>211</ele>
        <time>2018-11-28T14:03:22Z</time>
      </trkpt>
      <trkpt lat="47.67453" lon="6.03897">
        <ele>211</ele>
        <time>2018-11-28T14:03:24Z</time>
      </trkpt>
      <trkpt lat="47.67459" lon="6.03904">
        <ele>211</ele>
        <time>2018-11-28T14:03:26Z</time>
      </trkpt>
      <trkpt lat="47.67465" lon="6.0391">
        <ele>210</ele>
        <time>2018-11-28T14:03:28Z</time>
      </trkpt>
      <trkpt lat="47.6747" lon="6.03918">
        <ele>215</ele>
        <time>2018-11-28T14:03:30Z</time>
      </trkpt>
      <trkpt lat="47.67475" lon="6.03926">
        <ele>214</ele>
        <time>2018-11-28T14:03:32Z</time>
      </trkpt>
      <trkpt lat="47.67479" lon="6.0393">
        <ele>214</ele>
        <time>2018-11-28T14:03:33Z</time>
      </trkpt>
      <trkpt lat="47.67486" lon="6.03938">
        <ele>214</ele>
        <time>2018-11-28T14:03:35Z</time>
      </trkpt>
      <trkpt lat="47.67492" lon="6.03946">
        <ele>215</ele>
        <time>2018-11-28T14:03:37Z</time>
      </trkpt>
      <trkpt lat="47.67498" lon="6.03955">
        <ele>216</ele>
        <time>2018-11-28T14:03:39Z</time>
      </trkpt>
      <trkpt lat="47.67503" lon="6.03963">
        <ele>210</ele>
        <time>2018-11-28T14:03:41Z</time>
      </trkpt>
      <trkpt lat="47.67507" lon="6.0397">
        <ele>210</ele>
        <time>2018-11-28T14:03:43Z</time>
      </trkpt>
      <trkpt lat="47.67512" lon="6.03977">
        <ele>211</ele>
        <time>2018-11-28T14:03:45Z</time>
      </trkpt>
      <trkpt lat="47.67518" lon="6.03984">
        <ele>211</ele>
        <time>2018-11-28T14:03:47Z</time>
      </trkpt>
      <trkpt lat="47.67525" lon="6.03988">
        <ele>210</ele>
        <time>2018-11-28T14:03:49Z</time>
      </trkpt>
      <trkpt lat="47.67532" lon="6.03992">
        <ele>210</ele>
        <time>2018-11-28T14:03:51Z</time>
      </trkpt>
      <trkpt lat="47.67539" lon="6.03993">
        <ele>209</ele>
        <time>2018-11-28T14:03:53Z</time>
      </trkpt>
      <trkpt lat="47.67547" lon="6.03993">
        <ele>208</ele>
        <time>2018-11-28T14:03:55Z</time>
      </trkpt>
      <trkpt lat="47.67554" lon="6.0399">
        <ele>208</ele>
        <time>2018-11-28T14:03:57Z</time>
      </trkpt>
      <trkpt lat="47.67558" lon="6.03987">
        <ele>207</ele>
        <time>2018-11-28T14:03:58Z</time>
      </trkpt>
      <trkpt lat="47.67568" lon="6.03981">
        <ele>207</ele>
        <time>2018-11-28T14:04:00Z</time>
      </trkpt>
      <trkpt lat="47.67576" lon="6.03974">
        <ele>207</ele>
        <time>2018-11-28T14:04:02Z</time>
      </trkpt>
      <trkpt lat="47.67583" lon="6.03966">
        <ele>207</ele>
        <time>2018-11-28T14:04:04Z</time>
      </trkpt>
      <trkpt lat="47.67586" lon="6.03961">
        <ele>206</ele>
        <time>2018-11-28T14:04:05Z</time>
      </trkpt>
      <trkpt lat="47.67592" lon="6.03954">
        <ele>206</ele>
        <time>2018-11-28T14:04:07Z</time>
      </trkpt>
      <trkpt lat="47.67597" lon="6.03948">
        <ele>206</ele>
        <time>2018-11-28T14:04:09Z</time>
      </trkpt>
      <trkpt lat="47.67604" lon="6.03941">
        <ele>206</ele>
        <time>2018-11-28T14:04:11Z</time>
      </trkpt>
      <trkpt lat="47.6761" lon="6.03933">
        <ele>207</ele>
        <time>2018-11-28T14:04:13Z</time>
      </trkpt>
      <trkpt lat="47.67614" lon="6.03928">
        <ele>207</ele>
        <time>2018-11-28T14:04:14Z</time>
      </trkpt>
      <trkpt lat="47.6762" lon="6.03921">
        <ele>207</ele>
        <time>2018-11-28T14:04:16Z</time>
      </trkpt>
      <trkpt lat="47.67626" lon="6.03913">
        <ele>207</ele>
        <time>2018-11-28T14:04:18Z</time>
      </trkpt>
      <trkpt lat="47.67632" lon="6.03908">
        <ele>207</ele>
        <time>2018-11-28T14:04:20Z</time>
      </trkpt>
      <trkpt lat="47.67638" lon="6.039">
        <ele>207</ele>
        <time>2018-11-28T14:04:22Z</time>
      </trkpt>
      <trkpt lat="47.67644" lon="6.03894">
        <ele>207</ele>
        <time>2018-11-28T14:04:25Z</time>
      </trkpt>
      <trkpt lat="47.67648" lon="6.03887">
        <ele>207</ele>
        <time>2018-11-28T14:04:27Z</time>
      </trkpt>
      <trkpt lat="47.67654" lon="6.0388">
        <ele>207</ele>
        <time>2018-11-28T14:04:29Z</time>
      </trkpt>
      <trkpt lat="47.67659" lon="6.03873">
        <ele>207</ele>
        <time>2018-11-28T14:04:31Z</time>
      </trkpt>
      <trkpt lat="47.67664" lon="6.03868">
        <ele>207</ele>
        <time>2018-11-28T14:04:33Z</time>
      </trkpt>
      <trkpt lat="47.67669" lon="6.03861">
        <ele>208</ele>
        <time>2018-11-28T14:04:35Z</time>
      </trkpt>
      <trkpt lat="47.67675" lon="6.03854">
        <ele>208</ele>
        <time>2018-11-28T14:04:37Z</time>
      </trkpt>
      <trkpt lat="47.67681" lon="6.03848">
        <ele>208</ele>
        <time>2018-11-28T14:04:39Z</time>
      </trkpt>
      <trkpt lat="47.67687" lon="6.03842">
        <ele>208</ele>
        <time>2018-11-28T14:04:41Z</time>
      </trkpt>
      <trkpt lat="47.67695" lon="6.03835">
        <ele>209</ele>
        <time>2018-11-28T14:04:43Z</time>
      </trkpt>
      <trkpt lat="47.67702" lon="6.03828">
        <ele>208</ele>
        <time>2018-11-28T14:04:44Z</time>
      </trkpt>
      <trkpt lat="47.67708" lon="6.03821">
        <ele>208</ele>
        <time>2018-11-28T14:04:46Z</time>
      </trkpt>
      <trkpt lat="47.67715" lon="6.03815">
        <ele>209</ele>
        <time>2018-11-28T14:04:48Z</time>
      </trkpt>
      <trkpt lat="47.67722" lon="6.03808">
        <ele>209</ele>
        <time>2018-11-28T14:04:50Z</time>
      </trkpt>
      <trkpt lat="47.67727" lon="6.03805">
        <ele>209</ele>
        <time>2018-11-28T14:04:51Z</time>
      </trkpt>
      <trkpt lat="47.67731" lon="6.038">
        <ele>209</ele>
        <time>2018-11-28T14:04:52Z</time>
      </trkpt>
      <trkpt lat="47.67735" lon="6.03796">
        <ele>209</ele>
        <time>2018-11-28T14:04:53Z</time>
      </trkpt>
      <trkpt lat="47.67742" lon="6.03789">
        <ele>209</ele>
        <time>2018-11-28T14:04:55Z</time>
      </trkpt>
      <trkpt lat="47.67749" lon="6.03782">
        <ele>209</ele>
        <time>2018-11-28T14:04:57Z</time>
      </trkpt>
      <trkpt lat="47.67756" lon="6.03775">
        <ele>210</ele>
        <time>2018-11-28T14:04:59Z</time>
      </trkpt>
      <trkpt lat="47.67764" lon="6.03768">
        <ele>210</ele>
        <time>2018-11-28T14:05:01Z</time>
      </trkpt>
      <trkpt lat="47.67771" lon="6.03762">
        <ele>210</ele>
        <time>2018-11-28T14:05:03Z</time>
      </trkpt>
      <trkpt lat="47.67775" lon="6.03758">
        <ele>210</ele>
        <time>2018-11-28T14:05:04Z</time>
      </trkpt>
      <trkpt lat="47.67782" lon="6.03752">
        <ele>210</ele>
        <time>2018-11-28T14:05:06Z</time>
      </trkpt>
      <trkpt lat="47.67789" lon="6.03747">
        <ele>209</ele>
        <time>2018-11-28T14:05:08Z</time>
      </trkpt>
      <trkpt lat="47.67797" lon="6.03741">
        <ele>209</ele>
        <time>2018-11-28T14:05:10Z</time>
      </trkpt>
      <trkpt lat="47.67804" lon="6.03735">
        <ele>209</ele>
        <time>2018-11-28T14:05:12Z</time>
      </trkpt>
      <trkpt lat="47.67812" lon="6.03729">
        <ele>209</ele>
        <time>2018-11-28T14:05:14Z</time>
      </trkpt>
      <trkpt lat="47.67818" lon="6.03723">
        <ele>209</ele>
        <time>2018-11-28T14:05:16Z</time>
      </trkpt>
      <trkpt lat="47.67824" lon="6.03717">
        <ele>208</ele>
        <time>2018-11-28T14:05:18Z</time>
      </trkpt>
      <trkpt lat="47.67831" lon="6.03714">
        <ele>208</ele>
        <time>2018-11-28T14:05:20Z</time>
      </trkpt>
      <trkpt lat="47.67838" lon="6.0371">
        <ele>208</ele>
        <time>2018-11-28T14:05:22Z</time>
      </trkpt>
      <trkpt lat="47.67844" lon="6.03706">
        <ele>208</ele>
        <time>2018-11-28T14:05:24Z</time>
      </trkpt>
      <trkpt lat="47.67848" lon="6.03702">
        <ele>208</ele>
        <time>2018-11-28T14:05:26Z</time>
      </trkpt>
      <trkpt lat="47.67854" lon="6.03698">
        <ele>208</ele>
        <time>2018-11-28T14:05:28Z</time>
      </trkpt>
      <trkpt lat="47.67861" lon="6.03695">
        <ele>208</ele>
        <time>2018-11-28T14:05:30Z</time>
      </trkpt>
      <trkpt lat="47.67868" lon="6.03691">
        <ele>208</ele>
        <time>2018-11-28T14:05:32Z</time>
      </trkpt>
      <trkpt lat="47.67878" lon="6.03684">
        <ele>207</ele>
        <time>2018-11-28T14:05:34Z</time>
      </trkpt>
      <trkpt lat="47.67885" lon="6.0368">
        <ele>207</ele>
        <time>2018-11-28T14:05:36Z</time>
      </trkpt>
      <trkpt lat="47.67892" lon="6.03675">
        <ele>207</ele>
        <time>2018-11-28T14:05:38Z</time>
      </trkpt>
      <trkpt lat="47.67899" lon="6.03671">
        <ele>207</ele>
        <time>2018-11-28T14:05:40Z</time>
      </trkpt>
      <trkpt lat="47.67907" lon="6.03666">
        <ele>206</ele>
        <time>2018-11-28T14:05:42Z</time>
      </trkpt>
      <trkpt lat="47.67914" lon="6.03661">
        <ele>206</ele>
        <time>2018-11-28T14:05:44Z</time>
      </trkpt>
      <trkpt lat="47.67921" lon="6.03656">
        <ele>206</ele>
        <time>2018-11-28T14:05:46Z</time>
      </trkpt>
      <trkpt lat="47.67929" lon="6.03651">
        <ele>206</ele>
        <time>2018-11-28T14:05:48Z</time>
      </trkpt>
      <trkpt lat="47.67936" lon="6.03648">
        <ele>205</ele>
        <time>2018-11-28T14:05:50Z</time>
      </trkpt>
      <trkpt lat="47.67942" lon="6.03644">
        <ele>205</ele>
        <time>2018-11-28T14:05:52Z</time>
      </trkpt>
      <trkpt lat="47.67949" lon="6.0364">
        <ele>205</ele>
        <time>2018-11-28T14:05:54Z</time>
      </trkpt>
      <trkpt lat="47.67957" lon="6.03635">
        <ele>205</ele>
        <time>2018-11-28T14:05:56Z</time>
      </trkpt>
      <trkpt lat="47.67962" lon="6.03632">
        <ele>205</ele>
        <time>2018-11-28T14:05:57Z</time>
      </trkpt>
      <trkpt lat="47.67966" lon="6.03628">
        <ele>205</ele>
        <time>2018-11-28T14:05:58Z</time>
      </trkpt>
      <trkpt lat="47.67971" lon="6.03625">
        <ele>205</ele>
        <time>2018-11-28T14:05:59Z</time>
      </trkpt>
      <trkpt lat="47.67975" lon="6.03621">
        <ele>205</ele>
        <time>2018-11-28T14:06:00Z</time>
      </trkpt>
      <trkpt lat="47.6798" lon="6.03618">
        <ele>205</ele>
        <time>2018-11-28T14:06:01Z</time>
      </trkpt>
      <trkpt lat="47.67984" lon="6.03615">
        <ele>205</ele>
        <time>2018-11-28T14:06:02Z</time>
      </trkpt>
      <trkpt lat="47.67988" lon="6.03612">
        <ele>205</ele>
        <time>2018-11-28T14:06:03Z</time>
      </trkpt>
      <trkpt lat="47.67992" lon="6.03609">
        <ele>205</ele>
        <time>2018-11-28T14:06:04Z</time>
      </trkpt>
      <trkpt lat="47.67997" lon="6.03606">
        <ele>205</ele>
        <time>2018-11-28T14:06:05Z</time>
      </trkpt>
      <trkpt lat="47.68005" lon="6.03599">
        <ele>205</ele>
        <time>2018-11-28T14:06:07Z</time>
      </trkpt>
      <trkpt lat="47.68009" lon="6.03595">
        <ele>205</ele>
        <time>2018-11-28T14:06:08Z</time>
      </trkpt>
      <trkpt lat="47.68016" lon="6.0359">
        <ele>205</ele>
        <time>2018-11-28T14:06:10Z</time>
      </trkpt>
      <trkpt lat="47.68024" lon="6.03583">
        <ele>205</ele>
        <time>2018-11-28T14:06:12Z</time>
      </trkpt>
      <trkpt lat="47.6803" lon="6.03577">
        <ele>205</ele>
        <time>2018-11-28T14:06:14Z</time>
      </trkpt>
      <trkpt lat="47.68037" lon="6.03572">
        <ele>205</ele>
        <time>2018-11-28T14:06:16Z</time>
      </trkpt>
      <trkpt lat="47.68046" lon="6.0357">
        <ele>205</ele>
        <time>2018-11-28T14:06:18Z</time>
      </trkpt>
      <trkpt lat="47.68055" lon="6.03571">
        <ele>205</ele>
        <time>2018-11-28T14:06:20Z</time>
      </trkpt>
      <trkpt lat="47.68064" lon="6.03571">
        <ele>205</ele>
        <time>2018-11-28T14:06:22Z</time>
      </trkpt>
      <trkpt lat="47.68071" lon="6.03572">
        <ele>205</ele>
        <time>2018-11-28T14:06:24Z</time>
      </trkpt>
      <trkpt lat="47.68079" lon="6.03573">
        <ele>205</ele>
        <time>2018-11-28T14:06:26Z</time>
      </trkpt>
      <trkpt lat="47.68086" lon="6.03575">
        <ele>205</ele>
        <time>2018-11-28T14:06:28Z</time>
      </trkpt>
      <trkpt lat="47.68093" lon="6.03577">
        <ele>205</ele>
        <time>2018-11-28T14:06:30Z</time>
      </trkpt>
      <trkpt lat="47.681" lon="6.03578">
        <ele>205</ele>
        <time>2018-11-28T14:06:32Z</time>
      </trkpt>
      <trkpt lat="47.68107" lon="6.03581">
        <ele>205</ele>
        <time>2018-11-28T14:06:34Z</time>
      </trkpt>
      <trkpt lat="47.68112" lon="6.03582">
        <ele>205</ele>
        <time>2018-11-28T14:06:36Z</time>
      </trkpt>
      <trkpt lat="47.68118" lon="6.03583">
        <ele>205</ele>
        <time>2018-11-28T14:06:38Z</time>
      </trkpt>
      <trkpt lat="47.68124" lon="6.03584">
        <ele>205</ele>
        <time>2018-11-28T14:06:40Z</time>
      </trkpt>
      <trkpt lat="47.68132" lon="6.03584">
        <ele>205</ele>
        <time>2018-11-28T14:06:42Z</time>
      </trkpt>
      <trkpt lat="47.68139" lon="6.03583">
        <ele>205</ele>
        <time>2018-11-28T14:06:44Z</time>
      </trkpt>
      <trkpt lat="47.68152" lon="6.03581">
        <ele>205</ele>
        <time>2018-11-28T14:06:46Z</time>
      </trkpt>
      <trkpt lat="47.68156" lon="6.0358">
        <ele>205</ele>
        <time>2018-11-28T14:06:47Z</time>
      </trkpt>
      <trkpt lat="47.68165" lon="6.03577">
        <ele>205</ele>
        <time>2018-11-28T14:06:49Z</time>
      </trkpt>
      <trkpt lat="47.68172" lon="6.03575">
        <ele>205</ele>
        <time>2018-11-28T14:06:51Z</time>
      </trkpt>
      <trkpt lat="47.6818" lon="6.03574">
        <ele>205</ele>
        <time>2018-11-28T14:06:53Z</time>
      </trkpt>
      <trkpt lat="47.68187" lon="6.03572">
        <ele>205</ele>
        <time>2018-11-28T14:06:55Z</time>
      </trkpt>
      <trkpt lat="47.68195" lon="6.0357">
        <ele>205</ele>
        <time>2018-11-28T14:06:57Z</time>
      </trkpt>
      <trkpt lat="47.68202" lon="6.03568">
        <ele>205</ele>
        <time>2018-11-28T14:06:59Z</time>
      </trkpt>
      <trkpt lat="47.68209" lon="6.03568">
        <ele>205</ele>
        <time>2018-11-28T14:07:01Z</time>
      </trkpt>
      <trkpt lat="47.68217" lon="6.03569">
        <ele>205</ele>
        <time>2018-11-28T14:07:03Z</time>
      </trkpt>
      <trkpt lat="47.68224" lon="6.03568">
        <ele>205</ele>
        <time>2018-11-28T14:07:05Z</time>
      </trkpt>
      <trkpt lat="47.68231" lon="6.03567">
        <ele>205</ele>
        <time>2018-11-28T14:07:07Z</time>
      </trkpt>
      <trkpt lat="47.68239" lon="6.03568">
        <ele>205</ele>
        <time>2018-11-28T14:07:09Z</time>
      </trkpt>
      <trkpt lat="47.68244" lon="6.03569">
        <ele>205</ele>
        <time>2018-11-28T14:07:11Z</time>
      </trkpt>
      <trkpt lat="47.6825" lon="6.03569">
        <ele>205</ele>
        <time>2018-11-28T14:07:13Z</time>
      </trkpt>
      <trkpt lat="47.68256" lon="6.03569">
        <ele>205</ele>
        <time>2018-11-28T14:07:15Z</time>
      </trkpt>
      <trkpt lat="47.68263" lon="6.0357">
        <ele>205</ele>
        <time>2018-11-28T14:07:17Z</time>
      </trkpt>
      <trkpt lat="47.6827" lon="6.03571">
        <ele>205</ele>
        <time>2018-11-28T14:07:19Z</time>
      </trkpt>
      <trkpt lat="47.68277" lon="6.03571">
        <ele>205</ele>
        <time>2018-11-28T14:07:21Z</time>
      </trkpt>
      <trkpt lat="47.68284" lon="6.03572">
        <ele>205</ele>
        <time>2018-11-28T14:07:23Z</time>
      </trkpt>
      <trkpt lat="47.68291" lon="6.03573">
        <ele>206</ele>
        <time>2018-11-28T14:07:25Z</time>
      </trkpt>
      <trkpt lat="47.68298" lon="6.03575">
        <ele>205</ele>
        <time>2018-11-28T14:07:27Z</time>
      </trkpt>
      <trkpt lat="47.68304" lon="6.03577">
        <ele>205</ele>
        <time>2018-11-28T14:07:29Z</time>
      </trkpt>
      <trkpt lat="47.6831" lon="6.03579">
        <ele>205</ele>
        <time>2018-11-28T14:07:31Z</time>
      </trkpt>
      <trkpt lat="47.68322" lon="6.03582">
        <ele>205</ele>
        <time>2018-11-28T14:07:33Z</time>
      </trkpt>
      <trkpt lat="47.6833" lon="6.03584">
        <ele>205</ele>
        <time>2018-11-28T14:07:35Z</time>
      </trkpt>
      <trkpt lat="47.68338" lon="6.03587">
        <ele>205</ele>
        <time>2018-11-28T14:07:37Z</time>
      </trkpt>
      <trkpt lat="47.68346" lon="6.03589">
        <ele>205</ele>
        <time>2018-11-28T14:07:39Z</time>
      </trkpt>
      <trkpt lat="47.68354" lon="6.0359">
        <ele>205</ele>
        <time>2018-11-28T14:07:41Z</time>
      </trkpt>
      <trkpt lat="47.68363" lon="6.03593">
        <ele>205</ele>
        <time>2018-11-28T14:07:43Z</time>
      </trkpt>
      <trkpt lat="47.68371" lon="6.03596">
        <ele>206</ele>
        <time>2018-11-28T14:07:45Z</time>
      </trkpt>
      <trkpt lat="47.68378" lon="6.03598">
        <ele>206</ele>
        <time>2018-11-28T14:07:47Z</time>
      </trkpt>
      <trkpt lat="47.68386" lon="6.03602">
        <ele>206</ele>
        <time>2018-11-28T14:07:49Z</time>
      </trkpt>
      <trkpt lat="47.68394" lon="6.03607">
        <ele>206</ele>
        <time>2018-11-28T14:07:51Z</time>
      </trkpt>
      <trkpt lat="47.68401" lon="6.03612">
        <ele>206</ele>
        <time>2018-11-28T14:07:53Z</time>
      </trkpt>
      <trkpt lat="47.68408" lon="6.03615">
        <ele>206</ele>
        <time>2018-11-28T14:07:55Z</time>
      </trkpt>
      <trkpt lat="47.68414" lon="6.03619">
        <ele>206</ele>
        <time>2018-11-28T14:07:57Z</time>
      </trkpt>
      <trkpt lat="47.68422" lon="6.03622">
        <ele>207</ele>
        <time>2018-11-28T14:07:59Z</time>
      </trkpt>
      <trkpt lat="47.6843" lon="6.03624">
        <ele>207</ele>
        <time>2018-11-28T14:08:01Z</time>
      </trkpt>
      <trkpt lat="47.68439" lon="6.03625">
        <ele>207</ele>
        <time>2018-11-28T14:08:03Z</time>
      </trkpt>
      <trkpt lat="47.68446" lon="6.03624">
        <ele>207</ele>
        <time>2018-11-28T14:08:05Z</time>
      </trkpt>
      <trkpt lat="47.68454" lon="6.03619">
        <ele>207</ele>
        <time>2018-11-28T14:08:07Z</time>
      </trkpt>
      <trkpt lat="47.68461" lon="6.03616">
        <ele>207</ele>
        <time>2018-11-28T14:08:09Z</time>
      </trkpt>
      <trkpt lat="47.68468" lon="6.03614">
        <ele>207</ele>
        <time>2018-11-28T14:08:11Z</time>
      </trkpt>
      <trkpt lat="47.68474" lon="6.03615">
        <ele>208</ele>
        <time>2018-11-28T14:08:13Z</time>
      </trkpt>
      <trkpt lat="47.68481" lon="6.03617">
        <ele>208</ele>
        <time>2018-11-28T14:08:15Z</time>
      </trkpt>
      <trkpt lat="47.68488" lon="6.0362">
        <ele>208</ele>
        <time>2018-11-28T14:08:17Z</time>
      </trkpt>
      <trkpt lat="47.68494" lon="6.03623">
        <ele>208</ele>
        <time>2018-11-28T14:08:19Z</time>
      </trkpt>
      <trkpt lat="47.685" lon="6.03625">
        <ele>208</ele>
        <time>2018-11-28T14:08:21Z</time>
      </trkpt>
      <trkpt lat="47.68505" lon="6.03628">
        <ele>209</ele>
        <time>2018-11-28T14:08:23Z</time>
      </trkpt>
      <trkpt lat="47.68512" lon="6.03631">
        <ele>209</ele>
        <time>2018-11-28T14:08:25Z</time>
      </trkpt>
      <trkpt lat="47.68519" lon="6.03634">
        <ele>209</ele>
        <time>2018-11-28T14:08:27Z</time>
      </trkpt>
      <trkpt lat="47.68525" lon="6.03636">
        <ele>209</ele>
        <time>2018-11-28T14:08:29Z</time>
      </trkpt>
      <trkpt lat="47.68532" lon="6.0364">
        <ele>209</ele>
        <time>2018-11-28T14:08:31Z</time>
      </trkpt>
      <trkpt lat="47.68538" lon="6.03642">
        <ele>209</ele>
        <time>2018-11-28T14:08:33Z</time>
      </trkpt>
      <trkpt lat="47.68544" lon="6.03644">
        <ele>209</ele>
        <time>2018-11-28T14:08:35Z</time>
      </trkpt>
      <trkpt lat="47.68551" lon="6.03646">
        <ele>209</ele>
        <time>2018-11-28T14:08:37Z</time>
      </trkpt>
      <trkpt lat="47.68558" lon="6.03648">
        <ele>209</ele>
        <time>2018-11-28T14:08:39Z</time>
      </trkpt>
      <trkpt lat="47.68565" lon="6.03648">
        <ele>209</ele>
        <time>2018-11-28T14:08:41Z</time>
      </trkpt>
      <trkpt lat="47.68571" lon="6.03649">
        <ele>209</ele>
        <time>2018-11-28T14:08:43Z</time>
      </trkpt>
      <trkpt lat="47.68578" lon="6.03649">
        <ele>209</ele>
        <time>2018-11-28T14:08:45Z</time>
      </trkpt>
      <trkpt lat="47.68584" lon="6.03647">
        <ele>210</ele>
        <time>2018-11-28T14:08:47Z</time>
      </trkpt>
      <trkpt lat="47.6859" lon="6.03645">
        <ele>210</ele>
        <time>2018-11-28T14:08:49Z</time>
      </trkpt>
      <trkpt lat="47.68596" lon="6.03642">
        <ele>211</ele>
        <time>2018-11-28T14:08:51Z</time>
      </trkpt>
      <trkpt lat="47.68601" lon="6.03639">
        <ele>211</ele>
        <time>2018-11-28T14:08:53Z</time>
      </trkpt>
      <trkpt lat="47.68606" lon="6.03637">
        <ele>211</ele>
        <time>2018-11-28T14:08:55Z</time>
      </trkpt>
      <trkpt lat="47.68611" lon="6.03633">
        <ele>211</ele>
        <time>2018-11-28T14:08:57Z</time>
      </trkpt>
      <trkpt lat="47.68615" lon="6.0363">
        <ele>211</ele>
        <time>2018-11-28T14:08:59Z</time>
      </trkpt>
      <trkpt lat="47.6862" lon="6.03628">
        <ele>211</ele>
        <time>2018-11-28T14:09:01Z</time>
      </trkpt>
      <trkpt lat="47.68626" lon="6.03628">
        <ele>211</ele>
        <time>2018-11-28T14:09:03Z</time>
      </trkpt>
      <trkpt lat="47.68632" lon="6.0363">
        <ele>211</ele>
        <time>2018-11-28T14:09:05Z</time>
      </trkpt>
      <trkpt lat="47.68638" lon="6.03632">
        <ele>211</ele>
        <time>2018-11-28T14:09:07Z</time>
      </trkpt>
      <trkpt lat="47.68644" lon="6.03632">
        <ele>211</ele>
        <time>2018-11-28T14:09:09Z</time>
      </trkpt>
      <trkpt lat="47.6865" lon="6.03633">
        <ele>211</ele>
        <time>2018-11-28T14:09:11Z</time>
      </trkpt>
      <trkpt lat="47.68656" lon="6.03634">
        <ele>211</ele>
        <time>2018-11-28T14:09:13Z</time>
      </trkpt>
      <trkpt lat="47.68664" lon="6.03635">
        <ele>211</ele>
        <time>2018-11-28T14:09:15Z</time>
      </trkpt>
      <trkpt lat="47.68672" lon="6.03636">
        <ele>213</ele>
        <time>2018-11-28T14:09:17Z</time>
      </trkpt>
      <trkpt lat="47.68679" lon="6.03637">
        <ele>213</ele>
        <time>2018-11-28T14:09:19Z</time>
      </trkpt>
      <trkpt lat="47.68687" lon="6.03638">
        <ele>213</ele>
        <time>2018-11-28T14:09:21Z</time>
      </trkpt>
      <trkpt lat="47.68694" lon="6.03639">
        <ele>213</ele>
        <time>2018-11-28T14:09:23Z</time>
      </trkpt>
      <trkpt lat="47.68702" lon="6.0364">
        <ele>213</ele>
        <time>2018-11-28T14:09:25Z</time>
      </trkpt>
      <trkpt lat="47.68709" lon="6.03641">
        <ele>213</ele>
        <time>2018-11-28T14:09:27Z</time>
      </trkpt>
      <trkpt lat="47.68716" lon="6.03643">
        <ele>213</ele>
        <time>2018-11-28T14:09:29Z</time>
      </trkpt>
      <trkpt lat="47.68723" lon="6.03645">
        <ele>213</ele>
        <time>2018-11-28T14:09:31Z</time>
      </trkpt>
      <trkpt lat="47.6873" lon="6.03646">
        <ele>213</ele>
        <time>2018-11-28T14:09:33Z</time>
      </trkpt>
      <trkpt lat="47.68738" lon="6.03648">
        <ele>213</ele>
        <time>2018-11-28T14:09:35Z</time>
      </trkpt>
      <trkpt lat="47.68745" lon="6.03649">
        <ele>213</ele>
        <time>2018-11-28T14:09:37Z</time>
      </trkpt>
      <trkpt lat="47.68752" lon="6.03651">
        <ele>213</ele>
        <time>2018-11-28T14:09:39Z</time>
      </trkpt>
      <trkpt lat="47.68759" lon="6.03652">
        <ele>214</ele>
        <time>2018-11-28T14:09:41Z</time>
      </trkpt>
      <trkpt lat="47.68765" lon="6.03653">
        <ele>214</ele>
        <time>2018-11-28T14:09:43Z</time>
      </trkpt>
      <trkpt lat="47.68772" lon="6.03653">
        <ele>214</ele>
        <time>2018-11-28T14:09:45Z</time>
      </trkpt>
      <trkpt lat="47.68779" lon="6.03654">
        <ele>214</ele>
        <time>2018-11-28T14:09:47Z</time>
      </trkpt>
      <trkpt lat="47.68786" lon="6.03654">
        <ele>214</ele>
        <time>2018-11-28T14:09:49Z</time>
      </trkpt>
      <trkpt lat="47.68792" lon="6.03654">
        <ele>214</ele>
        <time>2018-11-28T14:09:51Z</time>
      </trkpt>
      <trkpt lat="47.68799" lon="6.03654">
        <ele>214</ele>
        <time>2018-11-28T14:09:53Z</time>
      </trkpt>
      <trkpt lat="47.68805" lon="6.03654">
        <ele>214</ele>
        <time>2018-11-28T14:09:55Z</time>
      </trkpt>
      <trkpt lat="47.68811" lon="6.03654">
        <ele>214</ele>
        <time>2018-11-28T14:09:57Z</time>
      </trkpt>
      <trkpt lat="47.68819" lon="6.03655">
        <ele>213</ele>
        <time>2018-11-28T14:09:59Z</time>
      </trkpt>
      <trkpt lat="47.68826" lon="6.03655">
        <ele>213</ele>
        <time>2018-11-28T14:10:01Z</time>
      </trkpt>
      <trkpt lat="47.68832" lon="6.03656">
        <ele>212</ele>
        <time>2018-11-28T14:10:03Z</time>
      </trkpt>
      <trkpt lat="47.6884" lon="6.03656">
        <ele>213</ele>
        <time>2018-11-28T14:10:05Z</time>
      </trkpt>
      <trkpt lat="47.68847" lon="6.03656">
        <ele>214</ele>
        <time>2018-11-28T14:10:07Z</time>
      </trkpt>
      <trkpt lat="47.68853" lon="6.03656">
        <ele>214</ele>
        <time>2018-11-28T14:10:09Z</time>
      </trkpt>
      <trkpt lat="47.6886" lon="6.03656">
        <ele>215</ele>
        <time>2018-11-28T14:10:11Z</time>
      </trkpt>
      <trkpt lat="47.68866" lon="6.03655">
        <ele>215</ele>
        <time>2018-11-28T14:10:13Z</time>
      </trkpt>
      <trkpt lat="47.68874" lon="6.03656">
        <ele>215</ele>
        <time>2018-11-28T14:10:15Z</time>
      </trkpt>
      <trkpt lat="47.68881" lon="6.03656">
        <ele>215</ele>
        <time>2018-11-28T14:10:17Z</time>
      </trkpt>
      <trkpt lat="47.68888" lon="6.03657">
        <ele>215</ele>
        <time>2018-11-28T14:10:19Z</time>
      </trkpt>
      <trkpt lat="47.68894" lon="6.03658">
        <ele>215</ele>
        <time>2018-11-28T14:10:21Z</time>
      </trkpt>
      <trkpt lat="47.68901" lon="6.0366">
        <ele>214</ele>
        <time>2018-11-28T14:10:23Z</time>
      </trkpt>
      <trkpt lat="47.68907" lon="6.03662">
        <ele>213</ele>
        <time>2018-11-28T14:10:25Z</time>
      </trkpt>
      <trkpt lat="47.68913" lon="6.03665">
        <ele>212</ele>
        <time>2018-11-28T14:10:27Z</time>
      </trkpt>
      <trkpt lat="47.6892" lon="6.03668">
        <ele>211</ele>
        <time>2018-11-28T14:10:29Z</time>
      </trkpt>
      <trkpt lat="47.68926" lon="6.03671">
        <ele>211</ele>
        <time>2018-11-28T14:10:31Z</time>
      </trkpt>
      <trkpt lat="47.68933" lon="6.03674">
        <ele>211</ele>
        <time>2018-11-28T14:10:33Z</time>
      </trkpt>
      <trkpt lat="47.68939" lon="6.03677">
        <ele>211</ele>
        <time>2018-11-28T14:10:35Z</time>
      </trkpt>
      <trkpt lat="47.68946" lon="6.03681">
        <ele>211</ele>
        <time>2018-11-28T14:10:37Z</time>
      </trkpt>
      <trkpt lat="47.68953" lon="6.03685">
        <ele>211</ele>
        <time>2018-11-28T14:10:39Z</time>
      </trkpt>
      <trkpt lat="47.68959" lon="6.03689">
        <ele>211</ele>
        <time>2018-11-28T14:10:41Z</time>
      </trkpt>
      <trkpt lat="47.68965" lon="6.03693">
        <ele>211</ele>
        <time>2018-11-28T14:10:43Z</time>
      </trkpt>
      <trkpt lat="47.6897" lon="6.03697">
        <ele>211</ele>
        <time>2018-11-28T14:10:45Z</time>
      </trkpt>
      <trkpt lat="47.68977" lon="6.03702">
        <ele>211</ele>
        <time>2018-11-28T14:10:47Z</time>
      </trkpt>
      <trkpt lat="47.68983" lon="6.03707">
        <ele>211</ele>
        <time>2018-11-28T14:10:49Z</time>
      </trkpt>
      <trkpt lat="47.68988" lon="6.03711">
        <ele>211</ele>
        <time>2018-11-28T14:10:51Z</time>
      </trkpt>
      <trkpt lat="47.68994" lon="6.03715">
        <ele>211</ele>
        <time>2018-11-28T14:10:53Z</time>
      </trkpt>
      <trkpt lat="47.68998" lon="6.03719">
        <ele>211</ele>
        <time>2018-11-28T14:10:55Z</time>
      </trkpt>
      <trkpt lat="47.69004" lon="6.03723">
        <ele>212</ele>
        <time>2018-11-28T14:10:57Z</time>
      </trkpt>
      <trkpt lat="47.69009" lon="6.03727">
        <ele>211</ele>
        <time>2018-11-28T14:10:59Z</time>
      </trkpt>
      <trkpt lat="47.69015" lon="6.0373">
        <ele>211</ele>
        <time>2018-11-28T14:11:01Z</time>
      </trkpt>
      <trkpt lat="47.69021" lon="6.03735">
        <ele>211</ele>
        <time>2018-11-28T14:11:03Z</time>
      </trkpt>
      <trkpt lat="47.69026" lon="6.03739">
        <ele>211</ele>
        <time>2018-11-28T14:11:05Z</time>
      </trkpt>
      <trkpt lat="47.69032" lon="6.03743">
        <ele>211</ele>
        <time>2018-11-28T14:11:07Z</time>
      </trkpt>
      <trkpt lat="47.69038" lon="6.03747">
        <ele>211</ele>
        <time>2018-11-28T14:11:09Z</time>
      </trkpt>
      <trkpt lat="47.69043" lon="6.03751">
        <ele>208</ele>
        <time>2018-11-28T14:11:11Z</time>
      </trkpt>
      <trkpt lat="47.69049" lon="6.03755">
        <ele>208</ele>
        <time>2018-11-28T14:11:13Z</time>
      </trkpt>
      <trkpt lat="47.69055" lon="6.0376">
        <ele>208</ele>
        <time>2018-11-28T14:11:15Z</time>
      </trkpt>
      <trkpt lat="47.69061" lon="6.03765">
        <ele>208</ele>
        <time>2018-11-28T14:11:17Z</time>
      </trkpt>
      <trkpt lat="47.69066" lon="6.03769">
        <ele>208</ele>
        <time>2018-11-28T14:11:19Z</time>
      </trkpt>
      <trkpt lat="47.6907" lon="6.03774">
        <ele>208</ele>
        <time>2018-11-28T14:11:21Z</time>
      </trkpt>
      <trkpt lat="47.69075" lon="6.03781">
        <ele>208</ele>
        <time>2018-11-28T14:11:24Z</time>
      </trkpt>
      <trkpt lat="47.69078" lon="6.03786">
        <ele>208</ele>
        <time>2018-11-28T14:11:27Z</time>
      </trkpt>
      <trkpt lat="47.69083" lon="6.03788">
        <ele>208</ele>
        <time>2018-11-28T14:11:30Z</time>
      </trkpt>
      <trkpt lat="47.69088" lon="6.0379">
        <ele>208</ele>
        <time>2018-11-28T14:11:34Z</time>
      </trkpt>
      <trkpt lat="47.69092" lon="6.03795">
        <ele>208</ele>
        <time>2018-11-28T14:11:43Z</time>
      </trkpt>
      <trkpt lat="47.69092" lon="6.03802">
        <ele>208</ele>
        <time>2018-11-28T14:11:57Z</time>
      </trkpt>
      <trkpt lat="47.69092" lon="6.03809">
        <ele>207</ele>
        <time>2018-11-28T14:12:07Z</time>
      </trkpt>
      <trkpt lat="47.69089" lon="6.03817">
        <ele>207</ele>
        <time>2018-11-28T14:12:11Z</time>
      </trkpt>
      <trkpt lat="47.69087" lon="6.03823">
        <ele>207</ele>
        <time>2018-11-28T14:12:14Z</time>
      </trkpt>
      <trkpt lat="47.69084" lon="6.03829">
        <ele>206</ele>
        <time>2018-11-28T14:12:16Z</time>
      </trkpt>
      <trkpt lat="47.69081" lon="6.03836">
        <ele>206</ele>
        <time>2018-11-28T14:12:18Z</time>
      </trkpt>
      <trkpt lat="47.69078" lon="6.03844">
        <ele>206</ele>
        <time>2018-11-28T14:12:20Z</time>
      </trkpt>
      <trkpt lat="47.69074" lon="6.03853">
        <ele>206</ele>
        <time>2018-11-28T14:12:22Z</time>
      </trkpt>
      <trkpt lat="47.69071" lon="6.0386">
        <ele>206</ele>
        <time>2018-11-28T14:12:24Z</time>
      </trkpt>
      <trkpt lat="47.69068" lon="6.03868">
        <ele>206</ele>
        <time>2018-11-28T14:12:26Z</time>
      </trkpt>
      <trkpt lat="47.69064" lon="6.03877">
        <ele>205</ele>
        <time>2018-11-28T14:12:28Z</time>
      </trkpt>
      <trkpt lat="47.6906" lon="6.03886">
        <ele>205</ele>
        <time>2018-11-28T14:12:30Z</time>
      </trkpt>
      <trkpt lat="47.69057" lon="6.03895">
        <ele>205</ele>
        <time>2018-11-28T14:12:32Z</time>
      </trkpt>
      <trkpt lat="47.69053" lon="6.03903">
        <ele>205</ele>
        <time>2018-11-28T14:12:34Z</time>
      </trkpt>
      <trkpt lat="47.69049" lon="6.03912">
        <ele>205</ele>
        <time>2018-11-28T14:12:36Z</time>
      </trkpt>
      <trkpt lat="47.69045" lon="6.03923">
        <ele>206</ele>
        <time>2018-11-28T14:12:38Z</time>
      </trkpt>
      <trkpt lat="47.69041" lon="6.03934">
        <ele>206</ele>
        <time>2018-11-28T14:12:40Z</time>
      </trkpt>
      <trkpt lat="47.69036" lon="6.03946">
        <ele>207</ele>
        <time>2018-11-28T14:12:41Z</time>
      </trkpt>
      <trkpt lat="47.69034" lon="6.03952">
        <ele>207</ele>
        <time>2018-11-28T14:12:42Z</time>
      </trkpt>
      <trkpt lat="47.69031" lon="6.03959">
        <ele>207</ele>
        <time>2018-11-28T14:12:43Z</time>
      </trkpt>
      <trkpt lat="47.69028" lon="6.03965">
        <ele>207</ele>
        <time>2018-11-28T14:12:44Z</time>
      </trkpt>
      <trkpt lat="47.69025" lon="6.03972">
        <ele>207</ele>
        <time>2018-11-28T14:12:45Z</time>
      </trkpt>
      <trkpt lat="47.69023" lon="6.03978">
        <ele>207</ele>
        <time>2018-11-28T14:12:46Z</time>
      </trkpt>
      <trkpt lat="47.6902" lon="6.03985">
        <ele>208</ele>
        <time>2018-11-28T14:12:47Z</time>
      </trkpt>
      <trkpt lat="47.69018" lon="6.03991">
        <ele>208</ele>
        <time>2018-11-28T14:12:48Z</time>
      </trkpt>
      <trkpt lat="47.69015" lon="6.03998">
        <ele>208</ele>
        <time>2018-11-28T14:12:49Z</time>
      </trkpt>
      <trkpt lat="47.69012" lon="6.04004">
        <ele>209</ele>
        <time>2018-11-28T14:12:50Z</time>
      </trkpt>
      <trkpt lat="47.69009" lon="6.0401">
        <ele>209</ele>
        <time>2018-11-28T14:12:51Z</time>
      </trkpt>
      <trkpt lat="47.69007" lon="6.04017">
        <ele>209</ele>
        <time>2018-11-28T14:12:52Z</time>
      </trkpt>
      <trkpt lat="47.69004" lon="6.04023">
        <ele>209</ele>
        <time>2018-11-28T14:12:53Z</time>
      </trkpt>
      <trkpt lat="47.69001" lon="6.0403">
        <ele>209</ele>
        <time>2018-11-28T14:12:54Z</time>
      </trkpt>
      <trkpt lat="47.68999" lon="6.04036">
        <ele>209</ele>
        <time>2018-11-28T14:12:55Z</time>
      </trkpt>
      <trkpt lat="47.68996" lon="6.04043">
        <ele>209</ele>
        <time>2018-11-28T14:12:56Z</time>
      </trkpt>
      <trkpt lat="47.68993" lon="6.0405">
        <ele>209</ele>
        <time>2018-11-28T14:12:57Z</time>
      </trkpt>
      <trkpt lat="47.6899" lon="6.04057">
        <ele>209</ele>
        <time>2018-11-28T14:12:58Z</time>
      </trkpt>
      <trkpt lat="47.68987" lon="6.04064">
        <ele>209</ele>
        <time>2018-11-28T14:12:59Z</time>
      </trkpt>
      <trkpt lat="47.68985" lon="6.04071">
        <ele>209</ele>
        <time>2018-11-28T14:13:00Z</time>
      </trkpt>
      <trkpt lat="47.68982" lon="6.04077">
        <ele>209</ele>
        <time>2018-11-28T14:13:01Z</time>
      </trkpt>
      <trkpt lat="47.6898" lon="6.04084">
        <ele>210</ele>
        <time>2018-11-28T14:13:02Z</time>
      </trkpt>
      <trkpt lat="47.68977" lon="6.0409">
        <ele>210</ele>
        <time>2018-11-28T14:13:03Z</time>
      </trkpt>
      <trkpt lat="47.68974" lon="6.04097">
        <ele>210</ele>
        <time>2018-11-28T14:13:04Z</time>
      </trkpt>
      <trkpt lat="47.68972" lon="6.04103">
        <ele>209</ele>
        <time>2018-11-28T14:13:05Z</time>
      </trkpt>
      <trkpt lat="47.6897" lon="6.04109">
        <ele>209</ele>
        <time>2018-11-28T14:13:06Z</time>
      </trkpt>
      <trkpt lat="47.68966" lon="6.0412">
        <ele>209</ele>
        <time>2018-11-28T14:13:08Z</time>
      </trkpt>
      <trkpt lat="47.68962" lon="6.0413">
        <ele>210</ele>
        <time>2018-11-28T14:13:10Z</time>
      </trkpt>
      <trkpt lat="47.68959" lon="6.0414">
        <ele>210</ele>
        <time>2018-11-28T14:13:12Z</time>
      </trkpt>
      <trkpt lat="47.68954" lon="6.0415">
        <ele>210</ele>
        <time>2018-11-28T14:13:14Z</time>
      </trkpt>
      <trkpt lat="47.68951" lon="6.04156">
        <ele>210</ele>
        <time>2018-11-28T14:13:15Z</time>
      </trkpt>
      <trkpt lat="47.68949" lon="6.04162">
        <ele>210</ele>
        <time>2018-11-28T14:13:16Z</time>
      </trkpt>
      <trkpt lat="47.68944" lon="6.04173">
        <ele>211</ele>
        <time>2018-11-28T14:13:18Z</time>
      </trkpt>
      <trkpt lat="47.6894" lon="6.04183">
        <ele>211</ele>
        <time>2018-11-28T14:13:20Z</time>
      </trkpt>
      <trkpt lat="47.68935" lon="6.04192">
        <ele>211</ele>
        <time>2018-11-28T14:13:22Z</time>
      </trkpt>
      <trkpt lat="47.68931" lon="6.04201">
        <ele>211</ele>
        <time>2018-11-28T14:13:24Z</time>
      </trkpt>
      <trkpt lat="47.68928" lon="6.04209">
        <ele>211</ele>
        <time>2018-11-28T14:13:26Z</time>
      </trkpt>
      <trkpt lat="47.68924" lon="6.04217">
        <ele>211</ele>
        <time>2018-11-28T14:13:28Z</time>
      </trkpt>
      <trkpt lat="47.68922" lon="6.04223">
        <ele>211</ele>
        <time>2018-11-28T14:13:30Z</time>
      </trkpt>
      <trkpt lat="47.68919" lon="6.04231">
        <ele>211</ele>
        <time>2018-11-28T14:13:33Z</time>
      </trkpt>
      <trkpt lat="47.68916" lon="6.04237">
        <ele>212</ele>
        <time>2018-11-28T14:13:35Z</time>
      </trkpt>
      <trkpt lat="47.68914" lon="6.04243">
        <ele>212</ele>
        <time>2018-11-28T14:13:37Z</time>
      </trkpt>
      <trkpt lat="47.68911" lon="6.0425">
        <ele>213</ele>
        <time>2018-11-28T14:13:39Z</time>
      </trkpt>
      <trkpt lat="47.68904" lon="6.04251">
        <ele>213</ele>
        <time>2018-11-28T14:13:42Z</time>
      </trkpt>
      <trkpt lat="47.68898" lon="6.04248">
        <ele>211</ele>
        <time>2018-11-28T14:13:44Z</time>
      </trkpt>
      <trkpt lat="47.68889" lon="6.04243">
        <ele>211</ele>
        <time>2018-11-28T14:13:46Z</time>
      </trkpt>
      <trkpt lat="47.68879" lon="6.04238">
        <ele>211</ele>
        <time>2018-11-28T14:13:47Z</time>
      </trkpt>
      <trkpt lat="47.68873" lon="6.04236">
        <ele>211</ele>
        <time>2018-11-28T14:13:48Z</time>
      </trkpt>
      <trkpt lat="47.68863" lon="6.04236">
        <ele>211</ele>
        <time>2018-11-28T14:13:50Z</time>
      </trkpt>
      <trkpt lat="47.68857" lon="6.04235">
        <ele>211</ele>
        <time>2018-11-28T14:13:51Z</time>
      </trkpt>
      <trkpt lat="47.68851" lon="6.04235">
        <ele>211</ele>
        <time>2018-11-28T14:13:52Z</time>
      </trkpt>
      <trkpt lat="47.68846" lon="6.04234">
        <ele>211</ele>
        <time>2018-11-28T14:13:53Z</time>
      </trkpt>
      <trkpt lat="47.6884" lon="6.04235">
        <ele>211</ele>
        <time>2018-11-28T14:13:54Z</time>
      </trkpt>
      <trkpt lat="47.68835" lon="6.04236">
        <ele>211</ele>
        <time>2018-11-28T14:13:55Z</time>
      </trkpt>
      <trkpt lat="47.6883" lon="6.04236">
        <ele>211</ele>
        <time>2018-11-28T14:13:56Z</time>
      </trkpt>
      <trkpt lat="47.68825" lon="6.04236">
        <ele>211</ele>
        <time>2018-11-28T14:13:57Z</time>
      </trkpt>
      <trkpt lat="47.6882" lon="6.04236">
        <ele>211</ele>
        <time>2018-11-28T14:13:58Z</time>
      </trkpt>
      <trkpt lat="47.68816" lon="6.04236">
        <ele>211</ele>
        <time>2018-11-28T14:13:59Z</time>
      </trkpt>
      <trkpt lat="47.68808" lon="6.04233">
        <ele>211</ele>
        <time>2018-11-28T14:14:01Z</time>
      </trkpt>
      <trkpt lat="47.688" lon="6.04229">
        <ele>211</ele>
        <time>2018-11-28T14:14:03Z</time>
      </trkpt>
      <trkpt lat="47.68791" lon="6.04226">
        <ele>211</ele>
        <time>2018-11-28T14:14:05Z</time>
      </trkpt>
      <trkpt lat="47.68783" lon="6.04225">
        <ele>211</ele>
        <time>2018-11-28T14:14:07Z</time>
      </trkpt>
      <trkpt lat="47.68775" lon="6.04225">
        <ele>211</ele>
        <time>2018-11-28T14:14:09Z</time>
      </trkpt>
      <trkpt lat="47.68767" lon="6.04225">
        <ele>211</ele>
        <time>2018-11-28T14:14:11Z</time>
      </trkpt>
      <trkpt lat="47.68759" lon="6.04224">
        <ele>211</ele>
        <time>2018-11-28T14:14:13Z</time>
      </trkpt>
      <trkpt lat="47.68751" lon="6.04223">
        <ele>211</ele>
        <time>2018-11-28T14:14:15Z</time>
      </trkpt>
      <trkpt lat="47.68744" lon="6.04222">
        <ele>211</ele>
        <time>2018-11-28T14:14:17Z</time>
      </trkpt>
      <trkpt lat="47.68735" lon="6.0422">
        <ele>211</ele>
        <time>2018-11-28T14:14:19Z</time>
      </trkpt>
      <trkpt lat="47.68727" lon="6.04219">
        <ele>211</ele>
        <time>2018-11-28T14:14:21Z</time>
      </trkpt>
      <trkpt lat="47.68719" lon="6.04218">
        <ele>211</ele>
        <time>2018-11-28T14:14:23Z</time>
      </trkpt>
      <trkpt lat="47.68711" lon="6.04217">
        <ele>211</ele>
        <time>2018-11-28T14:14:25Z</time>
      </trkpt>
      <trkpt lat="47.68703" lon="6.04215">
        <ele>211</ele>
        <time>2018-11-28T14:14:27Z</time>
      </trkpt>
      <trkpt lat="47.68695" lon="6.04213">
        <ele>211</ele>
        <time>2018-11-28T14:14:29Z</time>
      </trkpt>
      <trkpt lat="47.68687" lon="6.04211">
        <ele>211</ele>
        <time>2018-11-28T14:14:31Z</time>
      </trkpt>
      <trkpt lat="47.68678" lon="6.04209">
        <ele>211</ele>
        <time>2018-11-28T14:14:33Z</time>
      </trkpt>
      <trkpt lat="47.6867" lon="6.04207">
        <ele>211</ele>
        <time>2018-11-28T14:14:35Z</time>
      </trkpt>
      <trkpt lat="47.68663" lon="6.04205">
        <ele>211</ele>
        <time>2018-11-28T14:14:37Z</time>
      </trkpt>
      <trkpt lat="47.68655" lon="6.04203">
        <ele>211</ele>
        <time>2018-11-28T14:14:39Z</time>
      </trkpt>
      <trkpt lat="47.68648" lon="6.04201">
        <ele>211</ele>
        <time>2018-11-28T14:14:41Z</time>
      </trkpt>
      <trkpt lat="47.6864" lon="6.04199">
        <ele>211</ele>
        <time>2018-11-28T14:14:43Z</time>
      </trkpt>
      <trkpt lat="47.68633" lon="6.04197">
        <ele>211</ele>
        <time>2018-11-28T14:14:45Z</time>
      </trkpt>
      <trkpt lat="47.68626" lon="6.04196">
        <ele>211</ele>
        <time>2018-11-28T14:14:47Z</time>
      </trkpt>
      <trkpt lat="47.68618" lon="6.04194">
        <ele>211</ele>
        <time>2018-11-28T14:14:49Z</time>
      </trkpt>
      <trkpt lat="47.68611" lon="6.04192">
        <ele>211</ele>
        <time>2018-11-28T14:14:51Z</time>
      </trkpt>
      <trkpt lat="47.68604" lon="6.04191">
        <ele>210</ele>
        <time>2018-11-28T14:14:53Z</time>
      </trkpt>
      <trkpt lat="47.68599" lon="6.04191">
        <ele>210</ele>
        <time>2018-11-28T14:14:55Z</time>
      </trkpt>
      <trkpt lat="47.68593" lon="6.04189">
        <ele>210</ele>
        <time>2018-11-28T14:14:57Z</time>
      </trkpt>
      <trkpt lat="47.68587" lon="6.04187">
        <ele>210</ele>
        <time>2018-11-28T14:14:59Z</time>
      </trkpt>
      <trkpt lat="47.68581" lon="6.04185">
        <ele>209</ele>
        <time>2018-11-28T14:15:01Z</time>
      </trkpt>
      <trkpt lat="47.68574" lon="6.04183">
        <ele>209</ele>
        <time>2018-11-28T14:15:03Z</time>
      </trkpt>
      <trkpt lat="47.68567" lon="6.04181">
        <ele>209</ele>
        <time>2018-11-28T14:15:05Z</time>
      </trkpt>
      <trkpt lat="47.6856" lon="6.04179">
        <ele>209</ele>
        <time>2018-11-28T14:15:07Z</time>
      </trkpt>
      <trkpt lat="47.68554" lon="6.04177">
        <ele>209</ele>
        <time>2018-11-28T14:15:09Z</time>
      </trkpt>
      <trkpt lat="47.68548" lon="6.04175">
        <ele>209</ele>
        <time>2018-11-28T14:15:11Z</time>
      </trkpt>
      <trkpt lat="47.68542" lon="6.04173">
        <ele>209</ele>
        <time>2018-11-28T14:15:13Z</time>
      </trkpt>
      <trkpt lat="47.68536" lon="6.04172">
        <ele>209</ele>
        <time>2018-11-28T14:15:15Z</time>
      </trkpt>
      <trkpt lat="47.68529" lon="6.0417">
        <ele>209</ele>
        <time>2018-11-28T14:15:17Z</time>
      </trkpt>
      <trkpt lat="47.68522" lon="6.04169">
        <ele>209</ele>
        <time>2018-11-28T14:15:19Z</time>
      </trkpt>
      <trkpt lat="47.68516" lon="6.04167">
        <ele>209</ele>
        <time>2018-11-28T14:15:21Z</time>
      </trkpt>
      <trkpt lat="47.68509" lon="6.04167">
        <ele>208</ele>
        <time>2018-11-28T14:15:23Z</time>
      </trkpt>
      <trkpt lat="47.68503" lon="6.04166">
        <ele>208</ele>
        <time>2018-11-28T14:15:25Z</time>
      </trkpt>
      <trkpt lat="47.68495" lon="6.04166">
        <ele>208</ele>
        <time>2018-11-28T14:15:27Z</time>
      </trkpt>
      <trkpt lat="47.68489" lon="6.04165">
        <ele>208</ele>
        <time>2018-11-28T14:15:29Z</time>
      </trkpt>
      <trkpt lat="47.68482" lon="6.04165">
        <ele>207</ele>
        <time>2018-11-28T14:15:31Z</time>
      </trkpt>
      <trkpt lat="47.68475" lon="6.04164">
        <ele>207</ele>
        <time>2018-11-28T14:15:33Z</time>
      </trkpt>
      <trkpt lat="47.68468" lon="6.04162">
        <ele>207</ele>
        <time>2018-11-28T14:15:35Z</time>
      </trkpt>
      <trkpt lat="47.68461" lon="6.04161">
        <ele>207</ele>
        <time>2018-11-28T14:15:37Z</time>
      </trkpt>
      <trkpt lat="47.68454" lon="6.0416">
        <ele>207</ele>
        <time>2018-11-28T14:15:39Z</time>
      </trkpt>
      <trkpt lat="47.68448" lon="6.04159">
        <ele>207</ele>
        <time>2018-11-28T14:15:41Z</time>
      </trkpt>
      <trkpt lat="47.68441" lon="6.04158">
        <ele>207</ele>
        <time>2018-11-28T14:15:43Z</time>
      </trkpt>
      <trkpt lat="47.68434" lon="6.04158">
        <ele>206</ele>
        <time>2018-11-28T14:15:45Z</time>
      </trkpt>
      <trkpt lat="47.68427" lon="6.04157">
        <ele>206</ele>
        <time>2018-11-28T14:15:47Z</time>
      </trkpt>
      <trkpt lat="47.68422" lon="6.04156">
        <ele>206</ele>
        <time>2018-11-28T14:15:49Z</time>
      </trkpt>
      <trkpt lat="47.68415" lon="6.04155">
        <ele>206</ele>
        <time>2018-11-28T14:15:51Z</time>
      </trkpt>
      <trkpt lat="47.68409" lon="6.04155">
        <ele>206</ele>
        <time>2018-11-28T14:15:53Z</time>
      </trkpt>
      <trkpt lat="47.68402" lon="6.04155">
        <ele>206</ele>
        <time>2018-11-28T14:15:55Z</time>
      </trkpt>
      <trkpt lat="47.68394" lon="6.04156">
        <ele>206</ele>
        <time>2018-11-28T14:15:57Z</time>
      </trkpt>
      <trkpt lat="47.68387" lon="6.04155">
        <ele>206</ele>
        <time>2018-11-28T14:15:59Z</time>
      </trkpt>
      <trkpt lat="47.6838" lon="6.04155">
        <ele>206</ele>
        <time>2018-11-28T14:16:01Z</time>
      </trkpt>
      <trkpt lat="47.68374" lon="6.04154">
        <ele>206</ele>
        <time>2018-11-28T14:16:03Z</time>
      </trkpt>
      <trkpt lat="47.68368" lon="6.04154">
        <ele>206</ele>
        <time>2018-11-28T14:16:05Z</time>
      </trkpt>
      <trkpt lat="47.68362" lon="6.04156">
        <ele>206</ele>
        <time>2018-11-28T14:16:07Z</time>
      </trkpt>
      <trkpt lat="47.68359" lon="6.04163">
        <ele>206</ele>
        <time>2018-11-28T14:16:09Z</time>
      </trkpt>
      <trkpt lat="47.68358" lon="6.04172">
        <ele>207</ele>
        <time>2018-11-28T14:16:11Z</time>
      </trkpt>
      <trkpt lat="47.68359" lon="6.04182">
        <ele>207</ele>
        <time>2018-11-28T14:16:13Z</time>
      </trkpt>
      <trkpt lat="47.68359" lon="6.04191">
        <ele>207</ele>
        <time>2018-11-28T14:16:15Z</time>
      </trkpt>
      <trkpt lat="47.68359" lon="6.04201">
        <ele>207</ele>
        <time>2018-11-28T14:16:17Z</time>
      </trkpt>
      <trkpt lat="47.6836" lon="6.04211">
        <ele>208</ele>
        <time>2018-11-28T14:16:19Z</time>
      </trkpt>
      <trkpt lat="47.68362" lon="6.04221">
        <ele>208</ele>
        <time>2018-11-28T14:16:21Z</time>
      </trkpt>
      <trkpt lat="47.68365" lon="6.04229">
        <ele>208</ele>
        <time>2018-11-28T14:16:23Z</time>
      </trkpt>
      <trkpt lat="47.68368" lon="6.04238">
        <ele>208</ele>
        <time>2018-11-28T14:16:25Z</time>
      </trkpt>
      <trkpt lat="47.68373" lon="6.04244">
        <ele>208</ele>
        <time>2018-11-28T14:16:27Z</time>
      </trkpt>
      <trkpt lat="47.68378" lon="6.04248">
        <ele>208</ele>
        <time>2018-11-28T14:16:29Z</time>
      </trkpt>
      <trkpt lat="47.68384" lon="6.04251">
        <ele>209</ele>
        <time>2018-11-28T14:16:31Z</time>
      </trkpt>
      <trkpt lat="47.68388" lon="6.04257">
        <ele>209</ele>
        <time>2018-11-28T14:16:33Z</time>
      </trkpt>
      <trkpt lat="47.68391" lon="6.04263">
        <ele>209</ele>
        <time>2018-11-28T14:16:35Z</time>
      </trkpt>
      <trkpt lat="47.68393" lon="6.0427">
        <ele>209</ele>
        <time>2018-11-28T14:16:37Z</time>
      </trkpt>
      <trkpt lat="47.68395" lon="6.04279">
        <ele>209</ele>
        <time>2018-11-28T14:16:40Z</time>
      </trkpt>
      <trkpt lat="47.68395" lon="6.04287">
        <ele>210</ele>
        <time>2018-11-28T14:16:42Z</time>
      </trkpt>
      <trkpt lat="47.68395" lon="6.04295">
        <ele>210</ele>
        <time>2018-11-28T14:16:44Z</time>
      </trkpt>
      <trkpt lat="47.68396" lon="6.04303">
        <ele>210</ele>
        <time>2018-11-28T14:16:46Z</time>
      </trkpt>
      <trkpt lat="47.68396" lon="6.0431">
        <ele>210</ele>
        <time>2018-11-28T14:16:48Z</time>
      </trkpt>
      <trkpt lat="47.68397" lon="6.04317">
        <ele>210</ele>
        <time>2018-11-28T14:16:50Z</time>
      </trkpt>
      <trkpt lat="47.68396" lon="6.04324">
        <ele>210</ele>
        <time>2018-11-28T14:16:52Z</time>
      </trkpt>
      <trkpt lat="47.68394" lon="6.0433">
        <ele>210</ele>
        <time>2018-11-28T14:16:54Z</time>
      </trkpt>
      <trkpt lat="47.68392" lon="6.04337">
        <ele>211</ele>
        <time>2018-11-28T14:16:56Z</time>
      </trkpt>
      <trkpt lat="47.68392" lon="6.04344">
        <ele>211</ele>
        <time>2018-11-28T14:16:58Z</time>
      </trkpt>
      <trkpt lat="47.68392" lon="6.04351">
        <ele>211</ele>
        <time>2018-11-28T14:17:00Z</time>
      </trkpt>
      <trkpt lat="47.68392" lon="6.04358">
        <ele>211</ele>
        <time>2018-11-28T14:17:02Z</time>
      </trkpt>
      <trkpt lat="47.68392" lon="6.04366">
        <ele>211</ele>
        <time>2018-11-28T14:17:04Z</time>
      </trkpt>
      <trkpt lat="47.68393" lon="6.04373">
        <ele>211</ele>
        <time>2018-11-28T14:17:06Z</time>
      </trkpt>
      <trkpt lat="47.68393" lon="6.04381">
        <ele>211</ele>
        <time>2018-11-28T14:17:08Z</time>
      </trkpt>
      <trkpt lat="47.68393" lon="6.04388">
        <ele>212</ele>
        <time>2018-11-28T14:17:10Z</time>
      </trkpt>
      <trkpt lat="47.68393" lon="6.04396">
        <ele>212</ele>
        <time>2018-11-28T14:17:12Z</time>
      </trkpt>
      <trkpt lat="47.68394" lon="6.04405">
        <ele>212</ele>
        <time>2018-11-28T14:17:15Z</time>
      </trkpt>
      <trkpt lat="47.68395" lon="6.04415">
        <ele>212</ele>
        <time>2018-11-28T14:17:18Z</time>
      </trkpt>
      <trkpt lat="47.68396" lon="6.04422">
        <ele>213</ele>
        <time>2018-11-28T14:17:20Z</time>
      </trkpt>
      <trkpt lat="47.68399" lon="6.04431">
        <ele>213</ele>
        <time>2018-11-28T14:17:23Z</time>
      </trkpt>
      <trkpt lat="47.68404" lon="6.04436">
        <ele>213</ele>
        <time>2018-11-28T14:17:26Z</time>
      </trkpt>
      <trkpt lat="47.6841" lon="6.04437">
        <ele>213</ele>
        <time>2018-11-28T14:17:29Z</time>
      </trkpt>
      <trkpt lat="47.68417" lon="6.04437">
        <ele>213</ele>
        <time>2018-11-28T14:17:32Z</time>
      </trkpt>
      <trkpt lat="47.68423" lon="6.04437">
        <ele>215</ele>
        <time>2018-11-28T14:17:35Z</time>
      </trkpt>
      <trkpt lat="47.68428" lon="6.04437">
        <ele>215</ele>
        <time>2018-11-28T14:17:38Z</time>
      </trkpt>
      <trkpt lat="47.68433" lon="6.04437">
        <ele>215</ele>
        <time>2018-11-28T14:17:41Z</time>
      </trkpt>
      <trkpt lat="47.68439" lon="6.04437">
        <ele>215</ele>
        <time>2018-11-28T14:17:44Z</time>
      </trkpt>
      <trkpt lat="47.68445" lon="6.04437">
        <ele>216</ele>
        <time>2018-11-28T14:17:47Z</time>
      </trkpt>
      <trkpt lat="47.6845" lon="6.04437">
        <ele>216</ele>
        <time>2018-11-28T14:17:50Z</time>
      </trkpt>
      <trkpt lat="47.68456" lon="6.04438">
        <ele>216</ele>
        <time>2018-11-28T14:17:53Z</time>
      </trkpt>
      <trkpt lat="47.68462" lon="6.04438">
        <ele>216</ele>
        <time>2018-11-28T14:17:56Z</time>
      </trkpt>
      <trkpt lat="47.68467" lon="6.04438">
        <ele>216</ele>
        <time>2018-11-28T14:17:59Z</time>
      </trkpt>
      <trkpt lat="47.68472" lon="6.04438">
        <ele>216</ele>
        <time>2018-11-28T14:18:02Z</time>
      </trkpt>
      <trkpt lat="47.68477" lon="6.04438">
        <ele>216</ele>
        <time>2018-11-28T14:18:05Z</time>
      </trkpt>
      <trkpt lat="47.68482" lon="6.04438">
        <ele>216</ele>
        <time>2018-11-28T14:18:08Z</time>
      </trkpt>
      <trkpt lat="47.68488" lon="6.04439">
        <ele>217</ele>
        <time>2018-11-28T14:18:12Z</time>
      </trkpt>
      <trkpt lat="47.68492" lon="6.0444">
        <ele>217</ele>
        <time>2018-11-28T14:18:15Z</time>
      </trkpt>
      <trkpt lat="47.68498" lon="6.04442">
        <ele>217</ele>
        <time>2018-11-28T14:18:18Z</time>
      </trkpt>
      <trkpt lat="47.68503" lon="6.04444">
        <ele>219</ele>
        <time>2018-11-28T14:18:21Z</time>
      </trkpt>
      <trkpt lat="47.68508" lon="6.04446">
        <ele>219</ele>
        <time>2018-11-28T14:18:24Z</time>
      </trkpt>
      <trkpt lat="47.68513" lon="6.0445">
        <ele>219</ele>
        <time>2018-11-28T14:18:27Z</time>
      </trkpt>
      <trkpt lat="47.68519" lon="6.04453">
        <ele>219</ele>
        <time>2018-11-28T14:18:30Z</time>
      </trkpt>
      <trkpt lat="47.68525" lon="6.04457">
        <ele>220</ele>
        <time>2018-11-28T14:18:33Z</time>
      </trkpt>
      <trkpt lat="47.6853" lon="6.0446">
        <ele>220</ele>
        <time>2018-11-28T14:18:36Z</time>
      </trkpt>
      <trkpt lat="47.68535" lon="6.04464">
        <ele>220</ele>
        <time>2018-11-28T14:18:39Z</time>
      </trkpt>
      <trkpt lat="47.6854" lon="6.04467">
        <ele>220</ele>
        <time>2018-11-28T14:18:42Z</time>
      </trkpt>
      <trkpt lat="47.68545" lon="6.04471">
        <ele>220</ele>
        <time>2018-11-28T14:18:45Z</time>
      </trkpt>
      <trkpt lat="47.6855" lon="6.04475">
        <ele>221</ele>
        <time>2018-11-28T14:18:48Z</time>
      </trkpt>
      <trkpt lat="47.68555" lon="6.04478">
        <ele>221</ele>
        <time>2018-11-28T14:18:51Z</time>
      </trkpt>
      <trkpt lat="47.6856" lon="6.04482">
        <ele>221</ele>
        <time>2018-11-28T14:18:54Z</time>
      </trkpt>
      <trkpt lat="47.68565" lon="6.04485">
        <ele>222</ele>
        <time>2018-11-28T14:18:57Z</time>
      </trkpt>
      <trkpt lat="47.6857" lon="6.04488">
        <ele>222</ele>
        <time>2018-11-28T14:19:00Z</time>
      </trkpt>
      <trkpt lat="47.68574" lon="6.04491">
        <ele>222</ele>
        <time>2018-11-28T14:19:03Z</time>
      </trkpt>
      <trkpt lat="47.68579" lon="6.04495">
        <ele>223</ele>
        <time>2018-11-28T14:19:06Z</time>
      </trkpt>
      <trkpt lat="47.68583" lon="6.04498">
        <ele>224</ele>
        <time>2018-11-28T14:19:09Z</time>
      </trkpt>
      <trkpt lat="47.68588" lon="6.04501">
        <ele>225</ele>
        <time>2018-11-28T14:19:13Z</time>
      </trkpt>
      <trkpt lat="47.68593" lon="6.04505">
        <ele>226</ele>
        <time>2018-11-28T14:19:17Z</time>
      </trkpt>
      <trkpt lat="47.68598" lon="6.04509">
        <ele>227</ele>
        <time>2018-11-28T14:19:21Z</time>
      </trkpt>
      <trkpt lat="47.68603" lon="6.04513">
        <ele>227</ele>
        <time>2018-11-28T14:19:25Z</time>
      </trkpt>
      <trkpt lat="47.68608" lon="6.04517">
        <ele>228</ele>
        <time>2018-11-28T14:19:29Z</time>
      </trkpt>
      <trkpt lat="47.68612" lon="6.04519">
        <ele>228</ele>
        <time>2018-11-28T14:19:32Z</time>
      </trkpt>
      <trkpt lat="47.68618" lon="6.04523">
        <ele>228</ele>
        <time>2018-11-28T14:19:36Z</time>
      </trkpt>
      <trkpt lat="47.68621" lon="6.04527">
        <ele>229</ele>
        <time>2018-11-28T14:19:39Z</time>
      </trkpt>
      <trkpt lat="47.68625" lon="6.04531">
        <ele>229</ele>
        <time>2018-11-28T14:19:42Z</time>
      </trkpt>
      <trkpt lat="47.68629" lon="6.04537">
        <ele>229</ele>
        <time>2018-11-28T14:19:46Z</time>
      </trkpt>
      <trkpt lat="47.68626" lon="6.04543">
        <ele>229</ele>
        <time>2018-11-28T14:20:02Z</time>
      </trkpt>
      <trkpt lat="47.68626" lon="6.0455">
        <ele>229</ele>
        <time>2018-11-28T14:20:11Z</time>
      </trkpt>
    </trkseg>
  </trk>
</gpx>